# Wetter Temperatur Luftdruck Luftfeuchtigkeit Sichtweite Windgeschwindigkeit Windrichtung Zeit
1 Clouds 26 1007 88 10000 0.09 71 15:55 01.02.2023
2 Clouds 26 1009 87 10000 1.13 55 13:42 01.02.2023
3 Clouds 26 1010 86 10000 1.15 54 13:19 01.02.2023
4 Clouds 26 1010 86 10000 1.21 39 12:26 01.02.2023
5 Clouds 26 1009 86 10000 1.6 16 09:42 01.02.2023
6 Clouds 29 1008 75 10000 3.85 6 03:45 01.02.2023
7 Clouds 27 1010 79 10000 1.05 94 22:21 31.01.2023
8 Clouds 25 1009 82 10000 0.71 142 20:29 31.01.2023
9 Clouds 25 1008 80 10000 0.63 170 19:24 31.01.2023
10 Clouds 26 1007 76 10000 0.49 253 16:34 31.01.2023
11 Clouds 26 1007 75 10000 0.3 228 15:36 31.01.2023
12 Clouds 26 1008 75 10000 0.77 227 15:18 31.01.2023
13 Clouds 26 1010 77 10000 1.35 228 12:33 31.01.2023
14 Clouds 27 1009 78 10000 1.02 257 11:21 31.01.2023
15 Clouds 27 1009 78 10000 1.18 274 09:54 31.01.2023
16 Clouds 27 1009 77 10000 1.38 278 09:20 31.01.2023
17 Clouds 27 1009 77 10000 1.38 278 08:35 31.01.2023
18 Clouds 30 1006 68 10000 3.03 315 05:46 31.01.2023
19 Clouds 29 1009 67 10000 1.37 5 23:59 30.01.2023
20 Clouds 28 1009 70 10000 0.62 34 23:23 30.01.2023
21 Clouds 28 1009 70 10000 0.62 34 22:32 30.01.2023
22 Clouds 25 1009 82 10000 0.84 184 21:23 30.01.2023
23 Clouds 25 1009 82 10000 0.84 184 20:35 30.01.2023
24 Clouds 25 1007 86 10000 0.31 130 17:54 30.01.2023
25 Clouds 25 1007 88 10000 0.92 142 16:34 30.01.2023
26 Clouds 25 1009 89 10000 0.76 236 14:28 30.01.2023
27 Clouds 25 1010 89 10000 0.6 182 12:45 30.01.2023
28 Clouds 25 1009 90 10000 0.43 153 11:28 30.01.2023
29 Clouds 25 1009 90 10000 0.31 145 09:54 30.01.2023
30 Clouds 25 1008 90 10000 0.57 51 08:56 30.01.2023
31 Rain 27 1007 80 10000 1.63 323 06:55 30.01.2023
32 Clouds 27 1009 81 10000 2 16 01:39 30.01.2023
33 Clouds 26 1010 86 10000 0.74 356 23:35 29.01.2023
34 Clouds 25 1010 89 10000 2.23 359 22:37 29.01.2023
35 Clouds 25 1010 90 10000 1.51 356 21:40 29.01.2023
36 Clouds 25 1009 92 9909 2.43 21 20:36 29.01.2023
37 Clouds 25 1009 91 10000 2.27 23 19:34 29.01.2023
38 Clouds 25 1008 90 10000 2.11 25 18:44 29.01.2023
39 Clouds 25 1007 87 10000 1.74 41 17:31 29.01.2023
40 Clouds 25 1008 84 10000 0.85 114 16:20 29.01.2023
41 Rain 26 1008 84 10000 1.25 129 14:48 29.01.2023
42 Rain 26 1009 89 10000 2.13 86 13:26 29.01.2023
43 Rain 26 1009 89 10000 2.13 86 12:40 29.01.2023
44 Rain 26 1009 87 10000 1.43 91 12:21 29.01.2023
45 Rain 26 1009 87 10000 1.43 91 11:45 29.01.2023
46 Rain 26 1009 87 10000 1.11 99 11:25 29.01.2023
47 Rain 27 1008 86 3260 0.21 92 08:56 29.01.2023
48 Clouds 27 1006 85 10000 0.81 127 07:18 29.01.2023
49 Clouds 30 1008 69 10000 1.99 23 00:36 29.01.2023
50 Clouds 27 1009 84 10000 0.99 105 21:50 28.01.2023
51 Clouds 26 1007 87 10000 1.24 128 20:24 28.01.2023
52 Clouds 26 1007 87 10000 1.24 128 19:46 28.01.2023
53 Rain 26 1006 86 10000 0.56 109 18:21 28.01.2023
54 Clouds 26 1006 87 10000 0.72 119 16:59 28.01.2023
55 Clouds 26 1007 87 10000 0.81 120 16:20 28.01.2023
56 Clouds 26 1007 87 10000 0.81 120 15:38 28.01.2023
57 Clouds 26 1008 87 10000 1.02 119 13:57 28.01.2023
58 Clouds 26 1009 88 10000 0.87 108 12:48 28.01.2023
59 Clouds 26 1008 88 10000 1.38 122 11:25 28.01.2023
60 Rain 26 1008 88 10000 1.38 122 10:33 28.01.2023
61 Clouds 28 1004 82 10000 1.94 53 05:57 28.01.2023
62 Clouds 31 1006 66 10000 2.63 56 01:32 28.01.2023
63 Clouds 30 1008 69 10000 1.88 67 00:22 28.01.2023
64 Clouds 25 1008 84 10000 1.78 144 20:45 27.01.2023
65 Clouds 25 1005 86 10000 1.8 137 17:59 27.01.2023
66 Clouds 26 1005 86 10000 1.89 136 17:21 27.01.2023
67 Clouds 26 1005 86 10000 1.89 136 16:59 27.01.2023
68 Clouds 26 1005 86 10000 1.89 136 16:31 27.01.2023
69 Clouds 26 1007 87 10000 2.3 129 14:45 27.01.2023
70 Clouds 26 1008 87 10000 2.55 123 14:22 27.01.2023
71 Clouds 26 1009 87 10000 2.35 117 12:40 27.01.2023
72 Clouds 26 1008 86 10000 2.47 104 08:35 27.01.2023
73 Clouds 29 1008 75 10000 1.7 58 02:36 27.01.2023
74 Clouds 29 1010 73 10000 1.04 95 22:48 26.01.2023
75 Clouds 26 1010 84 10000 1.29 144 21:21 26.01.2023
76 Clouds 26 1010 84 10000 1.29 144 20:34 26.01.2023
77 Clouds 25 1007 87 10000 1.6 153 18:20 26.01.2023
78 Clouds 25 1007 88 10000 1.6 158 16:59 26.01.2023
79 Clouds 25 1007 89 10000 1.55 155 16:26 26.01.2023
80 Clouds 25 1007 89 10000 1.55 155 15:46 26.01.2023
81 Clouds 26 1008 88 10000 1.36 146 15:26 26.01.2023
82 Clouds 26 1009 88 10000 1.25 133 13:56 26.01.2023
83 Clouds 26 1010 88 10000 0.87 142 12:35 26.01.2023
84 Clouds 26 1010 86 10000 0.37 100 10:59 26.01.2023
85 Clouds 27 1009 86 10000 0.26 43 10:26 26.01.2023
86 Clouds 27 1009 86 10000 0.26 43 09:43 26.01.2023
87 Rain 28 1008 83 10000 1.41 40 08:25 26.01.2023
88 Clouds 29 1010 70 10000 1.33 82 23:58 25.01.2023
89 Clouds 29 1010 70 10000 1.33 82 23:37 25.01.2023
90 Clouds 26 1010 83 10000 1.35 135 21:54 25.01.2023
91 Clouds 25 1010 87 10000 1.68 138 21:20 25.01.2023
92 Clouds 25 1008 88 10000 1.81 146 18:31 25.01.2023
93 Rain 25 1008 88 10000 2.26 146 17:30 25.01.2023
94 Clouds 25 1008 89 10000 2.33 144 15:40 25.01.2023
95 Clouds 26 1010 88 10000 2.44 125 12:51 25.01.2023
96 Clouds 26 1010 87 10000 2.67 121 10:46 25.01.2023
97 Clouds 26 1009 86 10000 2.76 117 09:41 25.01.2023
98 Clouds 28 1007 81 6823 2.64 75 06:57 25.01.2023
99 Clouds 30 1009 63 10000 2.42 59 01:26 25.01.2023
100 Clouds 29 1009 68 10000 2.52 82 23:56 24.01.2023
101 Clouds 26 1009 85 10000 2.04 106 21:31 24.01.2023
102 Clouds 25 1008 88 10000 1.87 105 19:58 24.01.2023
103 Clouds 25 1007 89 10000 1.62 106 18:39 24.01.2023
104 Clouds 25 1007 91 10000 1.24 107 17:20 24.01.2023
105 Clouds 25 1007 91 10000 1.24 107 16:52 24.01.2023
106 Clouds 25 1008 92 10000 0.48 92 15:21 24.01.2023
107 Clouds 25 1010 93 10000 0.24 24 13:19 24.01.2023
108 Clouds 26 1009 89 10000 0.04 253 11:20 24.01.2023
109 Clouds 26 1009 89 10000 0.04 253 11:20 24.01.2023
110 Rain 26 1007 89 10000 1.01 326 08:22 24.01.2023
111 Rain 26 1007 89 10000 1.01 326 07:51 24.01.2023
112 Rain 26 1006 91 6140 0.92 18 05:31 24.01.2023
113 Clouds 28 1009 74 10000 1.42 77 01:29 24.01.2023
114 Clouds 27 1010 82 10000 1.85 87 23:51 23.01.2023
115 Rain 26 1010 85 10000 1.6 102 22:20 23.01.2023
116 Clouds 25 1009 90 10000 1.36 109 19:46 23.01.2023
117 Clouds 25 1007 90 10000 2.73 117 17:59 23.01.2023
118 Clouds 26 1007 86 10000 1.5 124 15:38 23.01.2023
119 Clouds 26 1008 86 10000 1.85 118 14:34 23.01.2023
120 Clouds 26 1009 88 10000 2.01 126 13:43 23.01.2023
121 Clouds 26 1009 89 10000 2.09 133 12:54 23.01.2023
122 Clouds 26 1009 88 10000 2.02 133 11:43 23.01.2023
123 Clouds 27 1008 82 10000 1.07 82 08:42 23.01.2023
124 Clouds 29 1006 70 10000 1.4 49 06:29 23.01.2023
125 Rain 28 1009 75 10000 0.97 73 23:28 22.01.2023
126 Clouds 27 1009 78 10000 1.02 93 21:46 22.01.2023
127 Clouds 26 1009 82 10000 1.35 129 20:53 22.01.2023
128 Clouds 25 1008 84 10000 1.56 139 19:53 22.01.2023
129 Clouds 25 1007 84 10000 1.72 132 19:20 22.01.2023
130 Clouds 25 1007 85 10000 2.04 128 17:58 22.01.2023
131 Clouds 25 1007 85 10000 2.16 128 17:27 22.01.2023
132 Clouds 25 1007 85 10000 2.14 129 16:39 22.01.2023
133 Clouds 26 1008 88 10000 2.2 135 14:55 22.01.2023
134 Clouds 26 1009 88 10000 1.93 130 13:49 22.01.2023
135 Clouds 26 1010 87 10000 1.57 121 12:53 22.01.2023
136 Clouds 26 1010 87 10000 1.8 105 11:39 22.01.2023
137 Clouds 27 1009 84 10000 1.28 126 09:36 22.01.2023
138 Clouds 27 1008 81 10000 0.77 123 08:43 22.01.2023
139 Clouds 31 1007 61 10000 2.24 28 02:51 22.01.2023
140 Clouds 29 1009 67 10000 1.64 75 23:41 21.01.2023
141 Clouds 28 1009 75 10000 1.78 90 22:41 21.01.2023
142 Clouds 25 1009 84 10000 1.9 134 20:43 21.01.2023
143 Clouds 25 1007 86 10000 1.84 124 18:48 21.01.2023
144 Clouds 26 1008 85 10000 0.94 151 14:57 21.01.2023
145 Clouds 26 1009 83 10000 0.76 116 12:59 21.01.2023
146 Clouds 26 1009 83 10000 0.76 116 12:40 21.01.2023
147 Clouds 27 1009 82 10000 0.88 91 11:27 21.01.2023
148 Clouds 27 1008 82 10000 0.36 66 09:56 21.01.2023
149 Clouds 31 1005 65 10000 2.25 16 04:41 21.01.2023
150 Clouds 28 1010 76 10000 1.06 53 22:31 20.01.2023
151 Clouds 28 1010 76 10000 1.06 53 22:31 20.01.2023
152 Clouds 27 1010 81 10000 0.98 79 21:58 20.01.2023
153 Clouds 27 1010 81 10000 0.98 79 21:33 20.01.2023
154 Clouds 26 1009 88 10000 1.1 97 19:55 20.01.2023
155 Clouds 26 1008 87 10000 1.3 70 17:20 20.01.2023
156 Clouds 26 1008 87 10000 0.56 86 14:47 20.01.2023
157 Clouds 26 1009 86 10000 0.45 81 13:51 20.01.2023
158 Clouds 27 1009 85 10000 0.72 21 10:36 20.01.2023
159 Clouds 27 1008 84 10000 1.02 354 08:57 20.01.2023
160 Clouds 29 1006 80 10000 2.45 3 06:39 20.01.2023
161 Clouds 30 1007 66 10000 3.03 4 02:31 20.01.2023
162 Clouds 28 1009 76 10000 2.33 358 22:37 19.01.2023
163 Rain 28 1009 81 10000 2.02 355 21:31 19.01.2023
164 Clouds 26 1007 85 10000 1.61 12 19:29 19.01.2023
165 Clouds 26 1007 86 10000 1.33 11 17:39 19.01.2023
166 Clouds 26 1008 89 9179 1.55 30 14:25 19.01.2023
167 Rain 26 1008 87 10000 1.02 312 10:19 19.01.2023
168 Rain 26 1007 86 10000 1.13 307 08:49 19.01.2023
169 Clouds 27 1008 83 10000 2.58 357 22:30 18.01.2023
170 Rain 25 1008 89 10000 1.36 20 20:20 18.01.2023
171 Clouds 25 1007 90 10000 0.73 22 19:41 18.01.2023
172 Rain 25 1007 89 10000 1.21 14 19:23 18.01.2023
173 Rain 25 1007 91 10000 0.73 19 16:19 18.01.2023
174 Rain 25 1009 92 10000 0.62 98 13:59 18.01.2023
175 Rain 25 1009 92 10000 0.11 158 11:46 18.01.2023
176 Rain 25 1008 92 10000 1.76 259 09:28 18.01.2023
177 Rain 27 1006 87 10000 3.63 274 05:35 18.01.2023
178 Clouds 28 1009 85 9101 3.46 317 00:35 18.01.2023
179 Rain 26 1009 88 10000 2.25 315 20:57 17.01.2023
180 Rain 26 1009 89 6404 2.21 312 19:36 17.01.2023
181 Rain 25 1008 89 10000 1.89 295 18:48 17.01.2023
182 Rain 25 1008 89 10000 1.73 296 17:37 17.01.2023
183 Rain 26 1009 88 10000 1.44 263 15:26 17.01.2023
184 Clouds 25 1010 89 10000 0.79 250 14:25 17.01.2023
185 Clouds 25 1010 89 10000 0.79 250 13:31 17.01.2023
186 Clouds 26 1011 89 10000 0.42 311 11:45 17.01.2023
187 Clouds 26 1010 85 10000 1.06 332 09:36 17.01.2023
188 Clouds 28 1008 78 10000 2.03 346 08:20 17.01.2023
189 Clouds 30 1007 69 10000 2.72 353 05:53 17.01.2023
190 Clouds 30 1010 67 10000 2.63 7 00:58 17.01.2023
191 Clouds 30 1011 69 10000 1.97 13 23:57 16.01.2023
192 Clouds 27 1012 80 10000 0.59 36 22:26 16.01.2023
193 Clouds 26 1011 85 10000 0.4 96 20:50 16.01.2023
194 Clouds 25 1010 85 10000 0.62 60 19:42 16.01.2023
195 Clouds 26 1010 85 10000 0.62 72 18:55 16.01.2023
196 Clouds 25 1009 85 10000 0.63 90 18:26 16.01.2023
197 Clouds 25 1009 85 10000 0.63 90 17:55 16.01.2023
198 Clouds 26 1009 86 10000 0.63 83 17:19 16.01.2023
199 Clouds 26 1011 86 10000 0.86 62 13:40 16.01.2023
200 Clouds 26 1012 84 10000 0.72 58 11:58 16.01.2023
201 Clouds 27 1011 84 10000 0.2 76 10:21 16.01.2023
202 Clouds 29 1009 74 10000 1.32 37 05:22 16.01.2023
203 Clouds 26 1012 82 10000 0.22 70 22:28 15.01.2023
204 Clouds 25 1011 85 10000 0.36 196 20:48 15.01.2023
205 Clouds 25 1010 85 10000 0.71 208 20:23 15.01.2023
206 Clouds 25 1009 86 10000 1.32 227 18:27 15.01.2023
207 Rain 25 1009 85 10000 1.33 241 16:38 15.01.2023
208 Rain 25 1011 84 10000 0.34 294 12:51 15.01.2023
209 Rain 25 1011 85 10000 0.46 240 11:38 15.01.2023
210 Rain 25 1011 86 10000 0.33 151 10:52 15.01.2023
211 Rain 25 1010 86 10000 0.38 107 10:21 15.01.2023
212 Clouds 26 1010 89 9304 2.87 279 01:55 15.01.2023
213 Clouds 25 1012 94 10000 2.36 285 23:27 14.01.2023
214 Rain 25 1012 94 10000 2.36 285 22:31 14.01.2023
215 Rain 24 1011 96 10000 2.09 287 21:36 14.01.2023
216 Rain 24 1011 96 9810 1.59 290 21:18 14.01.2023
217 Rain 24 1011 96 9810 1.59 290 20:39 14.01.2023
218 Rain 24 1009 95 2927 2.31 324 19:27 14.01.2023
219 Rain 24 1008 95 2371 2.52 313 17:39 14.01.2023
220 Rain 24 1009 96 1357 2.72 296 15:30 14.01.2023
221 Clouds 24 1010 97 1256 2.87 316 14:26 14.01.2023
222 Clouds 24 1010 97 1256 2.87 316 13:43 14.01.2023
223 Clouds 25 1010 98 875 3.3 344 11:51 14.01.2023
224 Rain 24 1010 98 680 2.34 349 10:47 14.01.2023
225 Rain 25 1009 96 4835 1.97 316 08:19 14.01.2023
226 Rain 26 1011 88 10000 1.1 345 23:36 13.01.2023
227 Rain 26 1011 89 10000 0.74 311 22:47 13.01.2023
228 Rain 25 1010 90 10000 1.01 294 22:29 13.01.2023
229 Rain 25 1010 90 10000 1.01 294 21:35 13.01.2023
230 Rain 25 1009 91 10000 2.07 261 19:42 13.01.2023
231 Rain 25 1007 92 6459 2.79 277 18:21 13.01.2023
232 Clouds 25 1008 92 6898 2.71 270 16:35 13.01.2023
233 Clouds 26 1010 90 10000 3.42 277 13:24 13.01.2023
234 Clouds 26 1011 90 10000 2.98 275 12:20 13.01.2023
235 Clouds 26 1010 89 10000 2.35 268 10:26 13.01.2023
236 Clouds 26 1010 89 10000 2.35 268 09:46 13.01.2023
237 Rain 26 1009 88 10000 2.24 266 08:55 13.01.2023
238 Clouds 27 1008 85 10000 1.75 275 08:21 13.01.2023
239 Clouds 27 1007 83 9878 1.37 305 06:52 13.01.2023
240 Rain 29 1007 73 10000 1.56 343 04:43 13.01.2023
241 Clouds 28 1011 78 10000 1.93 13 23:58 12.01.2023
242 Clouds 28 1011 81 10000 1.22 31 22:41 12.01.2023
243 Clouds 26 1010 87 10000 0.57 66 20:55 12.01.2023
244 Clouds 25 1009 88 10000 0.53 84 19:38 12.01.2023
245 Rain 25 1008 88 10000 0.57 143 17:34 12.01.2023
246 Clouds 25 1009 89 10000 0.6 131 16:18 12.01.2023
247 Rain 25 1010 89 10000 0.67 152 14:44 12.01.2023
248 Rain 25 1011 89 10000 0.31 162 14:22 12.01.2023
249 Rain 25 1011 89 10000 0.69 251 12:48 12.01.2023
250 Clouds 26 1011 90 7209 0.48 297 10:36 12.01.2023
251 Clouds 27 1009 85 10000 1.56 316 08:28 12.01.2023
252 Clouds 29 1010 78 10000 2 356 01:50 12.01.2023
253 Clouds 29 1011 75 10000 1.74 2 23:59 11.01.2023
254 Clouds 29 1011 75 10000 1.74 2 23:40 11.01.2023
255 Clouds 28 1012 80 10000 1.13 360 23:20 11.01.2023
256 Clouds 27 1011 84 10000 0.35 2 21:44 11.01.2023
257 Clouds 25 1010 88 10000 0.14 194 19:47 11.01.2023
258 Clouds 25 1010 89 10000 0.11 116 18:35 11.01.2023
259 Clouds 25 1009 89 10000 0.48 41 16:42 11.01.2023
260 Clouds 25 1010 88 10000 0.23 54 14:44 11.01.2023
261 Clouds 26 1012 86 10000 0.33 244 12:38 11.01.2023
262 Clouds 27 1011 77 10000 1.15 270 11:54 11.01.2023
263 Rain 26 1011 86 10000 1.08 272 09:49 11.01.2023
264 Rain 27 1009 86 10000 2 316 07:37 11.01.2023
265 Clouds 28 1008 80 10000 2.42 324 07:19 11.01.2023
266 Clouds 27 1012 81 10000 2.45 259 23:55 10.01.2023
267 Clouds 27 1012 85 10000 1.58 268 22:36 10.01.2023
268 Clouds 26 1011 87 10000 0.74 257 21:30 10.01.2023
269 Clouds 25 1010 90 10000 1.09 269 19:56 10.01.2023
270 Clouds 25 1010 90 10000 1.09 269 19:34 10.01.2023
271 Clouds 25 1009 89 10000 0.78 228 18:47 10.01.2023
272 Rain 25 1009 89 10000 0.76 227 17:54 10.01.2023
273 Rain 25 1010 89 10000 1.16 220 15:48 10.01.2023
274 Rain 25 1010 89 10000 1.04 222 15:22 10.01.2023
275 Rain 25 1011 89 8674 0.94 238 13:42 10.01.2023
276 Rain 26 1011 84 10000 0.84 316 11:28 10.01.2023
277 Rain 27 1009 82 10000 1.87 329 08:44 10.01.2023
278 Rain 28 1009 79 10000 2.28 318 07:59 10.01.2023
279 Rain 28 1009 79 10000 2.28 318 07:59 10.01.2023
280 Rain 28 1008 80 10000 2 337 07:25 10.01.2023
281 Clouds 29 1007 75 10000 2.11 319 04:50 10.01.2023
282 Clouds 27 1011 85 10000 2.78 354 22:50 09.01.2023
283 Clouds 26 1011 87 10000 1.83 355 21:20 09.01.2023
284 Clouds 26 1011 87 10000 1.83 355 20:32 09.01.2023
285 Rain 26 1009 87 10000 1.53 12 18:41 09.01.2023
286 Rain 26 1009 87 10000 1.69 11 17:51 09.01.2023
287 Rain 26 1009 87 10000 1.35 17 16:41 09.01.2023
288 Clouds 26 1009 86 10000 0.87 11 15:59 09.01.2023
289 Clouds 26 1010 85 10000 0.78 12 15:22 09.01.2023
290 Clouds 26 1010 85 10000 0.78 12 15:22 09.01.2023
291 Clouds 26 1010 87 10000 0.72 15 14:42 09.01.2023
292 Clouds 26 1010 87 10000 0.72 15 14:42 09.01.2023
293 Clouds 26 1012 86 10000 0.77 26 12:54 09.01.2023
294 Clouds 26 1012 85 10000 0.6 28 11:59 09.01.2023
295 Clouds 26 1012 85 10000 0.72 15 11:19 09.01.2023
296 Clouds 29 1009 77 10000 2.11 350 07:20 09.01.2023
297 Clouds 29 1009 74 10000 2.4 359 04:46 09.01.2023
298 Clouds 29 1011 76 10000 2.77 359 02:52 09.01.2023
299 Clouds 27 1012 85 10000 1.99 6 22:29 08.01.2023
300 Clouds 26 1012 86 10000 1.76 3 21:22 08.01.2023
301 Clouds 26 1012 86 10000 1.76 3 20:53 08.01.2023
302 Clouds 26 1011 87 10000 1.32 11 18:51 08.01.2023
303 Clouds 26 1010 87 10000 1.06 6 17:23 08.01.2023
304 Clouds 26 1010 87 10000 1.06 6 16:46 08.01.2023
305 Clouds 26 1011 86 10000 0.66 21 15:36 08.01.2023
306 Clouds 26 1012 87 10000 0.35 59 13:58 08.01.2023
307 Clouds 26 1012 87 10000 0.35 59 13:31 08.01.2023
308 Clouds 26 1013 86 10000 0.34 58 12:49 08.01.2023
309 Clouds 27 1012 85 10000 0.46 65 10:37 08.01.2023
310 Clouds 27 1012 85 10000 0.71 59 09:36 08.01.2023
311 Clouds 28 1010 83 10000 1.34 14 07:48 08.01.2023
312 Clouds 29 1012 77 10000 2.83 17 00:24 08.01.2023
313 Clouds 28 1012 80 10000 2.62 23 22:48 07.01.2023
314 Clouds 27 1012 84 10000 2.1 17 22:24 07.01.2023
315 Clouds 27 1012 84 10000 2.1 17 21:47 07.01.2023
316 Clouds 26 1012 87 10000 1.66 18 20:43 07.01.2023
317 Clouds 26 1011 87 10000 1.18 19 20:22 07.01.2023
318 Clouds 26 1010 88 10000 0.95 57 18:33 07.01.2023
319 Clouds 26 1010 89 10000 1.03 61 17:50 07.01.2023
320 Clouds 26 1010 89 10000 0.94 82 17:28 07.01.2023
321 Clouds 26 1010 89 10000 0.94 82 16:37 07.01.2023
322 Clouds 26 1010 88 10000 0.92 65 15:46 07.01.2023
323 Clouds 26 1011 89 10000 0.84 94 15:24 07.01.2023
324 Clouds 26 1011 89 10000 0.84 105 14:26 07.01.2023
325 Clouds 26 1011 89 10000 0.84 105 13:44 07.01.2023
326 Clouds 26 1011 89 10000 1 103 13:22 07.01.2023
327 Clouds 26 1011 88 10000 1.31 91 12:21 07.01.2023
328 Clouds 26 1011 88 10000 1.11 85 10:57 07.01.2023
329 Clouds 26 1010 88 10000 1.23 75 10:23 07.01.2023
330 Clouds 27 1009 85 10000 1.22 27 08:21 07.01.2023
331 Clouds 27 1009 85 10000 1.22 27 07:43 07.01.2023
332 Clouds 28 1008 83 10000 1.85 10 06:49 07.01.2023
333 Clouds 28 1011 81 10000 2.54 25 23:54 06.01.2023
334 Clouds 27 1010 86 10000 1.78 43 22:22 06.01.2023
335 Clouds 27 1010 86 10000 1.78 43 21:58 06.01.2023
336 Clouds 26 1010 89 10000 1.22 64 20:38 06.01.2023
337 Clouds 25 1009 91 10000 1.38 69 19:56 06.01.2023
338 Clouds 25 1009 91 10000 1.38 69 19:38 06.01.2023
339 Clouds 25 1009 91 10000 1.53 67 19:20 06.01.2023
340 Clouds 26 1008 90 10000 1.91 56 17:56 06.01.2023
341 Clouds 26 1008 90 10000 2.08 48 16:53 06.01.2023
342 Clouds 26 1009 90 10000 1.65 45 16:23 06.01.2023
343 Clouds 26 1009 90 10000 1.65 45 15:52 06.01.2023
344 Clouds 26 1009 90 10000 1.65 45 15:31 06.01.2023
345 Clouds 26 1009 90 10000 1.65 45 15:31 06.01.2023
346 Clouds 26 1010 90 10000 1.43 44 13:46 06.01.2023
347 Clouds 26 1010 90 10000 1.22 61 11:55 06.01.2023
348 Clouds 26 1010 90 10000 1.08 52 10:57 06.01.2023
349 Clouds 27 1009 89 10000 1.48 23 08:51 06.01.2023
350 Clouds 29 1007 76 10000 2.36 360 05:23 06.01.2023
351 Clouds 29 1010 79 10000 1.92 17 23:38 05.01.2023
352 Clouds 28 1010 81 10000 1.54 42 22:44 05.01.2023
353 Clouds 26 1009 90 10000 0.83 98 20:57 05.01.2023
354 Clouds 25 1008 90 10000 1.05 349 17:30 05.01.2023
355 Clouds 25 1008 89 10000 0.85 332 16:48 05.01.2023
356 Clouds 25 1008 89 10000 0.33 232 15:56 05.01.2023
357 Clouds 25 1008 89 10000 0.33 232 15:34 05.01.2023
358 Clouds 25 1010 92 10000 1.24 254 13:35 05.01.2023
359 Clouds 25 1011 94 8167 2.44 251 12:40 05.01.2023
360 Rain 25 1010 96 2283 4.09 281 10:37 05.01.2023
361 Rain 25 1009 96 1352 4.37 302 09:40 05.01.2023
362 Clouds 25 1007 93 2346 3.91 306 07:28 05.01.2023
363 Rain 25 1007 93 10000 2.22 294 06:38 05.01.2023
364 Rain 28 1009 79 10000 1.91 314 00:32 05.01.2023
365 Rain 27 1009 84 10000 0.58 231 22:23 04.01.2023
366 Rain 27 1009 84 10000 0.58 231 21:30 04.01.2023
367 Clouds 25 1008 88 10000 0.85 240 19:58 04.01.2023
368 Clouds 25 1008 88 10000 0.85 240 19:36 04.01.2023
369 Clouds 25 1008 87 10000 0.58 234 19:18 04.01.2023
370 Clouds 25 1007 87 10000 0.9 250 16:58 04.01.2023
371 Rain 25 1007 87 10000 0.9 250 16:30 04.01.2023
372 Rain 25 1007 87 10000 0.9 250 16:30 04.01.2023
373 Rain 25 1008 88 10000 1.37 220 14:49 04.01.2023
374 Clouds 26 1009 89 10000 0.4 110 11:45 04.01.2023
375 Clouds 26 1009 89 10000 0.7 111 11:22 04.01.2023
376 Clouds 26 1009 89 10000 0.7 111 10:44 04.01.2023
377 Clouds 26 1009 90 10000 1.16 89 10:24 04.01.2023
378 Rain 26 1009 91 10000 1.84 76 08:58 04.01.2023
379 Clouds 27 1007 82 10000 0.48 86 05:37 04.01.2023
380 Clouds 27 1009 84 8679 1.65 308 00:39 04.01.2023
381 Clouds 28 1009 83 10000 1.94 313 23:37 03.01.2023
382 Clouds 27 1010 85 10000 1.48 293 22:55 03.01.2023
383 Clouds 26 1009 89 10000 1.74 296 21:21 03.01.2023
384 Rain 26 1009 89 10000 1.65 291 19:51 03.01.2023
385 Rain 26 1007 89 10000 2.07 291 17:57 03.01.2023
386 Rain 26 1007 90 10000 2.2 292 16:39 03.01.2023
387 Clouds 26 1009 88 10000 2.55 296 13:58 03.01.2023
388 Clouds 26 1009 88 10000 2.16 291 13:31 03.01.2023
389 Clouds 26 1009 88 10000 2.3 295 12:58 03.01.2023
390 Clouds 26 1009 88 10000 2.3 295 12:30 03.01.2023
391 Clouds 26 1009 89 10000 2.47 297 11:32 03.01.2023
392 Rain 28 1007 82 10000 2.67 295 07:50 03.01.2023
393 Rain 28 1007 79 10000 3.26 284 04:22 03.01.2023
394 Clouds 28 1007 79 10000 3.26 284 03:44 03.01.2023
395 Clouds 29 1009 75 10000 3.56 303 01:56 03.01.2023
396 Clouds 27 1010 81 10000 1.68 302 22:43 02.01.2023
397 Clouds 26 1010 85 10000 1.56 284 22:23 02.01.2023
398 Clouds 26 1009 86 10000 1.42 282 20:40 02.01.2023
399 Clouds 26 1009 87 10000 1.6 281 19:53 02.01.2023
400 Rain 25 1008 87 10000 1.93 289 17:53 02.01.2023
401 Clouds 26 1008 83 10000 1.35 273 15:23 02.01.2023
402 Rain 26 1010 86 10000 1.08 283 13:25 02.01.2023
403 Clouds 26 1010 87 10000 1.22 265 11:57 02.01.2023
404 Rain 26 1010 87 10000 1.19 254 10:43 02.01.2023
405 Clouds 28 1007 80 10000 2.59 281 07:34 02.01.2023
406 Rain 28 1009 83 10000 3.6 310 00:58 02.01.2023
407 Rain 28 1010 84 10000 3.12 313 22:32 01.01.2023
408 Rain 28 1009 84 10000 1.96 323 21:30 01.01.2023
409 Rain 27 1009 87 10000 1.7 322 20:47 01.01.2023
410 Rain 26 1009 88 10000 1.87 314 19:44 01.01.2023
411 Rain 26 1007 89 10000 2.43 287 17:59 01.01.2023
412 Rain 26 1007 89 10000 2.45 281 17:21 01.01.2023
413 Clouds 26 1007 89 10000 2.45 281 16:32 01.01.2023
414 Clouds 26 1009 90 10000 2.35 262 14:53 01.01.2023
415 Rain 26 1010 86 10000 1.77 263 13:38 01.01.2023
416 Rain 27 1010 84 10000 1.26 265 12:39 01.01.2023
417 Clouds 27 1010 84 10000 0.91 274 11:36 01.01.2023
418 Clouds 27 1010 84 10000 0.99 295 10:35 01.01.2023
419 Clouds 27 1009 82 10000 1.84 315 08:49 01.01.2023
420 Clouds 28 1008 77 10000 2.23 321 08:18 01.01.2023
421 Clouds 29 1007 71 10000 2.17 344 06:58 01.01.2023
422 Clouds 31 1010 64 10000 3.03 334 00:52 01.01.2023
423 Clouds 30 1010 66 10000 2.48 330 23:41 31.12.2022
424 Clouds 29 1010 71 10000 1.96 311 22:33 31.12.2022
425 Clouds 27 1010 76 10000 1.52 269 21:34 31.12.2022
426 Clouds 27 1010 76 10000 1.52 269 21:34 31.12.2022
427 Clouds 26 1009 77 10000 1.25 248 20:43 31.12.2022
428 Clouds 26 1008 78 10000 0.98 252 19:32 31.12.2022
429 Clouds 26 1008 82 10000 1.99 249 18:40 31.12.2022
430 Clouds 26 1008 83 10000 2.22 249 18:18 31.12.2022
431 Clouds 26 1008 83 10000 2.22 249 17:43 31.12.2022
432 Rain 26 1008 83 10000 2.86 251 16:38 31.12.2022
433 Rain 26 1009 83 10000 3.12 252 15:59 31.12.2022
434 Clouds 26 1010 83 10000 2.77 251 14:35 31.12.2022
435 Clouds 26 1011 83 10000 2.5 252 13:28 31.12.2022
436 Clouds 26 1011 83 10000 2.5 252 12:38 31.12.2022
437 Clouds 26 1011 83 10000 2.23 261 12:19 31.12.2022
438 Clouds 26 1011 83 10000 2.23 261 12:19 31.12.2022
439 Clouds 26 1011 83 10000 2.23 261 11:43 31.12.2022
440 Clouds 27 1010 82 10000 1.86 291 10:23 31.12.2022
441 Clouds 27 1010 82 10000 1.86 291 09:51 31.12.2022
442 Rain 27 1009 80 10000 2.12 310 08:44 31.12.2022
443 Clouds 29 1007 68 10000 2.34 336 06:51 31.12.2022
444 Clouds 30 1009 69 10000 3.44 328 00:34 31.12.2022
445 Clouds 29 1010 77 10000 2.62 332 23:27 30.12.2022
446 Clouds 28 1010 83 10000 2.06 327 22:19 30.12.2022
447 Clouds 28 1010 83 10000 2.06 327 21:39 30.12.2022
448 Clouds 27 1010 85 10000 1.97 309 21:21 30.12.2022
449 Clouds 26 1008 86 10000 2.21 295 18:35 30.12.2022
450 Clouds 26 1008 86 10000 2.08 283 17:35 30.12.2022
451 Clouds 26 1008 85 10000 2.09 281 16:50 30.12.2022
452 Clouds 26 1009 86 10000 2.08 267 15:18 30.12.2022
453 Clouds 27 1010 86 10000 1.89 299 13:29 30.12.2022
454 Clouds 28 1008 83 10000 2.88 291 08:25 30.12.2022
455 Clouds 30 1008 69 10000 3.17 340 04:24 30.12.2022
456 Clouds 30 1009 67 10000 2.87 346 02:27 30.12.2022
457 Clouds 30 1010 69 10000 2.52 349 23:46 29.12.2022
458 Clouds 27 1010 79 10000 0.94 344 21:56 29.12.2022
459 Clouds 26 1010 85 10000 0.3 256 21:25 29.12.2022
460 Clouds 26 1010 85 10000 0.3 256 20:46 29.12.2022
461 Clouds 25 1009 85 10000 0.68 220 19:22 29.12.2022
462 Clouds 25 1009 83 10000 0.68 191 17:53 29.12.2022
463 Clouds 25 1009 83 10000 1.01 182 17:26 29.12.2022
464 Clouds 25 1009 83 10000 1.01 182 16:54 29.12.2022
465 Clouds 25 1009 84 10000 1.43 194 15:55 29.12.2022
466 Clouds 25 1011 86 10000 1.71 199 13:41 29.12.2022
467 Clouds 26 1012 86 10000 1.72 220 11:52 29.12.2022
468 Clouds 26 1011 85 10000 1.8 240 09:47 29.12.2022
469 Clouds 29 1010 78 10000 2.01 307 03:35 29.12.2022
470 Clouds 27 1012 84 10000 2.13 309 23:29 28.12.2022
471 Clouds 27 1012 84 10000 2.17 303 21:57 28.12.2022
472 Clouds 27 1012 86 10000 2.13 291 21:19 28.12.2022
473 Clouds 26 1011 87 10000 2.28 292 19:54 28.12.2022
474 Clouds 26 1009 87 10000 0.47 257 18:25 28.12.2022
475 Clouds 26 1009 87 10000 0.68 286 16:21 28.12.2022
476 Clouds 26 1011 86 10000 1.08 276 13:55 28.12.2022
477 Clouds 26 1012 85 10000 1.01 240 12:48 28.12.2022
478 Clouds 26 1012 85 10000 1.02 269 11:33 28.12.2022
479 Clouds 26 1011 86 10000 1.25 252 09:30 28.12.2022
480 Clouds 27 1009 84 10000 1.17 16 07:31 28.12.2022
481 Clouds 28 1009 80 10000 1.72 9 06:44 28.12.2022
482 Rain 29 1011 74 10000 2.79 5 00:46 28.12.2022
483 Clouds 26 1010 86 10000 1.42 41 21:18 27.12.2022
484 Clouds 25 1010 87 10000 0.75 87 19:50 27.12.2022
485 Rain 25 1008 87 10000 0.12 214 18:21 27.12.2022
486 Clouds 25 1008 87 10000 0.67 246 16:58 27.12.2022
487 Rain 25 1009 87 10000 0.84 244 15:53 27.12.2022
488 Rain 26 1011 87 10000 1.07 222 13:57 27.12.2022
489 Rain 26 1011 87 10000 0.62 180 12:22 27.12.2022
490 Clouds 26 1010 87 10000 0.13 312 09:47 27.12.2022
491 Rain 26 1009 87 10000 0.58 295 09:23 27.12.2022
492 Rain 26 1009 87 10000 0.58 295 08:41 27.12.2022
493 Clouds 28 1008 78 8199 1.93 352 04:33 27.12.2022
494 Clouds 25 1011 92 10000 1.68 166 23:25 26.12.2022
495 Clouds 25 1011 93 10000 0.61 166 21:32 26.12.2022
496 Clouds 25 1010 91 10000 0.9 25 20:42 26.12.2022
497 Clouds 26 1009 86 10000 0.76 115 18:50 26.12.2022
498 Clouds 25 1008 87 10000 0.27 141 17:52 26.12.2022
499 Clouds 26 1008 88 10000 0.61 346 16:22 26.12.2022
500 Clouds 26 1009 89 10000 0.69 359 14:34 26.12.2022
501 Clouds 26 1010 88 10000 0.85 27 12:51 26.12.2022
502 Clouds 28 1008 85 10000 1.61 22 08:27 26.12.2022
503 Rain 30 1011 72 10000 1.87 31 23:59 25.12.2022
504 Rain 30 1011 72 10000 1.87 31 23:38 25.12.2022
505 Rain 28 1011 81 10000 1.18 70 22:29 25.12.2022
506 Rain 28 1011 81 10000 1.18 70 21:49 25.12.2022
507 Rain 26 1009 86 10000 1.19 121 18:50 25.12.2022
508 Rain 26 1009 86 10000 0.9 112 17:52 25.12.2022
509 Rain 26 1009 86 10000 0.9 112 17:34 25.12.2022
510 Clouds 26 1010 86 10000 0.43 109 15:23 25.12.2022
511 Clouds 26 1011 86 10000 0.27 97 12:42 25.12.2022
512 Clouds 27 1009 82 10000 1.51 38 08:44 25.12.2022
513 Clouds 30 1010 69 10000 1.91 62 23:40 24.12.2022
514 Clouds 27 1010 82 10000 1.51 98 21:41 24.12.2022
515 Clouds 25 1008 88 10000 2.06 128 18:32 24.12.2022
516 Clouds 25 1008 89 10000 1.89 130 16:45 24.12.2022
517 Clouds 25 1009 89 10000 1.79 137 14:53 24.12.2022
518 Clouds 26 1010 87 10000 1.62 127 12:43 24.12.2022
519 Clouds 26 1010 86 10000 0.91 125 10:45 24.12.2022
520 Clouds 26 1010 86 10000 0.69 110 10:20 24.12.2022
521 Rain 26 1010 86 10000 0.69 110 09:36 24.12.2022
522 Clouds 29 1007 73 10000 2.33 22 05:48 24.12.2022
523 Rain 28 1009 76 10000 2.02 24 02:20 24.12.2022
524 Rain 26 1011 87 10000 0.74 24 23:35 23.12.2022
525 Clouds 25 1011 92 10000 1.29 72 21:58 23.12.2022
526 Clouds 25 1010 94 10000 2.53 94 20:31 23.12.2022
527 Clouds 25 1010 90 10000 3.06 85 19:39 23.12.2022
528 Clouds 25 1008 88 10000 2.62 80 19:21 23.12.2022
529 Clouds 26 1008 89 10000 1.47 66 18:38 23.12.2022
530 Rain 26 1007 88 10000 1.52 71 18:19 23.12.2022
531 Rain 26 1007 89 10000 1.59 80 16:32 23.12.2022
532 Clouds 26 1008 90 10000 0.99 74 14:44 23.12.2022
533 Clouds 26 1010 91 10000 1.92 69 10:57 23.12.2022
534 Clouds 27 1009 88 10000 2.18 70 09:36 23.12.2022
535 Clouds 27 1008 85 10000 1.84 70 07:45 23.12.2022
536 Rain 28 1007 81 10000 1.49 60 06:50 23.12.2022
537 Clouds 29 1007 78 10000 2.25 49 05:20 23.12.2022
538 Clouds 29 1009 71 10000 3.4 92 23:21 22.12.2022
539 Clouds 28 1009 77 10000 2.53 105 21:57 22.12.2022
540 Clouds 26 1008 86 10000 2.28 114 20:25 22.12.2022
541 Clouds 26 1008 87 10000 2.11 120 19:22 22.12.2022
542 Rain 26 1006 86 10000 2.17 115 18:25 22.12.2022
543 Clouds 26 1006 87 10000 1.94 134 16:54 22.12.2022
544 Clouds 26 1006 87 10000 1.94 134 16:30 22.12.2022
545 Clouds 26 1006 88 10000 2.15 148 15:30 22.12.2022
546 Clouds 26 1007 88 10000 2.16 146 14:30 22.12.2022
547 Clouds 26 1008 87 10000 2 138 13:31 22.12.2022
548 Clouds 26 1008 87 10000 2.35 121 12:31 22.12.2022
549 Clouds 27 1008 87 10000 2.09 129 10:32 22.12.2022
550 Clouds 27 1007 86 10000 1.58 94 09:24 22.12.2022
551 Clouds 27 1007 86 10000 1.58 94 08:59 22.12.2022
552 Clouds 28 1007 84 10000 1.37 69 07:54 22.12.2022
553 Rain 29 1007 77 10000 2.22 45 04:19 22.12.2022
554 Clouds 31 1008 66 10000 2.55 73 00:48 22.12.2022
555 Clouds 30 1009 70 10000 2 93 22:40 21.12.2022
556 Clouds 28 1008 78 10000 1.85 105 21:49 21.12.2022
557 Clouds 26 1008 85 10000 1.94 122 21:19 21.12.2022
558 Clouds 26 1008 85 10000 1.94 122 20:34 21.12.2022
559 Clouds 25 1007 87 10000 1.94 132 19:47 21.12.2022
560 Clouds 25 1007 88 10000 1.88 128 19:29 21.12.2022
561 Clouds 26 1006 87 10000 2.25 124 18:54 21.12.2022
562 Clouds 26 1006 87 10000 2.25 124 18:35 21.12.2022
563 Clouds 26 1005 87 10000 2.52 122 16:19 21.12.2022
564 Clouds 26 1007 87 10000 2.46 128 14:18 21.12.2022
565 Clouds 27 1007 87 10000 2.16 132 11:50 21.12.2022
566 Clouds 27 1007 87 10000 1.89 136 11:20 21.12.2022
567 Clouds 27 1007 86 10000 1.63 121 10:26 21.12.2022
568 Clouds 27 1006 85 10000 1.44 95 08:48 21.12.2022
569 Clouds 29 1004 77 10000 1.6 57 06:30 21.12.2022
570 Clouds 29 1007 75 10000 2.95 90 00:25 21.12.2022
571 Clouds 27 1007 83 10000 2.46 110 21:47 20.12.2022
572 Clouds 26 1007 87 10000 2.51 112 20:51 20.12.2022
573 Clouds 25 1006 88 10000 2.5 119 19:54 20.12.2022
574 Clouds 25 1005 88 10000 2.28 129 18:47 20.12.2022
575 Clouds 25 1005 88 10000 2.28 131 18:22 20.12.2022
576 Clouds 25 1005 88 10000 2.28 131 17:47 20.12.2022
577 Clouds 25 1005 88 10000 2.33 133 17:22 20.12.2022
578 Clouds 26 1005 88 10000 2.37 132 15:50 20.12.2022
579 Clouds 26 1006 88 10000 2.59 127 14:52 20.12.2022
580 Clouds 26 1006 88 10000 2.73 121 14:29 20.12.2022
581 Clouds 26 1007 88 10000 2.7 118 13:25 20.12.2022
582 Clouds 26 1007 88 10000 2.65 123 12:32 20.12.2022
583 Clouds 26 1007 88 10000 2.4 126 11:42 20.12.2022
584 Clouds 27 1006 87 10000 1.84 117 09:41 20.12.2022
585 Clouds 30 1004 73 10000 1.45 34 04:41 20.12.2022
586 Clouds 30 1006 67 10000 2.32 76 23:46 19.12.2022
587 Clouds 28 1007 78 10000 1.8 104 22:21 19.12.2022
588 Clouds 26 1007 84 10000 1.8 137 20:42 19.12.2022
589 Clouds 25 1006 87 10000 1.78 153 19:39 19.12.2022
590 Clouds 25 1005 87 10000 1.51 142 18:42 19.12.2022
591 Clouds 25 1005 87 10000 1.39 137 17:36 19.12.2022
592 Clouds 26 1006 87 10000 1.25 129 14:45 19.12.2022
593 Clouds 26 1007 85 10000 1.22 123 12:34 19.12.2022
594 Clouds 27 1007 82 10000 1.05 103 10:56 19.12.2022
595 Clouds 28 1005 79 10000 0.06 357 07:45 19.12.2022
596 Clouds 30 1005 67 10000 2.45 8 03:48 19.12.2022
597 Clouds 29 1007 71 10000 1.85 95 22:40 18.12.2022
598 Clouds 28 1007 78 10000 1.74 115 21:46 18.12.2022
599 Clouds 26 1007 85 10000 1.92 130 21:23 18.12.2022
600 Clouds 26 1007 85 10000 1.92 130 20:32 18.12.2022
601 Clouds 25 1007 87 10000 2.07 135 19:41 18.12.2022
602 Clouds 26 1005 86 10000 1.5 136 18:29 18.12.2022
603 Clouds 26 1005 86 10000 1.23 136 17:22 18.12.2022
604 Clouds 26 1005 85 10000 1.11 128 15:40 18.12.2022
605 Clouds 26 1006 84 10000 0.98 128 15:20 18.12.2022
606 Clouds 26 1006 84 10000 1.29 151 14:20 18.12.2022
607 Clouds 26 1007 83 10000 1.24 147 12:57 18.12.2022
608 Clouds 26 1007 83 10000 1.24 147 12:57 18.12.2022
609 Clouds 26 1007 83 10000 1.24 147 12:30 18.12.2022
610 Clouds 27 1006 82 10000 1 131 10:50 18.12.2022
611 Clouds 27 1005 80 10000 0.86 114 08:47 18.12.2022
612 Clouds 28 1005 79 10000 0.66 111 08:20 18.12.2022
613 Clouds 28 1004 77 10000 0.74 293 06:23 18.12.2022
614 Clouds 31 1004 66 10000 2.56 15 03:40 18.12.2022
615 Clouds 31 1005 63 10000 2.54 42 01:48 18.12.2022
616 Clouds 27 1007 77 10000 1.46 122 22:21 17.12.2022
617 Clouds 25 1006 86 10000 1.73 135 19:42 17.12.2022
618 Clouds 25 1005 87 10000 1.75 151 17:18 17.12.2022
619 Clouds 25 1006 86 10000 1.69 150 14:44 17.12.2022
620 Clouds 26 1008 84 10000 1.31 141 11:55 17.12.2022
621 Clouds 26 1007 84 10000 1.16 149 10:49 17.12.2022
622 Clouds 26 1007 83 10000 1.02 134 09:46 17.12.2022
623 Clouds 26 1006 82 10000 0.81 110 08:32 17.12.2022
624 Clouds 28 1005 78 10000 0.38 58 06:46 17.12.2022
625 Clouds 30 1007 68 10000 1.92 54 23:57 16.12.2022
626 Clouds 28 1007 80 10000 1.22 120 21:38 16.12.2022
627 Clouds 25 1006 87 10000 2.06 143 20:23 16.12.2022
628 Clouds 25 1005 88 10000 1.95 133 17:19 16.12.2022
629 Clouds 26 1006 87 10000 1.69 142 14:49 16.12.2022
630 Clouds 26 1007 87 10000 1.7 136 13:50 16.12.2022
631 Clouds 26 1008 86 10000 1.42 133 12:18 16.12.2022
632 Clouds 26 1007 86 10000 1.33 133 10:42 16.12.2022
633 Clouds 27 1006 84 10000 0.95 113 09:26 16.12.2022
634 Clouds 28 1005 82 10000 0.61 99 08:25 16.12.2022
635 Clouds 28 1005 82 10000 0.47 89 07:54 16.12.2022
636 Clouds 30 1007 68 10000 1.23 62 23:39 15.12.2022
637 Clouds 28 1007 79 10000 1.26 125 22:29 15.12.2022
638 Clouds 26 1007 85 10000 1.41 147 20:40 15.12.2022
639 Clear 25 1006 87 10000 1.07 152 19:37 15.12.2022
640 Clouds 25 1005 87 10000 0.85 146 18:24 15.12.2022
641 Clouds 25 1005 87 10000 1.04 161 17:25 15.12.2022
642 Clouds 25 1005 87 10000 1.22 159 15:35 15.12.2022
643 Clouds 26 1006 87 10000 1.14 135 13:36 15.12.2022
644 Clouds 26 1007 87 10000 1.26 137 12:34 15.12.2022
645 Clouds 26 1007 86 10000 1.14 185 09:41 15.12.2022
646 Clouds 26 1006 85 10000 0.44 203 08:53 15.12.2022
647 Clouds 28 1004 78 10000 0.68 310 06:19 15.12.2022
648 Clouds 29 1005 76 10000 1.01 325 04:54 15.12.2022
649 Clouds 26 1008 85 10000 0.68 170 21:25 14.12.2022
650 Clouds 26 1008 85 10000 0.68 170 20:59 14.12.2022
651 Clouds 25 1007 86 10000 1.06 187 20:29 14.12.2022
652 Clouds 25 1006 87 10000 0.65 157 18:26 14.12.2022
653 Clouds 25 1006 86 10000 0.57 134 16:57 14.12.2022
654 Clouds 26 1006 86 10000 0.6 149 15:40 14.12.2022
655 Clouds 26 1008 86 10000 0.83 180 13:52 14.12.2022
656 Clouds 26 1008 85 10000 1.03 169 11:22 14.12.2022
657 Clouds 26 1008 85 10000 1.03 169 10:33 14.12.2022
658 Clouds 27 1007 84 10000 0.54 193 08:51 14.12.2022
659 Clouds 29 1010 71 10000 0.62 96 22:49 13.12.2022
660 Clouds 27 1009 78 10000 0.93 139 21:48 13.12.2022
661 Clouds 26 1009 84 10000 1.36 151 20:48 13.12.2022
662 Clouds 26 1009 84 10000 1.36 151 20:48 13.12.2022
663 Clouds 25 1009 86 10000 1.38 152 19:59 13.12.2022
664 Clouds 25 1007 88 10000 1.5 150 17:21 13.12.2022
665 Clouds 25 1007 88 10000 1.52 148 15:35 13.12.2022
666 Clouds 26 1008 87 10000 1.46 135 14:36 13.12.2022
667 Clouds 26 1010 86 10000 1.4 136 10:55 13.12.2022
668 Clouds 26 1010 86 10000 1.4 136 10:35 13.12.2022
669 Clouds 27 1008 84 10000 1.16 110 09:23 13.12.2022
670 Clouds 29 1010 69 10000 0.25 21 23:23 12.12.2022
671 Clouds 28 1010 74 10000 0.41 162 22:21 12.12.2022
672 Clouds 27 1010 81 10000 0.88 180 20:51 12.12.2022
673 Clouds 25 1009 84 10000 1.4 174 18:32 12.12.2022
674 Clouds 25 1007 85 10000 1.15 159 16:35 12.12.2022
675 Clouds 26 1009 85 10000 0.56 160 15:21 12.12.2022
676 Clouds 26 1010 84 10000 0.38 174 11:47 12.12.2022
677 Clouds 27 1009 84 10000 0.42 41 09:19 12.12.2022
678 Clouds 29 1007 77 10000 2.01 346 04:54 12.12.2022
679 Clouds 29 1009 73 10000 1.19 58 01:52 12.12.2022
680 Clouds 27 1010 77 10000 0.53 69 22:22 11.12.2022
681 Clouds 26 1010 81 10000 1.07 134 20:42 11.12.2022
682 Clouds 25 1009 84 10000 1.7 126 19:41 11.12.2022
683 Clouds 25 1008 84 10000 1.85 116 18:56 11.12.2022
684 Clouds 25 1008 84 10000 1.8 135 17:58 11.12.2022
685 Clouds 25 1008 85 10000 1.4 137 17:29 11.12.2022
686 Clouds 25 1008 85 10000 1.4 137 16:49 11.12.2022
687 Clouds 25 1008 86 10000 1.35 153 15:46 11.12.2022
688 Clouds 25 1009 87 10000 2.46 120 13:55 11.12.2022
689 Clouds 25 1010 89 10000 2.47 114 12:43 11.12.2022
690 Clouds 25 1010 91 10000 2.35 125 11:29 11.12.2022
691 Rain 27 1007 84 7886 1.34 32 04:54 11.12.2022
692 Rain 28 1010 79 10000 1.48 24 00:32 11.12.2022
693 Rain 28 1010 78 10000 0.34 7 22:51 10.12.2022
694 Rain 28 1010 78 10000 0.34 7 22:32 10.12.2022
695 Rain 26 1009 84 10000 0.41 136 21:18 10.12.2022
696 Clouds 26 1009 85 10000 0.68 139 20:24 10.12.2022
697 Clouds 26 1008 85 10000 0.76 136 18:22 10.12.2022
698 Clouds 26 1008 86 10000 0.8 137 16:47 10.12.2022
699 Rain 26 1008 85 10000 0.9 119 15:53 10.12.2022
700 Rain 26 1008 85 10000 0.9 119 15:33 10.12.2022
701 Rain 26 1009 87 10000 0.79 102 13:44 10.12.2022
702 Rain 26 1010 88 10000 1.16 101 12:34 10.12.2022
703 Rain 26 1010 87 10000 0.43 67 11:22 10.12.2022
704 Rain 27 1009 86 10000 0.52 17 09:52 10.12.2022
705 Clouds 28 1007 83 9342 1.28 352 07:23 10.12.2022
706 Clouds 28 1007 83 9342 1.28 352 06:54 10.12.2022
707 Clouds 30 1010 72 10000 1.91 13 23:51 09.12.2022
708 Clouds 29 1010 76 10000 1.44 23 22:43 09.12.2022
709 Clouds 28 1010 81 10000 1.1 27 21:41 09.12.2022
710 Clouds 27 1010 85 10000 0.82 47 20:59 09.12.2022
711 Clouds 26 1009 86 10000 0.62 93 19:46 09.12.2022
712 Clouds 26 1008 87 10000 0.13 156 17:56 09.12.2022
713 Clouds 26 1007 88 10000 0.15 174 17:27 09.12.2022
714 Clouds 26 1008 88 10000 0.34 180 16:26 09.12.2022
715 Clouds 26 1008 88 10000 0.34 180 15:30 09.12.2022
716 Clouds 26 1010 87 10000 0.37 112 12:50 09.12.2022
717 Clouds 27 1010 86 10000 0.98 64 10:50 09.12.2022
718 Clouds 27 1009 86 10000 1.05 55 10:22 09.12.2022
719 Clouds 28 1007 80 10000 1.4 14 05:38 09.12.2022
720 Clouds 29 1008 75 10000 1.66 6 03:18 09.12.2022
721 Clouds 29 1009 76 10000 0.95 44 22:51 08.12.2022
722 Clouds 27 1009 85 10000 0.58 96 20:55 08.12.2022
723 Clouds 25 1007 88 10000 0.6 129 18:57 08.12.2022
724 Clouds 26 1006 88 10000 0.73 100 16:38 08.12.2022
725 Clouds 26 1007 88 10000 0.67 110 14:30 08.12.2022
726 Clouds 26 1009 87 10000 0.72 68 12:28 08.12.2022
727 Clouds 27 1009 86 10000 0.82 49 10:36 08.12.2022
728 Rain 27 1007 84 10000 1.22 36 09:28 08.12.2022
729 Rain 28 1006 81 10000 1.24 23 06:51 08.12.2022
730 Clouds 29 1009 74 10000 1.25 83 22:43 07.12.2022
731 Clouds 28 1008 80 10000 1.04 110 22:18 07.12.2022
732 Clouds 28 1008 80 10000 1.04 110 21:45 07.12.2022
733 Clouds 25 1008 88 10000 1.17 144 19:49 07.12.2022
734 Clouds 25 1006 89 10000 1.44 141 17:51 07.12.2022
735 Clouds 26 1007 89 10000 1.13 138 15:29 07.12.2022
736 Clouds 26 1008 89 10000 1.02 129 13:20 07.12.2022
737 Clouds 26 1009 88 10000 0.92 154 10:47 07.12.2022
738 Clouds 26 1008 87 10000 0.9 153 09:57 07.12.2022
739 Clouds 27 1008 86 10000 0.78 134 08:55 07.12.2022
740 Rain 28 1006 81 10000 0.76 49 06:50 07.12.2022
741 Clouds 29 1006 79 10000 1.27 46 05:23 07.12.2022
742 Clouds 30 1009 68 10000 1.93 68 23:44 06.12.2022
743 Clouds 28 1009 77 10000 1.42 109 21:31 06.12.2022
744 Clouds 25 1008 86 10000 1.74 155 18:35 06.12.2022
745 Clouds 25 1007 87 10000 1.42 146 17:18 06.12.2022
746 Clouds 25 1007 87 10000 1.02 150 16:21 06.12.2022
747 Clouds 25 1007 87 10000 1.02 150 15:35 06.12.2022
748 Clouds 25 1008 87 10000 1.1 145 14:34 06.12.2022
749 Clouds 26 1009 87 10000 1 130 13:39 06.12.2022
750 Clouds 26 1010 86 10000 0.77 131 12:40 06.12.2022
751 Clouds 26 1009 85 10000 0.27 106 10:23 06.12.2022
752 Clouds 28 1007 79 10000 1.26 31 06:48 06.12.2022
753 Clouds 31 1008 65 10000 2.29 36 01:32 06.12.2022
754 Clouds 29 1010 72 10000 1.34 91 22:37 05.12.2022
755 Clouds 27 1010 79 10000 1.39 107 21:37 05.12.2022
756 Clouds 26 1010 85 10000 1.45 126 20:39 05.12.2022
757 Clouds 25 1009 87 10000 1.42 136 19:46 05.12.2022
758 Clouds 25 1008 87 10000 1.38 142 18:38 05.12.2022
759 Clouds 25 1008 86 10000 1.37 138 16:49 05.12.2022
760 Clouds 25 1009 85 10000 1.31 127 15:24 05.12.2022
761 Clouds 26 1010 85 10000 1.16 132 13:27 05.12.2022
762 Clouds 26 1010 85 10000 1.16 132 12:52 05.12.2022
763 Clouds 26 1010 85 10000 1.16 132 12:34 05.12.2022
764 Clouds 26 1010 85 10000 0.76 97 10:58 05.12.2022
765 Clouds 28 1007 77 10000 1.59 57 04:52 05.12.2022
766 Clouds 27 1010 83 10000 2.6 67 23:25 04.12.2022
767 Clouds 27 1010 83 10000 2.6 67 22:37 04.12.2022
768 Clouds 26 1010 86 10000 2.19 78 22:18 04.12.2022
769 Clouds 26 1009 87 10000 1.69 97 21:27 04.12.2022
770 Clouds 25 1009 88 10000 1.76 101 19:47 04.12.2022
771 Clouds 25 1008 88 10000 1.59 99 19:22 04.12.2022
772 Clouds 25 1007 89 10000 0.93 122 17:24 04.12.2022
773 Clouds 25 1007 89 10000 0.93 122 16:59 04.12.2022
774 Clouds 25 1007 89 10000 0.93 122 16:36 04.12.2022
775 Rain 25 1007 88 10000 1.16 122 16:18 04.12.2022
776 Rain 26 1008 87 10000 1.03 100 14:46 04.12.2022
777 Rain 26 1009 86 10000 1.08 93 13:37 04.12.2022
778 Rain 26 1009 85 10000 1.18 90 12:44 04.12.2022
779 Clouds 26 1009 85 10000 1.27 94 11:59 04.12.2022
780 Rain 26 1009 85 10000 1.32 93 09:33 04.12.2022
781 Rain 27 1008 85 10000 1.2 27 07:32 04.12.2022
782 Clouds 28 1009 82 8644 2.32 17 00:59 04.12.2022
783 Clouds 28 1009 81 10000 2.25 11 23:43 03.12.2022
784 Clouds 27 1009 83 10000 1.74 23 22:22 03.12.2022
785 Clouds 26 1008 87 10000 0.96 33 21:21 03.12.2022
786 Clouds 25 1007 89 10000 0.92 57 20:23 03.12.2022
787 Clouds 25 1006 88 10000 1.34 75 18:39 03.12.2022
788 Clouds 25 1006 89 10000 1.69 95 16:45 03.12.2022
789 Clouds 25 1007 89 10000 1.6 106 14:27 03.12.2022
790 Clouds 25 1008 88 10000 0.85 113 12:54 03.12.2022
791 Clouds 25 1009 88 10000 0.19 157 12:23 03.12.2022
792 Clouds 25 1008 90 10000 0.41 226 10:21 03.12.2022
793 Rain 26 1006 87 10000 0.76 341 07:22 03.12.2022
794 Clouds 25 1008 96 3516 1.64 51 01:30 03.12.2022
795 Rain 26 1009 91 6112 2.77 5 22:50 02.12.2022
796 Rain 26 1008 90 6650 1.78 6 20:54 02.12.2022
797 Rain 26 1008 90 6650 1.78 6 20:54 02.12.2022
798 Rain 26 1008 90 6650 1.78 6 20:54 02.12.2022
799 Rain 26 1007 91 10000 1.79 21 19:26 02.12.2022
800 Rain 26 1006 88 10000 1.34 25 15:59 02.12.2022
801 Rain 26 1007 88 10000 0.93 38 14:43 02.12.2022
802 Rain 26 1007 88 10000 0.47 50 14:25 02.12.2022
803 Rain 26 1008 89 10000 0.88 29 12:56 02.12.2022
804 Clouds 26 1008 88 10000 1.06 40 11:40 02.12.2022
805 Clouds 26 1006 89 10000 0.9 69 08:35 02.12.2022
806 Clouds 27 1005 86 10000 1.31 0 07:24 02.12.2022
807 Clouds 28 1007 80 10000 1.74 353 23:54 01.12.2022
808 Clouds 27 1007 85 10000 1.02 328 21:49 01.12.2022
809 Clouds 27 1007 85 10000 1.02 328 21:31 01.12.2022
810 Rain 26 1006 88 10000 1.06 288 19:48 01.12.2022
811 Clouds 26 1005 85 10000 0.52 198 17:50 01.12.2022
812 Clouds 26 1005 85 10000 0.64 200 15:44 01.12.2022
813 Clouds 26 1008 84 10000 0.39 259 11:41 01.12.2022
814 Clouds 27 1007 83 10000 0.5 2 10:23 01.12.2022
815 Clouds 27 1007 83 10000 0.5 2 09:54 01.12.2022
816 Clouds 27 1007 83 10000 0.5 2 09:35 01.12.2022
817 Clouds 30 1008 68 10000 1.64 16 23:59 30.11.2022
818 Clouds 29 1008 70 10000 0.92 33 22:35 30.11.2022
819 Clouds 26 1008 83 10000 0.9 151 21:19 30.11.2022
820 Clouds 25 1007 86 10000 0.92 158 20:25 30.11.2022
821 Clouds 26 1007 87 10000 0.98 115 19:36 30.11.2022
822 Clouds 26 1006 87 10000 0.76 108 18:33 30.11.2022
823 Clouds 26 1006 88 10000 0.67 113 17:35 30.11.2022
824 Clouds 26 1007 88 10000 0.77 111 14:47 30.11.2022
825 Clouds 26 1007 87 10000 0.78 114 14:27 30.11.2022
826 Clouds 26 1008 87 10000 0.81 109 12:32 30.11.2022
827 Rain 27 1008 85 10000 0.13 301 10:24 30.11.2022
828 Rain 27 1008 85 10000 0.53 330 08:38 30.11.2022
829 Rain 28 1007 80 10000 1.46 2 07:25 30.11.2022
830 Clouds 30 1009 69 10000 1.73 11 23:33 29.11.2022
831 Clouds 28 1009 80 10000 1.12 43 22:25 29.11.2022
832 Clouds 27 1009 85 10000 0.56 60 20:53 29.11.2022
833 Clouds 27 1009 85 10000 0.56 60 20:33 29.11.2022
834 Clouds 26 1008 86 10000 0.7 79 18:57 29.11.2022
835 Clouds 25 1007 87 10000 0.56 67 16:58 29.11.2022
836 Clouds 26 1008 87 10000 0.66 58 16:20 29.11.2022
837 Clouds 26 1008 87 10000 0.81 45 14:49 29.11.2022
838 Clouds 26 1010 86 10000 1.33 86 12:45 29.11.2022
839 Clouds 26 1010 86 10000 1.28 83 11:32 29.11.2022
840 Clouds 26 1010 85 10000 1.14 85 10:41 29.11.2022
841 Clouds 27 1008 84 10000 1.12 55 09:28 29.11.2022
842 Rain 27 1008 83 10000 1.49 33 07:46 29.11.2022
843 Clouds 29 1010 76 10000 2.82 20 00:33 29.11.2022
844 Clouds 29 1010 76 10000 1.7 32 23:27 28.11.2022
845 Clouds 28 1010 81 10000 1.41 54 22:22 28.11.2022
846 Rain 28 1010 81 10000 1.41 54 21:43 28.11.2022
847 Clouds 27 1010 86 10000 1.16 71 20:30 28.11.2022
848 Clouds 26 1009 86 10000 0.77 79 19:37 28.11.2022
849 Rain 26 1008 86 10000 0.83 86 18:28 28.11.2022
850 Rain 26 1008 87 10000 0.89 71 17:23 28.11.2022
851 Rain 26 1009 87 10000 0.93 48 14:57 28.11.2022
852 Clouds 26 1010 88 10000 1.05 64 13:56 28.11.2022
853 Clouds 26 1010 86 10000 0.79 44 13:19 28.11.2022
854 Clouds 26 1010 86 10000 0.9 64 11:32 28.11.2022
855 Clouds 28 1008 82 10000 1.95 12 08:26 28.11.2022
856 Rain 29 1007 75 10000 2.36 3 04:57 28.11.2022
857 Rain 30 1007 72 10000 2.7 6 04:38 28.11.2022
858 Clouds 30 1008 72 10000 2.38 18 03:21 28.11.2022
859 Clouds 29 1010 75 10000 2.05 25 00:29 28.11.2022
860 Clouds 28 1010 81 10000 1.53 60 22:24 27.11.2022
861 Clouds 26 1010 85 10000 1.23 117 20:46 27.11.2022
862 Clouds 25 1009 87 10000 1.43 143 18:37 27.11.2022
863 Clouds 25 1008 88 10000 0.94 113 16:22 27.11.2022
864 Clouds 26 1010 88 10000 0.96 112 13:47 27.11.2022
865 Clouds 26 1011 87 10000 0.96 94 12:20 27.11.2022
866 Clouds 26 1010 87 10000 0.65 6 09:21 27.11.2022
867 Clouds 27 1008 84 10000 1.13 343 06:30 27.11.2022
868 Rain 28 1010 77 10000 2.02 40 23:22 26.11.2022
869 Clouds 26 1010 85 10000 1.23 65 20:59 26.11.2022
870 Clouds 26 1009 87 10000 1.25 69 19:50 26.11.2022
871 Clouds 26 1008 87 10000 1.17 66 18:38 26.11.2022
872 Clouds 26 1008 87 10000 0.86 67 16:34 26.11.2022
873 Clouds 26 1009 88 10000 0.88 74 14:34 26.11.2022
874 Clouds 26 1010 87 10000 0.75 79 12:42 26.11.2022
875 Clouds 27 1010 85 10000 0.75 56 10:52 26.11.2022
876 Clouds 27 1010 84 10000 0.58 49 09:36 26.11.2022
877 Clouds 28 1008 80 10000 1.03 17 07:29 26.11.2022
878 Clouds 28 1012 79 10000 1.34 94 22:18 25.11.2022
879 Clouds 28 1012 79 10000 1.34 94 21:30 25.11.2022
880 Clouds 25 1010 87 10000 1.42 142 19:58 25.11.2022
881 Clouds 26 1009 87 10000 0.52 118 16:50 25.11.2022
882 Clouds 26 1010 86 10000 0.56 110 14:45 25.11.2022
883 Clouds 27 1012 84 10000 1.02 145 09:36 25.11.2022
884 Clouds 27 1011 83 10000 1.12 142 08:41 25.11.2022
885 Clouds 28 1010 81 10000 0.52 123 06:55 25.11.2022
886 Clouds 28 1009 79 10000 0.17 335 06:26 25.11.2022
887 Clear 30 1012 66 10000 1.95 55 23:57 24.11.2022
888 Clear 29 1013 70 10000 1.71 87 22:51 24.11.2022
889 Clear 28 1013 75 10000 1.55 108 21:59 24.11.2022
890 Clear 27 1013 82 10000 1.53 126 20:33 24.11.2022
891 Clear 25 1011 86 10000 2.03 134 18:54 24.11.2022
892 Clear 25 1011 87 10000 1.96 138 17:43 24.11.2022
893 Clear 26 1011 87 10000 1.94 138 17:20 24.11.2022
894 Clouds 26 1012 86 10000 1.94 131 15:18 24.11.2022
895 Clouds 26 1013 86 10000 1.72 134 13:49 24.11.2022
896 Clouds 26 1013 86 10000 1.96 137 11:55 24.11.2022
897 Clouds 27 1013 85 10000 1.8 132 10:36 24.11.2022
898 Clouds 28 1011 79 10000 1.69 57 07:53 24.11.2022
899 Clouds 31 1011 68 10000 3.2 64 03:22 24.11.2022
900 Clear 31 1013 64 10000 2.88 78 23:46 23.11.2022
901 Clear 28 1014 76 10000 1.97 112 21:57 23.11.2022
902 Clear 27 1013 83 10000 1.88 132 21:24 23.11.2022
903 Clear 25 1013 86 10000 2.07 141 20:21 23.11.2022
904 Clouds 25 1012 86 10000 1.63 144 18:59 23.11.2022
905 Clouds 25 1012 86 10000 1.63 144 18:41 23.11.2022
906 Clouds 26 1012 86 10000 1.55 142 16:33 23.11.2022
907 Clouds 26 1013 86 10000 1.92 147 13:39 23.11.2022
908 Rain 26 1014 85 10000 1.83 150 13:19 23.11.2022
909 Clouds 26 1014 85 10000 1.73 151 11:59 23.11.2022
910 Clouds 26 1014 85 10000 1.73 151 11:40 23.11.2022
911 Clouds 27 1014 84 10000 1.42 148 10:42 23.11.2022
912 Clouds 27 1013 83 10000 0.9 128 09:42 23.11.2022
913 Clouds 27 1012 83 10000 0.96 84 09:23 23.11.2022
914 Clouds 27 1012 83 10000 0.96 84 08:36 23.11.2022
915 Clouds 30 1010 68 10000 2.79 46 05:22 23.11.2022
916 Clouds 31 1011 62 10000 3.74 62 02:56 23.11.2022
917 Clear 30 1013 69 10000 2.74 89 22:58 22.11.2022
918 Clear 28 1013 74 10000 2.28 105 21:54 22.11.2022
919 Clear 28 1013 74 10000 2.28 105 21:32 22.11.2022
920 Clear 27 1013 80 10000 1.98 124 20:45 22.11.2022
921 Clear 27 1013 80 10000 1.98 124 20:45 22.11.2022
922 Clear 25 1012 84 10000 2.15 132 19:52 22.11.2022
923 Clouds 26 1011 85 10000 1.65 132 17:55 22.11.2022
924 Clouds 26 1011 83 10000 1.67 122 16:48 22.11.2022
925 Clouds 26 1011 81 10000 2.22 122 15:24 22.11.2022
926 Clouds 26 1012 81 10000 2.29 135 13:24 22.11.2022
927 Clouds 27 1012 78 10000 1.43 136 10:25 22.11.2022
928 Clouds 27 1011 77 10000 1.11 107 08:59 22.11.2022
929 Clear 30 1010 66 10000 1.75 57 06:46 22.11.2022
930 Clear 32 1011 53 10000 3.16 60 01:35 22.11.2022
931 Clouds 30 1013 57 10000 2.92 90 23:33 21.11.2022
932 Clouds 28 1013 74 10000 2.57 115 22:26 21.11.2022
933 Clouds 28 1013 74 10000 2.57 115 21:33 21.11.2022
934 Clouds 26 1013 82 10000 2.47 127 20:35 21.11.2022
935 Clouds 25 1012 84 10000 2.5 132 19:40 21.11.2022
936 Clouds 25 1012 85 10000 2.49 131 18:52 21.11.2022
937 Clear 26 1010 85 10000 2.12 114 17:46 21.11.2022
938 Clear 26 1010 85 10000 2.35 108 16:51 21.11.2022
939 Clear 26 1010 85 10000 2.35 108 16:33 21.11.2022
940 Clear 26 1010 85 10000 2.65 120 15:24 21.11.2022
941 Clear 26 1011 84 10000 2.21 130 13:55 21.11.2022
942 Clear 26 1011 84 10000 2.21 130 13:34 21.11.2022
943 Clouds 27 1012 81 10000 1.24 131 10:20 21.11.2022
944 Clouds 28 1010 78 10000 1.23 51 08:19 21.11.2022
945 Clouds 28 1010 78 10000 1.23 51 08:19 21.11.2022
946 Clear 31 1010 61 10000 2.99 30 02:18 21.11.2022
947 Clouds 28 1012 80 10000 2.3 55 21:59 20.11.2022
948 Clouds 27 1011 83 10000 2.22 55 20:48 20.11.2022
949 Clouds 27 1010 85 10000 2.26 75 19:57 20.11.2022
950 Clouds 27 1009 85 10000 2.35 54 17:43 20.11.2022
951 Clouds 27 1009 84 10000 2.21 53 15:50 20.11.2022
952 Clouds 27 1009 83 10000 2.32 45 15:24 20.11.2022
953 Clouds 27 1010 82 10000 2.28 39 14:25 20.11.2022
954 Clouds 27 1010 82 10000 2.28 39 13:32 20.11.2022
955 Clouds 27 1010 84 10000 2.19 33 13:32 20.11.2022
956 Clouds 27 1011 82 10000 2.36 28 12:23 20.11.2022
957 Clouds 27 1011 84 10000 2 21 10:58 20.11.2022
958 Clouds 27 1011 85 10000 2.09 16 09:44 20.11.2022
959 Clouds 27 1010 84 10000 1.94 13 08:55 20.11.2022
960 Clouds 27 1010 84 10000 1.94 13 08:32 20.11.2022
961 Clouds 29 1008 77 10000 2.15 9 07:26 20.11.2022
962 Clouds 30 1010 71 10000 2.42 21 01:29 20.11.2022
963 Clouds 30 1010 71 10000 2.42 21 00:55 20.11.2022
964 Clouds 30 1010 71 10000 2.42 21 00:36 20.11.2022
965 Clouds 30 1011 72 10000 2.46 21 00:18 20.11.2022
966 Clouds 29 1011 74 10000 2.16 22 23:26 19.11.2022
967 Clouds 29 1011 74 10000 2.16 22 22:48 19.11.2022
968 Clouds 28 1011 78 10000 1.93 28 21:57 19.11.2022
969 Clouds 27 1010 83 10000 1.39 38 21:25 19.11.2022
970 Clouds 27 1010 82 10000 0.78 58 20:41 19.11.2022
971 Clouds 26 1010 85 10000 0.71 94 19:51 19.11.2022
972 Clouds 26 1009 85 10000 0.6 94 18:53 19.11.2022
973 Clouds 26 1008 85 10000 0.52 80 17:38 19.11.2022
974 Clouds 26 1008 85 10000 0.46 54 17:18 19.11.2022
975 Clouds 26 1009 83 10000 0.78 59 14:54 19.11.2022
976 Clouds 26 1011 82 10000 0.9 67 13:29 19.11.2022
977 Clouds 27 1011 83 10000 1.09 60 11:52 19.11.2022
978 Clouds 27 1010 82 10000 0.99 55 09:45 19.11.2022
979 Clouds 28 1009 78 10000 1.36 29 07:52 19.11.2022
980 Clouds 30 1008 64 10000 2.03 1 04:44 19.11.2022
981 Clouds 30 1010 66 10000 2.11 43 00:46 19.11.2022
982 Clouds 29 1011 68 10000 1.9 55 23:34 18.11.2022
983 Clouds 27 1011 80 10000 1.59 85 22:23 18.11.2022
984 Clouds 27 1011 80 10000 1.59 85 21:35 18.11.2022
985 Clouds 26 1011 84 10000 1.43 94 20:57 18.11.2022
986 Clouds 25 1010 86 10000 1.46 93 20:21 18.11.2022
987 Clouds 25 1010 86 10000 1.46 93 19:36 18.11.2022
988 Clouds 25 1009 86 10000 0.08 79 17:45 18.11.2022
989 Clouds 26 1009 86 10000 0.14 89 15:59 18.11.2022
990 Clouds 25 1010 89 10000 0.62 166 11:52 18.11.2022
991 Clouds 26 1011 89 10000 1.11 92 10:22 18.11.2022
992 Clouds 26 1011 89 10000 1.11 92 10:22 18.11.2022
993 Clouds 26 1010 88 10000 1.68 47 07:52 18.11.2022
994 Rain 28 1008 80 10000 1.94 12 05:27 18.11.2022
995 Rain 29 1010 78 10000 2.35 20 02:25 18.11.2022
996 Clouds 29 1011 79 10000 1.56 41 22:56 17.11.2022
997 Clouds 27 1010 86 10000 0.99 75 20:48 17.11.2022
998 Clouds 26 1010 87 10000 0.82 74 19:51 17.11.2022
999 Clouds 26 1009 87 10000 0.24 96 19:20 17.11.2022
1000 Clouds 26 1008 86 10000 0.39 169 18:27 17.11.2022
1001 Clouds 26 1008 86 10000 0.39 169 17:30 17.11.2022
1002 Clouds 26 1008 86 10000 0.39 169 17:30 17.11.2022
1003 Clouds 26 1008 86 10000 0.75 219 15:42 17.11.2022
1004 Clouds 27 1010 84 10000 0.79 185 12:19 17.11.2022
1005 Clouds 27 1009 83 10000 0.64 205 10:29 17.11.2022
1006 Rain 29 1007 77 10000 0.36 316 07:20 17.11.2022
1007 Clouds 29 1009 74 10000 1.45 357 00:52 17.11.2022
1008 Clouds 29 1010 74 10000 0.93 11 22:44 16.11.2022
1009 Clouds 28 1010 79 10000 0.18 11 21:49 16.11.2022
1010 Clouds 26 1009 87 10000 0.73 173 20:22 16.11.2022
1011 Clouds 26 1008 88 10000 0.82 84 18:48 16.11.2022
1012 Clouds 26 1008 88 10000 0.6 84 17:58 16.11.2022
1013 Clouds 26 1008 87 10000 0.43 93 14:41 16.11.2022
1014 Clouds 27 1010 85 10000 1.09 49 10:53 16.11.2022
1015 Clouds 29 1007 79 10000 1.15 326 06:48 16.11.2022
1016 Clouds 30 1009 70 10000 2.79 350 01:34 16.11.2022
1017 Clouds 29 1011 73 10000 1.12 5 22:54 15.11.2022
1018 Clouds 27 1010 84 10000 0.55 129 20:56 15.11.2022
1019 Clouds 26 1009 86 10000 0.65 130 19:42 15.11.2022
1020 Clouds 26 1009 86 10000 0.67 117 18:51 15.11.2022
1021 Clouds 26 1008 85 10000 0.51 119 17:32 15.11.2022
1022 Clouds 26 1008 85 10000 0.34 133 16:20 15.11.2022
1023 Clouds 26 1008 85 10000 0.34 133 16:20 15.11.2022
1024 Clouds 26 1009 85 10000 0.2 146 15:21 15.11.2022
1025 Clouds 26 1009 85 10000 0.39 153 13:39 15.11.2022
1026 Clouds 27 1010 84 10000 0.55 63 11:48 15.11.2022
1027 Clouds 27 1010 83 10000 0.84 52 11:19 15.11.2022
1028 Clouds 27 1008 82 10000 0.37 59 09:18 15.11.2022
1029 Clouds 30 1009 71 10000 1.95 28 00:39 15.11.2022
1030 Clouds 29 1009 71 10000 1.66 39 00:18 15.11.2022
1031 Clouds 28 1010 78 10000 0.86 99 21:35 14.11.2022
1032 Clouds 27 1009 83 10000 1.02 130 20:40 14.11.2022
1033 Clouds 26 1008 85 10000 0.76 96 18:57 14.11.2022
1034 Clouds 26 1007 83 10000 0.66 46 16:56 14.11.2022
1035 Clouds 27 1010 83 10000 0.65 77 12:55 14.11.2022
1036 Clouds 27 1011 83 10000 0.81 81 11:42 14.11.2022
1037 Clouds 27 1010 83 10000 0.29 112 09:32 14.11.2022
1038 Clouds 28 1009 82 10000 0.53 314 07:54 14.11.2022
1039 Clouds 28 1008 79 10000 0.89 326 06:40 14.11.2022
1040 Clouds 30 1011 72 10000 1.7 11 00:18 14.11.2022
1041 Clouds 28 1011 79 10000 0.76 51 21:55 13.11.2022
1042 Clouds 28 1011 79 10000 0.76 51 21:36 13.11.2022
1043 Clouds 26 1010 87 10000 0.84 89 19:44 13.11.2022
1044 Clouds 26 1009 87 10000 1.06 59 18:23 13.11.2022
1045 Clouds 26 1009 87 10000 0.96 42 17:22 13.11.2022
1046 Clouds 26 1010 87 10000 0.47 22 14:58 13.11.2022
1047 Clouds 26 1010 87 10000 0.24 67 14:23 13.11.2022
1048 Clouds 26 1011 87 10000 0.53 88 12:38 13.11.2022
1049 Rain 26 1011 87 10000 0.55 71 11:20 13.11.2022
1050 Clouds 27 1010 85 10000 1.1 25 08:55 13.11.2022
1051 Clouds 29 1010 71 10000 1.71 18 01:35 13.11.2022
1052 Clouds 28 1012 76 10000 1.27 57 22:51 12.11.2022
1053 Clouds 26 1011 85 10000 0.96 105 21:24 12.11.2022
1054 Clouds 25 1010 87 10000 1.18 111 20:18 12.11.2022
1055 Clouds 25 1009 87 10000 1.36 128 17:57 12.11.2022
1056 Clouds 25 1009 87 10000 1.03 135 16:25 12.11.2022
1057 Clouds 25 1010 86 10000 0.95 132 15:22 12.11.2022
1058 Clouds 25 1011 87 10000 0.9 122 12:27 12.11.2022
1059 Clouds 26 1010 90 10000 0.84 90 09:20 12.11.2022
1060 Rain 25 1008 91 10000 1.06 108 05:31 12.11.2022
1061 Clouds 26 1011 94 1491 2.65 13 22:30 11.11.2022
1062 Clouds 26 1010 92 6730 1.42 29 20:46 11.11.2022
1063 Clouds 26 1010 92 6730 1.42 29 20:46 11.11.2022
1064 Clouds 25 1009 93 10000 1.23 56 19:42 11.11.2022
1065 Clouds 25 1009 92 8408 0.83 46 19:20 11.11.2022
1066 Rain 25 1008 92 10000 0.86 36 17:56 11.11.2022
1067 Rain 25 1008 92 10000 0.86 36 17:56 11.11.2022
1068 Rain 25 1008 91 10000 1.13 37 16:20 11.11.2022
1069 Rain 25 1010 90 10000 1.12 42 14:20 11.11.2022
1070 Rain 26 1010 90 10000 1.05 52 13:28 11.11.2022
1071 Rain 26 1010 90 10000 0.84 31 09:37 11.11.2022
1072 Rain 26 1010 90 10000 0.84 31 09:37 11.11.2022
1073 Rain 26 1008 90 10000 1.2 3 08:27 11.11.2022
1074 Rain 27 1007 86 10000 1.43 347 05:28 11.11.2022
1075 Clouds 27 1010 86 10000 0.97 1 23:21 10.11.2022
1076 Clouds 26 1010 88 10000 0.77 0 22:27 10.11.2022
1077 Rain 26 1010 88 10000 0.77 0 21:32 10.11.2022
1078 Rain 26 1009 89 10000 0.5 353 20:50 10.11.2022
1079 Rain 26 1008 89 10000 0.48 18 20:20 10.11.2022
1080 Rain 26 1008 89 10000 0.48 18 19:42 10.11.2022
1081 Rain 26 1007 89 10000 1.15 42 18:32 10.11.2022
1082 Rain 25 1007 90 10000 1.11 84 16:26 10.11.2022
1083 Clouds 26 1008 88 10000 0.58 104 13:43 10.11.2022
1084 Clouds 26 1009 88 10000 0.75 209 11:33 10.11.2022
1085 Clouds 26 1008 88 9150 2.43 265 08:33 10.11.2022
1086 Rain 30 1008 71 10000 3.17 306 01:29 10.11.2022
1087 Rain 30 1009 72 10000 2.68 293 23:30 09.11.2022
1088 Rain 27 1009 82 10000 1.45 268 22:28 09.11.2022
1089 Rain 26 1009 86 10000 1.08 263 20:48 09.11.2022
1090 Rain 25 1008 88 10000 0.61 277 20:29 09.11.2022
1091 Rain 25 1008 88 10000 0.61 277 19:32 09.11.2022
1092 Clouds 25 1008 88 10000 0.38 242 18:49 09.11.2022
1093 Clouds 25 1008 91 10000 1.23 293 15:55 09.11.2022
1094 Clouds 25 1008 92 10000 1.11 280 14:45 09.11.2022
1095 Clouds 25 1009 93 10000 1.92 289 14:23 09.11.2022
1096 Clouds 26 1010 89 8027 2.55 294 12:58 09.11.2022
1097 Rain 27 1009 85 10000 2.73 280 10:29 09.11.2022
1098 Rain 27 1009 86 10000 3.12 282 08:32 09.11.2022
1099 Rain 27 1008 85 10000 2.94 297 07:41 09.11.2022
1100 Clouds 29 1010 76 10000 1.97 295 23:29 08.11.2022
1101 Rain 28 1010 79 10000 1.49 283 21:44 08.11.2022
1102 Clouds 27 1009 84 10000 1.49 264 21:23 08.11.2022
1103 Clouds 27 1009 84 10000 1.49 264 20:40 08.11.2022
1104 Clouds 26 1009 85 10000 1.66 258 19:36 08.11.2022
1105 Clouds 26 1008 85 10000 0.85 256 18:23 08.11.2022
1106 Clouds 26 1008 86 10000 0.61 274 16:20 08.11.2022
1107 Clouds 26 1009 86 10000 0.37 271 14:55 08.11.2022
1108 Clouds 26 1009 86 10000 0.63 248 13:36 08.11.2022
1109 Rain 26 1010 87 10000 0.94 235 12:40 08.11.2022
1110 Clouds 27 1009 85 10000 1.28 273 08:57 08.11.2022
1111 Clouds 29 1007 78 10000 2.19 300 07:25 08.11.2022
1112 Rain 30 1010 69 10000 2.16 322 00:22 08.11.2022
1113 Clouds 28 1010 79 10000 1.09 324 22:24 07.11.2022
1114 Clouds 27 1010 84 10000 0.84 300 21:21 07.11.2022
1115 Clouds 26 1009 87 10000 1.01 287 20:18 07.11.2022
1116 Clouds 25 1008 88 10000 0.51 232 17:51 07.11.2022
1117 Clouds 26 1008 88 10000 0.67 270 16:27 07.11.2022
1118 Clouds 26 1008 88 10000 0.67 270 15:34 07.11.2022
1119 Clouds 26 1010 87 10000 0.72 342 14:18 07.11.2022
1120 Clouds 26 1010 87 10000 0.56 336 12:33 07.11.2022
1121 Clouds 27 1010 85 10000 0.88 333 10:46 07.11.2022
1122 Clouds 27 1009 85 10000 1.45 341 09:22 07.11.2022
1123 Clouds 28 1008 79 10000 2.16 333 07:21 07.11.2022
1124 Clouds 30 1009 68 10000 3.13 330 02:28 07.11.2022
1125 Clouds 31 1010 64 10000 2.61 332 00:36 07.11.2022
1126 Clouds 28 1011 77 10000 0.68 279 21:52 06.11.2022
1127 Clouds 27 1010 83 10000 0.92 218 21:18 06.11.2022
1128 Clouds 25 1009 87 10000 1.36 187 19:59 06.11.2022
1129 Clouds 25 1009 87 10000 1.36 187 19:30 06.11.2022
1130 Clouds 26 1008 87 10000 1.24 214 18:21 06.11.2022
1131 Clouds 26 1008 87 10000 1.24 214 17:46 06.11.2022
1132 Clouds 26 1008 87 10000 1.09 221 17:19 06.11.2022
1133 Clouds 26 1008 87 10000 1.03 215 16:20 06.11.2022
1134 Clouds 26 1009 86 10000 0.76 216 15:26 06.11.2022
1135 Clouds 26 1011 87 10000 0.79 167 12:47 06.11.2022
1136 Clouds 26 1011 86 10000 0.6 164 11:40 06.11.2022
1137 Clouds 27 1011 86 10000 0.47 188 10:33 06.11.2022
1138 Clouds 28 1010 84 10000 0.93 282 07:44 06.11.2022
1139 Clouds 29 1013 70 10000 0.16 325 23:25 05.11.2022
1140 Clouds 26 1012 84 10000 1.12 183 20:46 05.11.2022
1141 Clouds 25 1011 87 10000 0.74 126 18:38 05.11.2022
1142 Clouds 25 1010 87 10000 0.82 138 16:40 05.11.2022
1143 Clouds 26 1011 87 10000 0.76 111 14:43 05.11.2022
1144 Clouds 26 1012 87 10000 0.72 94 13:40 05.11.2022
1145 Clouds 26 1013 86 10000 1.21 68 11:49 05.11.2022
1146 Clouds 27 1012 85 10000 0.92 80 08:58 05.11.2022
1147 Clouds 28 1010 81 10000 0.67 69 07:23 05.11.2022
1148 Clouds 28 1010 81 10000 0.85 73 06:54 05.11.2022
1149 Clouds 30 1012 67 10000 1.54 39 00:37 05.11.2022
1150 Clouds 29 1013 73 10000 1.5 78 23:27 04.11.2022
1151 Clouds 26 1013 84 10000 1.16 115 20:44 04.11.2022
1152 Clouds 25 1012 86 10000 0.99 132 19:31 04.11.2022
1153 Clouds 25 1012 86 10000 0.99 132 19:31 04.11.2022
1154 Clouds 25 1010 85 10000 0.86 146 17:25 04.11.2022
1155 Clouds 26 1012 85 10000 1.61 172 14:20 04.11.2022
1156 Clouds 26 1013 86 10000 1.05 132 12:28 04.11.2022
1157 Clouds 26 1013 86 10000 1.05 132 11:43 04.11.2022
1158 Clouds 26 1013 86 10000 1.54 74 08:53 04.11.2022
1159 Clouds 27 1012 84 10000 1.94 53 07:46 04.11.2022
1160 Clouds 28 1010 79 10000 1.76 57 05:24 04.11.2022
1161 Clouds 29 1013 72 10000 1.22 75 23:28 03.11.2022
1162 Clouds 26 1012 84 10000 1.41 149 20:52 03.11.2022
1163 Clouds 25 1011 87 10000 1.69 156 20:29 03.11.2022
1164 Clouds 25 1011 86 10000 1.66 154 19:40 03.11.2022
1165 Clouds 25 1010 87 10000 1.43 161 17:51 03.11.2022
1166 Clouds 25 1010 86 10000 1.25 161 16:53 03.11.2022
1167 Clouds 26 1011 86 10000 1.34 163 14:20 03.11.2022
1168 Clouds 26 1012 86 10000 1.34 142 12:39 03.11.2022
1169 Clouds 26 1012 85 10000 1.38 137 11:50 03.11.2022
1170 Clouds 27 1012 84 10000 1.24 127 09:37 03.11.2022
1171 Clouds 28 1010 82 10000 0.24 297 07:43 03.11.2022
1172 Clouds 28 1012 78 10000 1.34 124 21:30 02.11.2022
1173 Clouds 26 1011 84 10000 1.28 136 20:39 02.11.2022
1174 Clear 25 1011 86 10000 1.23 133 19:56 02.11.2022
1175 Clouds 26 1009 86 10000 1.45 146 16:51 02.11.2022
1176 Clouds 26 1009 86 10000 1.3 144 15:50 02.11.2022
1177 Clouds 26 1010 86 10000 1.23 150 14:32 02.11.2022
1178 Clouds 26 1012 86 10000 1.68 159 12:44 02.11.2022
1179 Clouds 26 1012 90 10000 1.84 146 11:25 02.11.2022
1180 Clouds 26 1011 89 10000 1.85 151 08:51 02.11.2022
1181 Clouds 29 1009 77 10000 0.52 338 05:30 02.11.2022
1182 Clouds 30 1011 71 10000 1.06 8 23:53 01.11.2022
1183 Clouds 28 1011 76 10000 0.36 222 22:19 01.11.2022
1184 Clouds 28 1011 76 10000 0.36 222 21:37 01.11.2022
1185 Clouds 26 1010 86 10000 0.81 199 20:25 01.11.2022
1186 Clouds 26 1010 86 10000 0.81 199 19:42 01.11.2022
1187 Clouds 26 1010 85 10000 0.82 196 18:36 01.11.2022
1188 Clouds 26 1009 86 10000 0.65 172 17:28 01.11.2022
1189 Clouds 26 1009 86 10000 0.56 182 15:54 01.11.2022
1190 Clouds 26 1011 86 10000 0.18 179 13:35 01.11.2022
1191 Clouds 26 1012 86 10000 0.14 79 12:27 01.11.2022
1192 Clouds 27 1011 86 10000 0.43 59 11:22 01.11.2022
1193 Clouds 27 1011 86 10000 0.61 55 09:49 01.11.2022
1194 Clouds 27 1010 85 10000 0.69 58 08:38 01.11.2022
1195 Clouds 28 1008 78 10000 0.95 14 07:29 01.11.2022
1196 Clouds 29 1008 77 10000 1.34 8 06:46 01.11.2022
1197 Clouds 29 1008 76 10000 1.72 7 05:52 01.11.2022
1198 Clouds 30 1011 67 10000 1.74 36 23:47 31.10.2022
1199 Clouds 28 1011 77 10000 1.27 75 21:34 31.10.2022
1200 Clouds 25 1009 87 10000 1.38 123 20:18 31.10.2022
1201 Clear 25 1009 87 10000 1.28 125 18:45 31.10.2022
1202 Clear 26 1008 87 10000 1.09 136 16:45 31.10.2022
1203 Clear 26 1008 87 10000 1.09 136 16:45 31.10.2022
1204 Clear 26 1008 87 10000 1.04 129 15:45 31.10.2022
1205 Clouds 26 1011 87 10000 1.15 123 12:49 31.10.2022
1206 Clouds 27 1010 86 10000 0.78 79 09:53 31.10.2022
1207 Clouds 28 1009 81 10000 0.68 9 08:20 31.10.2022
1208 Clear 31 1009 63 10000 2.19 356 02:50 31.10.2022
1209 Clear 31 1010 62 10000 2.04 9 01:49 31.10.2022
1210 Clear 28 1011 77 10000 1.03 141 22:25 30.10.2022
1211 Clear 26 1011 84 10000 1.2 153 20:44 30.10.2022
1212 Clear 25 1010 86 10000 1.23 151 19:53 30.10.2022
1213 Clear 25 1009 89 10000 1.56 171 16:42 30.10.2022
1214 Clear 26 1010 89 10000 1.86 165 14:54 30.10.2022
1215 Clear 26 1010 89 10000 1.79 156 13:51 30.10.2022
1216 Clouds 26 1011 87 10000 1.69 137 12:27 30.10.2022
1217 Clouds 26 1011 86 10000 1.59 119 10:25 30.10.2022
1218 Clouds 26 1011 86 10000 1.59 119 09:35 30.10.2022
1219 Clouds 27 1010 84 10000 1.55 93 07:57 30.10.2022
1220 Clouds 29 1011 73 10000 1.64 72 00:29 30.10.2022
1221 Clouds 29 1011 73 10000 1.64 72 23:47 29.10.2022
1222 Clouds 28 1011 79 10000 1.53 103 22:31 29.10.2022
1223 Clouds 26 1009 87 10000 1.26 152 19:41 29.10.2022
1224 Clouds 26 1008 88 10000 1.85 160 17:23 29.10.2022
1225 Clouds 26 1009 89 10000 2.06 159 15:39 29.10.2022
1226 Clouds 26 1010 88 10000 1.84 147 14:55 29.10.2022
1227 Clouds 26 1010 88 10000 1.92 131 13:50 29.10.2022
1228 Clouds 26 1011 88 10000 1.95 118 12:33 29.10.2022
1229 Clouds 27 1009 86 10000 1.66 108 09:32 29.10.2022
1230 Clouds 28 1008 80 10000 1.05 50 06:51 29.10.2022
1231 Clouds 29 1008 78 10000 1.08 35 05:54 29.10.2022
1232 Clouds 29 1011 72 10000 1.33 48 23:44 28.10.2022
1233 Clouds 27 1010 82 10000 0.86 125 21:37 28.10.2022
1234 Clouds 26 1008 84 10000 1.54 136 19:59 28.10.2022
1235 Clouds 26 1008 84 10000 1.44 145 18:33 28.10.2022
1236 Clouds 26 1008 84 10000 1.44 148 17:52 28.10.2022
1237 Clouds 26 1010 84 10000 1.43 122 15:18 28.10.2022
1238 Clouds 26 1010 86 10000 1.65 115 13:43 28.10.2022
1239 Clouds 26 1010 86 10000 1.64 92 11:55 28.10.2022
1240 Clouds 26 1010 86 10000 1.64 92 11:32 28.10.2022
1241 Clouds 27 1010 85 10000 1.34 92 10:45 28.10.2022
1242 Clouds 27 1009 83 10000 0.74 79 09:36 28.10.2022
1243 Clouds 29 1007 72 10000 1.14 4 06:57 28.10.2022
1244 Clear 30 1010 63 10000 1.75 14 01:44 28.10.2022
1245 Clear 29 1010 68 10000 1.09 66 23:46 27.10.2022
1246 Clear 28 1010 75 10000 1.01 94 22:32 27.10.2022
1247 Clear 25 1009 86 10000 1.82 152 20:57 27.10.2022
1248 Clouds 25 1007 87 10000 1.73 159 18:31 27.10.2022
1249 Clouds 25 1008 87 10000 1.53 143 17:22 27.10.2022
1250 Clouds 26 1010 87 10000 1.6 125 12:33 27.10.2022
1251 Clouds 28 1007 77 10000 1.13 109 07:41 27.10.2022
1252 Clouds 30 1009 66 10000 2.02 23 02:50 27.10.2022
1253 Clouds 29 1011 69 10000 0.94 114 23:53 26.10.2022
1254 Clouds 28 1011 75 10000 1.03 139 22:41 26.10.2022
1255 Clouds 26 1010 83 10000 1.54 150 21:33 26.10.2022
1256 Clouds 26 1007 86 10000 1.49 160 18:21 26.10.2022
1257 Clouds 26 1009 87 10000 1.65 176 14:54 26.10.2022
1258 Clouds 26 1010 86 10000 1.67 185 13:33 26.10.2022
1259 Clouds 26 1010 86 10000 1.59 207 12:26 26.10.2022
1260 Clouds 28 1008 82 10000 1.63 255 09:19 26.10.2022
1261 Clouds 28 1008 82 10000 1.63 255 08:53 26.10.2022
1262 Clear 30 1011 66 10000 1.48 318 00:57 26.10.2022
1263 Clear 30 1011 66 10000 1.48 318 00:36 26.10.2022
1264 Clear 28 1011 77 10000 0.95 222 22:30 25.10.2022
1265 Clear 27 1011 83 10000 1.23 205 21:45 25.10.2022
1266 Clear 25 1010 87 10000 0.71 204 20:33 25.10.2022
1267 Clear 25 1010 87 10000 0.71 204 20:33 25.10.2022
1268 Clear 25 1009 87 10000 0.68 199 18:56 25.10.2022
1269 Clear 25 1008 88 10000 1.4 213 16:56 25.10.2022
1270 Clouds 27 1011 86 10000 1 235 11:46 25.10.2022
1271 Clouds 27 1011 86 10000 0.99 256 10:55 25.10.2022
1272 Clouds 27 1011 86 10000 0.99 256 10:34 25.10.2022
1273 Clear 28 1010 83 10000 1.84 301 08:38 25.10.2022
1274 Clouds 29 1009 80 10000 2.22 306 08:18 25.10.2022
1275 Clouds 29 1009 80 10000 2.22 306 07:53 25.10.2022
1276 Clouds 29 1009 77 10000 2.41 312 06:46 25.10.2022
1277 Clouds 29 1010 77 10000 2.29 318 03:29 25.10.2022
1278 Clouds 30 1012 70 10000 1.04 8 00:32 25.10.2022
1279 Clouds 26 1011 85 10000 0.83 138 22:28 24.10.2022
1280 Clouds 26 1011 85 10000 0.83 138 21:46 24.10.2022
1281 Clouds 25 1010 87 10000 0.94 157 20:50 24.10.2022
1282 Clouds 26 1010 88 10000 1.21 201 20:19 24.10.2022
1283 Clouds 26 1009 88 10000 1.16 206 18:33 24.10.2022
1284 Clouds 26 1009 88 10000 1.35 201 16:55 24.10.2022
1285 Clouds 26 1010 88 10000 1.43 211 15:24 24.10.2022
1286 Clouds 26 1011 88 10000 1.26 200 14:18 24.10.2022
1287 Clouds 26 1011 88 10000 1.37 223 12:26 24.10.2022
1288 Clouds 27 1009 84 10000 1.27 281 09:18 24.10.2022
1289 Clouds 29 1010 75 10000 1.71 335 02:58 24.10.2022
1290 Clouds 25 1011 90 10000 1.62 153 22:19 23.10.2022
1291 Clouds 25 1010 90 10000 1.73 185 20:25 23.10.2022
1292 Clouds 25 1009 89 10000 1.65 226 18:26 23.10.2022
1293 Clouds 25 1009 89 10000 1.65 226 18:26 23.10.2022
1294 Clouds 25 1009 89 10000 1.48 223 17:27 23.10.2022
1295 Clouds 25 1009 89 10000 1.48 223 17:27 23.10.2022
1296 Clouds 25 1010 92 10000 2.28 251 15:24 23.10.2022
1297 Clouds 26 1011 87 10000 1.48 247 13:24 23.10.2022
1298 Rain 26 1011 86 10000 1.8 272 11:21 23.10.2022
1299 Clouds 27 1009 85 10000 2.26 297 08:59 23.10.2022
1300 Rain 29 1011 73 10000 1.67 347 00:33 23.10.2022
1301 Rain 27 1011 83 10000 0.78 39 22:32 22.10.2022
1302 Rain 26 1010 87 10000 0.9 72 21:42 22.10.2022
1303 Rain 25 1010 89 10000 1.24 68 20:55 22.10.2022
1304 Rain 25 1009 91 10000 2.52 56 19:46 22.10.2022
1305 Clouds 25 1009 91 9988 2.31 57 19:27 22.10.2022
1306 Clouds 25 1009 91 8567 2.2 54 17:37 22.10.2022
1307 Clouds 25 1009 89 8187 1.79 47 15:57 22.10.2022
1308 Clouds 26 1010 88 8632 1.13 34 14:42 22.10.2022
1309 Clouds 26 1011 88 7354 0.93 1 13:45 22.10.2022
1310 Clouds 27 1009 82 10000 0.43 250 09:59 22.10.2022
1311 Clouds 27 1009 82 10000 0.43 250 09:36 22.10.2022
1312 Rain 28 1008 79 10000 0.51 313 07:45 22.10.2022
1313 Clouds 28 1009 79 10000 0.93 263 02:59 22.10.2022
1314 Clouds 28 1011 78 10000 0.26 345 23:49 21.10.2022
1315 Clouds 27 1010 84 10000 0.25 112 21:35 21.10.2022
1316 Clouds 26 1009 86 10000 0.21 139 20:57 21.10.2022
1317 Rain 26 1008 86 10000 0.42 128 19:26 21.10.2022
1318 Clouds 26 1008 87 10000 0.69 110 16:51 21.10.2022
1319 Clouds 26 1011 86 10000 1.25 82 13:57 21.10.2022
1320 Clouds 26 1012 86 10000 1.48 78 12:56 21.10.2022
1321 Clouds 27 1011 85 10000 1.36 72 10:40 21.10.2022
1322 Clouds 27 1010 84 10000 1.5 66 09:42 21.10.2022
1323 Rain 27 1010 83 10000 1.31 56 08:37 21.10.2022
1324 Clouds 28 1008 81 10000 1.78 33 06:46 21.10.2022
1325 Clouds 30 1012 71 10000 3.01 94 00:24 21.10.2022
1326 Clouds 27 1011 84 10000 2.44 122 21:50 20.10.2022
1327 Clouds 26 1010 86 10000 2.75 123 20:25 20.10.2022
1328 Clouds 26 1010 86 10000 2.42 123 19:32 20.10.2022
1329 Clouds 26 1009 87 10000 2.48 135 17:52 20.10.2022
1330 Clouds 26 1010 87 10000 2.71 127 16:22 20.10.2022
1331 Clouds 27 1012 86 10000 2.3 137 12:36 20.10.2022
1332 Clouds 27 1012 86 10000 2.02 135 12:18 20.10.2022
1333 Clouds 27 1012 86 10000 2.02 135 12:18 20.10.2022
1334 Clouds 27 1011 86 10000 1.64 135 10:56 20.10.2022
1335 Clouds 27 1011 85 10000 1.2 120 10:24 20.10.2022
1336 Clouds 28 1010 82 10000 1.07 77 07:45 20.10.2022
1337 Clouds 30 1011 74 10000 1.09 358 04:29 20.10.2022
1338 Clouds 30 1013 69 10000 1.01 50 00:20 20.10.2022
1339 Clouds 29 1013 74 10000 0.69 98 22:35 19.10.2022
1340 Clouds 27 1013 81 10000 0.94 157 21:48 19.10.2022
1341 Clouds 26 1012 85 10000 1.12 163 20:50 19.10.2022
1342 Clouds 26 1011 86 10000 1.53 171 17:55 19.10.2022
1343 Clouds 26 1011 86 10000 1.53 155 16:58 19.10.2022
1344 Clouds 26 1012 85 10000 1.53 141 14:46 19.10.2022
1345 Clouds 27 1013 83 10000 1.79 147 12:42 19.10.2022
1346 Clouds 28 1011 76 10000 0.76 24 09:26 19.10.2022
1347 Clouds 29 1011 73 10000 0.63 22 07:51 19.10.2022
1348 Clouds 31 1011 62 10000 2.51 46 03:44 19.10.2022
1349 Clouds 29 1014 70 10000 2.55 89 00:21 19.10.2022
1350 Clouds 28 1014 76 10000 2.08 103 22:41 18.10.2022
1351 Clouds 26 1013 82 10000 1.89 127 21:32 18.10.2022
1352 Clouds 25 1013 84 10000 2.14 134 20:35 18.10.2022
1353 Clouds 25 1011 85 10000 2.3 136 19:22 18.10.2022
1354 Clouds 25 1011 84 10000 2.53 133 16:59 18.10.2022
1355 Clouds 25 1012 84 10000 2.63 131 15:43 18.10.2022
1356 Clouds 26 1013 85 10000 2.25 132 13:45 18.10.2022
1357 Clouds 26 1013 84 10000 1.75 119 11:48 18.10.2022
1358 Clouds 27 1013 82 10000 1.68 105 11:18 18.10.2022
1359 Clouds 28 1012 77 10000 1.23 66 09:26 18.10.2022
1360 Clouds 29 1011 72 10000 1.07 24 06:56 18.10.2022
1361 Clouds 29 1014 68 10000 2.27 84 23:40 17.10.2022
1362 Clouds 26 1013 82 10000 1.92 116 21:35 17.10.2022
1363 Clouds 25 1012 85 10000 1.66 124 20:49 17.10.2022
1364 Clouds 25 1011 85 10000 1.54 118 20:29 17.10.2022
1365 Clouds 25 1011 85 10000 1.54 118 19:46 17.10.2022
1366 Clouds 26 1011 84 10000 1.01 125 17:53 17.10.2022
1367 Clouds 26 1011 85 10000 1.08 122 16:22 17.10.2022
1368 Clouds 26 1012 85 10000 0.99 102 15:27 17.10.2022
1369 Clouds 27 1013 84 10000 0.88 68 13:35 17.10.2022
1370 Clouds 28 1011 79 10000 2.06 31 09:28 17.10.2022
1371 Clouds 31 1012 60 10000 2.93 29 02:37 17.10.2022
1372 Clouds 28 1013 78 10000 1.71 73 22:54 16.10.2022
1373 Clouds 28 1013 78 10000 1.71 73 22:54 16.10.2022
1374 Clouds 25 1012 85 10000 1.1 117 21:22 16.10.2022
1375 Clouds 25 1012 85 10000 1.1 117 21:22 16.10.2022
1376 Clouds 25 1011 86 10000 1.25 117 19:52 16.10.2022
1377 Clouds 25 1011 86 10000 1.25 117 19:33 16.10.2022
1378 Rain 25 1011 86 10000 1.09 125 17:46 16.10.2022
1379 Rain 25 1011 86 10000 1.18 118 16:32 16.10.2022
1380 Clouds 26 1012 86 10000 1.13 119 15:55 16.10.2022
1381 Clouds 26 1014 83 10000 1.05 120 12:34 16.10.2022
1382 Clouds 26 1013 83 10000 0.91 119 11:38 16.10.2022
1383 Clouds 27 1012 81 10000 0.99 112 10:26 16.10.2022
1384 Rain 29 1009 70 10000 1.4 359 07:20 16.10.2022
1385 Clouds 29 1013 68 10000 1.38 73 23:43 15.10.2022
1386 Clouds 26 1012 81 10000 1.04 115 21:54 15.10.2022
1387 Clouds 25 1012 84 10000 1.08 126 21:19 15.10.2022
1388 Clouds 25 1011 82 10000 1.29 122 19:34 15.10.2022
1389 Clouds 26 1011 80 10000 0.77 123 17:24 15.10.2022
1390 Clouds 26 1011 80 10000 0.77 123 17:24 15.10.2022
1391 Clouds 27 1012 80 10000 0.75 114 15:45 15.10.2022
1392 Clouds 27 1013 82 10000 1.06 80 13:27 15.10.2022
1393 Clouds 27 1013 82 10000 0.94 77 11:43 15.10.2022
1394 Clouds 27 1012 84 10000 0.76 175 09:43 15.10.2022
1395 Clouds 28 1010 79 10000 0.41 272 07:38 15.10.2022
1396 Clouds 30 1012 65 10000 1.08 42 00:40 15.10.2022
1397 Clouds 28 1013 73 10000 0.89 86 22:42 14.10.2022
1398 Clouds 26 1012 78 10000 0.75 134 22:22 14.10.2022
1399 Clouds 25 1011 80 10000 0.89 151 20:51 14.10.2022
1400 Clouds 25 1010 81 10000 1.03 150 18:51 14.10.2022
1401 Clouds 26 1011 81 10000 0.75 112 15:32 14.10.2022
1402 Clouds 26 1011 81 10000 0.75 112 15:32 14.10.2022
1403 Clouds 26 1012 77 10000 0.74 104 12:49 14.10.2022
1404 Clouds 27 1011 77 10000 0.41 42 11:25 14.10.2022
1405 Clouds 29 1009 64 10000 1.13 347 08:26 14.10.2022
1406 Clouds 30 1009 61 10000 1.74 1 06:46 14.10.2022
1407 Clouds 30 1009 62 10000 2.37 5 06:18 14.10.2022
1408 Clouds 30 1009 62 10000 2.37 5 05:42 14.10.2022
1409 Clouds 29 1012 73 10000 2.86 17 02:26 14.10.2022
1410 Clouds 28 1012 76 10000 1.89 41 23:22 13.10.2022
1411 Clouds 26 1012 81 10000 1.13 64 21:39 13.10.2022
1412 Clouds 25 1011 82 10000 0.89 66 20:42 13.10.2022
1413 Clouds 25 1010 82 10000 1.08 61 19:42 13.10.2022
1414 Clouds 25 1010 82 10000 1.27 43 18:51 13.10.2022
1415 Clouds 26 1009 81 10000 1.36 45 18:20 13.10.2022
1416 Clouds 26 1010 80 10000 1.22 27 15:49 13.10.2022
1417 Clouds 26 1011 80 10000 1.25 29 14:59 13.10.2022
1418 Clouds 26 1011 82 10000 1.1 43 13:50 13.10.2022
1419 Clouds 26 1011 83 10000 1.27 43 11:46 13.10.2022
1420 Clouds 27 1010 84 10000 1.38 27 10:18 13.10.2022
1421 Clouds 27 1009 83 10000 1.51 14 08:33 13.10.2022
1422 Clouds 27 1009 83 10000 1.51 14 08:33 13.10.2022
1423 Clouds 28 1008 78 10000 1.27 5 07:36 13.10.2022
1424 Clouds 29 1009 75 10000 2.03 5 03:37 13.10.2022
1425 Clouds 29 1010 73 10000 2.17 15 01:38 13.10.2022
1426 Clouds 28 1011 75 10000 1.34 30 00:21 13.10.2022
1427 Clouds 27 1011 80 10000 1.13 35 22:44 12.10.2022
1428 Clouds 25 1010 86 10000 0.36 46 21:25 12.10.2022
1429 Clouds 25 1010 86 10000 0.36 46 20:55 12.10.2022
1430 Clouds 25 1009 86 10000 0.78 16 20:27 12.10.2022
1431 Clouds 25 1009 86 10000 0.78 16 20:27 12.10.2022
1432 Clouds 25 1009 88 10000 0.91 4 19:18 12.10.2022
1433 Clouds 25 1009 87 10000 0.92 356 17:54 12.10.2022
1434 Clouds 26 1009 87 10000 0.12 14 16:29 12.10.2022
1435 Clouds 26 1010 87 10000 0.78 41 13:58 12.10.2022
1436 Clouds 26 1010 87 10000 0.78 41 13:36 12.10.2022
1437 Clouds 26 1009 85 10000 0.91 48 10:51 12.10.2022
1438 Clouds 27 1008 81 10000 1.18 18 08:54 12.10.2022
1439 Clouds 28 1007 79 10000 1.17 16 07:41 12.10.2022
1440 Clouds 29 1006 76 10000 1.62 8 06:43 12.10.2022
1441 Clouds 29 1008 72 10000 2.06 3 02:46 12.10.2022
1442 Clear 28 1010 79 10000 0.69 77 22:43 11.10.2022
1443 Clear 25 1009 87 10000 0.97 159 20:57 11.10.2022
1444 Clouds 25 1008 87 10000 1.04 178 19:58 11.10.2022
1445 Clouds 26 1008 85 10000 0.62 181 17:38 11.10.2022
1446 Clouds 26 1009 85 10000 0.31 200 15:32 11.10.2022
1447 Clouds 26 1010 83 10000 0.28 41 13:28 11.10.2022
1448 Clouds 26 1010 83 10000 0.32 52 10:31 11.10.2022
1449 Clouds 26 1010 83 10000 0.32 52 10:31 11.10.2022
1450 Clouds 27 1009 82 10000 0.46 14 09:50 11.10.2022
1451 Clouds 28 1008 77 10000 1.39 326 08:22 11.10.2022
1452 Clouds 28 1009 76 10000 1.78 328 02:39 11.10.2022
1453 Clouds 30 1011 67 10000 1.56 4 00:33 11.10.2022
1454 Clear 26 1010 82 10000 0.39 107 21:47 10.10.2022
1455 Clear 25 1010 84 10000 0.54 177 20:32 10.10.2022
1456 Clouds 25 1008 84 10000 1.15 183 18:44 10.10.2022
1457 Clouds 25 1009 83 10000 1.01 183 17:24 10.10.2022
1458 Clouds 26 1010 83 10000 0.75 191 16:22 10.10.2022
1459 Clouds 26 1011 82 10000 0.81 153 13:31 10.10.2022
1460 Clouds 26 1011 81 10000 0.57 130 12:22 10.10.2022
1461 Clouds 27 1009 78 10000 0.58 15 09:23 10.10.2022
1462 Clouds 29 1008 74 10000 1.1 330 05:52 10.10.2022
1463 Clouds 29 1009 74 10000 1.59 346 05:27 10.10.2022
1464 Clouds 30 1011 62 10000 1.71 64 00:41 10.10.2022
1465 Clouds 29 1012 67 10000 1.66 84 23:36 09.10.2022
1466 Clouds 26 1011 82 10000 1.33 119 22:24 09.10.2022
1467 Clouds 25 1011 86 10000 1.54 129 21:26 09.10.2022
1468 Clouds 25 1010 87 10000 1.77 125 20:35 09.10.2022
1469 Clouds 25 1010 86 10000 1.76 131 19:47 09.10.2022
1470 Clouds 25 1010 86 10000 1.43 140 18:45 09.10.2022
1471 Clouds 25 1009 86 10000 1.45 147 17:32 09.10.2022
1472 Clouds 25 1010 86 10000 1.65 148 16:37 09.10.2022
1473 Clouds 26 1010 86 10000 1.8 148 15:51 09.10.2022
1474 Clouds 26 1011 86 10000 1.76 148 14:34 09.10.2022
1475 Clouds 26 1012 85 10000 1.24 141 13:51 09.10.2022
1476 Clouds 26 1012 85 10000 1.11 142 12:46 09.10.2022
1477 Clouds 27 1012 83 10000 0.45 73 10:54 09.10.2022
1478 Clouds 27 1010 80 10000 0.99 17 08:31 09.10.2022
1479 Clouds 29 1010 70 10000 2.2 51 04:19 09.10.2022
1480 Clouds 29 1011 70 10000 2.7 52 03:19 09.10.2022
1481 Clouds 30 1012 68 10000 3.08 66 00:40 09.10.2022
1482 Clouds 28 1013 74 10000 2.5 92 22:59 08.10.2022
1483 Clear 26 1012 80 10000 2.1 114 22:22 08.10.2022
1484 Clear 25 1011 84 10000 2.22 125 20:31 08.10.2022
1485 Clear 25 1010 84 10000 1.97 125 19:22 08.10.2022
1486 Clear 25 1010 84 10000 2.01 128 17:39 08.10.2022
1487 Clear 26 1012 82 10000 2.61 115 15:26 08.10.2022
1488 Clouds 26 1013 83 10000 2.98 110 13:32 08.10.2022
1489 Clouds 27 1012 80 10000 3 108 10:48 08.10.2022
1490 Clouds 27 1011 78 10000 2.47 99 10:25 08.10.2022
1491 Clouds 28 1011 75 10000 1.79 79 09:19 08.10.2022
1492 Clouds 29 1009 65 10000 2.37 37 05:31 08.10.2022
1493 Clouds 30 1013 57 10000 3.28 81 00:59 08.10.2022
1494 Clouds 29 1013 67 10000 3.06 92 23:39 07.10.2022
1495 Clouds 27 1013 76 10000 2.57 101 23:20 07.10.2022
1496 Clouds 26 1012 84 10000 2.38 112 21:48 07.10.2022
1497 Clouds 25 1011 86 10000 2.58 115 19:51 07.10.2022
1498 Clouds 25 1010 87 10000 2.54 115 17:54 07.10.2022
1499 Clouds 25 1010 87 10000 2.41 119 16:42 07.10.2022
1500 Clouds 26 1011 87 10000 2.58 117 15:26 07.10.2022
1501 Clouds 26 1011 87 10000 2.59 114 13:55 07.10.2022
1502 Clouds 27 1011 85 10000 1.77 124 11:29 07.10.2022
1503 Clouds 27 1009 81 10000 1.07 62 09:25 07.10.2022
1504 Clouds 28 1009 78 10000 1.08 30 08:21 07.10.2022
1505 Clouds 31 1010 61 10000 3.52 56 02:52 07.10.2022
1506 Clouds 28 1012 75 10000 3.11 102 22:54 06.10.2022
1507 Clouds 26 1011 83 10000 2.65 111 21:57 06.10.2022
1508 Clouds 26 1011 83 10000 2.65 111 21:36 06.10.2022
1509 Clouds 25 1011 86 10000 2.59 120 20:39 06.10.2022
1510 Clouds 25 1010 88 10000 2.36 132 18:56 06.10.2022
1511 Clouds 25 1010 88 10000 2.36 132 18:32 06.10.2022
1512 Clouds 26 1011 86 10000 1.65 128 15:38 06.10.2022
1513 Clouds 26 1012 83 10000 1.81 129 12:49 06.10.2022
1514 Clouds 28 1010 76 10000 0.98 60 08:51 06.10.2022
1515 Clouds 31 1009 55 10000 2.92 39 04:37 06.10.2022
1516 Clouds 30 1013 55 10000 3.2 74 00:50 06.10.2022
1517 Clouds 26 1013 79 10000 2.63 112 21:53 05.10.2022
1518 Clouds 25 1012 83 10000 2.94 111 19:41 05.10.2022
1519 Clouds 25 1011 82 10000 3.17 118 17:37 05.10.2022
1520 Clouds 25 1012 80 10000 3.09 118 16:24 05.10.2022
1521 Clouds 25 1012 77 10000 3.18 116 14:55 05.10.2022
1522 Clouds 25 1013 74 10000 3.31 123 14:23 05.10.2022
1523 Clouds 25 1013 74 10000 3.29 124 12:43 05.10.2022
1524 Clouds 26 1012 75 10000 3.31 125 10:48 05.10.2022
1525 Clouds 29 1010 61 10000 3.6 96 08:19 05.10.2022
1526 Clouds 31 1010 51 10000 3.98 78 06:24 05.10.2022
1527 Clouds 31 1010 54 10000 4.2 78 05:27 05.10.2022
1528 Clouds 30 1012 68 10000 4.44 79 02:20 05.10.2022
1529 Clouds 29 1013 70 10000 3.78 94 00:28 05.10.2022
1530 Clouds 28 1013 79 10000 3.7 106 22:51 04.10.2022
1531 Rain 25 1012 88 10000 3.43 115 20:40 04.10.2022
1532 Clouds 25 1011 84 10000 3.05 117 19:47 04.10.2022
1533 Clouds 25 1010 82 10000 2.8 120 18:39 04.10.2022
1534 Clouds 25 1010 82 10000 2.78 128 17:50 04.10.2022
1535 Clouds 25 1011 84 10000 2.75 127 16:50 04.10.2022
1536 Clouds 26 1013 85 10000 3.66 112 13:52 04.10.2022
1537 Clouds 27 1011 83 10000 3.34 109 09:52 04.10.2022
1538 Clouds 29 1010 79 10000 2.8 76 07:34 04.10.2022
1539 Clouds 30 1011 68 10000 4.05 63 02:32 04.10.2022
1540 Clouds 29 1013 76 10000 3.08 96 23:41 03.10.2022
1541 Clouds 26 1012 87 10000 2.25 121 21:55 03.10.2022
1542 Clouds 25 1011 89 10000 2.27 132 21:23 03.10.2022
1543 Clouds 25 1011 89 10000 2.24 127 20:29 03.10.2022
1544 Clouds 25 1010 89 10000 2.13 127 18:35 03.10.2022
1545 Clouds 26 1010 89 10000 2.11 133 17:26 03.10.2022
1546 Clouds 26 1010 88 10000 2.39 131 15:47 03.10.2022
1547 Clouds 26 1012 88 10000 2.28 134 14:20 03.10.2022
1548 Clouds 26 1012 87 10000 1.82 134 12:30 03.10.2022
1549 Clouds 27 1011 86 10000 1.15 128 10:40 03.10.2022
1550 Clouds 27 1010 85 10000 0.92 123 09:40 03.10.2022
1551 Clouds 28 1009 80 9519 0.6 77 07:27 03.10.2022
1552 Clouds 29 1010 75 9775 2.05 51 03:34 03.10.2022
1553 Clouds 28 1012 78 10000 1.22 118 22:39 02.10.2022
1554 Clouds 25 1010 86 10000 1.46 148 20:52 02.10.2022
1555 Clouds 25 1010 87 10000 1.89 147 18:47 02.10.2022
1556 Clouds 25 1010 87 10000 1.99 142 17:53 02.10.2022
1557 Clouds 25 1010 87 10000 2.13 133 16:44 02.10.2022
1558 Clouds 25 1010 86 10000 2.09 130 16:18 02.10.2022
1559 Clouds 26 1011 86 10000 1.9 145 14:52 02.10.2022
1560 Clouds 26 1011 86 10000 2.09 140 13:45 02.10.2022
1561 Clouds 26 1012 86 10000 1.91 129 12:30 02.10.2022
1562 Clouds 26 1011 86 10000 1.78 116 11:40 02.10.2022
1563 Clouds 26 1011 85 10000 1.83 110 11:19 02.10.2022
1564 Clouds 27 1009 83 10000 1.6 84 09:28 02.10.2022
1565 Clouds 28 1009 76 10000 1.12 67 07:41 02.10.2022
1566 Clouds 30 1010 69 10000 1.61 21 02:55 02.10.2022
1567 Clouds 30 1012 64 10000 1.52 41 00:50 02.10.2022
1568 Clouds 29 1012 66 10000 1.27 55 00:21 02.10.2022
1569 Clouds 28 1012 70 10000 0.84 99 22:43 01.10.2022
1570 Clouds 25 1010 82 10000 1.52 167 20:36 01.10.2022
1571 Clouds 25 1009 84 10000 1.53 158 18:40 01.10.2022
1572 Clouds 25 1009 84 10000 1.58 172 16:36 01.10.2022
1573 Clouds 26 1011 84 10000 1.37 173 14:35 01.10.2022
1574 Clouds 26 1012 84 10000 1.15 159 13:31 01.10.2022
1575 Clouds 26 1012 84 10000 0.76 137 12:33 01.10.2022
1576 Clouds 26 1011 84 10000 0.77 94 11:20 01.10.2022
1577 Clouds 26 1011 84 10000 0.77 94 10:32 01.10.2022
1578 Clouds 27 1009 80 10000 1.26 39 09:28 01.10.2022
1579 Clouds 27 1009 80 10000 1.26 39 08:58 01.10.2022
1580 Clouds 30 1010 71 10000 2.19 27 04:27 01.10.2022
1581 Clouds 30 1010 71 10000 2.19 27 03:31 01.10.2022
1582 Clouds 28 1012 76 10000 2.97 78 23:59 30.09.2022
1583 Clouds 27 1012 81 10000 2.54 99 22:36 30.09.2022
1584 Clouds 25 1011 88 10000 2.76 125 21:28 30.09.2022
1585 Clouds 25 1011 88 10000 2.76 125 21:28 30.09.2022
1586 Clouds 25 1011 88 10000 2.76 125 20:43 30.09.2022
1587 Clouds 25 1010 89 10000 2.22 123 19:43 30.09.2022
1588 Clouds 25 1010 89 10000 2.45 122 17:28 30.09.2022
1589 Clouds 25 1011 88 10000 2.5 116 15:32 30.09.2022
1590 Clear 26 1012 88 10000 2.96 127 13:29 30.09.2022
1591 Clear 26 1012 88 10000 2.88 130 11:57 30.09.2022
1592 Clouds 27 1011 85 10000 1.76 120 10:23 30.09.2022
1593 Clouds 29 1009 78 10000 1.69 96 08:23 30.09.2022
1594 Clouds 29 1010 76 10000 1.85 73 04:55 30.09.2022
1595 Clear 31 1012 63 10000 1.79 36 02:27 30.09.2022
1596 Clear 26 1013 80 10000 1.25 142 22:24 29.09.2022
1597 Clear 25 1012 83 10000 1.22 163 21:26 29.09.2022
1598 Clear 25 1012 83 10000 1.22 163 20:31 29.09.2022
1599 Clouds 25 1011 83 10000 1.33 183 18:32 29.09.2022
1600 Clouds 25 1011 83 10000 1.87 178 16:56 29.09.2022
1601 Clouds 25 1012 83 10000 2.05 163 16:26 29.09.2022
1602 Clouds 25 1012 83 10000 2.05 163 15:35 29.09.2022
1603 Clouds 26 1013 82 10000 2.45 134 13:28 29.09.2022
1604 Clouds 26 1013 82 10000 2.45 134 13:28 29.09.2022
1605 Clouds 28 1011 75 10000 1.05 58 09:21 29.09.2022
1606 Clouds 31 1009 59 10000 1.99 49 05:42 29.09.2022
1607 Clouds 31 1012 52 10000 2.93 66 02:44 29.09.2022
1608 Clouds 29 1013 67 10000 3.53 91 23:32 28.09.2022
1609 Clouds 26 1013 83 10000 3.07 115 22:25 28.09.2022
1610 Clouds 25 1012 85 10000 2.96 127 21:28 28.09.2022
1611 Clouds 25 1012 84 10000 2.94 131 20:18 28.09.2022
1612 Clouds 25 1011 83 10000 2.31 135 17:42 28.09.2022
1613 Clouds 25 1013 84 10000 2.58 118 14:45 28.09.2022
1614 Clouds 25 1013 83 10000 2.92 125 12:40 28.09.2022
1615 Clouds 26 1011 80 10000 2.47 103 10:24 28.09.2022
1616 Clouds 29 1010 64 10000 1.95 63 08:25 28.09.2022
1617 Clouds 30 1009 59 10000 2.1 57 06:42 28.09.2022
1618 Clouds 30 1012 63 10000 3.43 45 01:50 28.09.2022
1619 Clouds 29 1013 70 10000 3.1 59 01:25 28.09.2022
1620 Clouds 27 1013 84 10000 2.24 89 22:50 27.09.2022
1621 Clouds 24 1011 90 10000 1.75 109 21:24 27.09.2022
1622 Clouds 24 1011 90 10000 1.75 109 20:36 27.09.2022
1623 Clouds 25 1010 90 10000 1.84 110 19:47 27.09.2022
1624 Clouds 25 1009 90 10000 1.78 109 17:54 27.09.2022
1625 Clouds 25 1009 90 10000 1.78 109 17:32 27.09.2022
1626 Clouds 25 1011 89 10000 1.64 92 15:24 27.09.2022
1627 Clouds 26 1012 87 10000 1.41 91 14:24 27.09.2022
1628 Clouds 26 1012 87 10000 1.5 91 12:39 27.09.2022
1629 Clouds 26 1012 87 10000 1.5 91 12:39 27.09.2022
1630 Clouds 26 1011 86 10000 1.2 95 10:49 27.09.2022
1631 Clouds 27 1010 84 10000 0.87 100 08:42 27.09.2022
1632 Rain 29 1008 75 10000 1.86 0 05:48 27.09.2022
1633 Rain 30 1010 68 10000 1.46 6 01:40 27.09.2022
1634 Rain 30 1011 68 10000 1.08 17 00:32 27.09.2022
1635 Clouds 27 1012 78 10000 0.22 282 23:25 26.09.2022
1636 Clouds 26 1011 84 10000 0.72 183 21:44 26.09.2022
1637 Clouds 25 1009 87 10000 1.3 192 20:26 26.09.2022
1638 Clouds 25 1009 87 10000 1.53 184 19:21 26.09.2022
1639 Clouds 25 1009 87 10000 0.79 158 17:27 26.09.2022
1640 Clouds 25 1010 87 10000 0.99 140 15:44 26.09.2022
1641 Clouds 26 1011 87 10000 1.23 140 12:42 26.09.2022
1642 Clouds 26 1010 87 10000 1.4 132 11:28 26.09.2022
1643 Clouds 26 1010 87 10000 1.4 132 10:36 26.09.2022
1644 Clouds 26 1010 86 10000 1.06 130 10:18 26.09.2022
1645 Clouds 26 1010 86 10000 1.06 130 09:51 26.09.2022
1646 Clouds 27 1009 84 10000 0.47 125 09:21 26.09.2022
1647 Clouds 28 1009 76 10000 0.6 329 05:30 26.09.2022
1648 Clouds 29 1011 71 10000 1.68 12 02:35 26.09.2022
1649 Clouds 27 1012 80 10000 0.88 137 23:24 25.09.2022
1650 Clouds 26 1011 85 10000 1 148 21:47 25.09.2022
1651 Clouds 25 1011 86 10000 0.65 146 21:25 25.09.2022
1652 Clouds 25 1011 88 10000 0.84 132 20:35 25.09.2022
1653 Clouds 25 1010 88 10000 1.12 156 18:55 25.09.2022
1654 Clouds 25 1010 88 10000 1.02 157 18:24 25.09.2022
1655 Clouds 25 1010 88 10000 1.01 155 17:23 25.09.2022
1656 Clouds 25 1011 87 10000 0.97 154 16:00 25.09.2022
1657 Clouds 25 1012 87 10000 1.35 157 14:37 25.09.2022
1658 Clouds 26 1012 86 10000 1.26 145 14:18 25.09.2022
1659 Clouds 26 1012 84 10000 0.89 158 10:40 25.09.2022
1660 Clouds 26 1011 83 10000 0.59 137 09:37 25.09.2022
1661 Rain 28 1010 80 10000 0.64 96 07:41 25.09.2022
1662 Clouds 29 1010 76 10000 1.57 48 05:22 25.09.2022
1663 Clouds 29 1012 71 10000 1.86 86 23:36 24.09.2022
1664 Clouds 25 1011 87 10000 1.55 132 21:19 24.09.2022
1665 Clouds 25 1010 88 10000 1.52 145 19:34 24.09.2022
1666 Clouds 26 1009 88 10000 1.37 154 18:57 24.09.2022
1667 Clouds 26 1010 87 10000 0.89 156 16:51 24.09.2022
1668 Clouds 26 1011 86 10000 0.41 54 15:23 24.09.2022
1669 Clouds 26 1011 86 10000 0.41 54 15:23 24.09.2022
1670 Clouds 26 1011 86 10000 0.41 54 14:36 24.09.2022
1671 Clouds 26 1012 85 10000 0.71 74 13:18 24.09.2022
1672 Clouds 27 1011 84 10000 1.01 54 12:22 24.09.2022
1673 Clouds 27 1009 82 10000 1.21 23 09:58 24.09.2022
1674 Clouds 28 1009 78 10000 1.3 15 08:56 24.09.2022
1675 Clouds 29 1007 71 10000 1.49 7 07:41 24.09.2022
1676 Clouds 30 1008 68 10000 1.97 12 04:52 24.09.2022
1677 Clouds 30 1009 66 10000 2.35 15 03:48 24.09.2022
1678 Clouds 28 1012 79 10000 1.6 66 22:54 23.09.2022
1679 Clouds 26 1011 85 10000 1.39 109 21:33 23.09.2022
1680 Clouds 25 1010 88 10000 1.68 117 20:57 23.09.2022
1681 Clouds 25 1010 89 10000 1.78 121 20:26 23.09.2022
1682 Clouds 25 1009 89 10000 1.83 128 19:19 23.09.2022
1683 Clear 26 1010 89 10000 1.57 142 15:31 23.09.2022
1684 Clouds 26 1011 88 10000 1.28 128 11:47 23.09.2022
1685 Clouds 27 1010 87 10000 1.41 103 09:36 23.09.2022
1686 Clouds 29 1008 76 10000 1.95 60 06:39 23.09.2022
1687 Clouds 29 1012 72 10000 2.29 79 00:41 23.09.2022
1688 Clouds 26 1012 82 10000 1.74 117 23:22 22.09.2022
1689 Clouds 25 1011 87 10000 1.76 130 22:27 22.09.2022
1690 Clouds 24 1010 88 10000 1.76 128 21:18 22.09.2022
1691 Clouds 24 1009 87 10000 1.62 132 19:58 22.09.2022
1692 Clouds 24 1009 87 10000 1.61 141 17:38 22.09.2022
1693 Clouds 25 1011 86 10000 1.58 164 13:20 22.09.2022
1694 Rain 25 1011 86 10000 1.71 144 10:36 22.09.2022
1695 Clouds 26 1010 84 9969 1.17 131 08:58 22.09.2022
1696 Clouds 27 1009 80 10000 0.88 127 06:57 22.09.2022
1697 Clouds 27 1009 79 10000 0.38 206 04:36 22.09.2022
1698 Rain 27 1012 76 10000 0.26 252 23:31 21.09.2022
1699 Clouds 25 1012 87 10000 1.31 222 21:50 21.09.2022
1700 Clouds 24 1011 89 10000 1.88 241 20:40 21.09.2022
1701 Clouds 24 1010 88 10000 0.91 143 17:50 21.09.2022
1702 Clouds 24 1010 89 10000 1.27 140 16:53 21.09.2022
1703 Clouds 23 1012 93 10000 2.3 117 14:46 21.09.2022
1704 Clouds 24 1013 94 10000 2.96 120 12:58 21.09.2022
1705 Clouds 24 1013 94 10000 2.41 117 11:30 21.09.2022
1706 Clouds 24 1012 94 10000 1.9 94 10:33 21.09.2022
1707 Rain 24 1010 91 10000 1.43 75 09:24 21.09.2022
1708 Clouds 25 1009 88 10000 2.74 104 07:57 21.09.2022
1709 Clouds 25 1012 95 2557 4.94 97 02:49 21.09.2022
1710 Clouds 24 1012 97 2047 4.45 100 02:28 21.09.2022
1711 Clouds 24 1012 98 1527 2.59 114 00:44 21.09.2022
1712 Clouds 24 1011 96 2418 3.52 147 23:18 20.09.2022
1713 Clouds 25 1010 92 5730 2.91 129 20:52 20.09.2022
1714 Clouds 25 1010 88 10000 3.15 116 19:37 20.09.2022
1715 Clouds 26 1010 88 10000 2.97 117 16:28 20.09.2022
1716 Clouds 26 1011 88 10000 2.91 116 14:46 20.09.2022
1717 Clouds 26 1012 87 10000 3.2 123 13:28 20.09.2022
1718 Rain 27 1011 86 10000 3.81 97 09:50 20.09.2022
1719 Clouds 28 1009 82 9071 4.56 86 08:27 20.09.2022
1720 Rain 30 1009 69 10000 5.08 83 05:24 20.09.2022
1721 Rain 31 1009 67 10000 5.04 80 03:59 20.09.2022
1722 Clouds 28 1013 74 10000 3.65 114 22:55 19.09.2022
1723 Clouds 26 1012 81 10000 3.42 123 21:46 19.09.2022
1724 Clouds 25 1012 84 10000 3.2 125 20:51 19.09.2022
1725 Clouds 25 1012 84 10000 3.2 125 20:30 19.09.2022
1726 Clouds 26 1010 83 10000 3.08 131 17:44 19.09.2022
1727 Clouds 26 1012 84 10000 3.42 121 14:54 19.09.2022
1728 Clouds 26 1012 83 10000 3.49 112 13:18 19.09.2022
1729 Clouds 27 1012 83 10000 3.55 115 10:48 19.09.2022
1730 Rain 27 1011 84 10000 3.35 111 08:51 19.09.2022
1731 Clouds 28 1010 80 10000 3.63 108 06:42 19.09.2022
1732 Clouds 29 1013 78 10000 5.61 96 01:54 19.09.2022
1733 Clouds 28 1013 76 10000 4.28 102 23:22 18.09.2022
1734 Clouds 26 1012 80 10000 4.32 114 21:43 18.09.2022
1735 Clouds 26 1010 81 10000 3.74 122 20:24 18.09.2022
1736 Clouds 26 1010 81 10000 3.3 125 17:54 18.09.2022
1737 Clouds 26 1010 81 10000 3.3 125 17:35 18.09.2022
1738 Clouds 26 1012 82 10000 3.92 119 15:36 18.09.2022
1739 Clouds 26 1013 85 10000 3.98 119 13:47 18.09.2022
1740 Clouds 25 1013 88 10000 4.01 124 12:34 18.09.2022
1741 Clouds 26 1013 88 10000 4.2 108 10:45 18.09.2022
1742 Clouds 31 1010 65 10000 5.02 82 03:40 18.09.2022
1743 Clouds 30 1013 69 10000 3.87 103 01:24 18.09.2022
1744 Clouds 29 1014 73 10000 3.01 110 00:21 18.09.2022
1745 Clouds 26 1013 83 10000 1.88 138 21:36 17.09.2022
1746 Clouds 25 1011 86 10000 2.32 138 19:42 17.09.2022
1747 Clouds 25 1011 86 10000 2.26 137 18:46 17.09.2022
1748 Clouds 26 1012 86 10000 1.88 134 15:51 17.09.2022
1749 Clouds 26 1013 86 10000 1.69 153 13:56 17.09.2022
1750 Clouds 26 1013 85 10000 1.37 143 10:56 17.09.2022
1751 Clouds 27 1012 83 10000 1.05 94 08:34 17.09.2022
1752 Rain 29 1010 76 9070 1.02 44 06:24 17.09.2022
1753 Clear 29 1014 66 10000 0.84 54 23:57 16.09.2022
1754 Clear 28 1013 72 10000 0.59 141 22:51 16.09.2022
1755 Clear 25 1012 82 10000 1.39 172 20:54 16.09.2022
1756 Clear 25 1011 81 10000 1.49 165 19:50 16.09.2022
1757 Clear 26 1012 80 10000 1.17 164 16:26 16.09.2022
1758 Clear 26 1012 80 10000 1.03 165 14:53 16.09.2022
1759 Clear 26 1013 80 10000 1.01 174 13:26 16.09.2022
1760 Clear 27 1011 77 10000 0.67 98 10:27 16.09.2022
1761 Clear 29 1010 66 10000 1.3 30 08:18 16.09.2022
1762 Clouds 29 1009 62 10000 1.51 9 06:48 16.09.2022
1763 Clouds 30 1009 61 10000 2.08 9 05:58 16.09.2022
1764 Clear 31 1011 60 10000 2.9 27 02:35 16.09.2022
1765 Clear 25 1012 85 10000 2.42 117 22:20 15.09.2022
1766 Clear 25 1011 87 10000 2.46 118 20:39 15.09.2022
1767 Clouds 25 1011 89 10000 2.63 118 19:42 15.09.2022
1768 Clouds 25 1010 89 10000 1.9 109 17:58 15.09.2022
1769 Clouds 25 1011 88 10000 1.74 107 17:28 15.09.2022
1770 Clouds 25 1011 86 10000 1.86 96 15:47 15.09.2022
1771 Clouds 26 1012 87 10000 3.1 115 12:51 15.09.2022
1772 Clouds 26 1012 87 10000 3.47 113 11:48 15.09.2022
1773 Clouds 27 1010 86 10000 2.87 102 09:46 15.09.2022
1774 Clouds 28 1009 79 10000 2.81 71 07:44 15.09.2022
1775 Clouds 29 1010 74 10000 3.25 66 03:48 15.09.2022
1776 Clouds 27 1013 81 10000 2.85 118 23:22 14.09.2022
1777 Clouds 25 1012 87 10000 2.89 129 20:37 14.09.2022
1778 Clouds 25 1011 87 10000 2.71 124 19:33 14.09.2022
1779 Clouds 25 1012 88 10000 3.27 120 17:47 14.09.2022
1780 Clouds 25 1012 89 10000 3.46 118 16:37 14.09.2022
1781 Clouds 25 1013 89 10000 3.04 124 14:56 14.09.2022
1782 Clouds 26 1014 88 10000 2.84 124 12:40 14.09.2022
1783 Clouds 26 1013 85 10000 1.93 121 09:52 14.09.2022
1784 Clouds 27 1012 84 10000 1.44 106 08:38 14.09.2022
1785 Rain 28 1012 80 10000 1.15 59 06:50 14.09.2022
1786 Rain 29 1012 76 9820 1.46 47 06:29 14.09.2022
1787 Clouds 31 1013 62 10000 3.05 49 02:43 14.09.2022
1788 Clouds 31 1014 59 10000 2.55 64 01:36 14.09.2022
1789 Clouds 30 1015 63 10000 2.41 96 00:53 14.09.2022
1790 Clouds 29 1015 71 10000 2.61 110 23:55 13.09.2022
1791 Clouds 29 1015 71 10000 2.61 110 23:36 13.09.2022
1792 Clouds 27 1015 79 10000 2.42 106 23:18 13.09.2022
1793 Clouds 25 1014 85 10000 2.44 118 22:28 13.09.2022
1794 Clouds 25 1014 85 10000 2.44 118 21:38 13.09.2022
1795 Clouds 25 1013 87 10000 2.95 124 18:56 13.09.2022
1796 Clouds 25 1014 88 10000 2.73 120 16:39 13.09.2022
1797 Clouds 25 1015 89 10000 2.91 119 15:18 13.09.2022
1798 Clouds 25 1016 89 10000 3.11 117 13:37 13.09.2022
1799 Clouds 27 1014 85 10000 2.31 103 10:20 13.09.2022
1800 Clouds 28 1012 78 10000 0.94 86 07:54 13.09.2022
1801 Clouds 31 1015 56 10000 1.67 14 02:20 13.09.2022
1802 Clouds 27 1015 65 10000 0.41 129 23:22 12.09.2022
1803 Clouds 27 1015 65 10000 0.41 129 22:37 12.09.2022
1804 Clouds 25 1014 73 10000 1.34 173 20:54 12.09.2022
1805 Clouds 24 1013 74 10000 1.59 169 19:31 12.09.2022
1806 Clear 24 1013 75 10000 2.12 157 17:47 12.09.2022
1807 Clear 25 1014 73 10000 2.03 138 15:40 12.09.2022
1808 Clear 26 1014 73 10000 3.2 125 12:26 12.09.2022
1809 Clear 27 1013 72 10000 3.05 119 10:24 12.09.2022
1810 Clear 31 1010 55 10000 3.55 66 05:57 12.09.2022
1811 Clear 31 1011 53 10000 3.73 63 04:32 12.09.2022
1812 Clear 29 1014 71 10000 3.94 91 23:59 11.09.2022
1813 Clouds 27 1014 78 10000 3.57 96 22:45 11.09.2022
1814 Clouds 25 1012 86 10000 3.6 113 21:19 11.09.2022
1815 Clouds 25 1012 85 10000 3.23 113 20:42 11.09.2022
1816 Clouds 25 1011 85 10000 2.81 122 19:26 11.09.2022
1817 Clouds 25 1011 85 10000 2.81 122 18:38 11.09.2022
1818 Clouds 25 1011 85 10000 2.58 117 16:57 11.09.2022
1819 Clouds 25 1012 84 10000 2.89 118 15:22 11.09.2022
1820 Clouds 26 1013 85 10000 2.57 128 12:54 11.09.2022
1821 Clouds 26 1011 83 10000 1.48 79 09:45 11.09.2022
1822 Clouds 28 1010 76 10000 1.39 51 07:43 11.09.2022
1823 Clouds 29 1011 70 10000 3.12 59 02:55 11.09.2022
1824 Clear 27 1013 73 10000 2.53 108 23:27 10.09.2022
1825 Clear 25 1012 80 10000 2.67 119 21:33 10.09.2022
1826 Clouds 24 1010 84 10000 2.51 126 19:56 10.09.2022
1827 Clouds 24 1010 84 10000 2.51 126 19:37 10.09.2022
1828 Clouds 25 1010 86 10000 2.37 130 19:19 10.09.2022
1829 Clouds 25 1011 87 10000 2.36 122 16:58 10.09.2022
1830 Clouds 25 1012 85 10000 2.82 108 15:28 10.09.2022
1831 Clouds 26 1013 85 10000 3.56 116 12:55 10.09.2022
1832 Clouds 26 1013 84 10000 3.6 116 11:36 10.09.2022
1833 Clouds 27 1011 82 10000 3.39 113 10:24 10.09.2022
1834 Clouds 28 1011 77 10000 3.39 95 08:37 10.09.2022
1835 Clouds 29 1010 68 10000 3.64 80 07:57 10.09.2022
1836 Clouds 31 1012 57 10000 4.39 72 02:47 10.09.2022
1837 Clouds 28 1014 74 10000 3.69 91 23:34 09.09.2022
1838 Clouds 25 1013 86 10000 2.74 119 22:20 09.09.2022
1839 Clouds 24 1012 87 10000 2.7 118 20:48 09.09.2022
1840 Clouds 25 1011 86 10000 3.1 116 19:25 09.09.2022
1841 Clouds 25 1011 86 10000 3.1 116 18:53 09.09.2022
1842 Clouds 25 1012 87 10000 2.93 114 16:33 09.09.2022
1843 Clouds 26 1014 87 10000 3.18 125 13:51 09.09.2022
1844 Clouds 26 1014 87 10000 3.32 126 12:47 09.09.2022
1845 Clouds 26 1012 87 10000 3.32 113 09:57 09.09.2022
1846 Clouds 31 1011 61 10000 3.66 70 05:38 09.09.2022
1847 Clouds 31 1012 61 10000 3.98 72 03:21 09.09.2022
1848 Clear 25 1014 80 10000 3.16 120 21:53 08.09.2022
1849 Clear 25 1013 81 10000 3.05 121 20:56 08.09.2022
1850 Clear 25 1013 81 10000 3.05 121 20:31 08.09.2022
1851 Clouds 25 1013 83 10000 2.93 129 19:56 08.09.2022
1852 Clouds 25 1013 85 10000 2.95 128 18:26 08.09.2022
1853 Clouds 25 1013 87 10000 3.16 123 16:21 08.09.2022
1854 Clouds 26 1013 86 10000 3.36 117 14:40 08.09.2022
1855 Clouds 26 1014 86 10000 3.85 105 13:27 08.09.2022
1856 Clouds 26 1014 85 10000 3.89 108 11:57 08.09.2022
1857 Clouds 27 1013 84 10000 3.87 106 10:52 08.09.2022
1858 Clouds 30 1011 68 10000 3.82 93 08:21 08.09.2022
1859 Clouds 31 1011 63 10000 3.73 85 06:42 08.09.2022
1860 Clouds 31 1013 62 10000 4.65 75 02:37 08.09.2022
1861 Clouds 31 1014 63 10000 4.41 80 02:18 08.09.2022
1862 Clouds 29 1015 73 10000 3.64 100 00:27 08.09.2022
1863 Clouds 27 1015 81 10000 3.26 112 22:44 07.09.2022
1864 Clouds 25 1014 87 10000 3.05 117 21:42 07.09.2022
1865 Clouds 25 1014 87 10000 3.05 117 21:42 07.09.2022
1866 Clouds 25 1013 88 10000 2.94 120 20:42 07.09.2022
1867 Clear 25 1013 88 10000 3.17 125 19:36 07.09.2022
1868 Clear 25 1012 89 10000 2.93 122 17:28 07.09.2022
1869 Clear 26 1013 89 10000 2.64 135 12:52 07.09.2022
1870 Clouds 26 1013 89 10000 2.87 121 10:47 07.09.2022
1871 Clouds 28 1011 84 10000 3.33 101 08:38 07.09.2022
1872 Clouds 29 1010 77 10000 3.28 86 06:57 07.09.2022
1873 Clear 32 1011 61 10000 3.79 65 02:46 07.09.2022
1874 Clear 28 1013 77 10000 2.27 117 22:44 06.09.2022
1875 Clear 26 1013 84 10000 2.78 129 21:39 06.09.2022
1876 Clear 26 1011 86 10000 3.22 120 20:21 06.09.2022
1877 Clear 26 1011 87 10000 3.21 121 18:45 06.09.2022
1878 Clear 26 1011 87 10000 3.09 124 17:56 06.09.2022
1879 Clear 26 1011 87 10000 2.93 124 17:20 06.09.2022
1880 Clear 26 1011 87 10000 2.93 124 16:37 06.09.2022
1881 Clear 26 1012 87 10000 2.91 127 14:55 06.09.2022
1882 Clouds 26 1013 87 10000 2.86 126 13:45 06.09.2022
1883 Clouds 26 1013 87 10000 2.99 122 13:21 06.09.2022
1884 Clouds 27 1012 86 10000 3.19 117 11:29 06.09.2022
1885 Clouds 27 1012 86 10000 3.19 117 10:41 06.09.2022
1886 Clouds 28 1010 79 10000 2.11 107 08:41 06.09.2022
1887 Clouds 29 1010 75 10000 2.15 85 07:37 06.09.2022
1888 Clouds 31 1012 62 10000 2.62 54 02:34 06.09.2022
1889 Clear 27 1013 79 10000 1.6 116 23:21 05.09.2022
1890 Clear 25 1012 86 10000 2.01 138 21:50 05.09.2022
1891 Clouds 25 1012 87 10000 1.99 142 20:32 05.09.2022
1892 Clouds 25 1011 87 10000 1.82 145 18:59 05.09.2022
1893 Clouds 25 1011 87 10000 1.82 145 18:38 05.09.2022
1894 Clouds 25 1011 88 10000 1.76 160 18:19 05.09.2022
1895 Clear 26 1012 87 10000 1.11 142 16:25 05.09.2022
1896 Clouds 26 1013 85 10000 0.78 138 15:23 05.09.2022
1897 Clouds 27 1013 83 10000 0.7 154 12:56 05.09.2022
1898 Clouds 27 1013 83 10000 0.87 141 11:37 05.09.2022
1899 Clouds 27 1011 78 10000 0.28 12 08:58 05.09.2022
1900 Clouds 30 1010 64 10000 2.34 358 05:20 05.09.2022
1901 Clouds 30 1013 65 10000 1.89 25 01:35 05.09.2022
1902 Clouds 25 1012 85 10000 1.51 127 22:29 04.09.2022
1903 Clouds 25 1012 85 10000 1.51 127 21:59 04.09.2022
1904 Clear 24 1012 86 10000 1.42 140 20:35 04.09.2022
1905 Clouds 25 1011 86 10000 1.21 145 18:39 04.09.2022
1906 Clouds 25 1011 87 10000 1.1 157 17:43 04.09.2022
1907 Clouds 25 1012 88 10000 1.21 152 16:24 04.09.2022
1908 Clouds 25 1013 87 10000 1.01 116 14:25 04.09.2022
1909 Clouds 25 1013 87 10000 1.17 129 12:52 04.09.2022
1910 Clouds 26 1012 85 10000 1.14 118 11:28 04.09.2022
1911 Clouds 26 1011 85 10000 1.21 103 09:38 04.09.2022
1912 Clouds 29 1010 72 10000 1.91 39 06:35 04.09.2022
1913 Clouds 29 1012 69 10000 2.59 44 03:18 04.09.2022
1914 Clouds 26 1012 82 10000 2.11 110 22:56 03.09.2022
1915 Clouds 25 1011 86 10000 2.32 115 21:42 03.09.2022
1916 Clouds 24 1011 87 10000 1.97 121 21:22 03.09.2022
1917 Clouds 25 1010 88 10000 2.11 128 18:41 03.09.2022
1918 Clouds 25 1010 88 10000 1.23 120 17:19 03.09.2022
1919 Clouds 25 1011 88 10000 0.68 149 15:49 03.09.2022
1920 Clouds 25 1012 87 10000 0.58 168 14:42 03.09.2022
1921 Clouds 25 1012 87 10000 0.94 160 13:50 03.09.2022
1922 Clouds 26 1012 88 10000 0.62 94 11:33 03.09.2022
1923 Rain 26 1010 88 10000 1.25 37 09:36 03.09.2022
1924 Rain 28 1009 80 10000 1.65 30 07:53 03.09.2022
1925 Clouds 29 1009 73 10000 1.52 17 04:51 03.09.2022
1926 Clouds 30 1010 66 10000 2.8 54 02:40 03.09.2022
1927 Clouds 28 1012 76 10000 3.19 101 23:44 02.09.2022
1928 Clouds 25 1011 88 10000 2.8 115 22:21 02.09.2022
1929 Clouds 24 1011 88 10000 2.79 117 20:42 02.09.2022
1930 Clouds 24 1010 87 10000 2.87 118 19:47 02.09.2022
1931 Clouds 24 1010 87 10000 3.12 117 18:50 02.09.2022
1932 Clouds 24 1010 87 10000 3.2 117 18:25 02.09.2022
1933 Clouds 25 1011 87 10000 3.07 120 17:23 02.09.2022
1934 Clouds 25 1011 87 10000 3.07 120 16:31 02.09.2022
1935 Clouds 25 1011 87 10000 3.07 120 16:31 02.09.2022
1936 Clouds 26 1013 88 10000 3.96 108 13:25 02.09.2022
1937 Clouds 26 1012 89 10000 3.7 108 10:39 02.09.2022
1938 Clouds 26 1012 89 10000 3.22 108 09:42 02.09.2022
1939 Clouds 26 1011 86 10000 2.91 123 08:43 02.09.2022
1940 Clouds 26 1010 86 10000 1.18 138 06:44 02.09.2022
1941 Clouds 26 1010 88 10000 1.19 174 05:32 02.09.2022
1942 Clouds 26 1013 86 10000 1.52 160 22:58 01.09.2022
1943 Clouds 24 1013 90 8644 1.99 165 21:46 01.09.2022
1944 Clouds 25 1012 89 7395 1.88 154 21:26 01.09.2022
1945 Clouds 25 1012 84 10000 1.77 174 20:49 01.09.2022
1946 Clouds 25 1011 86 10000 3.03 143 19:24 01.09.2022
1947 Clouds 25 1011 88 10000 3.45 132 17:49 01.09.2022
1948 Clouds 25 1011 90 10000 3.78 116 16:41 01.09.2022
1949 Clouds 25 1013 91 10000 4.18 118 14:34 01.09.2022
1950 Clouds 25 1013 90 10000 4.67 112 12:59 01.09.2022
1951 Clouds 25 1013 90 10000 4.83 113 11:55 01.09.2022
1952 Clouds 25 1013 90 10000 4.83 113 11:36 01.09.2022
1953 Clouds 25 1012 90 10000 4.83 110 10:45 01.09.2022
1954 Clouds 26 1011 87 10000 4.8 102 08:31 01.09.2022
1955 Clouds 29 1009 78 10000 5.06 90 06:23 01.09.2022
1956 Clouds 29 1012 74 10000 4.87 93 01:34 01.09.2022
1957 Clouds 27 1013 83 10000 3.76 102 00:18 01.09.2022
1958 Rain 25 1012 91 10000 3.54 120 21:44 31.08.2022
1959 Clouds 25 1010 91 10000 3.7 118 19:51 31.08.2022
1960 Clouds 25 1010 90 10000 3.53 117 18:18 31.08.2022
1961 Clouds 25 1010 90 10000 3.77 113 16:31 31.08.2022
1962 Clouds 25 1011 89 10000 4.15 115 14:36 31.08.2022
1963 Clouds 25 1012 94 10000 4.41 114 12:23 31.08.2022
1964 Clouds 25 1012 94 10000 4.3 108 11:26 31.08.2022
1965 Clouds 25 1010 93 10000 3.56 128 08:54 31.08.2022
1966 Rain 26 1009 88 10000 3.18 105 05:26 31.08.2022
1967 Clouds 25 1012 92 10000 4.27 94 23:21 30.08.2022
1968 Clouds 25 1011 92 10000 4.14 94 21:43 30.08.2022
1969 Clouds 25 1010 92 6452 4.04 93 20:57 30.08.2022
1970 Clouds 26 1009 86 10000 4.02 111 18:32 30.08.2022
1971 Clouds 26 1010 85 10000 4.11 115 15:29 30.08.2022
1972 Clouds 26 1011 87 10000 4.4 110 13:24 30.08.2022
1973 Clouds 26 1010 87 10000 4.52 108 11:22 30.08.2022
1974 Clouds 26 1010 87 10000 4.52 108 10:49 30.08.2022
1975 Rain 29 1007 74 10000 4.4 89 07:42 30.08.2022
1976 Clouds 30 1009 68 10000 4.59 84 02:33 30.08.2022
1977 Clouds 27 1011 78 10000 2.26 115 23:20 29.08.2022
1978 Clouds 25 1010 85 10000 2.38 131 22:24 29.08.2022
1979 Clouds 25 1010 86 10000 2.45 134 21:25 29.08.2022
1980 Clouds 25 1009 85 10000 2.61 136 19:52 29.08.2022
1981 Clouds 25 1009 86 10000 2.81 130 17:52 29.08.2022
1982 Clouds 25 1010 87 10000 2.93 127 17:24 29.08.2022
1983 Clouds 25 1010 87 10000 2.93 127 16:37 29.08.2022
1984 Clouds 25 1011 88 10000 2.74 125 14:44 29.08.2022
1985 Clouds 26 1012 88 10000 2.99 122 12:52 29.08.2022
1986 Clouds 26 1011 86 10000 3.47 118 10:56 29.08.2022
1987 Clouds 26 1010 84 10000 3.8 104 09:45 29.08.2022
1988 Clouds 29 1008 75 10000 3.91 91 08:28 29.08.2022
1989 Clouds 31 1010 60 10000 4.44 75 02:48 29.08.2022
1990 Clear 28 1012 73 10000 2.86 106 23:52 28.08.2022
1991 Clear 25 1012 87 10000 2.76 135 22:22 28.08.2022
1992 Clouds 25 1011 87 10000 2.95 132 21:32 28.08.2022
1993 Clouds 24 1011 88 10000 2.94 134 20:39 28.08.2022
1994 Clouds 24 1011 88 10000 2.92 131 18:51 28.08.2022
1995 Clouds 25 1011 88 10000 3.12 131 18:19 28.08.2022
1996 Clouds 25 1011 88 10000 3.36 128 16:55 28.08.2022
1997 Clouds 25 1012 88 10000 3.87 120 15:41 28.08.2022
1998 Clouds 25 1013 88 10000 4.25 113 13:34 28.08.2022
1999 Clouds 25 1013 89 10000 4.4 113 12:20 28.08.2022
2000 Clouds 26 1012 88 10000 4.17 107 10:27 28.08.2022
2001 Clouds 26 1012 88 10000 4.17 107 09:34 28.08.2022
2002 Clouds 28 1011 80 8634 4.15 88 08:28 28.08.2022
2003 Clouds 29 1010 73 10000 4.51 84 07:27 28.08.2022
2004 Clouds 29 1013 64 10000 4.18 98 00:45 28.08.2022
2005 Clouds 26 1013 82 10000 3.5 107 23:28 27.08.2022
2006 Clouds 25 1013 84 10000 3.66 109 22:27 27.08.2022
2007 Clouds 25 1013 84 10000 3.66 109 22:27 27.08.2022
2008 Clouds 25 1011 84 10000 3.3 111 20:36 27.08.2022
2009 Clouds 25 1010 85 10000 3.3 115 19:29 27.08.2022
2010 Clouds 25 1011 89 10000 3.95 113 16:30 27.08.2022
2011 Clouds 25 1012 89 10000 4.33 113 15:31 27.08.2022
2012 Clouds 25 1013 88 10000 4.05 114 13:30 27.08.2022
2013 Clouds 25 1012 89 10000 3.69 103 12:20 27.08.2022
2014 Clouds 25 1012 90 10000 4.23 101 10:30 27.08.2022
2015 Clouds 26 1010 89 8384 3.82 91 09:36 27.08.2022
2016 Clouds 28 1009 79 10000 2.62 85 06:54 27.08.2022
2017 Clouds 29 1013 64 10000 1.23 103 01:21 27.08.2022
2018 Clouds 28 1013 72 10000 1.16 147 23:49 26.08.2022
2019 Clouds 24 1012 85 10000 1.93 162 21:49 26.08.2022
2020 Clouds 25 1011 86 10000 2.42 140 20:20 26.08.2022
2021 Clouds 25 1011 86 10000 2.81 134 17:59 26.08.2022
2022 Clouds 25 1011 86 10000 3.04 130 16:32 26.08.2022
2023 Clouds 25 1012 86 10000 3.6 122 15:24 26.08.2022
2024 Clouds 25 1012 89 10000 3.68 117 13:18 26.08.2022
2025 Clouds 25 1012 89 10000 4.29 112 11:48 26.08.2022
2026 Clouds 26 1011 89 10000 4.47 109 11:21 26.08.2022
2027 Clouds 27 1010 86 9916 4.15 105 08:55 26.08.2022
2028 Clouds 29 1010 75 9235 3.54 73 03:51 26.08.2022
2029 Clouds 28 1012 77 10000 2.91 97 23:47 25.08.2022
2030 Clouds 25 1011 86 10000 2.63 117 22:20 25.08.2022
2031 Clouds 25 1011 87 10000 2.65 112 20:54 25.08.2022
2032 Clouds 25 1011 87 10000 2.65 112 20:54 25.08.2022
2033 Clouds 25 1010 87 10000 2.71 117 19:35 25.08.2022
2034 Clouds 25 1010 87 10000 2.33 116 18:29 25.08.2022
2035 Clouds 25 1010 87 10000 2.33 116 17:31 25.08.2022
2036 Clouds 25 1011 87 10000 1.8 124 16:36 25.08.2022
2037 Clouds 25 1012 90 10000 2.15 133 15:28 25.08.2022
2038 Clouds 25 1014 94 4477 3.8 64 13:20 25.08.2022
2039 Clouds 26 1012 88 9049 3.62 101 10:49 25.08.2022
2040 Clouds 26 1011 87 10000 3.57 104 09:46 25.08.2022
2041 Clouds 28 1010 77 10000 3.93 80 07:31 25.08.2022
2042 Rain 30 1012 63 10000 3.09 65 02:29 25.08.2022
2043 Rain 27 1012 77 10000 1.84 122 23:29 24.08.2022
2044 Rain 27 1012 77 10000 1.84 122 22:46 24.08.2022
2045 Clouds 25 1011 82 10000 1.78 135 21:37 24.08.2022
2046 Clouds 25 1011 83 10000 1.47 143 21:19 24.08.2022
2047 Clouds 24 1010 85 10000 1.59 160 19:34 24.08.2022
2048 Clouds 25 1010 84 10000 1.12 145 16:49 24.08.2022
2049 Clouds 25 1011 84 10000 1.54 181 15:52 24.08.2022
2050 Clouds 25 1012 87 10000 0.76 94 13:48 24.08.2022
2051 Rain 25 1013 87 10000 1.8 67 12:24 24.08.2022
2052 Rain 25 1012 88 10000 1.72 80 11:18 24.08.2022
2053 Rain 26 1010 87 9550 3.55 87 08:28 24.08.2022
2054 Clouds 30 1010 71 9354 3.07 65 03:44 24.08.2022
2055 Clouds 29 1013 63 10000 1.31 95 23:47 23.08.2022
2056 Clouds 27 1012 68 10000 1.31 152 22:33 23.08.2022
2057 Clouds 25 1012 76 10000 1.88 157 21:39 23.08.2022
2058 Clouds 25 1011 79 10000 2.29 149 20:31 23.08.2022
2059 Clear 25 1010 80 10000 2.49 148 18:50 23.08.2022
2060 Clear 25 1010 81 10000 2.37 147 17:50 23.08.2022
2061 Clear 25 1011 82 10000 2.24 143 17:18 23.08.2022
2062 Clear 25 1011 83 10000 2.29 132 15:39 23.08.2022
2063 Clouds 26 1012 82 10000 2.83 128 13:36 23.08.2022
2064 Clouds 26 1012 81 10000 3.38 133 11:33 23.08.2022
2065 Clouds 26 1012 80 10000 3.52 128 10:51 23.08.2022
2066 Clouds 27 1011 78 10000 3.27 113 10:26 23.08.2022
2067 Clouds 28 1010 74 10000 2.75 94 08:53 23.08.2022
2068 Clouds 29 1010 66 10000 2.7 82 08:21 23.08.2022
2069 Clouds 29 1010 66 10000 2.7 82 07:38 23.08.2022
2070 Clouds 29 1010 65 10000 2.75 76 06:34 23.08.2022
2071 Clouds 30 1010 65 10000 3.15 68 05:38 23.08.2022
2072 Clear 30 1013 61 10000 2.93 94 00:52 23.08.2022
2073 Clear 29 1013 67 10000 2.64 108 00:24 23.08.2022
2074 Clear 27 1013 74 10000 2.35 129 22:52 22.08.2022
2075 Clear 25 1013 81 10000 2.56 139 21:51 22.08.2022
2076 Clear 25 1011 84 10000 2.7 133 19:49 22.08.2022
2077 Clear 25 1011 85 10000 2.7 131 19:21 22.08.2022
2078 Clear 25 1011 86 10000 2.61 131 17:55 22.08.2022
2079 Clouds 25 1012 86 10000 2.71 122 15:40 22.08.2022
2080 Clouds 25 1012 87 10000 3.17 115 14:32 22.08.2022
2081 Clouds 26 1012 86 10000 3.51 112 10:49 22.08.2022
2082 Clouds 28 1010 75 10000 3.63 78 08:21 22.08.2022
2083 Clouds 29 1010 74 10000 3.5 74 04:34 22.08.2022
2084 Clouds 29 1013 68 10000 3.22 85 00:49 22.08.2022
2085 Clouds 28 1013 75 10000 2.82 103 00:29 22.08.2022
2086 Clouds 26 1013 82 10000 2.83 121 22:54 21.08.2022
2087 Clouds 25 1013 86 10000 3.08 125 21:36 21.08.2022
2088 Clouds 25 1012 88 10000 2.99 123 20:57 21.08.2022
2089 Clouds 25 1011 88 10000 3.31 122 19:27 21.08.2022
2090 Clouds 25 1011 88 10000 3.21 122 17:39 21.08.2022
2091 Clouds 25 1011 89 10000 3.04 116 15:58 21.08.2022
2092 Clouds 25 1012 89 10000 2.82 114 15:22 21.08.2022
2093 Clouds 26 1012 88 10000 2.78 107 13:54 21.08.2022
2094 Clouds 26 1012 88 10000 2.78 107 13:30 21.08.2022
2095 Clouds 26 1012 88 10000 3 114 11:55 21.08.2022
2096 Clouds 26 1011 87 10000 3.43 108 09:31 21.08.2022
2097 Clouds 27 1010 85 10000 3.3 102 08:56 21.08.2022
2098 Clouds 27 1010 83 10000 3.37 99 08:38 21.08.2022
2099 Clouds 29 1008 75 10000 3.62 87 07:27 21.08.2022
2100 Clouds 31 1009 64 10000 4.18 74 03:41 21.08.2022
2101 Clouds 28 1012 70 10000 2.71 109 00:24 21.08.2022
2102 Clouds 26 1012 77 10000 2.48 130 22:41 20.08.2022
2103 Clouds 25 1011 82 10000 2.59 140 21:38 20.08.2022
2104 Clouds 24 1011 83 10000 2.67 141 20:41 20.08.2022
2105 Clouds 25 1010 86 10000 3.67 121 19:40 20.08.2022
2106 Clouds 25 1010 86 10000 3.3 124 18:30 20.08.2022
2107 Clouds 25 1010 85 10000 3.07 122 17:50 20.08.2022
2108 Clouds 25 1011 84 10000 2.99 127 16:52 20.08.2022
2109 Clouds 26 1011 84 10000 2.86 129 15:30 20.08.2022
2110 Clouds 25 1013 85 10000 2.79 107 13:24 20.08.2022
2111 Clouds 25 1012 86 10000 2.34 116 11:49 20.08.2022
2112 Clouds 24 1012 92 10000 3.7 161 09:34 20.08.2022
2113 Clouds 25 1011 91 10000 6.77 103 08:31 20.08.2022
2114 Clouds 29 1009 71 10000 0.84 25 05:52 20.08.2022
2115 Rain 30 1013 65 10000 0.31 76 00:59 20.08.2022
2116 Rain 30 1013 65 10000 0.31 76 00:34 20.08.2022
2117 Clouds 27 1013 78 10000 1.3 153 22:59 19.08.2022
2118 Clouds 25 1012 85 10000 1.58 148 21:40 19.08.2022
2119 Rain 25 1011 85 10000 1.42 154 19:54 19.08.2022
2120 Clouds 25 1011 86 10000 1.28 165 16:47 19.08.2022
2121 Clouds 25 1012 86 10000 1.78 175 14:54 19.08.2022
2122 Clouds 26 1013 84 10000 1.63 180 12:49 19.08.2022
2123 Clouds 26 1012 82 10000 1.51 154 10:44 19.08.2022
2124 Clouds 27 1011 79 10000 1.14 143 09:59 19.08.2022
2125 Clouds 31 1009 58 10000 2.27 43 05:30 19.08.2022
2126 Clouds 29 1013 59 10000 2.8 91 00:46 19.08.2022
2127 Clouds 28 1014 67 10000 2.52 106 00:22 19.08.2022
2128 Clouds 26 1013 78 10000 2.23 120 22:59 18.08.2022
2129 Clouds 26 1013 78 10000 2.23 120 22:30 18.08.2022
2130 Clouds 25 1013 86 10000 2.31 134 21:53 18.08.2022
2131 Clouds 24 1012 87 10000 2.26 137 21:18 18.08.2022
2132 Clouds 24 1012 87 10000 2.19 134 19:54 18.08.2022
2133 Clouds 24 1011 88 10000 2.1 130 19:21 18.08.2022
2134 Clouds 25 1011 87 10000 2.04 125 17:41 18.08.2022
2135 Clouds 25 1012 87 10000 1.7 129 16:19 18.08.2022
2136 Clouds 25 1013 85 10000 1.57 160 14:22 18.08.2022
2137 Clouds 25 1013 85 10000 1.57 160 13:44 18.08.2022
2138 Clouds 25 1013 85 10000 1.57 160 13:44 18.08.2022
2139 Clouds 25 1013 85 10000 1.57 160 13:44 18.08.2022
2140 Clouds 26 1013 85 10000 1.39 152 12:30 18.08.2022
2141 Clouds 26 1012 83 10000 0.8 101 11:21 18.08.2022
2142 Clouds 26 1011 81 10000 0.97 68 09:43 18.08.2022
2143 Clouds 28 1010 71 10000 0.81 290 07:53 18.08.2022
2144 Clouds 29 1010 67 10000 1.09 312 06:37 18.08.2022
2145 Clouds 30 1013 63 10000 1.91 41 02:22 18.08.2022
2146 Clouds 27 1014 73 10000 1.52 129 22:47 17.08.2022
2147 Clouds 24 1012 81 10000 1.64 145 20:30 17.08.2022
2148 Clouds 25 1012 80 10000 1.32 139 19:59 17.08.2022
2149 Clouds 25 1011 80 10000 1.43 147 18:37 17.08.2022
2150 Clouds 25 1012 81 10000 0.96 150 17:21 17.08.2022
2151 Clouds 25 1012 82 10000 0.96 149 15:46 17.08.2022
2152 Clouds 25 1013 83 10000 0.77 157 14:40 17.08.2022
2153 Clouds 25 1013 83 10000 0.54 102 12:30 17.08.2022
2154 Clouds 26 1012 84 10000 0.6 63 11:23 17.08.2022
2155 Clouds 27 1011 79 10000 1.4 9 09:19 17.08.2022
2156 Clouds 29 1010 65 10000 2.22 3 06:34 17.08.2022
2157 Clear 29 1013 62 10000 2.4 19 01:22 17.08.2022
2158 Clear 27 1013 72 10000 1.05 46 23:27 16.08.2022
2159 Clear 25 1012 80 10000 0.94 76 21:32 16.08.2022
2160 Clear 25 1011 82 10000 1.04 55 20:20 16.08.2022
2161 Clear 25 1011 82 10000 0.99 54 19:26 16.08.2022
2162 Clear 25 1011 82 10000 1.21 49 17:55 16.08.2022
2163 Clear 25 1011 82 10000 1.34 39 16:48 16.08.2022
2164 Clear 26 1012 82 10000 1.28 34 15:45 16.08.2022
2165 Clear 26 1013 82 10000 1.44 27 14:54 16.08.2022
2166 Clear 26 1013 82 10000 1.44 27 14:36 16.08.2022
2167 Clear 26 1012 81 10000 1.08 33 12:19 16.08.2022
2168 Clear 26 1011 80 10000 1.36 22 10:23 16.08.2022
2169 Clear 27 1010 75 10000 1.73 20 08:53 16.08.2022
2170 Clear 29 1010 66 10000 2.14 12 08:21 16.08.2022
2171 Clouds 30 1009 61 10000 2.34 6 05:55 16.08.2022
2172 Clouds 28 1013 74 10000 1.15 88 23:37 15.08.2022
2173 Clouds 25 1012 86 10000 1.34 118 22:21 15.08.2022
2174 Clouds 25 1012 86 10000 1.34 118 21:48 15.08.2022
2175 Clouds 25 1011 86 10000 1.24 93 20:32 15.08.2022
2176 Clouds 25 1010 86 10000 1.47 134 19:18 15.08.2022
2177 Clouds 25 1010 87 10000 1.57 141 17:59 15.08.2022
2178 Clouds 25 1011 87 10000 1.43 137 16:24 15.08.2022
2179 Clouds 25 1012 87 10000 1.67 147 15:26 15.08.2022
2180 Clouds 26 1012 86 10000 1.48 133 13:27 15.08.2022
2181 Clouds 26 1011 85 10000 1.14 124 10:37 15.08.2022
2182 Clouds 27 1010 82 10000 0.88 90 08:55 15.08.2022
2183 Clouds 28 1009 78 10000 0.86 41 06:51 15.08.2022
2184 Clouds 29 1010 73 10000 2.18 31 03:56 15.08.2022
2185 Clear 28 1012 74 10000 2.31 94 23:38 14.08.2022
2186 Clear 25 1011 86 10000 2.27 126 21:49 14.08.2022
2187 Clouds 25 1011 86 10000 2.16 131 20:54 14.08.2022
2188 Clouds 25 1010 86 10000 1.69 144 19:46 14.08.2022
2189 Clouds 25 1010 86 10000 1.57 144 18:41 14.08.2022
2190 Clouds 25 1010 86 10000 1.54 144 17:41 14.08.2022
2191 Clouds 25 1011 85 10000 1.31 134 16:25 14.08.2022
2192 Clouds 25 1011 85 10000 1.31 134 15:43 14.08.2022
2193 Clouds 26 1012 86 10000 1.26 146 13:52 14.08.2022
2194 Clouds 26 1012 86 10000 1.26 146 13:33 14.08.2022
2195 Clouds 26 1012 85 10000 1.27 143 12:45 14.08.2022
2196 Clouds 26 1012 85 10000 1.29 139 11:30 14.08.2022
2197 Clouds 26 1010 84 10000 1.11 108 09:34 14.08.2022
2198 Clouds 29 1009 72 10000 1.55 359 06:53 14.08.2022
2199 Clouds 29 1009 71 10000 1.8 2 05:37 14.08.2022
2200 Clouds 30 1011 67 10000 1.71 38 01:36 14.08.2022
2201 Clouds 26 1012 84 10000 1 117 22:56 13.08.2022
2202 Clouds 25 1012 87 10000 1.19 137 22:27 13.08.2022
2203 Clouds 24 1011 88 10000 1.27 126 20:50 13.08.2022
2204 Clouds 25 1011 87 10000 1.26 140 19:48 13.08.2022
2205 Clouds 25 1010 87 10000 1.53 142 19:18 13.08.2022
2206 Clouds 25 1011 86 10000 1.16 139 17:21 13.08.2022
2207 Clouds 25 1012 86 10000 0.99 131 14:50 13.08.2022
2208 Clouds 25 1012 85 10000 0.61 117 13:50 13.08.2022
2209 Clouds 26 1013 85 10000 0.96 131 13:28 13.08.2022
2210 Clouds 26 1012 84 10000 0.24 112 11:29 13.08.2022
2211 Clouds 27 1010 82 10000 1.22 340 09:23 13.08.2022
2212 Clouds 28 1010 77 10000 1.16 21 06:54 13.08.2022
2213 Clouds 29 1012 68 10000 1.76 27 01:51 13.08.2022
2214 Clouds 28 1013 75 10000 1.22 84 23:32 12.08.2022
2215 Clouds 25 1012 86 10000 1.58 141 21:37 12.08.2022
2216 Clouds 25 1011 87 10000 1.61 138 19:48 12.08.2022
2217 Clouds 25 1011 87 10000 1.27 140 19:23 12.08.2022
2218 Clouds 25 1011 87 10000 0.96 154 18:21 12.08.2022
2219 Clouds 25 1012 86 10000 1.39 151 16:26 12.08.2022
2220 Clouds 25 1012 86 10000 1.51 141 14:50 12.08.2022
2221 Clouds 25 1012 87 10000 1.67 118 13:30 12.08.2022
2222 Clouds 25 1012 86 10000 1.65 112 12:25 12.08.2022
2223 Rain 26 1011 84 10000 1.19 68 08:50 12.08.2022
2224 Rain 27 1010 80 10000 1.2 29 07:45 12.08.2022
2225 Rain 29 1009 73 10000 2.03 48 04:55 12.08.2022
2226 Clouds 27 1012 83 10000 1.08 90 00:31 12.08.2022
2227 Clouds 26 1012 87 10000 1.11 101 23:52 11.08.2022
2228 Clouds 26 1012 89 10000 1.44 113 22:42 11.08.2022
2229 Clouds 25 1011 91 10000 2.39 116 21:52 11.08.2022
2230 Clouds 25 1011 92 10000 2.74 108 21:23 11.08.2022
2231 Clouds 25 1011 92 10000 2.74 108 20:30 11.08.2022
2232 Clouds 25 1010 93 10000 3.22 110 19:33 11.08.2022
2233 Clouds 25 1010 90 10000 2.35 110 18:41 11.08.2022
2234 Clouds 26 1010 89 10000 1.25 116 16:42 11.08.2022
2235 Clouds 26 1011 88 10000 1.63 112 15:42 11.08.2022
2236 Clouds 26 1011 88 10000 1.8 135 14:20 11.08.2022
2237 Clouds 26 1011 88 10000 2.5 121 11:51 11.08.2022
2238 Clouds 27 1009 84 10000 1.92 84 08:34 11.08.2022
2239 Clouds 29 1009 75 10000 2.49 58 04:53 11.08.2022
2240 Clouds 30 1011 65 10000 3.14 78 01:56 11.08.2022
2241 Clouds 26 1013 81 10000 1.69 111 22:54 10.08.2022
2242 Clouds 25 1012 86 10000 1.85 121 21:44 10.08.2022
2243 Clouds 25 1011 86 10000 1.84 122 20:56 10.08.2022
2244 Clouds 25 1011 87 10000 1.71 129 19:58 10.08.2022
2245 Clouds 25 1010 87 10000 1.6 144 18:45 10.08.2022
2246 Clouds 25 1011 87 10000 1.31 158 17:20 10.08.2022
2247 Clouds 25 1012 88 10000 1.36 132 13:49 10.08.2022
2248 Clouds 26 1013 88 10000 1.46 138 12:50 10.08.2022
2249 Clouds 26 1011 87 10000 1.96 144 10:21 10.08.2022
2250 Rain 26 1010 85 10000 1.78 142 08:37 10.08.2022
2251 Rain 28 1009 79 10000 0.61 201 07:21 10.08.2022
2252 Clouds 29 1009 76 10000 0.99 341 04:49 10.08.2022
2253 Rain 29 1012 66 10000 1.06 52 00:49 10.08.2022
2254 Clouds 26 1012 80 10000 1.19 147 23:25 09.08.2022
2255 Clouds 25 1011 86 10000 1.53 141 21:37 09.08.2022
2256 Clouds 25 1010 87 10000 1.53 133 20:42 09.08.2022
2257 Clouds 25 1010 85 10000 1.49 169 18:48 09.08.2022
2258 Clouds 25 1010 85 10000 1.35 167 17:31 09.08.2022
2259 Clouds 25 1010 86 10000 1.05 173 16:42 09.08.2022
2260 Clouds 25 1011 87 10000 0.86 171 15:59 09.08.2022
2261 Clouds 25 1011 86 10000 0.67 168 14:30 09.08.2022
2262 Clouds 26 1011 86 10000 0.76 72 10:45 09.08.2022
2263 Clouds 27 1009 84 10000 1.55 21 08:51 09.08.2022
2264 Clouds 29 1008 74 10000 1.98 16 07:54 09.08.2022
2265 Clouds 29 1009 69 10000 1.9 23 04:31 09.08.2022
2266 Clouds 27 1012 84 5870 2.01 55 23:58 08.08.2022
2267 Clouds 26 1012 87 10000 1.68 73 22:57 08.08.2022
2268 Clouds 26 1012 87 10000 1.68 73 22:35 08.08.2022
2269 Clouds 25 1010 89 8356 1.45 89 21:27 08.08.2022
2270 Clouds 25 1009 89 10000 1.58 95 19:51 08.08.2022
2271 Clouds 25 1009 91 6496 1.33 92 18:58 08.08.2022
2272 Clouds 25 1009 91 10000 1.66 97 16:47 08.08.2022
2273 Clouds 25 1010 90 10000 1.41 99 15:40 08.08.2022
2274 Clouds 25 1011 93 10000 1.13 120 14:29 08.08.2022
2275 Clouds 25 1011 94 10000 0.98 60 12:27 08.08.2022
2276 Rain 26 1010 91 10000 1.75 37 09:48 08.08.2022
2277 Rain 28 1008 77 10000 0.66 7 06:51 08.08.2022
2278 Rain 29 1010 77 7603 1.19 21 02:56 08.08.2022
2279 Clouds 27 1011 81 10000 1.11 153 22:42 07.08.2022
2280 Clouds 25 1010 86 10000 1.57 164 21:40 07.08.2022
2281 Clouds 25 1009 87 10000 1.82 156 20:26 07.08.2022
2282 Clouds 25 1009 87 10000 1.82 156 19:56 07.08.2022
2283 Clouds 25 1009 87 10000 1.82 156 19:38 07.08.2022
2284 Clouds 25 1009 87 10000 2.15 150 18:23 07.08.2022
2285 Clouds 25 1009 87 10000 2.15 143 16:54 07.08.2022
2286 Clouds 25 1009 87 10000 2.15 143 16:35 07.08.2022
2287 Clouds 26 1010 87 10000 2.57 127 15:20 07.08.2022
2288 Clouds 26 1011 87 10000 3.2 121 13:26 07.08.2022
2289 Clouds 26 1010 88 10000 2.92 125 11:27 07.08.2022
2290 Clouds 26 1010 88 10000 2.92 125 10:34 07.08.2022
2291 Clouds 29 1007 78 8068 2.19 80 06:52 07.08.2022
2292 Clouds 31 1009 63 10000 2.72 53 03:19 07.08.2022
2293 Clouds 29 1011 69 10000 1.25 117 23:44 06.08.2022
2294 Clouds 25 1010 85 10000 1.93 154 22:20 06.08.2022
2295 Clouds 25 1009 86 10000 2.07 144 20:26 06.08.2022
2296 Clouds 25 1009 87 10000 2.2 142 19:41 06.08.2022
2297 Clouds 25 1009 86 10000 2.07 144 19:41 06.08.2022
2298 Clouds 25 1009 87 10000 2.11 149 18:25 06.08.2022
2299 Clouds 25 1009 87 10000 2.11 149 17:30 06.08.2022
2300 Clouds 25 1010 87 10000 2.32 146 14:35 06.08.2022
2301 Clouds 25 1010 87 10000 2.51 142 13:44 06.08.2022
2302 Clouds 26 1009 86 10000 3.22 133 11:24 06.08.2022
2303 Clouds 27 1009 84 10000 3.24 126 09:51 06.08.2022
2304 Clouds 28 1007 77 10000 3.4 99 08:28 06.08.2022
2305 Clouds 31 1008 64 10000 2.85 52 03:35 06.08.2022
2306 Clouds 29 1011 72 10000 1.77 125 23:32 05.08.2022
2307 Clouds 25 1010 87 10000 1.95 153 22:22 05.08.2022
2308 Clouds 25 1009 87 10000 1.94 153 19:32 05.08.2022
2309 Clouds 25 1009 88 10000 1.98 157 18:44 05.08.2022
2310 Clouds 25 1009 88 10000 1.77 138 17:27 05.08.2022
2311 Clouds 25 1009 88 10000 1.77 138 16:48 05.08.2022
2312 Clouds 26 1010 87 10000 2.09 132 15:21 05.08.2022
2313 Clouds 26 1010 87 10000 1.9 136 13:53 05.08.2022
2314 Clouds 26 1010 87 10000 2.03 145 13:22 05.08.2022
2315 Clouds 26 1010 86 10000 2.2 151 12:24 05.08.2022
2316 Clouds 26 1010 85 10000 1.91 145 10:35 05.08.2022
2317 Clouds 29 1008 74 10000 1.29 84 07:58 05.08.2022
2318 Clouds 29 1008 70 10000 2.46 62 05:32 05.08.2022
2319 Clouds 30 1011 64 10000 2.76 88 00:30 05.08.2022
2320 Clouds 25 1011 86 10000 2.38 129 22:25 04.08.2022
2321 Clouds 25 1010 87 10000 2.51 125 21:25 04.08.2022
2322 Clouds 25 1010 87 10000 2.51 125 20:42 04.08.2022
2323 Clouds 25 1009 87 10000 2.66 135 19:23 04.08.2022
2324 Clouds 25 1009 87 10000 2.66 135 18:35 04.08.2022
2325 Clouds 25 1009 88 10000 2.6 131 17:31 04.08.2022
2326 Clouds 26 1010 88 10000 2.85 119 13:44 04.08.2022
2327 Clouds 26 1010 88 10000 3.4 120 11:47 04.08.2022
2328 Clouds 26 1010 87 10000 3.51 118 10:48 04.08.2022
2329 Clouds 29 1008 73 10000 3.97 84 07:51 04.08.2022
2330 Clouds 30 1010 68 10000 3.77 75 04:28 04.08.2022
2331 Clear 30 1011 65 10000 3.71 83 01:58 04.08.2022
2332 Clear 29 1012 69 10000 3.11 97 23:42 03.08.2022
2333 Clear 25 1011 84 10000 3.23 123 21:39 03.08.2022
2334 Clear 25 1011 86 10000 3.39 120 20:37 03.08.2022
2335 Clear 25 1010 88 10000 3.29 122 19:28 03.08.2022
2336 Clear 25 1010 88 10000 3.39 123 17:41 03.08.2022
2337 Clear 26 1011 87 10000 3.33 121 16:24 03.08.2022
2338 Clear 26 1011 87 10000 3.32 125 14:25 03.08.2022
2339 Clear 26 1011 88 10000 3.86 116 11:47 03.08.2022
2340 Clouds 29 1009 73 10000 4.53 86 07:55 03.08.2022
2341 Clouds 32 1009 61 10000 5.17 78 04:46 03.08.2022
2342 Clouds 32 1011 57 10000 5.16 76 03:26 03.08.2022
2343 Clouds 30 1013 63 10000 4.12 95 01:18 03.08.2022
2344 Clear 27 1013 76 10000 3.05 111 22:53 02.08.2022
2345 Clear 25 1012 84 10000 2.99 129 21:53 02.08.2022
2346 Clear 25 1011 85 10000 2.97 129 20:37 02.08.2022
2347 Clouds 25 1011 84 10000 2.88 137 18:42 02.08.2022
2348 Clouds 25 1012 82 10000 2.67 138 15:36 02.08.2022
2349 Clouds 26 1012 82 10000 3.28 119 11:32 02.08.2022
2350 Clouds 28 1010 74 10000 3.92 97 09:18 02.08.2022
2351 Rain 30 1009 66 10000 4.66 89 07:52 02.08.2022
2352 Clouds 30 1009 65 10000 4.58 79 06:42 02.08.2022
2353 Clouds 31 1010 61 10000 4.2 67 04:31 02.08.2022
2354 Clouds 29 1013 71 10000 3.19 98 23:35 01.08.2022
2355 Clouds 25 1012 82 10000 2.8 121 22:22 01.08.2022
2356 Clouds 25 1011 83 10000 2.75 122 20:51 01.08.2022
2357 Clouds 25 1010 83 10000 3.13 122 19:23 01.08.2022
2358 Clouds 25 1010 84 10000 3.06 120 17:57 01.08.2022
2359 Clouds 25 1011 85 10000 3.09 121 16:52 01.08.2022
2360 Clouds 25 1011 85 10000 3.2 120 15:52 01.08.2022
2361 Clouds 25 1011 85 10000 3.2 120 15:30 01.08.2022
2362 Rain 26 1012 85 10000 3.54 118 13:45 01.08.2022
2363 Clear 26 1012 86 10000 3.46 116 11:49 01.08.2022
2364 Clear 26 1010 85 10000 3.48 106 09:39 01.08.2022
2365 Rain 29 1009 70 10000 4.05 85 08:21 01.08.2022
2366 Clear 31 1009 63 10000 4.53 73 04:46 01.08.2022
2367 Clear 32 1010 60 10000 4.81 75 02:31 01.08.2022
2368 Clouds 28 1012 73 10000 3.82 100 23:42 31.07.2022
2369 Clouds 27 1011 79 10000 3.09 115 22:36 31.07.2022
2370 Clear 25 1010 86 10000 2.54 134 20:49 31.07.2022
2371 Clouds 25 1009 86 10000 2.91 132 19:25 31.07.2022
2372 Clear 25 1009 87 10000 3.04 132 17:43 31.07.2022
2373 Clear 25 1010 87 10000 3.31 127 15:30 31.07.2022
2374 Clouds 26 1011 86 10000 3.15 124 13:21 31.07.2022
2375 Clouds 26 1011 85 10000 3.51 126 11:45 31.07.2022
2376 Clouds 28 1009 80 10000 3.37 112 09:27 31.07.2022
2377 Clouds 29 1008 73 10000 2.84 92 06:37 31.07.2022
2378 Clear 32 1011 58 10000 3.43 59 02:56 31.07.2022
2379 Clear 27 1012 76 10000 1.75 126 23:23 30.07.2022
2380 Clear 25 1012 85 10000 2.02 143 21:55 30.07.2022
2381 Clear 25 1012 85 10000 2.02 143 21:37 30.07.2022
2382 Clear 25 1011 87 10000 2.2 142 20:38 30.07.2022
2383 Clouds 25 1011 86 10000 2.03 156 19:57 30.07.2022
2384 Clouds 25 1010 86 10000 2.22 150 18:23 30.07.2022
2385 Clouds 25 1011 86 10000 2.35 141 16:44 30.07.2022
2386 Clouds 25 1011 86 10000 2.35 129 15:34 30.07.2022
2387 Clouds 25 1012 85 10000 2.75 127 14:26 30.07.2022
2388 Clouds 25 1012 84 10000 2.9 132 12:33 30.07.2022
2389 Clouds 26 1012 83 10000 2.73 130 11:55 30.07.2022
2390 Clouds 26 1011 80 10000 1.61 121 10:20 30.07.2022
2391 Clouds 26 1011 80 10000 1.61 121 09:42 30.07.2022
2392 Clouds 29 1010 65 10000 1.61 50 07:44 30.07.2022
2393 Clouds 31 1011 57 10000 2.28 37 02:34 30.07.2022
2394 Clouds 29 1013 63 10000 1.65 81 01:20 30.07.2022
2395 Clouds 25 1012 85 10000 1.55 143 21:39 29.07.2022
2396 Clouds 24 1011 85 10000 1.57 140 20:57 29.07.2022
2397 Clouds 25 1010 84 10000 2.06 142 19:48 29.07.2022
2398 Clouds 25 1010 85 10000 1.96 135 17:39 29.07.2022
2399 Clouds 25 1012 86 10000 1.83 132 14:51 29.07.2022
2400 Clouds 26 1012 85 10000 1.38 112 12:55 29.07.2022
2401 Clouds 26 1010 83 10000 1.35 62 09:34 29.07.2022
2402 Clouds 27 1010 79 10000 1.21 42 08:41 29.07.2022
2403 Clouds 30 1009 67 10000 1.78 59 06:40 29.07.2022
2404 Clouds 29 1013 65 10000 3.23 88 01:19 29.07.2022
2405 Clouds 25 1012 88 10000 2.93 118 21:45 28.07.2022
2406 Clouds 25 1011 88 10000 2.95 119 20:54 28.07.2022
2407 Clouds 25 1011 87 10000 2.93 123 20:20 28.07.2022
2408 Clouds 25 1011 87 10000 2.93 123 19:40 28.07.2022
2409 Clouds 25 1010 87 10000 3.04 122 18:20 28.07.2022
2410 Clouds 25 1010 87 10000 3.04 122 17:36 28.07.2022
2411 Clouds 25 1011 88 10000 3.3 127 16:41 28.07.2022
2412 Clouds 25 1012 89 10000 3.27 117 14:28 28.07.2022
2413 Clouds 25 1012 89 10000 3.64 115 12:41 28.07.2022
2414 Clouds 27 1010 85 9145 3.41 104 09:25 28.07.2022
2415 Clouds 30 1009 69 10000 3.76 77 05:45 28.07.2022
2416 Clouds 31 1009 66 10000 4.11 67 05:21 28.07.2022
2417 Clouds 28 1014 73 10000 1.94 121 00:28 28.07.2022
2418 Rain 25 1013 85 10000 1.8 152 21:58 27.07.2022
2419 Clouds 25 1012 86 10000 1.71 157 20:19 27.07.2022
2420 Clouds 25 1011 86 10000 1.78 157 19:30 27.07.2022
2421 Clouds 25 1012 88 10000 1.97 150 16:33 27.07.2022
2422 Clouds 25 1012 88 10000 2.05 145 15:51 27.07.2022
2423 Clouds 25 1013 88 10000 2.27 137 14:42 27.07.2022
2424 Clouds 25 1013 86 10000 2.66 130 13:57 27.07.2022
2425 Clouds 26 1012 84 10000 1.77 123 11:18 27.07.2022
2426 Clouds 29 1009 74 10000 1.82 63 07:53 27.07.2022
2427 Clouds 30 1009 67 10000 2.75 31 05:18 27.07.2022
2428 Rain 27 1012 78 10000 1.21 114 23:29 26.07.2022
2429 Clouds 25 1012 84 10000 1.34 144 22:19 26.07.2022
2430 Clouds 25 1011 85 10000 1.24 139 20:58 26.07.2022
2431 Clouds 25 1010 85 10000 1.31 138 19:32 26.07.2022
2432 Clouds 25 1010 85 10000 1.19 124 18:40 26.07.2022
2433 Clouds 25 1010 85 10000 1.39 117 17:54 26.07.2022
2434 Clouds 25 1011 85 10000 2.06 108 15:43 26.07.2022
2435 Clouds 26 1011 85 10000 2.6 114 14:43 26.07.2022
2436 Rain 26 1011 86 10000 3 119 12:32 26.07.2022
2437 Rain 27 1010 81 10000 2.61 95 10:20 26.07.2022
2438 Clouds 29 1008 71 10000 2.48 72 08:27 26.07.2022
2439 Clouds 30 1011 66 10000 3.86 76 01:52 26.07.2022
2440 Clouds 30 1011 66 10000 3.86 76 01:52 26.07.2022
2441 Clouds 29 1012 70 10000 2.93 99 00:19 26.07.2022
2442 Clouds 27 1012 78 10000 2.7 111 22:40 25.07.2022
2443 Clouds 25 1011 86 10000 2.65 118 21:43 25.07.2022
2444 Clouds 25 1011 88 10000 2.78 120 20:43 25.07.2022
2445 Clouds 25 1010 88 10000 2.73 124 20:23 25.07.2022
2446 Clear 25 1010 86 10000 2.53 135 19:24 25.07.2022
2447 Clear 25 1010 87 10000 2.48 137 17:37 25.07.2022
2448 Clear 26 1010 87 10000 2.58 133 16:40 25.07.2022
2449 Clouds 26 1012 84 10000 2.69 138 12:58 25.07.2022
2450 Clouds 27 1011 80 10000 2.6 136 10:47 25.07.2022
2451 Clouds 29 1009 69 10000 2.41 60 07:29 25.07.2022
2452 Clear 28 1012 75 10000 2.68 106 23:57 24.07.2022
2453 Clear 27 1011 82 10000 2.51 121 23:22 24.07.2022
2454 Clear 27 1011 82 10000 2.51 121 22:41 24.07.2022
2455 Clear 25 1011 87 10000 2.55 124 21:30 24.07.2022
2456 Clear 25 1010 88 10000 2.37 127 20:57 24.07.2022
2457 Clear 25 1010 88 10000 2.37 127 20:35 24.07.2022
2458 Clear 25 1010 87 10000 2.5 127 18:59 24.07.2022
2459 Clouds 25 1010 87 10000 2.11 130 16:53 24.07.2022
2460 Clouds 26 1011 88 10000 2.1 134 15:53 24.07.2022
2461 Clouds 26 1011 87 10000 2.07 137 14:41 24.07.2022
2462 Clouds 26 1011 87 10000 2.07 137 14:41 24.07.2022
2463 Clouds 26 1011 87 10000 2.04 138 13:43 24.07.2022
2464 Clouds 26 1011 87 10000 2.42 143 12:19 24.07.2022
2465 Clouds 27 1011 86 10000 2.26 140 11:28 24.07.2022
2466 Clouds 27 1010 84 10000 1.78 131 09:33 24.07.2022
2467 Clouds 28 1009 79 10000 1.25 105 07:53 24.07.2022
2468 Clouds 29 1009 75 10000 1.41 90 06:38 24.07.2022
2469 Clouds 31 1010 59 10000 2.3 49 02:33 24.07.2022
2470 Clouds 26 1012 81 10000 1.42 147 22:31 23.07.2022
2471 Clouds 25 1011 88 10000 1.71 154 20:41 23.07.2022
2472 Clouds 25 1011 89 10000 1.88 155 18:52 23.07.2022
2473 Clouds 25 1011 89 10000 2 151 17:48 23.07.2022
2474 Clouds 25 1011 89 10000 2 144 17:24 23.07.2022
2475 Clouds 25 1012 89 10000 1.9 141 15:51 23.07.2022
2476 Clouds 26 1012 88 10000 1.75 140 15:20 23.07.2022
2477 Clouds 26 1012 88 10000 1.75 140 14:36 23.07.2022
2478 Clouds 26 1012 88 10000 1.58 140 13:53 23.07.2022
2479 Clouds 26 1012 86 10000 1.18 156 11:46 23.07.2022
2480 Clouds 27 1011 84 10000 0.83 142 10:28 23.07.2022
2481 Clouds 27 1011 82 10000 0.58 115 09:26 23.07.2022
2482 Clouds 30 1011 67 10000 1.39 12 04:59 23.07.2022
2483 Clear 31 1012 60 10000 2.14 15 02:30 23.07.2022
2484 Clear 29 1013 67 10000 0.93 109 23:39 22.07.2022
2485 Clear 25 1012 85 10000 1.77 156 20:57 22.07.2022
2486 Clouds 25 1012 85 10000 1.54 155 19:47 22.07.2022
2487 Clouds 25 1011 85 10000 1.42 166 18:29 22.07.2022
2488 Clouds 25 1012 85 10000 1.49 165 17:28 22.07.2022
2489 Clouds 25 1013 84 10000 1.62 181 14:57 22.07.2022
2490 Clouds 26 1013 83 10000 1.38 156 11:49 22.07.2022
2491 Clouds 28 1011 76 10000 0.63 347 09:27 22.07.2022
2492 Clouds 28 1011 76 10000 0.63 347 08:43 22.07.2022
2493 Clouds 30 1009 64 10000 1.91 346 07:20 22.07.2022
2494 Clouds 31 1011 60 10000 2.35 22 03:43 22.07.2022
2495 Clouds 26 1013 73 10000 1.5 134 22:45 21.07.2022
2496 Clouds 25 1013 79 10000 1.89 146 21:34 21.07.2022
2497 Clouds 25 1011 85 10000 1.73 137 19:28 21.07.2022
2498 Rain 25 1011 85 10000 1.9 137 17:41 21.07.2022
2499 Clouds 25 1011 84 10000 1.85 120 17:19 21.07.2022
2500 Clear 25 1012 81 10000 2.06 119 15:22 21.07.2022
2501 Clear 25 1012 81 10000 2.06 119 14:37 21.07.2022
2502 Clouds 26 1012 84 10000 3.07 123 12:28 21.07.2022
2503 Clouds 26 1012 84 10000 2.95 113 11:19 21.07.2022
2504 Clouds 27 1011 82 10000 2.75 97 09:33 21.07.2022
2505 Clouds 28 1010 77 10000 2.54 70 08:50 21.07.2022
2506 Clouds 29 1010 72 10000 2.46 55 07:42 21.07.2022
2507 Clouds 31 1009 61 10000 3.21 52 04:46 21.07.2022
2508 Clouds 30 1013 64 10000 2.29 83 00:36 21.07.2022
2509 Clouds 25 1012 86 10000 2.34 136 22:22 20.07.2022
2510 Clouds 25 1012 87 10000 2.39 136 20:54 20.07.2022
2511 Clouds 25 1011 87 10000 2.18 135 19:52 20.07.2022
2512 Clouds 25 1011 85 10000 1.85 130 19:24 20.07.2022
2513 Clouds 25 1011 85 10000 1.85 130 18:34 20.07.2022
2514 Clouds 25 1011 83 10000 2 130 17:55 20.07.2022
2515 Clouds 25 1012 82 10000 2.23 125 16:45 20.07.2022
2516 Clear 25 1012 82 10000 2.15 122 15:31 20.07.2022
2517 Clouds 25 1013 83 10000 2.58 125 14:18 20.07.2022
2518 Clouds 26 1013 83 10000 2.24 136 11:33 20.07.2022
2519 Clouds 28 1010 77 10000 0.72 96 08:46 20.07.2022
2520 Clear 31 1010 58 10000 3.16 61 03:25 20.07.2022
2521 Clear 29 1012 61 10000 2.88 96 00:48 20.07.2022
2522 Clear 28 1012 69 10000 2.7 109 23:41 19.07.2022
2523 Clear 26 1012 75 10000 2.4 130 22:31 19.07.2022
2524 Clear 24 1011 82 10000 2.15 140 21:23 19.07.2022
2525 Clouds 24 1011 83 10000 2.27 133 20:27 19.07.2022
2526 Clouds 24 1010 84 10000 2.48 125 18:43 19.07.2022
2527 Clouds 24 1010 85 10000 2.64 129 17:57 19.07.2022
2528 Clouds 25 1010 85 10000 2.53 133 16:31 19.07.2022
2529 Clear 25 1011 86 10000 2.32 136 14:36 19.07.2022
2530 Clouds 26 1011 85 10000 2.16 124 11:38 19.07.2022
2531 Clouds 26 1011 84 10000 1.81 117 10:31 19.07.2022
2532 Clouds 27 1009 80 10000 0.84 85 08:48 19.07.2022
2533 Clouds 28 1009 76 10000 1.35 55 08:22 19.07.2022
2534 Clouds 29 1008 70 10000 1.9 36 07:18 19.07.2022
2535 Clouds 29 1009 68 10000 2.91 48 05:26 19.07.2022
2536 Clouds 29 1009 68 10000 2.91 48 04:46 19.07.2022
2537 Clouds 30 1012 62 10000 2.3 79 00:34 19.07.2022
2538 Clouds 27 1011 78 10000 1.65 119 23:22 18.07.2022
2539 Clouds 27 1011 78 10000 1.65 119 22:56 18.07.2022
2540 Clouds 25 1011 85 10000 1.89 136 21:53 18.07.2022
2541 Clouds 25 1010 86 10000 2.02 139 20:50 18.07.2022
2542 Clouds 25 1009 84 10000 2.37 131 19:25 18.07.2022
2543 Clouds 25 1010 84 10000 2.22 138 17:22 18.07.2022
2544 Clouds 25 1010 85 10000 2.12 141 15:46 18.07.2022
2545 Clouds 25 1011 87 10000 2.33 133 14:24 18.07.2022
2546 Clouds 26 1011 87 10000 2.52 131 12:38 18.07.2022
2547 Clouds 26 1010 85 10000 2.65 111 10:37 18.07.2022
2548 Clouds 28 1009 78 10000 2.45 79 08:51 18.07.2022
2549 Clouds 30 1007 62 10000 3.16 63 06:58 18.07.2022
2550 Clouds 30 1011 61 10000 4.68 92 00:36 18.07.2022
2551 Clouds 27 1011 76 10000 3.26 112 22:34 17.07.2022
2552 Clouds 25 1011 84 10000 3.13 126 21:47 17.07.2022
2553 Clouds 25 1011 85 10000 3.07 129 20:55 17.07.2022
2554 Clouds 25 1011 85 10000 3.07 129 20:36 17.07.2022
2555 Clouds 25 1010 84 10000 3.26 127 19:28 17.07.2022
2556 Clouds 25 1010 83 10000 3.05 127 18:26 17.07.2022
2557 Clouds 25 1010 83 10000 3.05 127 17:38 17.07.2022
2558 Clouds 25 1011 84 10000 3.02 126 16:50 17.07.2022
2559 Clouds 25 1011 84 10000 2.98 127 16:25 17.07.2022
2560 Clouds 25 1012 84 10000 2.89 126 14:32 17.07.2022
2561 Clouds 25 1012 83 10000 3.23 119 13:30 17.07.2022
2562 Clouds 26 1012 84 10000 3.47 114 11:32 17.07.2022
2563 Clouds 28 1010 76 10000 4.16 93 08:50 17.07.2022
2564 Clouds 31 1011 63 10000 4.67 76 03:40 17.07.2022
2565 Clouds 31 1013 60 10000 4.63 83 02:21 17.07.2022
2566 Clear 27 1013 78 10000 3.7 112 23:19 16.07.2022
2567 Clear 25 1012 87 10000 3.64 123 21:21 16.07.2022
2568 Clouds 25 1011 86 10000 3.71 122 19:25 16.07.2022
2569 Clouds 25 1011 87 10000 3.78 123 17:56 16.07.2022
2570 Clouds 25 1012 87 10000 3.66 120 16:27 16.07.2022
2571 Clouds 25 1013 88 10000 3.67 122 13:47 16.07.2022
2572 Clouds 26 1012 85 10000 3.95 115 10:40 16.07.2022
2573 Clouds 27 1011 82 10000 3.84 108 09:30 16.07.2022
2574 Clouds 28 1010 77 10000 3.52 99 08:42 16.07.2022
2575 Clouds 30 1009 67 10000 3.52 84 07:51 16.07.2022
2576 Clouds 31 1011 55 10000 3.99 72 03:40 16.07.2022
2577 Clouds 30 1012 63 10000 3.38 73 01:59 16.07.2022
2578 Clouds 26 1013 81 10000 2.36 129 23:21 15.07.2022
2579 Clouds 26 1013 81 10000 2.36 129 22:37 15.07.2022
2580 Clouds 25 1012 87 10000 1.99 139 21:18 15.07.2022
2581 Clouds 25 1011 87 10000 2.13 135 19:51 15.07.2022
2582 Clouds 25 1011 88 10000 2.13 139 18:32 15.07.2022
2583 Clouds 25 1012 87 10000 1.74 152 17:25 15.07.2022
2584 Clouds 25 1012 87 10000 1.74 166 14:35 15.07.2022
2585 Clouds 25 1013 86 10000 2.03 180 12:43 15.07.2022
2586 Clouds 26 1012 85 10000 1.62 176 10:53 15.07.2022
2587 Clouds 28 1010 75 10000 0.7 84 07:55 15.07.2022
2588 Clouds 28 1010 74 10000 0.72 67 05:54 15.07.2022
2589 Clouds 30 1012 57 10000 1.5 99 00:47 15.07.2022
2590 Clouds 26 1012 68 10000 1.47 144 23:25 14.07.2022
2591 Clouds 26 1012 68 10000 1.47 144 22:42 14.07.2022
2592 Clouds 24 1012 74 10000 1.91 157 21:41 14.07.2022
2593 Clouds 24 1012 74 10000 1.91 157 21:41 14.07.2022
2594 Clouds 24 1011 75 10000 1.84 161 21:23 14.07.2022
2595 Clouds 24 1011 75 10000 1.84 161 20:43 14.07.2022
2596 Clouds 24 1011 75 10000 1.66 172 20:19 14.07.2022
2597 Clouds 24 1010 79 10000 1.58 167 18:38 14.07.2022
2598 Clouds 24 1011 80 10000 1.58 153 16:20 14.07.2022
2599 Clouds 25 1011 80 10000 1.59 151 15:26 14.07.2022
2600 Clouds 25 1011 80 10000 1.58 153 13:52 14.07.2022
2601 Clouds 25 1012 79 10000 1.64 158 12:36 14.07.2022
2602 Clouds 26 1011 78 10000 1.19 166 11:28 14.07.2022
2603 Clouds 26 1011 78 10000 1.19 166 10:52 14.07.2022
2604 Clouds 27 1009 73 10000 0.41 328 08:58 14.07.2022
2605 Clouds 30 1008 60 10000 2.39 21 04:45 14.07.2022
2606 Clouds 29 1011 64 10000 2.25 93 01:19 14.07.2022
2607 Clouds 29 1011 64 10000 2.25 93 00:51 14.07.2022
2608 Clouds 26 1011 78 10000 2.19 111 22:31 13.07.2022
2609 Clouds 25 1011 83 10000 1.95 114 21:42 13.07.2022
2610 Clouds 25 1010 83 10000 1.77 120 20:38 13.07.2022
2611 Clouds 25 1009 85 10000 1.58 139 18:36 13.07.2022
2612 Clouds 25 1009 85 10000 1.87 136 17:31 13.07.2022
2613 Clouds 25 1009 85 10000 1.87 136 17:31 13.07.2022
2614 Clouds 25 1009 85 10000 1.87 136 17:31 13.07.2022
2615 Clouds 25 1010 85 10000 2.13 117 16:19 13.07.2022
2616 Clouds 25 1010 84 10000 2.58 112 14:46 13.07.2022
2617 Clouds 25 1010 84 10000 2.58 112 14:46 13.07.2022
2618 Clouds 26 1010 82 10000 3.08 108 11:36 13.07.2022
2619 Clouds 27 1009 78 10000 2.76 102 10:44 13.07.2022
2620 Clouds 27 1009 77 10000 2.38 100 09:49 13.07.2022
2621 Clouds 28 1008 76 10000 2.12 90 09:20 13.07.2022
2622 Clouds 30 1008 69 10000 3.05 70 05:21 13.07.2022
2623 Clouds 30 1011 64 10000 3.37 91 00:49 13.07.2022
2624 Clouds 27 1011 72 10000 2.43 110 22:48 12.07.2022
2625 Clouds 25 1011 79 10000 2.62 135 21:49 12.07.2022
2626 Clouds 25 1010 80 10000 2.78 140 20:54 12.07.2022
2627 Clouds 25 1009 84 10000 2.7 133 20:21 12.07.2022
2628 Clouds 25 1009 85 10000 2.66 133 18:51 12.07.2022
2629 Clouds 25 1010 86 10000 2.58 128 17:23 12.07.2022
2630 Clouds 25 1010 86 10000 2.6 124 15:32 12.07.2022
2631 Clouds 26 1011 86 10000 2.76 117 13:43 12.07.2022
2632 Clouds 26 1011 84 10000 3.13 118 11:55 12.07.2022
2633 Clear 27 1010 83 10000 3.06 122 10:45 12.07.2022
2634 Clouds 28 1009 78 10000 2.38 88 08:59 12.07.2022
2635 Clouds 29 1008 69 10000 2.67 70 07:48 12.07.2022
2636 Clear 31 1008 63 10000 2.86 55 05:47 12.07.2022
2637 Clear 31 1009 61 10000 3.04 53 05:29 12.07.2022
2638 Clear 30 1012 62 10000 1.97 65 01:32 12.07.2022
2639 Clear 26 1013 82 10000 1.93 125 22:48 11.07.2022
2640 Clear 24 1012 87 10000 2.12 141 21:34 11.07.2022
2641 Clear 24 1012 88 10000 2.17 143 20:33 11.07.2022
2642 Clear 25 1011 88 10000 2 142 19:27 11.07.2022
2643 Clear 25 1011 88 10000 2 142 18:30 11.07.2022
2644 Clear 25 1011 88 10000 1.96 141 16:31 11.07.2022
2645 Clear 25 1012 88 10000 1.88 136 15:28 11.07.2022
2646 Clouds 25 1013 87 10000 1.78 137 13:19 11.07.2022
2647 Clouds 26 1012 86 10000 1.82 146 11:24 11.07.2022
2648 Clouds 26 1012 86 10000 1.82 146 11:24 11.07.2022
2649 Clouds 26 1011 86 10000 1.59 140 09:58 11.07.2022
2650 Clouds 26 1011 86 10000 1.59 140 09:35 11.07.2022
2651 Clouds 27 1011 84 10000 1.11 120 08:32 11.07.2022
2652 Clouds 30 1013 63 10000 1.77 89 01:20 11.07.2022
2653 Clouds 28 1013 70 10000 1.99 107 23:54 10.07.2022
2654 Clouds 26 1013 75 10000 1.99 131 22:45 10.07.2022
2655 Clouds 25 1012 82 10000 2.06 142 20:56 10.07.2022
2656 Clouds 25 1012 82 10000 2.06 142 20:36 10.07.2022
2657 Clouds 24 1011 83 10000 2.32 138 19:30 10.07.2022
2658 Clouds 24 1011 83 10000 2.32 138 19:30 10.07.2022
2659 Clouds 25 1011 85 10000 2.2 141 18:25 10.07.2022
2660 Clouds 25 1011 85 10000 2.2 141 17:33 10.07.2022
2661 Clouds 25 1012 86 10000 1.85 144 16:21 10.07.2022
2662 Clouds 25 1012 87 10000 1.62 144 14:47 10.07.2022
2663 Clouds 25 1012 87 10000 1.28 147 13:30 10.07.2022
2664 Clouds 26 1012 86 10000 0.77 111 11:44 10.07.2022
2665 Clouds 26 1011 83 10000 0.41 37 09:45 10.07.2022
2666 Clouds 27 1010 79 10000 0.84 15 08:43 10.07.2022
2667 Clouds 29 1009 69 10000 2.17 48 07:19 10.07.2022
2668 Clouds 28 1013 65 10000 1.94 108 23:50 09.07.2022
2669 Clouds 24 1012 78 10000 2.2 145 22:26 09.07.2022
2670 Clouds 24 1012 78 10000 2.2 145 22:26 09.07.2022
2671 Clouds 24 1012 78 10000 2.2 145 21:41 09.07.2022
2672 Clouds 24 1011 79 10000 2.06 140 19:50 09.07.2022
2673 Clouds 24 1010 83 10000 2.19 133 18:28 09.07.2022
2674 Clouds 24 1010 83 10000 2.19 133 17:32 09.07.2022
2675 Clouds 25 1011 83 10000 2.31 136 16:34 09.07.2022
2676 Clouds 25 1011 82 10000 2.25 138 15:39 09.07.2022
2677 Clouds 25 1012 80 10000 2.25 126 14:23 09.07.2022
2678 Clouds 25 1012 80 10000 2.25 126 13:48 09.07.2022
2679 Clouds 26 1012 78 10000 3.12 116 11:54 09.07.2022
2680 Clouds 26 1011 77 10000 3.37 119 10:27 09.07.2022
2681 Clouds 26 1011 77 10000 3.37 119 09:56 09.07.2022
2682 Clouds 29 1009 60 10000 3.33 87 07:44 09.07.2022
2683 Clouds 31 1008 47 10000 4.16 75 04:45 09.07.2022
2684 Clouds 28 1012 62 10000 3.73 104 23:43 08.07.2022
2685 Clouds 26 1012 71 10000 3.17 115 22:34 08.07.2022
2686 Clouds 24 1011 80 10000 3.09 129 21:27 08.07.2022
2687 Clouds 24 1011 80 10000 3.09 129 20:38 08.07.2022
2688 Clouds 25 1011 81 10000 3.17 127 19:38 08.07.2022
2689 Clouds 25 1010 83 10000 2.61 129 17:50 08.07.2022
2690 Clouds 25 1011 84 10000 2.24 136 16:29 08.07.2022
2691 Clouds 25 1012 84 10000 2.4 132 14:50 08.07.2022
2692 Clouds 26 1012 86 10000 2.97 130 12:42 08.07.2022
2693 Clouds 26 1011 84 10000 2.86 124 10:47 08.07.2022
2694 Clouds 27 1010 82 10000 2.71 110 09:58 08.07.2022
2695 Clouds 30 1008 68 10000 2.87 65 06:59 08.07.2022
2696 Clouds 30 1008 66 10000 3.13 63 05:37 08.07.2022
2697 Clouds 29 1012 66 10000 3.91 92 00:40 08.07.2022
2698 Clouds 27 1012 78 10000 3.11 112 22:50 07.07.2022
2699 Clouds 25 1011 83 10000 3.27 116 21:46 07.07.2022
2700 Clouds 25 1010 84 10000 3.44 117 19:34 07.07.2022
2701 Clouds 25 1010 85 10000 2.97 125 17:43 07.07.2022
2702 Clouds 25 1011 86 10000 2.95 121 15:58 07.07.2022
2703 Clouds 25 1011 84 10000 3.43 116 13:33 07.07.2022
2704 Clouds 26 1012 83 10000 3.6 117 12:40 07.07.2022
2705 Clouds 26 1012 84 10000 3.63 113 12:21 07.07.2022
2706 Clouds 26 1012 84 10000 3.63 113 11:32 07.07.2022
2707 Clouds 26 1011 85 10000 3.69 112 10:45 07.07.2022
2708 Clouds 26 1011 84 10000 3.79 109 10:26 07.07.2022
2709 Clouds 29 1010 71 10000 3.95 87 08:21 07.07.2022
2710 Clouds 31 1009 64 10000 4.22 76 05:23 07.07.2022
2711 Clouds 27 1013 74 10000 2.73 122 23:37 06.07.2022
2712 Clouds 26 1013 76 10000 2.46 128 23:19 06.07.2022
2713 Clouds 26 1013 76 10000 2.46 128 22:57 06.07.2022
2714 Clouds 26 1013 76 10000 2.46 128 22:39 06.07.2022
2715 Clouds 25 1012 71 10000 2.6 132 21:59 06.07.2022
2716 Clouds 25 1011 70 10000 2.13 150 19:41 06.07.2022
2717 Clouds 25 1010 71 10000 2.08 156 18:32 06.07.2022
2718 Clouds 25 1011 76 10000 2.02 162 16:43 06.07.2022
2719 Clouds 25 1012 79 10000 2.47 145 15:28 06.07.2022
2720 Clouds 25 1012 78 10000 3.1 126 12:43 06.07.2022
2721 Clouds 26 1012 80 10000 3.5 120 11:49 06.07.2022
2722 Clouds 26 1011 79 10000 3.42 118 10:20 06.07.2022
2723 Clouds 30 1010 63 10000 2.91 88 08:26 06.07.2022
2724 Clouds 30 1009 57 10000 3.64 84 07:23 06.07.2022
2725 Clouds 31 1010 58 10000 4.28 78 05:28 06.07.2022
2726 Clouds 26 1012 76 10000 3.46 116 22:48 05.07.2022
2727 Clouds 25 1012 84 10000 3.68 120 21:53 05.07.2022
2728 Clouds 25 1011 86 10000 3.83 117 20:39 05.07.2022
2729 Clouds 26 1011 87 10000 4.08 109 19:43 05.07.2022
2730 Clouds 25 1010 87 10000 4.22 104 19:22 05.07.2022
2731 Clouds 25 1010 87 10000 4.11 109 17:47 05.07.2022
2732 Clouds 26 1010 87 10000 3.84 115 16:54 05.07.2022
2733 Clouds 26 1011 85 10000 3.31 109 15:25 05.07.2022
2734 Clouds 26 1011 84 10000 3.37 114 13:59 05.07.2022
2735 Rain 26 1011 82 10000 3.49 123 12:42 05.07.2022
2736 Clouds 26 1011 83 10000 3.22 120 11:33 05.07.2022
2737 Clouds 27 1010 83 10000 2.98 115 10:40 05.07.2022
2738 Clouds 28 1009 80 10000 2.32 88 09:22 05.07.2022
2739 Clouds 29 1008 71 10000 2.9 83 07:45 05.07.2022
2740 Clouds 31 1008 62 10000 3.22 57 04:49 05.07.2022
2741 Clouds 31 1009 61 10000 3.42 62 04:21 05.07.2022
2742 Clouds 29 1011 70 10000 3.74 98 23:45 04.07.2022
2743 Clouds 27 1011 78 10000 3.17 108 23:25 04.07.2022
2744 Clouds 26 1010 85 10000 3.17 115 22:21 04.07.2022
2745 Clouds 25 1010 85 10000 3.19 116 21:20 04.07.2022
2746 Clouds 25 1010 85 10000 3.19 116 20:52 04.07.2022
2747 Clouds 25 1010 85 10000 3.19 116 20:33 04.07.2022
2748 Clouds 25 1009 84 10000 3.36 120 19:51 04.07.2022
2749 Clouds 25 1009 86 10000 3.42 118 19:33 04.07.2022
2750 Clouds 26 1008 85 10000 3.57 124 17:42 04.07.2022
2751 Clouds 26 1009 87 10000 3.94 122 15:44 04.07.2022
2752 Clouds 26 1009 88 10000 4.02 120 14:42 04.07.2022
2753 Clouds 26 1009 87 10000 4.54 116 13:27 04.07.2022
2754 Clouds 26 1009 86 10000 4.47 118 11:43 04.07.2022
2755 Clouds 26 1008 86 10000 4.39 117 10:33 04.07.2022
2756 Clouds 26 1008 85 10000 4.34 113 09:36 04.07.2022
2757 Clear 30 1006 66 10000 5.27 94 06:50 04.07.2022
2758 Clear 31 1008 57 10000 5.4 85 03:23 04.07.2022
2759 Clear 29 1011 72 10000 4.86 102 00:27 04.07.2022
2760 Clear 27 1010 78 10000 4.03 112 22:55 03.07.2022
2761 Clear 25 1009 86 10000 3.88 118 20:47 03.07.2022
2762 Clouds 25 1008 85 10000 3.77 117 20:20 03.07.2022
2763 Clouds 25 1008 85 10000 4.07 116 19:25 03.07.2022
2764 Clouds 25 1008 85 10000 4.07 116 18:31 03.07.2022
2765 Clouds 25 1008 86 10000 3.86 119 17:42 03.07.2022
2766 Clouds 25 1010 86 10000 3.76 121 15:28 03.07.2022
2767 Clouds 25 1010 86 10000 3.76 121 14:54 03.07.2022
2768 Clouds 25 1010 86 10000 3.71 119 13:50 03.07.2022
2769 Clouds 26 1010 86 10000 3.72 118 12:49 03.07.2022
2770 Clouds 26 1010 85 10000 3.28 117 12:19 03.07.2022
2771 Clouds 26 1009 85 10000 3.67 116 10:54 03.07.2022
2772 Clouds 26 1009 85 10000 3.67 116 10:35 03.07.2022
2773 Clouds 30 1007 64 10000 3.54 90 07:38 03.07.2022
2774 Clouds 31 1006 56 10000 3.76 91 06:52 03.07.2022
2775 Clear 30 1011 62 10000 3.34 102 00:39 03.07.2022
2776 Clear 29 1011 68 10000 3.5 112 23:37 02.07.2022
2777 Clear 27 1010 73 10000 3.3 117 22:31 02.07.2022
2778 Clouds 25 1009 77 10000 3.13 130 20:28 02.07.2022
2779 Clouds 25 1009 77 10000 3.13 130 19:49 02.07.2022
2780 Clouds 25 1009 78 10000 2.94 134 18:36 02.07.2022
2781 Clouds 25 1009 81 10000 3.05 134 17:39 02.07.2022
2782 Clear 25 1009 81 10000 3.37 127 16:30 02.07.2022
2783 Clear 26 1010 85 10000 3.57 117 13:40 02.07.2022
2784 Clear 26 1010 88 10000 4.04 113 11:49 02.07.2022
2785 Clear 26 1010 87 10000 4.5 111 10:51 02.07.2022
2786 Clear 26 1009 84 10000 4.45 105 10:21 02.07.2022
2787 Clear 27 1008 76 10000 4.76 99 08:37 02.07.2022
2788 Clear 29 1008 63 10000 4.91 94 08:19 02.07.2022
2789 Clear 31 1010 50 10000 5.74 89 02:59 02.07.2022
2790 Clear 29 1012 67 10000 4.95 102 00:28 02.07.2022
2791 Clear 27 1012 75 10000 4.01 110 23:21 01.07.2022
2792 Clear 25 1011 82 10000 3.84 119 22:29 01.07.2022
2793 Clear 25 1011 82 10000 3.84 119 21:37 01.07.2022
2794 Clear 25 1010 83 10000 3.71 117 20:58 01.07.2022
2795 Clear 25 1010 83 10000 3.71 117 20:32 01.07.2022
2796 Clouds 25 1010 80 10000 3.49 121 19:36 01.07.2022
2797 Clouds 25 1010 82 10000 3.8 123 16:42 01.07.2022
2798 Clouds 25 1012 84 10000 3.9 120 14:31 01.07.2022
2799 Clear 26 1012 84 10000 4 117 13:39 01.07.2022
2800 Clear 26 1011 85 10000 4.57 113 10:54 01.07.2022
2801 Clear 27 1010 83 10000 4.44 109 10:19 01.07.2022
2802 Clouds 31 1008 60 10000 4.95 90 06:31 01.07.2022
2803 Clouds 31 1010 61 10000 6.16 93 02:43 01.07.2022
2804 Clouds 29 1012 70 10000 5.15 103 23:44 30.06.2022
2805 Clouds 27 1012 80 10000 4.48 109 22:50 30.06.2022
2806 Clouds 27 1012 80 10000 4.48 109 22:31 30.06.2022
2807 Clouds 25 1012 86 10000 4.33 110 21:53 30.06.2022
2808 Clouds 25 1011 87 10000 4.47 109 20:49 30.06.2022
2809 Clouds 25 1011 87 10000 4.49 109 20:20 30.06.2022
2810 Clouds 25 1010 86 10000 4.42 111 19:47 30.06.2022
2811 Clouds 25 1010 86 10000 4.28 113 18:54 30.06.2022
2812 Clouds 25 1010 86 10000 4.33 114 17:56 30.06.2022
2813 Clouds 25 1011 87 10000 4.22 116 17:18 30.06.2022
2814 Clouds 25 1011 87 10000 4.44 115 16:18 30.06.2022
2815 Clouds 26 1012 87 10000 4.55 111 13:59 30.06.2022
2816 Clouds 26 1012 87 10000 4.69 112 13:20 30.06.2022
2817 Clouds 26 1012 87 10000 4.69 112 12:33 30.06.2022
2818 Clouds 26 1011 87 10000 4.65 110 10:57 30.06.2022
2819 Clouds 27 1010 85 10000 4.54 107 09:51 30.06.2022
2820 Clouds 28 1009 81 10000 4.75 101 09:23 30.06.2022
2821 Clouds 30 1008 73 10000 4.33 92 07:41 30.06.2022
2822 Clouds 31 1008 63 10000 5.14 91 05:45 30.06.2022
2823 Clear 29 1012 74 10000 4.07 105 23:56 29.06.2022
2824 Clear 27 1012 81 10000 3.59 116 22:42 29.06.2022
2825 Clear 25 1011 86 10000 3.43 123 22:20 29.06.2022
2826 Clear 25 1010 86 10000 3.23 125 20:54 29.06.2022
2827 Clear 25 1010 86 10000 3.23 125 20:32 29.06.2022
2828 Clear 25 1010 85 10000 3.25 127 19:31 29.06.2022
2829 Clear 25 1010 86 10000 3.36 125 17:39 29.06.2022
2830 Clear 25 1010 87 10000 3.32 122 16:24 29.06.2022
2831 Clouds 26 1011 88 10000 3.21 124 13:52 29.06.2022
2832 Clouds 26 1011 88 10000 3.41 122 12:38 29.06.2022
2833 Clouds 27 1010 86 10000 4.38 108 10:18 29.06.2022
2834 Clouds 28 1009 82 10000 4.53 98 09:27 29.06.2022
2835 Clouds 30 1008 69 10000 4.5 84 06:32 29.06.2022
2836 Clouds 31 1008 60 10000 4.72 76 04:46 29.06.2022
2837 Clouds 29 1011 64 10000 2.96 100 00:54 29.06.2022
2838 Clouds 29 1011 64 10000 2.96 100 00:35 29.06.2022
2839 Clouds 26 1011 79 10000 2.47 130 22:52 28.06.2022
2840 Clouds 24 1011 85 10000 2.54 142 22:18 28.06.2022
2841 Clouds 24 1011 85 10000 2.54 142 21:49 28.06.2022
2842 Clouds 24 1010 85 10000 2.29 142 21:29 28.06.2022
2843 Clouds 24 1010 87 10000 2.38 139 19:56 28.06.2022
2844 Clouds 24 1010 87 10000 2.38 139 19:31 28.06.2022
2845 Clouds 24 1010 87 10000 2.36 134 18:40 28.06.2022
2846 Clouds 25 1010 88 10000 2.34 138 17:25 28.06.2022
2847 Clouds 25 1011 89 10000 2.51 142 15:55 28.06.2022
2848 Clouds 25 1011 89 10000 2.55 142 14:52 28.06.2022
2849 Clouds 25 1011 89 10000 2.49 134 14:19 28.06.2022
2850 Clouds 25 1011 88 10000 2.22 132 13:45 28.06.2022
2851 Clouds 25 1012 88 10000 1.92 138 12:30 28.06.2022
2852 Clouds 26 1011 90 10000 2.32 107 10:23 28.06.2022
2853 Clouds 26 1010 89 10000 2.23 95 08:55 28.06.2022
2854 Rain 26 1010 89 10000 2.23 95 08:33 28.06.2022
2855 Rain 26 1009 90 10000 2.44 135 07:20 28.06.2022
2856 Clouds 26 1010 89 8085 2.25 99 03:39 28.06.2022
2857 Rain 26 1012 85 10000 1.6 134 23:51 27.06.2022
2858 Rain 25 1011 85 10000 1.71 149 23:26 27.06.2022
2859 Clouds 25 1010 86 10000 2.27 142 21:53 27.06.2022
2860 Clouds 25 1010 86 10000 2.61 140 21:22 27.06.2022
2861 Clouds 25 1009 87 10000 2.87 125 20:21 27.06.2022
2862 Clouds 25 1008 87 10000 2.83 132 18:50 27.06.2022
2863 Rain 25 1008 89 10000 2.98 132 17:33 27.06.2022
2864 Clouds 26 1009 86 8932 2.94 117 15:44 27.06.2022
2865 Clouds 26 1010 81 10000 2.68 120 14:18 27.06.2022
2866 Rain 26 1011 82 10000 3.17 122 12:58 27.06.2022
2867 Rain 26 1011 82 10000 3.51 113 11:30 27.06.2022
2868 Rain 27 1010 82 10000 3.42 109 09:45 27.06.2022
2869 Rain 27 1009 81 10000 3.51 101 08:40 27.06.2022
2870 Rain 28 1009 77 10000 3.16 81 07:39 27.06.2022
2871 Rain 30 1009 64 10000 3.71 73 05:22 27.06.2022
2872 Rain 29 1012 70 10000 4.56 96 01:22 27.06.2022
2873 Clouds 27 1012 81 10000 3.83 108 22:58 26.06.2022
2874 Clouds 25 1012 86 10000 3.88 113 21:37 26.06.2022
2875 Clouds 25 1011 85 10000 4.02 114 20:28 26.06.2022
2876 Clouds 25 1010 84 10000 4 115 18:33 26.06.2022
2877 Clouds 25 1010 84 10000 3.97 117 17:38 26.06.2022
2878 Clouds 25 1011 84 10000 4.16 114 15:36 26.06.2022
2879 Clouds 26 1011 85 10000 4.57 115 13:59 26.06.2022
2880 Clouds 26 1011 85 10000 4.71 115 13:23 26.06.2022
2881 Clouds 26 1011 86 10000 4.75 114 11:39 26.06.2022
2882 Clouds 26 1011 87 10000 4.79 112 10:30 26.06.2022
2883 Clouds 27 1010 85 10000 4.68 106 09:45 26.06.2022
2884 Clouds 29 1009 74 10000 4.91 93 07:47 26.06.2022
2885 Clouds 31 1009 63 10000 5.82 93 04:29 26.06.2022
2886 Clouds 29 1012 70 10000 5.52 98 00:36 26.06.2022
2887 Clouds 28 1012 75 10000 4.95 100 00:18 26.06.2022
2888 Clouds 27 1012 82 10000 4.04 113 23:24 25.06.2022
2889 Clouds 25 1012 88 10000 4.07 119 22:28 25.06.2022
2890 Clouds 25 1012 88 10000 4.07 119 21:50 25.06.2022
2891 Clouds 25 1011 88 10000 4.22 115 21:20 25.06.2022
2892 Clouds 25 1011 88 10000 4.22 115 20:30 25.06.2022
2893 Clouds 25 1011 86 10000 3.7 121 19:55 25.06.2022
2894 Clouds 25 1010 87 10000 3.68 121 18:21 25.06.2022
2895 Clouds 25 1011 87 10000 3.65 122 17:25 25.06.2022
2896 Clouds 25 1011 88 10000 3.68 122 16:24 25.06.2022
2897 Clouds 25 1012 88 10000 3.6 117 13:51 25.06.2022
2898 Clouds 26 1012 88 10000 3.61 119 12:39 25.06.2022
2899 Clouds 26 1012 88 10000 3.58 118 10:58 25.06.2022
2900 Clouds 27 1010 85 10000 3.65 105 09:22 25.06.2022
2901 Clouds 27 1010 85 10000 3.65 105 08:46 25.06.2022
2902 Clouds 27 1010 85 10000 3.65 105 08:46 25.06.2022
2903 Clouds 29 1010 77 10000 3.56 93 08:19 25.06.2022
2904 Clouds 30 1009 64 10000 3.91 81 05:23 25.06.2022
2905 Clouds 29 1012 69 10000 3.69 96 00:43 25.06.2022
2906 Clouds 26 1012 77 10000 3.22 119 22:56 24.06.2022
2907 Clouds 25 1012 83 10000 3.39 128 21:44 24.06.2022
2908 Clouds 25 1011 83 10000 2.88 128 20:57 24.06.2022
2909 Clouds 25 1011 83 10000 2.7 131 20:19 24.06.2022
2910 Clouds 25 1010 82 10000 2.48 142 19:22 24.06.2022
2911 Clouds 25 1010 82 10000 2.48 142 18:49 24.06.2022
2912 Clouds 25 1010 82 10000 2.48 142 18:30 24.06.2022
2913 Clouds 25 1011 83 10000 2.43 133 17:21 24.06.2022
2914 Clouds 25 1011 83 10000 2.45 119 15:47 24.06.2022
2915 Clouds 26 1012 82 10000 2.98 120 14:28 24.06.2022
2916 Clouds 26 1012 82 10000 2.98 120 13:55 24.06.2022
2917 Clouds 26 1012 84 10000 3.26 123 11:44 24.06.2022
2918 Clouds 26 1011 84 10000 3.25 117 11:18 24.06.2022
2919 Clouds 26 1011 84 10000 3.19 112 09:55 24.06.2022
2920 Clouds 27 1010 81 10000 3.07 98 09:29 24.06.2022
2921 Rain 27 1010 81 10000 3.07 98 08:52 24.06.2022
2922 Rain 29 1009 67 10000 3.69 76 06:48 24.06.2022
2923 Clouds 29 1009 67 10000 3.69 76 06:30 24.06.2022
2924 Clouds 30 1009 66 10000 3.89 75 05:52 24.06.2022
2925 Clouds 29 1013 69 10000 3.61 93 01:28 24.06.2022
2926 Rain 26 1013 79 10000 2.9 118 22:44 23.06.2022
2927 Clouds 25 1012 83 10000 2.88 130 21:54 23.06.2022
2928 Clouds 24 1012 84 10000 2.52 134 20:54 23.06.2022
2929 Clouds 24 1012 84 10000 2.52 134 20:32 23.06.2022
2930 Clouds 24 1011 84 10000 2.02 131 18:44 23.06.2022
2931 Clouds 25 1010 84 10000 2.23 125 17:45 23.06.2022
2932 Clouds 25 1011 85 10000 2.34 118 16:36 23.06.2022
2933 Clouds 25 1012 87 10000 3 128 15:29 23.06.2022
2934 Clouds 25 1012 87 10000 3 128 14:59 23.06.2022
2935 Clouds 26 1012 87 10000 2.55 127 12:39 23.06.2022
2936 Clouds 26 1012 86 10000 1.71 107 11:19 23.06.2022
2937 Clouds 27 1011 84 10000 1 74 09:20 23.06.2022
2938 Clouds 30 1009 67 10000 2.09 23 05:51 23.06.2022
2939 Clouds 29 1013 69 10000 1.84 76 01:22 23.06.2022
2940 Clouds 28 1013 75 10000 1.88 86 00:25 23.06.2022
2941 Clouds 27 1013 80 10000 1.61 105 23:22 22.06.2022
2942 Clouds 25 1012 84 10000 1.68 123 21:44 22.06.2022
2943 Clouds 25 1012 84 10000 1.77 120 20:52 22.06.2022
2944 Clouds 25 1011 84 10000 2.1 128 20:20 22.06.2022
2945 Clouds 25 1011 85 10000 1.88 121 19:44 22.06.2022
2946 Clouds 25 1011 85 10000 2.26 128 17:50 22.06.2022
2947 Clouds 25 1011 86 10000 2.52 126 16:50 22.06.2022
2948 Clear 25 1012 86 10000 2.5 128 15:29 22.06.2022
2949 Clear 25 1012 86 10000 2.5 128 14:57 22.06.2022
2950 Rain 25 1012 87 10000 2.71 132 13:49 22.06.2022
2951 Clouds 26 1013 87 10000 2.63 133 13:24 22.06.2022
2952 Rain 26 1013 87 10000 2.63 133 12:31 22.06.2022
2953 Rain 26 1012 87 10000 2.42 131 11:45 22.06.2022
2954 Rain 26 1012 87 10000 2.42 131 11:45 22.06.2022
2955 Rain 26 1012 87 10000 2.13 118 10:47 22.06.2022
2956 Clouds 26 1011 86 10000 1.78 100 09:40 22.06.2022
2957 Clouds 29 1009 78 10000 1.62 62 06:55 22.06.2022
2958 Clouds 30 1012 66 10000 2.77 83 02:26 22.06.2022
2959 Clouds 29 1012 71 10000 2.53 98 00:57 22.06.2022
2960 Clouds 26 1012 83 10000 2.23 123 22:53 21.06.2022
2961 Clouds 25 1011 87 10000 2.29 127 20:58 21.06.2022
2962 Clouds 25 1010 87 10000 2.12 136 19:23 21.06.2022
2963 Clouds 25 1010 87 10000 2.17 136 17:54 21.06.2022
2964 Clouds 25 1011 88 10000 2.2 139 16:38 21.06.2022
2965 Clouds 26 1011 87 10000 2.72 124 11:57 21.06.2022
2966 Clouds 26 1011 86 10000 2.39 116 10:46 21.06.2022
2967 Clouds 27 1010 85 10000 1.3 101 09:24 21.06.2022
2968 Clouds 27 1009 83 10000 1.08 107 07:44 21.06.2022
2969 Clouds 29 1009 75 10000 1.52 2 04:43 21.06.2022
2970 Clouds 27 1012 79 10000 1.7 113 00:21 21.06.2022
2971 Clouds 25 1011 87 10000 1.87 141 22:21 20.06.2022
2972 Clouds 25 1011 87 10000 1.87 141 21:36 20.06.2022
2973 Clouds 24 1010 87 10000 1.82 144 20:28 20.06.2022
2974 Clouds 24 1010 86 10000 2.02 136 19:35 20.06.2022
2975 Clouds 25 1009 87 10000 2.05 132 18:25 20.06.2022
2976 Clouds 25 1009 87 10000 2.05 132 17:45 20.06.2022
2977 Clouds 25 1010 88 10000 1.76 146 16:24 20.06.2022
2978 Clouds 25 1010 89 10000 1.85 153 14:41 20.06.2022
2979 Clouds 26 1010 87 10000 1.34 132 12:18 20.06.2022
2980 Clouds 26 1009 85 10000 0.9 109 09:57 20.06.2022
2981 Clouds 26 1008 84 10000 0.83 86 08:46 20.06.2022
2982 Clouds 28 1008 82 10000 0.95 66 07:36 20.06.2022
2983 Clouds 28 1007 78 10000 1.06 61 04:56 20.06.2022
2984 Clouds 29 1010 71 10000 1.71 75 01:32 20.06.2022
2985 Clouds 27 1011 77 10000 1.25 109 23:48 19.06.2022
2986 Clouds 25 1010 87 10000 1.73 141 22:20 19.06.2022
2987 Clouds 25 1010 87 10000 1.73 141 21:42 19.06.2022
2988 Clouds 25 1009 87 10000 1.6 152 20:52 19.06.2022
2989 Clouds 25 1009 88 10000 1.55 153 19:49 19.06.2022
2990 Clouds 25 1009 88 10000 1.55 153 19:49 19.06.2022
2991 Clouds 25 1009 87 10000 1.32 147 19:25 19.06.2022
2992 Clouds 25 1009 87 10000 1.32 147 18:32 19.06.2022
2993 Clouds 25 1009 87 10000 1.22 152 17:43 19.06.2022
2994 Clouds 25 1009 88 10000 1.13 158 17:20 19.06.2022
2995 Clear 25 1010 88 10000 1.27 162 16:28 19.06.2022
2996 Clear 25 1010 88 10000 1.27 162 15:35 19.06.2022
2997 Clear 25 1010 88 10000 1.63 165 14:42 19.06.2022
2998 Clear 25 1010 88 10000 1.65 159 13:52 19.06.2022
2999 Clear 26 1010 87 10000 1.65 158 12:22 19.06.2022
3000 Clouds 26 1010 86 10000 1.44 151 10:53 19.06.2022
3001 Clouds 27 1009 83 10000 0.53 100 09:21 19.06.2022
3002 Clouds 26 1009 84 10000 0.95 102 08:32 19.06.2022
3003 Clouds 28 1008 80 9555 0.66 69 07:26 19.06.2022
3004 Clouds 28 1008 80 9555 0.66 69 07:26 19.06.2022
3005 Rain 30 1009 67 10000 1.98 38 03:57 19.06.2022
3006 Clouds 29 1012 69 10000 2.16 93 00:51 19.06.2022
3007 Clouds 27 1012 77 10000 2.26 111 00:22 19.06.2022
3008 Clouds 27 1012 77 10000 2.26 111 23:35 18.06.2022
3009 Clouds 26 1012 83 10000 2.31 121 22:30 18.06.2022
3010 Clouds 25 1010 84 10000 2.19 109 20:54 18.06.2022
3011 Clouds 25 1010 83 10000 2.04 121 20:18 18.06.2022
3012 Clouds 25 1009 85 10000 2.15 116 18:57 18.06.2022
3013 Clouds 25 1009 85 10000 2.15 116 18:57 18.06.2022
3014 Clouds 25 1009 85 10000 2.15 116 18:38 18.06.2022
3015 Clouds 26 1010 87 10000 2 116 17:29 18.06.2022
3016 Clouds 26 1010 86 10000 1.96 96 16:18 18.06.2022
3017 Rain 26 1011 87 10000 1.55 93 14:58 18.06.2022
3018 Rain 26 1011 87 10000 1.55 93 14:37 18.06.2022
3019 Rain 26 1012 86 10000 1.72 108 12:31 18.06.2022
3020 Rain 26 1011 85 10000 1.63 106 11:25 18.06.2022
3021 Clouds 27 1011 84 10000 1.66 101 09:46 18.06.2022
3022 Rain 27 1010 83 10000 1.43 117 08:59 18.06.2022
3023 Clouds 27 1010 82 10000 1.09 74 07:34 18.06.2022
3024 Clouds 27 1010 82 10000 1.09 74 07:34 18.06.2022
3025 Rain 28 1009 77 10000 1.17 16 05:58 18.06.2022
3026 Clouds 30 1011 66 10000 2.23 12 02:51 18.06.2022
3027 Rain 29 1012 70 10000 2.71 79 01:21 18.06.2022
3028 Clouds 29 1012 70 10000 2.71 79 00:32 18.06.2022
3029 Clouds 28 1013 74 10000 2.59 91 23:40 17.06.2022
3030 Rain 27 1012 78 10000 2.59 108 22:33 17.06.2022
3031 Rain 25 1011 81 10000 1.71 120 20:29 17.06.2022
3032 Rain 25 1010 82 10000 1.99 129 19:24 17.06.2022
3033 Rain 25 1010 82 10000 2.08 130 17:58 17.06.2022
3034 Rain 25 1011 82 10000 2.35 130 16:50 17.06.2022
3035 Rain 26 1011 82 10000 2.59 125 16:25 17.06.2022
3036 Clouds 26 1011 82 10000 2.59 125 15:40 17.06.2022
3037 Clouds 26 1012 83 10000 2.82 122 14:23 17.06.2022
3038 Clouds 26 1012 84 10000 2.85 126 13:58 17.06.2022
3039 Clouds 26 1012 84 10000 2.85 126 13:38 17.06.2022
3040 Clouds 26 1012 85 10000 2.83 126 12:28 17.06.2022
3041 Clouds 26 1012 85 10000 2.83 126 11:55 17.06.2022
3042 Clouds 26 1012 85 10000 2.83 126 11:33 17.06.2022
3043 Clouds 26 1011 85 10000 2.97 120 09:36 17.06.2022
3044 Clouds 29 1009 72 10000 3.32 83 08:26 17.06.2022
3045 Clouds 30 1008 65 10000 3.83 74 06:45 17.06.2022
3046 Clear 31 1010 62 10000 4.19 79 03:59 17.06.2022
3047 Clouds 30 1012 63 10000 4.38 89 01:56 17.06.2022
3048 Clouds 28 1013 73 10000 3.49 95 23:47 16.06.2022
3049 Clouds 26 1012 79 10000 2.89 106 22:42 16.06.2022
3050 Clouds 25 1011 83 10000 3.1 124 21:22 16.06.2022
3051 Clouds 25 1011 83 10000 3.1 124 20:52 16.06.2022
3052 Clouds 25 1011 83 10000 3.1 124 20:33 16.06.2022
3053 Clouds 25 1011 83 10000 3.03 118 19:32 16.06.2022
3054 Clouds 25 1010 84 10000 3.08 121 18:24 16.06.2022
3055 Clouds 25 1010 84 10000 3.08 121 17:35 16.06.2022
3056 Clouds 25 1011 83 10000 3.13 120 16:30 16.06.2022
3057 Clouds 25 1012 83 10000 2.88 122 15:21 16.06.2022
3058 Clouds 25 1012 83 10000 2.81 125 14:28 16.06.2022
3059 Clouds 26 1012 83 10000 3.06 119 12:59 16.06.2022
3060 Clouds 26 1012 83 10000 3.06 119 12:35 16.06.2022
3061 Clouds 26 1012 83 10000 3.3 120 11:49 16.06.2022
3062 Clouds 26 1012 83 10000 3.52 121 10:51 16.06.2022
3063 Clouds 26 1011 83 10000 3.43 115 09:43 16.06.2022
3064 Clouds 27 1010 81 10000 3.33 100 09:20 16.06.2022
3065 Clouds 28 1010 79 10000 3.11 82 07:57 16.06.2022
3066 Clouds 29 1009 70 10000 3.69 69 06:51 16.06.2022
3067 Clouds 31 1011 63 10000 3.86 74 04:28 16.06.2022
3068 Clouds 30 1012 66 10000 3.86 80 01:53 16.06.2022
3069 Clouds 30 1012 66 10000 3.86 80 01:32 16.06.2022
3070 Clouds 29 1013 71 10000 3.39 91 00:31 16.06.2022
3071 Clouds 27 1013 83 10000 2.55 113 22:59 15.06.2022
3072 Clouds 25 1012 87 10000 2.66 117 21:55 15.06.2022
3073 Clouds 25 1012 87 10000 2.91 120 21:20 15.06.2022
3074 Clouds 25 1012 87 10000 2.91 120 20:37 15.06.2022
3075 Clouds 25 1011 87 10000 3.05 119 20:18 15.06.2022
3076 Clouds 25 1011 88 10000 3.16 121 18:48 15.06.2022
3077 Clouds 25 1011 88 10000 3.34 124 17:54 15.06.2022
3078 Clouds 25 1011 87 10000 3.43 124 16:37 15.06.2022
3079 Clouds 26 1012 87 10000 3.48 118 15:23 15.06.2022
3080 Clouds 26 1012 87 10000 2.94 126 13:37 15.06.2022
3081 Clouds 26 1013 88 10000 3.09 128 12:51 15.06.2022
3082 Clouds 26 1012 88 10000 3.08 120 11:37 15.06.2022
3083 Rain 27 1011 86 10000 3.85 106 10:22 15.06.2022
3084 Clouds 27 1011 86 10000 3.85 106 09:34 15.06.2022
3085 Clouds 28 1010 78 10000 4.25 91 07:58 15.06.2022
3086 Clouds 30 1009 70 10000 3.88 79 05:58 15.06.2022
3087 Clouds 31 1012 64 10000 4.47 84 02:56 15.06.2022
3088 Clouds 30 1013 67 10000 4.29 89 01:37 15.06.2022
3089 Clouds 29 1014 71 10000 4.13 95 00:37 15.06.2022
3090 Clouds 28 1014 78 10000 4.12 102 23:38 14.06.2022
3091 Clouds 27 1013 83 10000 3.93 110 22:48 14.06.2022
3092 Clouds 25 1013 86 10000 3.87 116 21:44 14.06.2022
3093 Clouds 25 1012 86 10000 3.65 121 21:21 14.06.2022
3094 Clouds 25 1012 86 10000 3.65 121 20:40 14.06.2022
3095 Clouds 25 1012 87 10000 3.5 123 19:58 14.06.2022
3096 Clouds 25 1012 87 10000 3.43 120 18:45 14.06.2022
3097 Clouds 25 1013 88 10000 3.44 122 17:20 14.06.2022
3098 Clouds 25 1013 88 10000 3.44 122 16:42 14.06.2022
3099 Clouds 25 1013 88 10000 3.44 122 16:42 14.06.2022
3100 Clouds 26 1013 88 10000 3.39 123 15:43 14.06.2022
3101 Clouds 26 1014 88 10000 3.32 123 14:56 14.06.2022
3102 Clouds 26 1014 88 10000 3.54 120 14:18 14.06.2022
3103 Clouds 26 1014 88 10000 3.7 118 13:24 14.06.2022
3104 Clouds 26 1014 88 10000 3.79 118 11:58 14.06.2022
3105 Clouds 26 1013 88 10000 3.64 117 10:55 14.06.2022
3106 Clouds 27 1013 86 10000 3.33 112 10:29 14.06.2022
3107 Rain 27 1012 82 10000 3.12 101 09:22 14.06.2022
3108 Rain 27 1012 82 10000 3.12 101 08:37 14.06.2022
3109 Clouds 29 1011 71 10000 3.27 77 06:32 14.06.2022
3110 Clear 31 1012 64 10000 3.77 74 03:52 14.06.2022
3111 Clouds 30 1013 65 10000 3.69 85 01:37 14.06.2022
3112 Clouds 28 1015 76 10000 2.98 100 00:21 14.06.2022
3113 Clouds 26 1014 81 10000 2.63 112 22:45 13.06.2022
3114 Clouds 25 1014 85 10000 2.62 125 22:22 13.06.2022
3115 Clouds 25 1013 86 10000 2.61 126 21:26 13.06.2022
3116 Clouds 25 1013 86 10000 2.43 134 19:59 13.06.2022
3117 Rain 25 1012 86 10000 2.42 136 18:54 13.06.2022
3118 Rain 25 1012 86 10000 2.36 139 17:56 13.06.2022
3119 Clouds 25 1013 87 10000 2.34 139 17:24 13.06.2022
3120 Clouds 25 1013 87 10000 2.34 139 16:30 13.06.2022
3121 Clouds 25 1014 88 10000 2.15 125 14:49 13.06.2022
3122 Rain 25 1014 88 10000 2.15 125 14:31 13.06.2022
3123 Rain 25 1014 88 10000 2.4 121 13:31 13.06.2022
3124 Clouds 26 1015 88 10000 2.59 129 12:22 13.06.2022
3125 Clouds 26 1014 88 10000 2.53 126 10:37 13.06.2022
3126 Clouds 26 1014 87 10000 2.09 117 09:54 13.06.2022
3127 Clouds 27 1013 85 10000 2 101 08:40 13.06.2022
3128 Clouds 28 1011 77 9219 2.1 73 06:36 13.06.2022
3129 Clear 31 1011 62 10000 2.85 46 04:43 13.06.2022
3130 Clouds 30 1014 60 10000 2.01 75 01:45 13.06.2022
3131 Clouds 29 1014 62 10000 1.76 95 01:18 13.06.2022
3132 Clouds 28 1014 64 10000 1.51 122 23:43 12.06.2022
3133 Clouds 26 1014 70 10000 1.68 145 22:36 12.06.2022
3134 Clear 24 1013 75 10000 1.89 152 21:46 12.06.2022
3135 Clouds 24 1013 76 10000 1.9 162 20:49 12.06.2022
3136 Clouds 24 1012 77 10000 1.79 160 19:58 12.06.2022
3137 Clouds 24 1012 78 10000 1.88 161 18:54 12.06.2022
3138 Clouds 24 1012 80 10000 2.23 146 17:24 12.06.2022
3139 Clouds 25 1012 81 10000 2.46 135 15:45 12.06.2022
3140 Clear 25 1013 81 10000 2.59 136 14:50 12.06.2022
3141 Clouds 25 1013 81 10000 2.4 140 14:18 12.06.2022
3142 Clouds 25 1013 84 10000 2.17 142 13:44 12.06.2022
3143 Clouds 26 1013 82 10000 1.82 142 12:22 12.06.2022
3144 Clouds 26 1013 81 10000 1.47 129 10:46 12.06.2022
3145 Clouds 26 1012 80 10000 1.13 100 09:36 12.06.2022
3146 Clouds 27 1011 77 10000 1.34 59 08:50 12.06.2022
3147 Clouds 29 1010 69 10000 1.9 59 07:51 12.06.2022
3148 Clouds 30 1010 62 10000 2.59 56 06:27 12.06.2022
3149 Clouds 30 1011 62 10000 2.85 58 03:44 12.06.2022
3150 Clouds 30 1013 65 10000 2.36 70 01:49 12.06.2022
3151 Clouds 29 1014 67 10000 2.02 84 01:29 12.06.2022
3152 Clouds 29 1014 67 10000 2.02 84 00:43 12.06.2022
3153 Clouds 28 1014 71 10000 1.68 102 00:18 12.06.2022
3154 Clouds 26 1014 77 10000 1.8 134 22:58 11.06.2022
3155 Clouds 26 1014 77 10000 1.8 134 22:31 11.06.2022
3156 Clear 24 1013 82 10000 1.97 145 21:18 11.06.2022
3157 Clear 24 1013 82 10000 1.97 145 21:18 11.06.2022
3158 Clear 24 1012 83 10000 2.06 145 20:26 11.06.2022
3159 Clear 24 1012 81 10000 1.95 154 19:33 11.06.2022
3160 Clear 24 1012 81 10000 1.95 154 19:33 11.06.2022
3161 Clear 25 1012 82 10000 2.02 156 18:42 11.06.2022
3162 Clear 25 1011 83 10000 1.83 146 18:24 11.06.2022
3163 Clear 25 1011 83 10000 1.83 146 17:38 11.06.2022
3164 Clear 25 1012 84 10000 1.57 145 17:19 11.06.2022
3165 Clear 25 1012 84 10000 1.57 145 16:42 11.06.2022
3166 Clouds 25 1012 85 10000 1.68 156 15:47 11.06.2022
3167 Clouds 26 1012 86 10000 1.74 153 14:23 11.06.2022
3168 Clouds 26 1012 86 10000 1.74 153 13:47 11.06.2022
3169 Clouds 27 1012 83 10000 1.09 129 11:46 11.06.2022
3170 Clouds 27 1012 84 10000 0.97 127 10:30 11.06.2022
3171 Clouds 27 1012 83 10000 0.59 94 09:40 11.06.2022
3172 Clouds 28 1010 76 10000 0.91 2 08:21 11.06.2022
3173 Clouds 29 1009 71 10000 1.26 1 06:32 11.06.2022
3174 Clouds 30 1009 67 10000 1.85 20 05:26 11.06.2022
3175 Clouds 30 1011 66 10000 2.27 35 02:35 11.06.2022
3176 Clear 30 1012 67 10000 2.22 57 01:41 11.06.2022
3177 Clear 29 1012 70 10000 2.06 78 00:37 11.06.2022
3178 Clouds 27 1013 82 10000 1.52 119 22:38 10.06.2022
3179 Clouds 25 1012 87 10000 1.45 127 21:56 10.06.2022
3180 Clear 25 1012 88 10000 1.31 129 20:55 10.06.2022
3181 Clear 25 1012 88 10000 1.31 129 20:36 10.06.2022
3182 Clouds 25 1011 87 10000 1.9 138 20:18 10.06.2022
3183 Clouds 25 1011 88 10000 1.9 142 19:18 10.06.2022
3184 Clouds 25 1011 88 10000 1.9 142 19:18 10.06.2022
3185 Clouds 25 1011 88 10000 1.68 143 18:20 10.06.2022
3186 Clouds 25 1011 88 10000 1.68 143 17:36 10.06.2022
3187 Clouds 25 1011 87 10000 1.41 146 16:58 10.06.2022
3188 Clouds 25 1012 86 10000 1.28 144 15:50 10.06.2022
3189 Clouds 25 1012 86 10000 1.28 144 15:30 10.06.2022
3190 Clouds 26 1012 86 10000 1.25 134 13:49 10.06.2022
3191 Clouds 26 1012 86 10000 1.37 124 12:35 10.06.2022
3192 Clouds 26 1012 86 10000 1.55 120 11:40 10.06.2022
3193 Clouds 26 1011 86 10000 1.41 117 10:40 10.06.2022
3194 Clouds 26 1011 86 10000 1.04 102 09:43 10.06.2022
3195 Clouds 28 1009 78 10000 1.38 35 08:23 10.06.2022
3196 Clouds 28 1009 77 10000 1.54 20 06:52 10.06.2022
3197 Clouds 28 1009 77 10000 1.54 20 06:32 10.06.2022
3198 Clouds 29 1009 74 10000 1.74 22 05:45 10.06.2022
3199 Clouds 30 1011 68 10000 2.19 37 02:55 10.06.2022
3200 Clouds 29 1012 69 10000 1.88 50 01:37 10.06.2022
3201 Clouds 28 1013 76 10000 1.27 75 23:58 09.06.2022
3202 Clouds 27 1012 82 10000 1.28 130 23:25 09.06.2022
3203 Clouds 25 1012 87 10000 1.51 145 21:47 09.06.2022
3204 Clouds 25 1011 88 10000 1.34 147 21:29 09.06.2022
3205 Clouds 25 1011 88 10000 1.34 147 20:47 09.06.2022
3206 Clouds 25 1011 88 10000 1.25 156 19:54 09.06.2022
3207 Clouds 25 1010 88 10000 1.24 175 18:43 09.06.2022
3208 Clouds 25 1010 88 10000 1.25 194 17:56 09.06.2022
3209 Clouds 26 1010 87 10000 1.07 204 16:44 09.06.2022
3210 Clouds 26 1011 87 10000 0.94 221 15:42 09.06.2022
3211 Clouds 26 1011 87 10000 0.99 225 14:34 09.06.2022
3212 Clouds 26 1012 87 10000 1.3 212 13:46 09.06.2022
3213 Clouds 26 1012 87 10000 0.95 247 13:25 09.06.2022
3214 Clouds 26 1012 87 10000 0.74 285 11:53 09.06.2022
3215 Rain 26 1011 87 10000 1.1 290 10:36 09.06.2022
3216 Clouds 26 1010 87 10000 1.41 272 09:40 09.06.2022
3217 Clouds 27 1010 86 10000 1.69 278 09:21 09.06.2022
3218 Clouds 29 1009 75 10000 0.99 343 07:29 09.06.2022
3219 Clouds 29 1010 73 10000 1.23 27 04:47 09.06.2022
3220 Clouds 27 1012 83 10000 1.53 75 01:43 09.06.2022
3221 Clouds 26 1012 86 10000 1.64 116 23:24 08.06.2022
3222 Clouds 26 1012 86 10000 1.64 116 22:45 08.06.2022
3223 Rain 25 1011 87 10000 1.68 117 22:25 08.06.2022
3224 Clouds 25 1011 87 10000 1.68 117 21:45 08.06.2022
3225 Clouds 25 1011 88 10000 1.07 138 20:33 08.06.2022
3226 Rain 25 1010 85 10000 1.19 132 19:46 08.06.2022
3227 Clouds 25 1010 85 10000 1.36 154 18:49 08.06.2022
3228 Rain 25 1010 85 10000 1.15 147 17:48 08.06.2022
3229 Clouds 26 1011 85 10000 1.5 163 16:18 08.06.2022
3230 Clouds 26 1011 85 10000 1.48 162 14:46 08.06.2022
3231 Clouds 26 1012 84 10000 1.61 140 12:55 08.06.2022
3232 Clouds 26 1012 85 10000 1.24 132 11:44 08.06.2022
3233 Clouds 26 1012 85 10000 1.28 119 11:19 08.06.2022
3234 Clouds 26 1011 84 10000 1.34 89 09:45 08.06.2022
3235 Clouds 27 1010 83 10000 1.64 69 09:18 08.06.2022
3236 Clouds 29 1008 71 10000 3.05 65 07:22 08.06.2022
3237 Clouds 30 1009 68 10000 3.37 76 04:49 08.06.2022
3238 Clouds 30 1012 68 10000 4.34 96 01:27 08.06.2022
3239 Clouds 28 1012 74 10000 4.3 103 23:33 07.06.2022
3240 Clouds 27 1012 79 10000 3.99 110 22:58 07.06.2022
3241 Clouds 27 1012 79 10000 3.99 110 22:37 07.06.2022
3242 Clouds 25 1011 84 10000 3.79 115 21:41 07.06.2022
3243 Clouds 25 1011 85 10000 3.62 115 21:20 07.06.2022
3244 Clouds 25 1011 85 10000 3.62 115 20:42 07.06.2022
3245 Rain 25 1010 83 10000 3.46 116 19:57 07.06.2022
3246 Clouds 25 1010 84 10000 2.99 126 18:26 07.06.2022
3247 Clouds 25 1010 84 10000 2.99 126 17:36 07.06.2022
3248 Clouds 25 1010 83 10000 3.1 122 16:47 07.06.2022
3249 Clouds 25 1011 83 10000 2.92 121 16:28 07.06.2022
3250 Clouds 25 1011 83 10000 2.92 121 15:37 07.06.2022
3251 Clouds 25 1011 84 10000 2.84 123 15:18 07.06.2022
3252 Clouds 25 1011 84 10000 2.84 123 14:43 07.06.2022
3253 Clouds 26 1011 86 10000 3.19 121 13:38 07.06.2022
3254 Clouds 26 1012 86 10000 3.32 117 13:20 07.06.2022
3255 Clouds 26 1011 86 10000 3.38 114 11:55 07.06.2022
3256 Clouds 26 1011 86 10000 3.43 115 10:48 07.06.2022
3257 Clouds 27 1009 81 10000 3.82 99 08:58 07.06.2022
3258 Clouds 29 1008 74 10000 4.18 91 07:54 07.06.2022
3259 Clouds 30 1008 68 10000 4.24 82 06:41 07.06.2022
3260 Clouds 31 1009 60 10000 4.31 71 04:42 07.06.2022
3261 Clear 29 1012 65 10000 3.7 98 01:27 07.06.2022
3262 Clear 28 1012 73 10000 3.46 106 23:58 06.06.2022
3263 Clear 26 1012 80 10000 3.08 120 22:54 06.06.2022
3264 Clear 26 1012 80 10000 3.08 120 22:30 06.06.2022
3265 Clear 24 1011 86 10000 2.99 130 20:54 06.06.2022
3266 Clouds 24 1011 86 10000 2.59 135 19:29 06.06.2022
3267 Clouds 24 1011 86 10000 2.59 135 18:49 06.06.2022
3268 Clouds 25 1011 86 10000 2.64 133 18:21 06.06.2022
3269 Clouds 25 1011 86 10000 2.77 131 17:26 06.06.2022
3270 Clouds 25 1012 86 10000 2.94 129 16:18 06.06.2022
3271 Clouds 25 1012 85 10000 3.18 125 15:28 06.06.2022
3272 Clouds 25 1012 84 10000 3.13 122 14:30 06.06.2022
3273 Clouds 25 1012 83 10000 3.31 126 13:22 06.06.2022
3274 Clouds 25 1012 83 10000 3.31 126 12:36 06.06.2022
3275 Clouds 26 1012 83 10000 3.43 125 11:53 06.06.2022
3276 Clouds 26 1011 83 10000 3.23 113 10:21 06.06.2022
3277 Clouds 27 1010 83 10000 3.32 113 09:24 06.06.2022
3278 Clouds 27 1010 83 10000 3.32 113 08:31 06.06.2022
3279 Rain 28 1009 81 10000 3.5 100 07:28 06.06.2022
3280 Clouds 29 1010 75 10000 4.55 91 04:42 06.06.2022
3281 Clouds 28 1012 79 10000 3.1 103 02:27 06.06.2022
3282 Clouds 27 1012 83 10000 2.85 113 00:57 06.06.2022
3283 Clouds 27 1012 83 10000 2.85 113 00:35 06.06.2022
3284 Clouds 26 1012 85 10000 3.66 126 23:28 05.06.2022
3285 Rain 26 1012 85 10000 3.66 126 22:33 05.06.2022
3286 Rain 25 1011 85 10000 3.05 118 20:40 05.06.2022
3287 Rain 25 1010 85 10000 3.42 124 19:26 05.06.2022
3288 Clouds 25 1010 86 10000 3.48 125 18:26 05.06.2022
3289 Clouds 25 1010 86 10000 3.48 125 17:46 05.06.2022
3290 Clouds 26 1011 86 10000 3.54 123 17:22 05.06.2022
3291 Clouds 26 1011 86 10000 3.54 123 16:48 05.06.2022
3292 Clouds 25 1011 87 10000 3.74 122 15:47 05.06.2022
3293 Clouds 25 1012 88 10000 3.93 118 14:21 05.06.2022
3294 Clouds 25 1012 89 10000 3.78 123 12:34 05.06.2022
3295 Clouds 26 1012 89 10000 3.85 119 11:30 05.06.2022
3296 Rain 26 1011 88 10000 4.03 109 10:25 05.06.2022
3297 Rain 26 1011 88 10000 4.03 109 09:58 05.06.2022
3298 Rain 27 1009 85 10000 4.05 102 08:25 05.06.2022
3299 Rain 29 1009 79 10000 4.49 94 06:48 05.06.2022
3300 Rain 30 1009 71 10000 4.82 89 05:20 05.06.2022
3301 Rain 30 1011 69 10000 4.73 88 02:58 05.06.2022
3302 Rain 30 1012 69 10000 4.31 95 01:30 05.06.2022
3303 Clouds 29 1012 74 10000 3.39 112 23:49 04.06.2022
3304 Clouds 26 1011 82 10000 2.91 133 21:39 04.06.2022
3305 Clouds 26 1010 82 10000 2.52 148 19:49 04.06.2022
3306 Clouds 26 1010 84 10000 2.76 138 17:50 04.06.2022
3307 Clouds 26 1011 85 10000 2.53 127 16:22 04.06.2022
3308 Clouds 26 1011 85 10000 2.53 127 15:51 04.06.2022
3309 Clouds 26 1012 85 10000 3.1 122 14:22 04.06.2022
3310 Clouds 27 1012 85 10000 3.36 115 11:45 04.06.2022
3311 Rain 27 1012 85 10000 3.42 118 10:55 04.06.2022
3312 Clouds 27 1011 84 10000 3.36 116 10:19 04.06.2022
3313 Rain 27 1011 84 10000 3.36 116 09:39 04.06.2022
3314 Rain 28 1010 83 10000 3.47 108 08:39 04.06.2022
3315 Rain 30 1009 71 10000 3.2 87 07:18 04.06.2022
3316 Rain 31 1010 64 10000 3.56 79 04:33 04.06.2022
3317 Rain 31 1010 64 10000 3.56 79 04:33 04.06.2022
3318 Rain 29 1013 71 10000 2.64 101 00:37 04.06.2022
3319 Clouds 27 1013 84 10000 2.37 128 23:28 03.06.2022
3320 Clouds 25 1013 87 10000 2.43 135 22:28 03.06.2022
3321 Clouds 25 1012 87 10000 2.22 135 20:42 03.06.2022
3322 Clouds 25 1012 87 10000 2.22 135 20:42 03.06.2022
3323 Clouds 25 1012 88 10000 2.64 125 20:18 03.06.2022
3324 Clouds 25 1011 88 10000 2.65 121 17:32 03.06.2022
3325 Clouds 25 1012 89 10000 2.81 119 16:34 03.06.2022
3326 Clouds 25 1012 88 10000 3 113 14:52 03.06.2022
3327 Clouds 26 1012 87 10000 3.75 115 12:28 03.06.2022
3328 Clouds 26 1011 87 10000 3.34 104 10:18 03.06.2022
3329 Clouds 26 1011 87 10000 3.34 104 09:30 03.06.2022
3330 Clouds 29 1009 77 10000 3.01 77 07:53 03.06.2022
3331 Clouds 29 1009 71 10000 3.26 73 07:20 03.06.2022
3332 Clouds 29 1009 71 10000 3.26 73 06:30 03.06.2022
3333 Clouds 31 1010 65 10000 3.26 65 04:40 03.06.2022
3334 Clouds 28 1013 78 10000 3.27 97 00:22 03.06.2022
3335 Clouds 27 1013 84 10000 2.81 107 22:35 02.06.2022
3336 Clouds 25 1012 88 10000 2.83 114 21:29 02.06.2022
3337 Clouds 25 1011 88 10000 2.75 119 19:59 02.06.2022
3338 Clear 25 1011 88 10000 2.64 122 19:41 02.06.2022
3339 Clear 25 1011 89 10000 2.5 126 19:18 02.06.2022
3340 Clouds 25 1011 88 10000 2.73 125 16:30 02.06.2022
3341 Clouds 25 1011 88 10000 2.71 119 15:58 02.06.2022
3342 Clouds 26 1012 88 10000 2.61 121 13:38 02.06.2022
3343 Clouds 26 1012 87 10000 2.35 127 13:20 02.06.2022
3344 Clouds 26 1012 86 10000 2.13 135 10:53 02.06.2022
3345 Clouds 27 1012 85 10000 1.77 133 10:19 02.06.2022
3346 Clouds 27 1011 84 10000 1.51 112 09:27 02.06.2022
3347 Clouds 28 1010 81 10000 1.29 95 08:24 02.06.2022
3348 Clouds 28 1010 79 10000 1.1 66 06:26 02.06.2022
3349 Clouds 29 1011 73 10000 1.44 34 03:53 02.06.2022
3350 Rain 29 1013 70 10000 1.65 53 01:36 02.06.2022
3351 Rain 27 1014 77 10000 0.84 102 23:36 01.06.2022
3352 Rain 25 1013 83 10000 1.3 176 22:18 01.06.2022
3353 Clouds 25 1012 84 10000 1.03 188 21:25 01.06.2022
3354 Clouds 25 1012 84 10000 1.03 188 20:39 01.06.2022
3355 Clouds 25 1012 83 10000 1.06 167 19:52 01.06.2022
3356 Clouds 25 1011 86 10000 1.16 141 18:52 01.06.2022
3357 Clouds 25 1011 86 10000 1.31 176 17:38 01.06.2022
3358 Clouds 25 1012 87 10000 1.78 205 15:56 01.06.2022
3359 Clouds 25 1012 88 10000 2.28 214 14:50 01.06.2022
3360 Clouds 24 1012 90 10000 2.04 216 13:39 01.06.2022
3361 Rain 25 1014 93 10000 1.85 135 11:32 01.06.2022
3362 Clouds 25 1013 92 10000 0.74 72 09:34 01.06.2022
3363 Rain 25 1011 90 7600 1.51 18 08:28 01.06.2022
3364 Rain 26 1010 85 6369 2.18 45 07:20 01.06.2022
3365 Clouds 28 1010 77 10000 1.49 16 04:53 01.06.2022
3366 Clouds 28 1013 73 10000 0.64 172 23:50 31.05.2022
3367 Clouds 27 1013 79 10000 1.08 174 22:43 31.05.2022
3368 Clouds 25 1013 84 10000 1.43 173 22:24 31.05.2022
3369 Clouds 25 1013 84 10000 1.43 173 21:44 31.05.2022
3370 Clouds 25 1012 85 10000 1.21 172 20:44 31.05.2022
3371 Clouds 25 1012 85 10000 1.21 172 20:44 31.05.2022
3372 Clouds 25 1012 85 10000 1.21 172 20:44 31.05.2022
3373 Clouds 25 1011 85 10000 1.42 157 19:46 31.05.2022
3374 Clouds 25 1011 86 10000 1.48 157 18:32 31.05.2022
3375 Clouds 25 1011 87 10000 1.53 157 17:38 31.05.2022
3376 Clouds 26 1012 87 10000 1.31 138 15:55 31.05.2022
3377 Clouds 26 1012 87 10000 1.31 138 15:34 31.05.2022
3378 Clouds 26 1013 88 10000 1.77 119 12:56 31.05.2022
3379 Clouds 26 1013 87 10000 1.6 117 12:18 31.05.2022
3380 Clouds 26 1013 87 10000 1.58 119 10:34 31.05.2022
3381 Clouds 28 1010 81 10000 1.35 102 08:26 31.05.2022
3382 Clouds 28 1010 77 10000 1.05 55 06:21 31.05.2022
3383 Clouds 29 1010 75 10000 1.69 37 04:31 31.05.2022
3384 Clouds 29 1013 73 10000 2.14 100 23:45 30.05.2022
3385 Clouds 27 1013 80 10000 1.87 120 23:24 30.05.2022
3386 Clouds 27 1013 80 10000 1.87 120 22:37 30.05.2022
3387 Clouds 26 1012 85 10000 1.88 128 21:40 30.05.2022
3388 Clouds 25 1011 87 10000 2.04 132 20:51 30.05.2022
3389 Clear 25 1011 86 10000 1.92 138 19:43 30.05.2022
3390 Clear 25 1010 86 10000 1.85 129 18:18 30.05.2022
3391 Clear 25 1010 86 10000 1.91 131 17:21 30.05.2022
3392 Clear 25 1011 86 10000 1.93 126 15:54 30.05.2022
3393 Clear 26 1012 87 10000 2.09 126 13:26 30.05.2022
3394 Clear 26 1012 87 10000 2.08 127 11:40 30.05.2022
3395 Clouds 27 1011 86 10000 2.16 103 09:45 30.05.2022
3396 Clouds 29 1009 78 10000 1.96 61 07:34 30.05.2022
3397 Clouds 29 1009 72 10000 2.35 55 06:22 30.05.2022
3398 Clouds 29 1009 73 10000 2.39 53 04:46 30.05.2022
3399 Clouds 28 1013 73 10000 1.86 96 00:18 30.05.2022
3400 Clouds 27 1012 78 10000 1.65 126 22:40 29.05.2022
3401 Clouds 25 1012 83 10000 1.74 139 21:44 29.05.2022
3402 Clouds 25 1010 85 10000 1.59 139 20:21 29.05.2022
3403 Clouds 25 1010 85 10000 1.31 145 19:28 29.05.2022
3404 Clouds 25 1010 86 10000 1.16 159 17:56 29.05.2022
3405 Clouds 26 1010 86 10000 1.18 142 16:20 29.05.2022
3406 Clouds 26 1010 86 10000 1.18 142 15:41 29.05.2022
3407 Clouds 26 1011 87 10000 1.47 143 14:49 29.05.2022
3408 Clouds 26 1011 87 10000 1.11 122 12:21 29.05.2022
3409 Clouds 26 1011 87 10000 0.87 105 10:56 29.05.2022
3410 Clouds 26 1010 86 10000 0.7 74 09:54 29.05.2022
3411 Clouds 28 1009 82 10000 1.35 13 07:55 29.05.2022
3412 Clouds 29 1009 74 10000 2.37 10 04:58 29.05.2022
3413 Clouds 29 1009 74 10000 2.37 10 04:32 29.05.2022
3414 Clouds 29 1012 68 10000 1.13 53 00:53 29.05.2022
3415 Clouds 28 1012 74 10000 1.3 79 23:47 28.05.2022
3416 Clouds 27 1012 79 10000 1.17 101 23:18 28.05.2022
3417 Clouds 25 1011 84 10000 1.24 127 21:46 28.05.2022
3418 Clouds 25 1010 85 10000 1.1 131 20:40 28.05.2022
3419 Clouds 25 1009 85 10000 1.24 155 19:19 28.05.2022
3420 Clouds 25 1009 85 10000 1.37 173 18:21 28.05.2022
3421 Clouds 25 1009 85 10000 1.37 173 17:30 28.05.2022
3422 Clouds 26 1010 85 10000 0.8 163 15:45 28.05.2022
3423 Clouds 26 1010 85 10000 0.72 179 15:19 28.05.2022
3424 Clouds 26 1011 84 10000 0.63 141 13:27 28.05.2022
3425 Clouds 26 1011 84 10000 0.63 141 13:27 28.05.2022
3426 Clouds 26 1011 84 10000 0.63 141 12:42 28.05.2022
3427 Clouds 26 1011 84 10000 0.15 124 11:28 28.05.2022
3428 Clouds 26 1011 84 10000 0.15 124 10:32 28.05.2022
3429 Clouds 26 1010 84 10000 0.49 321 09:39 28.05.2022
3430 Clouds 28 1009 74 10000 1.69 351 07:53 28.05.2022
3431 Clouds 29 1008 69 10000 2.05 350 06:32 28.05.2022
3432 Rain 29 1009 68 10000 1.84 341 04:21 28.05.2022
3433 Clouds 29 1011 68 10000 1.69 348 01:30 28.05.2022
3434 Clouds 27 1012 79 10000 0.3 351 23:53 27.05.2022
3435 Clouds 25 1011 87 10000 0.95 157 22:24 27.05.2022
3436 Clouds 24 1010 89 10000 1.28 150 20:59 27.05.2022
3437 Clouds 24 1010 89 10000 1.28 150 20:40 27.05.2022
3438 Clouds 24 1010 91 10000 1.42 133 19:56 27.05.2022
3439 Clouds 24 1010 91 10000 1.51 118 19:34 27.05.2022
3440 Clouds 24 1009 92 10000 1.35 106 18:37 27.05.2022
3441 Clouds 24 1010 93 10000 0.72 8 16:42 27.05.2022
3442 Clouds 25 1011 89 10000 1.32 323 15:44 27.05.2022
3443 Clouds 25 1011 86 10000 0.78 302 14:45 27.05.2022
3444 Clouds 25 1011 85 10000 1.1 164 13:30 27.05.2022
3445 Clouds 25 1011 86 10000 2.05 140 11:41 27.05.2022
3446 Clouds 25 1010 85 10000 2.32 125 11:23 27.05.2022
3447 Clouds 25 1010 85 10000 2.32 125 10:35 27.05.2022
3448 Clouds 26 1010 85 10000 2.05 111 09:42 27.05.2022
3449 Rain 27 1008 81 10000 2.29 87 08:24 27.05.2022
3450 Clouds 28 1008 76 10000 2.49 110 06:45 27.05.2022
3451 Clouds 29 1009 75 10000 3.91 78 02:53 27.05.2022
3452 Clouds 28 1011 77 10000 1.8 85 00:37 27.05.2022
3453 Clouds 26 1011 85 10000 1.18 124 22:47 26.05.2022
3454 Clouds 25 1010 88 10000 1.16 152 21:42 26.05.2022
3455 Clouds 25 1009 89 10000 1.38 146 20:59 26.05.2022
3456 Clouds 25 1008 89 10000 1.47 143 19:24 26.05.2022
3457 Clouds 25 1008 89 10000 1.45 156 18:18 26.05.2022
3458 Clouds 26 1008 88 10000 1.39 153 16:56 26.05.2022
3459 Clouds 26 1009 88 10000 1.38 160 15:46 26.05.2022
3460 Clouds 26 1009 88 10000 1.28 163 14:46 26.05.2022
3461 Clouds 26 1010 88 10000 1 181 12:50 26.05.2022
3462 Clouds 26 1010 87 10000 1.09 158 11:29 26.05.2022
3463 Clouds 27 1009 87 10000 0.72 140 10:19 26.05.2022
3464 Clouds 27 1009 87 10000 0.72 140 09:33 26.05.2022
3465 Clouds 27 1008 86 10000 0.61 83 08:35 26.05.2022
3466 Clouds 29 1007 77 10000 0.78 62 04:41 26.05.2022
3467 Clouds 29 1010 70 10000 1.23 81 00:48 26.05.2022
3468 Clouds 28 1010 77 10000 1.58 107 23:40 25.05.2022
3469 Clouds 25 1010 87 10000 1.62 142 21:59 25.05.2022
3470 Clouds 25 1010 87 10000 1.62 142 21:32 25.05.2022
3471 Clouds 25 1009 88 10000 1.67 145 20:35 25.05.2022
3472 Clouds 25 1008 88 10000 1.48 145 19:24 25.05.2022
3473 Clouds 26 1008 88 10000 1.31 156 17:43 25.05.2022
3474 Clouds 26 1009 87 10000 1.23 149 16:38 25.05.2022
3475 Clouds 26 1009 88 10000 1.28 137 15:54 25.05.2022
3476 Clouds 26 1010 87 10000 1.27 135 14:51 25.05.2022
3477 Clouds 26 1010 87 10000 1.27 135 14:33 25.05.2022
3478 Clouds 26 1010 88 10000 1.39 128 13:45 25.05.2022
3479 Clouds 26 1011 87 10000 1.53 133 12:38 25.05.2022
3480 Clouds 26 1010 86 10000 1.47 139 10:43 25.05.2022
3481 Clouds 27 1010 86 10000 1.15 137 09:54 25.05.2022
3482 Clouds 27 1009 84 10000 0.64 134 08:37 25.05.2022
3483 Clouds 28 1008 79 10000 0.31 143 07:23 25.05.2022
3484 Clouds 29 1010 78 10000 0.71 12 03:34 25.05.2022
3485 Clouds 28 1013 78 10000 0.97 99 23:57 24.05.2022
3486 Clouds 28 1013 78 10000 0.97 99 23:31 24.05.2022
3487 Clouds 26 1012 88 10000 1.38 152 22:21 24.05.2022
3488 Clouds 26 1012 88 10000 1.38 152 21:40 24.05.2022
3489 Clouds 26 1011 88 10000 1.25 144 21:20 24.05.2022
3490 Clouds 25 1011 88 10000 1.46 140 19:48 24.05.2022
3491 Clouds 26 1011 88 10000 1.44 139 18:54 24.05.2022
3492 Clouds 26 1011 88 10000 1.61 146 16:45 24.05.2022
3493 Clouds 26 1012 88 10000 1.58 137 16:23 24.05.2022
3494 Clouds 26 1012 88 10000 1.55 133 14:56 24.05.2022
3495 Clouds 26 1012 87 10000 1.37 132 14:21 24.05.2022
3496 Clouds 27 1013 86 10000 1.57 89 12:49 24.05.2022
3497 Clouds 27 1012 84 10000 1.11 106 11:26 24.05.2022
3498 Clouds 27 1011 83 10000 0.99 96 09:44 24.05.2022
3499 Clouds 28 1010 82 10000 1.05 81 08:50 24.05.2022
3500 Clouds 29 1010 79 10000 1.32 64 06:57 24.05.2022
3501 Clouds 31 1011 66 10000 2.33 41 03:56 24.05.2022
3502 Clouds 31 1013 65 10000 1.74 53 01:55 24.05.2022
3503 Clouds 31 1013 65 10000 1.74 53 01:36 24.05.2022
3504 Clouds 28 1014 77 10000 1.66 115 23:31 23.05.2022
3505 Clouds 25 1013 86 10000 1.62 119 21:56 23.05.2022
3506 Clouds 25 1013 87 10000 1.62 123 21:29 23.05.2022
3507 Clouds 25 1013 87 10000 1.62 123 20:35 23.05.2022
3508 Clouds 25 1012 86 10000 1.82 127 19:32 23.05.2022
3509 Clouds 25 1012 87 10000 2.03 143 18:58 23.05.2022
3510 Clouds 25 1012 87 10000 2.03 143 18:30 23.05.2022
3511 Clouds 26 1012 88 10000 1.87 150 17:20 23.05.2022
3512 Clouds 26 1013 87 10000 1.45 157 15:23 23.05.2022
3513 Clouds 26 1013 87 10000 1.29 160 13:21 23.05.2022
3514 Clouds 26 1013 86 10000 1.01 151 11:31 23.05.2022
3515 Clouds 27 1012 85 10000 0.7 125 09:51 23.05.2022
3516 Clouds 27 1012 85 10000 0.7 125 09:30 23.05.2022
3517 Clouds 27 1011 82 10000 0.25 107 08:31 23.05.2022
3518 Clouds 29 1010 76 10000 0.88 343 06:46 23.05.2022
3519 Clouds 29 1010 74 10000 1.45 344 05:31 23.05.2022
3520 Clouds 31 1011 63 10000 2.26 19 02:32 23.05.2022
3521 Clear 31 1012 64 10000 1.39 40 01:37 23.05.2022
3522 Clear 29 1013 71 10000 1.92 87 00:20 23.05.2022
3523 Clear 27 1013 77 10000 1.61 104 22:36 22.05.2022
3524 Clear 26 1013 83 10000 1.88 134 21:55 22.05.2022
3525 Clear 25 1012 85 10000 1.96 138 20:54 22.05.2022
3526 Clear 25 1012 85 10000 1.96 138 20:31 22.05.2022
3527 Clear 25 1011 86 10000 2.1 136 19:56 22.05.2022
3528 Clear 25 1011 85 10000 1.83 135 18:55 22.05.2022
3529 Clear 25 1011 85 10000 1.6 134 18:25 22.05.2022
3530 Clear 25 1011 85 10000 1.6 134 17:34 22.05.2022
3531 Clear 26 1011 85 10000 1.59 135 16:36 22.05.2022
3532 Clear 26 1012 84 10000 1.46 145 14:49 22.05.2022
3533 Clouds 26 1012 84 10000 1.52 152 13:48 22.05.2022
3534 Clouds 26 1012 84 10000 1.58 160 12:52 22.05.2022
3535 Clouds 26 1012 83 10000 1.47 159 11:44 22.05.2022
3536 Clouds 27 1011 81 10000 1.06 123 09:45 22.05.2022
3537 Clouds 27 1010 78 10000 0.73 80 08:37 22.05.2022
3538 Clouds 29 1009 70 10000 1.41 36 07:22 22.05.2022
3539 Clouds 30 1009 69 10000 1.91 21 06:23 22.05.2022
3540 Clear 31 1012 62 10000 1.69 39 02:23 22.05.2022
3541 Clear 30 1012 66 10000 1.28 64 00:43 22.05.2022
3542 Clouds 29 1012 72 10000 1.25 92 23:55 21.05.2022
3543 Clouds 27 1012 78 10000 1.11 115 23:20 21.05.2022
3544 Clouds 26 1011 84 10000 0.87 125 21:43 21.05.2022
3545 Clouds 25 1011 85 10000 0.73 117 21:23 21.05.2022
3546 Clouds 25 1010 85 10000 0.51 131 20:24 21.05.2022
3547 Clouds 25 1010 85 10000 0.69 139 19:30 21.05.2022
3548 Clouds 26 1010 84 10000 0.65 142 17:51 21.05.2022
3549 Clouds 26 1011 85 10000 0.47 130 16:46 21.05.2022
3550 Clouds 26 1012 85 10000 0.64 98 14:37 21.05.2022
3551 Clouds 26 1012 85 10000 0.63 108 13:42 21.05.2022
3552 Clouds 26 1012 85 10000 0.45 101 12:50 21.05.2022
3553 Clouds 26 1012 84 10000 0.48 64 12:26 21.05.2022
3554 Clouds 26 1012 84 10000 0.6 61 10:34 21.05.2022
3555 Clouds 26 1011 84 10000 0.89 62 09:43 21.05.2022
3556 Clouds 27 1010 81 10000 1.4 49 08:57 21.05.2022
3557 Rain 29 1010 73 10000 1.56 37 07:53 21.05.2022
3558 Clouds 30 1011 69 10000 3.17 11 03:58 21.05.2022
3559 Clear 28 1013 74 10000 1.28 92 23:53 20.05.2022
3560 Clear 27 1013 80 10000 1.07 126 22:57 20.05.2022
3561 Clear 25 1012 85 10000 1.49 150 22:23 20.05.2022
3562 Clear 25 1012 85 10000 1.49 150 21:41 20.05.2022
3563 Clear 25 1011 86 10000 1.45 153 20:54 20.05.2022
3564 Clouds 25 1011 87 10000 1.21 151 19:58 20.05.2022
3565 Clouds 25 1011 87 10000 1.32 148 19:26 20.05.2022
3566 Clouds 25 1011 87 10000 1.32 148 18:36 20.05.2022
3567 Clouds 25 1011 88 10000 1.39 142 16:53 20.05.2022
3568 Clouds 26 1011 88 10000 1.51 145 15:58 20.05.2022
3569 Clouds 26 1011 88 10000 1.51 145 15:40 20.05.2022
3570 Clouds 26 1012 87 10000 1.23 135 14:29 20.05.2022
3571 Clouds 26 1012 87 10000 1.23 135 13:54 20.05.2022
3572 Clouds 27 1012 84 10000 1.01 46 11:22 20.05.2022
3573 Clouds 27 1011 83 10000 0.95 27 09:51 20.05.2022
3574 Clouds 27 1010 82 10000 0.73 13 08:41 20.05.2022
3575 Clouds 29 1009 75 10000 1.18 347 06:46 20.05.2022
3576 Clouds 29 1009 73 10000 1.44 337 06:21 20.05.2022
3577 Clear 30 1010 66 10000 2.5 2 03:53 20.05.2022
3578 Clear 28 1013 74 10000 0.67 110 23:54 19.05.2022
3579 Clear 27 1013 81 10000 0.76 150 22:44 19.05.2022
3580 Clear 25 1012 85 10000 1.29 168 21:53 19.05.2022
3581 Clear 25 1011 86 10000 1.15 175 21:24 19.05.2022
3582 Clear 25 1011 86 10000 1.15 175 20:54 19.05.2022
3583 Clear 25 1011 86 10000 1.24 178 20:21 19.05.2022
3584 Clear 25 1011 86 10000 1.29 173 19:34 19.05.2022
3585 Clear 25 1011 87 10000 1.13 179 17:52 19.05.2022
3586 Clear 26 1012 86 10000 0.73 142 16:22 19.05.2022
3587 Clear 26 1012 85 10000 0.7 131 14:50 19.05.2022
3588 Clear 26 1013 86 10000 0.8 141 14:21 19.05.2022
3589 Clear 26 1013 86 10000 0.79 109 12:20 19.05.2022
3590 Clear 26 1012 86 10000 0.68 124 10:35 19.05.2022
3591 Clear 27 1011 85 10000 0.14 307 08:51 19.05.2022
3592 Clouds 28 1010 81 10000 0.86 318 07:33 19.05.2022
3593 Clouds 29 1010 73 10000 2.24 330 04:38 19.05.2022
3594 Clear 31 1013 63 10000 1.13 11 01:38 19.05.2022
3595 Clear 29 1014 69 10000 0.55 105 23:49 18.05.2022
3596 Clear 28 1014 75 10000 0.97 151 22:45 18.05.2022
3597 Clear 26 1013 82 10000 1.41 161 21:45 18.05.2022
3598 Clear 26 1012 83 10000 1.38 167 21:24 18.05.2022
3599 Clear 26 1012 83 10000 1.35 177 20:23 18.05.2022
3600 Clear 26 1012 84 10000 1.29 162 19:32 18.05.2022
3601 Clear 26 1011 85 10000 0.99 158 18:20 18.05.2022
3602 Clear 26 1011 85 10000 0.99 158 17:40 18.05.2022
3603 Clear 26 1012 85 10000 0.68 134 17:22 18.05.2022
3604 Clear 26 1012 84 10000 0.7 120 15:58 18.05.2022
3605 Clear 26 1012 84 10000 0.7 120 15:37 18.05.2022
3606 Clouds 26 1013 83 10000 0.75 104 14:25 18.05.2022
3607 Clouds 26 1013 83 10000 0.98 92 12:58 18.05.2022
3608 Clouds 27 1013 83 10000 1.17 92 12:25 18.05.2022
3609 Clouds 27 1013 83 10000 1.17 92 11:33 18.05.2022
3610 Clouds 27 1012 83 10000 1.19 103 10:48 18.05.2022
3611 Clouds 28 1010 78 10000 0.43 168 08:25 18.05.2022
3612 Clouds 29 1009 74 10000 0.94 335 07:27 18.05.2022
3613 Clear 31 1010 61 10000 1.87 346 04:26 18.05.2022
3614 Clear 30 1014 64 10000 0.88 17 00:51 18.05.2022
3615 Clear 29 1014 68 10000 0.62 74 23:41 17.05.2022
3616 Clear 25 1012 83 10000 1.42 184 21:23 17.05.2022
3617 Clear 25 1012 83 10000 1.42 184 20:44 17.05.2022
3618 Clouds 25 1012 83 10000 1.46 170 19:41 17.05.2022
3619 Clouds 25 1012 84 10000 1.48 175 19:20 17.05.2022
3620 Clouds 25 1012 84 10000 1.45 178 17:34 17.05.2022
3621 Clouds 25 1012 84 10000 1.53 178 16:57 17.05.2022
3622 Clouds 25 1013 84 10000 1.57 173 15:59 17.05.2022
3623 Clouds 26 1013 84 10000 1.63 167 14:55 17.05.2022
3624 Clouds 26 1014 84 10000 1.76 165 14:28 17.05.2022
3625 Clouds 26 1014 85 10000 1.97 158 13:24 17.05.2022
3626 Clouds 26 1013 84 10000 2.18 153 10:42 17.05.2022
3627 Clouds 27 1011 81 10000 1.56 166 08:51 17.05.2022
3628 Clouds 28 1011 82 10000 1.22 187 07:55 17.05.2022
3629 Clouds 29 1010 78 10000 0.82 247 06:23 17.05.2022
3630 Clouds 30 1014 68 10000 0.26 357 01:23 17.05.2022
3631 Clouds 28 1014 73 10000 0.25 149 23:44 16.05.2022
3632 Clouds 27 1014 79 10000 0.79 178 22:33 16.05.2022
3633 Clouds 25 1012 84 10000 1.17 197 21:18 16.05.2022
3634 Clouds 25 1012 84 10000 1.17 197 20:42 16.05.2022
3635 Clouds 25 1011 87 10000 1.64 200 18:51 16.05.2022
3636 Clouds 25 1012 87 10000 1.92 185 17:18 16.05.2022
3637 Clouds 25 1012 87 10000 1.92 185 17:18 16.05.2022
3638 Clouds 25 1013 87 10000 1.56 173 15:29 16.05.2022
3639 Clear 26 1013 87 10000 1.41 173 13:45 16.05.2022
3640 Clear 26 1013 87 10000 1.4 160 12:41 16.05.2022
3641 Clear 26 1012 86 10000 1.16 146 10:36 16.05.2022
3642 Clouds 28 1010 82 10000 0.57 278 07:59 16.05.2022
3643 Clouds 29 1010 76 10000 1.64 297 05:46 16.05.2022
3644 Clear 30 1013 65 10000 0.57 95 00:49 16.05.2022
3645 Clear 27 1013 81 10000 1.2 166 22:44 15.05.2022
3646 Clear 25 1012 86 10000 1.59 169 21:59 15.05.2022
3647 Clear 25 1012 86 10000 1.59 169 21:36 15.05.2022
3648 Clear 25 1012 87 10000 1.64 171 20:43 15.05.2022
3649 Clouds 25 1011 87 10000 1.57 172 18:39 15.05.2022
3650 Clouds 25 1011 87 10000 1.39 183 16:54 15.05.2022
3651 Clouds 26 1012 88 10000 1.01 212 14:29 15.05.2022
3652 Clouds 26 1012 86 10000 0.74 181 13:45 15.05.2022
3653 Clouds 26 1012 87 10000 0.9 203 11:55 15.05.2022
3654 Clouds 27 1011 87 10000 1.21 227 10:47 15.05.2022
3655 Clouds 27 1011 85 10000 1.07 249 09:46 15.05.2022
3656 Clouds 28 1009 79 10000 0.57 313 07:22 15.05.2022
3657 Clouds 28 1009 79 10000 0.57 313 06:42 15.05.2022
3658 Clouds 30 1011 68 10000 1.9 5 02:43 15.05.2022
3659 Clouds 28 1013 78 10000 1.1 117 00:22 15.05.2022
3660 Clouds 28 1013 78 10000 1.1 117 23:36 14.05.2022
3661 Clouds 25 1013 88 10000 1.47 151 21:45 14.05.2022
3662 Clouds 25 1012 88 10000 1.21 156 21:25 14.05.2022
3663 Clouds 25 1011 87 10000 0.99 151 20:25 14.05.2022
3664 Clouds 25 1011 87 10000 0.83 196 19:20 14.05.2022
3665 Clouds 25 1011 87 10000 0.83 196 18:57 14.05.2022
3666 Clear 25 1011 87 10000 1.01 191 17:44 14.05.2022
3667 Clear 25 1011 88 10000 1.16 183 15:58 14.05.2022
3668 Clear 26 1012 88 10000 1.15 169 14:38 14.05.2022
3669 Clouds 26 1013 87 10000 1.48 156 13:24 14.05.2022
3670 Clouds 26 1012 87 10000 1.27 147 11:42 14.05.2022
3671 Clouds 27 1012 86 10000 0.76 148 10:39 14.05.2022
3672 Clouds 27 1011 86 10000 0.46 155 10:18 14.05.2022
3673 Clouds 27 1011 85 10000 0.32 206 09:19 14.05.2022
3674 Clouds 29 1010 78 10000 0.88 332 07:23 14.05.2022
3675 Clouds 29 1010 75 10000 1.32 338 04:32 14.05.2022
3676 Clouds 29 1013 73 10000 0.93 92 00:25 14.05.2022
3677 Clouds 27 1013 79 10000 0.81 131 23:24 13.05.2022
3678 Clouds 27 1013 79 10000 0.81 131 22:54 13.05.2022
3679 Clouds 26 1012 85 10000 1.18 156 22:20 13.05.2022
3680 Clouds 25 1012 87 10000 1.32 146 20:57 13.05.2022
3681 Clouds 25 1012 87 10000 1.32 146 20:30 13.05.2022
3682 Clouds 25 1011 87 10000 1.41 140 19:44 13.05.2022
3683 Clouds 25 1011 87 10000 1.44 135 18:44 13.05.2022
3684 Clear 26 1011 87 10000 1.35 145 17:29 13.05.2022
3685 Clouds 26 1012 87 10000 1.27 156 16:29 13.05.2022
3686 Clouds 26 1012 87 10000 1.27 156 15:45 13.05.2022
3687 Clouds 26 1013 86 10000 1.15 180 14:24 13.05.2022
3688 Clouds 27 1013 86 10000 0.72 202 12:46 13.05.2022
3689 Clouds 27 1013 85 10000 0.41 191 11:36 13.05.2022
3690 Clouds 27 1011 84 10000 0.55 245 09:43 13.05.2022
3691 Clouds 27 1010 82 10000 0.91 299 08:51 13.05.2022
3692 Clouds 29 1009 75 10000 0.84 359 07:49 13.05.2022
3693 Clouds 29 1009 72 10000 1.76 8 06:35 13.05.2022
3694 Clouds 30 1010 65 10000 2.27 1 04:22 13.05.2022
3695 Clouds 29 1013 67 10000 1.1 43 00:40 13.05.2022
3696 Clouds 27 1013 78 10000 0.67 135 22:46 12.05.2022
3697 Clouds 25 1012 82 10000 1.29 158 21:58 12.05.2022
3698 Clouds 25 1011 84 10000 1.51 165 20:38 12.05.2022
3699 Clouds 25 1010 87 10000 0.83 185 19:18 12.05.2022
3700 Clouds 25 1010 86 10000 1.14 122 17:27 12.05.2022
3701 Clouds 26 1011 86 10000 0.76 110 16:23 12.05.2022
3702 Clouds 26 1011 85 10000 0.71 75 14:42 12.05.2022
3703 Clouds 26 1011 86 10000 1.32 72 13:46 12.05.2022
3704 Clouds 26 1011 86 10000 0.66 58 10:52 12.05.2022
3705 Clouds 26 1011 86 10000 0.28 353 09:30 12.05.2022
3706 Clouds 27 1010 84 10000 1.12 358 08:51 12.05.2022
3707 Clouds 29 1009 75 10000 1.58 18 07:40 12.05.2022
3708 Clouds 30 1008 66 10000 2.39 16 06:19 12.05.2022
3709 Rain 31 1010 62 10000 2.11 17 02:56 12.05.2022
3710 Clouds 29 1011 70 10000 1.43 33 00:35 12.05.2022
3711 Rain 28 1011 81 10000 0.87 37 22:35 11.05.2022
3712 Rain 27 1010 84 10000 0.63 359 21:46 11.05.2022
3713 Rain 26 1009 84 10000 0.93 342 21:21 11.05.2022
3714 Rain 26 1008 87 10000 0.26 25 18:34 11.05.2022
3715 Rain 26 1008 87 10000 0.23 32 16:53 11.05.2022
3716 Rain 26 1009 88 10000 0.75 12 15:31 11.05.2022
3717 Rain 26 1009 88 10000 0.75 12 15:31 11.05.2022
3718 Rain 26 1009 88 10000 0.75 12 15:31 11.05.2022
3719 Rain 26 1009 88 10000 0.75 12 15:31 11.05.2022
3720 Rain 26 1009 88 10000 0.75 12 15:31 11.05.2022
3721 Rain 26 1009 88 10000 0.75 12 15:31 11.05.2022
3722 Clouds 26 1009 89 10000 1.28 11 14:38 11.05.2022
3723 Clouds 27 1010 88 10000 1.08 6 14:18 11.05.2022
3724 Rain 27 1010 89 10000 1.09 49 11:54 11.05.2022
3725 Rain 27 1009 89 10000 0.99 52 10:44 11.05.2022
3726 Rain 27 1008 87 10000 1.43 22 08:40 11.05.2022
3727 Rain 30 1007 75 10000 2.65 13 05:27 11.05.2022
3728 Clouds 30 1010 69 10000 3.04 69 00:42 11.05.2022
3729 Clouds 28 1010 77 10000 2.54 106 22:31 10.05.2022
3730 Clouds 27 1010 83 10000 2.66 113 21:56 10.05.2022
3731 Clouds 26 1009 83 10000 2.68 109 20:56 10.05.2022
3732 Clouds 26 1008 84 10000 3.13 119 19:27 10.05.2022
3733 Clouds 26 1008 84 10000 3.34 121 17:54 10.05.2022
3734 Clouds 26 1008 84 10000 3.42 123 16:56 10.05.2022
3735 Clouds 26 1010 85 10000 3.38 120 14:48 10.05.2022
3736 Clouds 27 1010 84 10000 3.57 117 12:39 10.05.2022
3737 Clouds 27 1010 83 10000 3.47 116 11:49 10.05.2022
3738 Clouds 27 1010 83 10000 3.34 116 11:18 10.05.2022
3739 Clouds 27 1009 83 10000 3.34 114 10:22 10.05.2022
3740 Clouds 28 1008 81 10000 3.48 106 09:25 10.05.2022
3741 Clouds 31 1006 67 10000 4.54 87 06:46 10.05.2022
3742 Clouds 31 1009 66 10000 4.65 83 03:29 10.05.2022
3743 Clouds 30 1010 71 10000 3.74 92 00:34 10.05.2022
3744 Clouds 28 1010 80 10000 2.57 112 22:44 09.05.2022
3745 Clouds 26 1010 85 10000 2.59 131 21:48 09.05.2022
3746 Clouds 26 1009 86 10000 2.84 133 20:30 09.05.2022
3747 Clouds 26 1009 86 10000 3.17 123 18:43 09.05.2022
3748 Clouds 26 1008 86 10000 3.17 119 17:40 09.05.2022
3749 Rain 26 1009 85 10000 3.6 116 16:29 09.05.2022
3750 Clouds 26 1009 85 10000 3.6 116 15:49 09.05.2022
3751 Clouds 26 1010 84 10000 3.63 115 14:54 09.05.2022
3752 Clouds 26 1010 84 10000 3.42 113 14:22 09.05.2022
3753 Rain 26 1010 84 10000 3.42 113 13:36 09.05.2022
3754 Rain 26 1010 84 10000 3.42 113 13:36 09.05.2022
3755 Rain 27 1011 85 10000 3.35 115 11:57 09.05.2022
3756 Clouds 27 1010 86 10000 3.6 116 10:51 09.05.2022
3757 Clouds 27 1010 86 10000 3.6 116 10:31 09.05.2022
3758 Clouds 29 1008 79 10000 4 91 08:23 09.05.2022
3759 Rain 29 1008 79 10000 4 91 07:43 09.05.2022
3760 Clouds 31 1010 68 10000 4.68 85 02:44 09.05.2022
3761 Clouds 27 1011 84 10000 3.41 113 23:29 08.05.2022
3762 Clouds 27 1011 84 10000 3.41 113 23:29 08.05.2022
3763 Clouds 27 1011 84 10000 3.41 113 22:47 08.05.2022
3764 Clouds 26 1011 88 10000 3.44 121 21:47 08.05.2022
3765 Clouds 25 1010 89 10000 3.41 120 20:31 08.05.2022
3766 Clouds 25 1009 89 10000 3.35 122 19:37 08.05.2022
3767 Clouds 25 1009 89 10000 3.36 122 18:49 08.05.2022
3768 Clouds 25 1009 89 10000 3.25 122 17:52 08.05.2022
3769 Clouds 26 1009 89 10000 2.98 123 16:30 08.05.2022
3770 Clouds 26 1011 89 10000 3.29 117 15:25 08.05.2022
3771 Clouds 26 1011 89 10000 3.44 115 14:23 08.05.2022
3772 Clouds 26 1011 89 10000 3.26 118 11:53 08.05.2022
3773 Clouds 27 1010 88 10000 3 110 10:27 08.05.2022
3774 Rain 27 1010 88 10000 2.95 111 09:54 08.05.2022
3775 Clouds 29 1009 80 10000 3.82 88 08:23 08.05.2022
3776 Clouds 30 1008 73 10000 3.82 80 06:31 08.05.2022
3777 Clouds 31 1010 67 10000 4.64 76 03:23 08.05.2022
3778 Clouds 30 1012 72 10000 3.77 91 01:19 08.05.2022
3779 Clouds 29 1012 78 10000 3.57 100 00:20 08.05.2022
3780 Clouds 29 1012 78 10000 3.57 100 23:41 07.05.2022
3781 Clouds 28 1012 83 10000 3.17 107 22:46 07.05.2022
3782 Clouds 26 1011 88 10000 3.06 116 21:57 07.05.2022
3783 Clouds 26 1011 88 10000 3.06 116 21:31 07.05.2022
3784 Clouds 26 1010 89 10000 2.72 129 20:25 07.05.2022
3785 Clouds 26 1010 87 10000 2.84 126 18:52 07.05.2022
3786 Clouds 26 1010 89 10000 2.91 126 16:50 07.05.2022
3787 Clouds 26 1011 88 10000 3.09 114 15:18 07.05.2022
3788 Clouds 26 1012 89 10000 3.3 120 11:51 07.05.2022
3789 Clouds 27 1011 88 10000 2.86 108 09:55 07.05.2022
3790 Clouds 28 1010 86 10000 2.8 99 08:33 07.05.2022
3791 Clouds 30 1008 74 10000 3.37 81 07:25 07.05.2022
3792 Clouds 30 1008 74 10000 3.37 81 06:42 07.05.2022
3793 Clouds 31 1009 69 10000 3.8 75 04:18 07.05.2022
3794 Clear 29 1012 73 10000 3.16 102 23:51 06.05.2022
3795 Clear 28 1012 78 10000 2.85 115 22:40 06.05.2022
3796 Clear 26 1012 83 10000 2.98 125 21:53 06.05.2022
3797 Clear 25 1011 83 10000 2.71 124 21:29 06.05.2022
3798 Clear 26 1010 84 10000 2.5 132 19:47 06.05.2022
3799 Clear 26 1010 84 10000 2.21 137 19:21 06.05.2022
3800 Clear 26 1010 85 10000 2.27 130 18:29 06.05.2022
3801 Clear 26 1010 85 10000 2.27 130 17:34 06.05.2022
3802 Clear 26 1011 85 10000 2.33 132 15:51 06.05.2022
3803 Clear 26 1011 86 10000 2.47 128 14:58 06.05.2022
3804 Clouds 26 1012 86 10000 2.73 120 13:38 06.05.2022
3805 Clouds 26 1012 87 10000 2.95 117 12:42 06.05.2022
3806 Clouds 27 1011 87 10000 2.92 121 11:58 06.05.2022
3807 Clouds 27 1011 86 10000 2.61 120 10:41 06.05.2022
3808 Clouds 27 1010 85 10000 2.25 116 09:47 06.05.2022
3809 Clouds 28 1009 82 10000 2.03 96 08:59 06.05.2022
3810 Clouds 29 1008 75 10000 2.51 70 07:27 06.05.2022
3811 Clouds 30 1008 73 10000 2.63 61 06:24 06.05.2022
3812 Clouds 31 1010 63 10000 2.49 61 02:54 06.05.2022
3813 Clouds 31 1012 64 10000 2.6 71 01:57 06.05.2022
3814 Clouds 27 1012 82 10000 1.86 129 22:48 05.05.2022
3815 Clouds 26 1011 87 10000 2.1 141 21:45 05.05.2022
3816 Clear 25 1010 87 10000 1.19 144 20:27 05.05.2022
3817 Clear 25 1009 88 10000 1.74 141 18:36 05.05.2022
3818 Clear 26 1010 88 10000 1.49 160 16:40 05.05.2022
3819 Clear 26 1011 86 10000 1.23 146 14:55 05.05.2022
3820 Clouds 26 1012 87 10000 1.34 162 13:27 05.05.2022
3821 Clouds 26 1012 87 10000 1.34 162 12:54 05.05.2022
3822 Rain 26 1011 85 10000 1.2 157 10:53 05.05.2022
3823 Rain 27 1010 85 10000 0.78 161 09:40 05.05.2022
3824 Clouds 28 1009 81 10000 0.22 346 07:45 05.05.2022
3825 Clouds 29 1008 72 10000 1.53 3 05:42 05.05.2022
3826 Clouds 30 1011 65 10000 1.57 27 02:18 05.05.2022
3827 Clouds 30 1011 66 10000 1.63 30 01:32 05.05.2022
3828 Clouds 28 1012 75 10000 1.14 77 23:53 04.05.2022
3829 Clouds 27 1012 80 10000 0.88 104 22:46 04.05.2022
3830 Clouds 26 1011 84 10000 0.84 150 21:54 04.05.2022
3831 Clouds 25 1010 85 10000 0.77 154 21:29 04.05.2022
3832 Clouds 25 1010 85 10000 0.87 144 20:27 04.05.2022
3833 Clouds 25 1010 85 10000 1.04 158 19:53 04.05.2022
3834 Clouds 26 1010 84 10000 0.92 142 19:24 04.05.2022
3835 Clouds 26 1010 84 10000 0.78 133 18:22 04.05.2022
3836 Clouds 26 1010 84 10000 0.78 133 17:51 04.05.2022
3837 Clouds 26 1010 83 10000 0.61 112 15:42 04.05.2022
3838 Clouds 26 1011 82 10000 0.56 106 15:23 04.05.2022
3839 Clouds 27 1011 81 10000 0.44 89 14:21 04.05.2022
3840 Clouds 26 1011 82 10000 0.65 124 13:35 04.05.2022
3841 Clouds 26 1012 81 10000 0.46 109 12:33 04.05.2022
3842 Clouds 27 1011 80 10000 0.68 65 10:41 04.05.2022
3843 Clouds 27 1010 78 10000 0.88 33 09:44 04.05.2022
3844 Clouds 28 1009 77 10000 1.04 14 08:47 04.05.2022
3845 Clouds 28 1009 77 10000 1.04 14 08:47 04.05.2022
3846 Clouds 28 1008 78 10000 1.15 353 06:47 04.05.2022
3847 Clouds 29 1010 73 10000 2.14 6 02:59 04.05.2022
3848 Clouds 30 1011 69 10000 2.15 25 00:38 04.05.2022
3849 Clouds 28 1012 80 10000 1.5 21 22:37 03.05.2022
3850 Clouds 26 1011 84 10000 0.95 45 21:46 03.05.2022
3851 Clouds 26 1010 84 10000 0.7 30 20:54 03.05.2022
3852 Clouds 26 1010 85 10000 1.24 349 19:59 03.05.2022
3853 Clouds 27 1009 85 10000 1.16 356 18:54 03.05.2022
3854 Clouds 27 1009 85 10000 1.02 7 18:21 03.05.2022
3855 Clouds 27 1010 85 10000 1.06 11 16:44 03.05.2022
3856 Clouds 27 1010 84 10000 1.06 23 15:38 03.05.2022
3857 Clouds 27 1011 85 10000 1.06 59 12:47 03.05.2022
3858 Clouds 27 1011 86 10000 0.97 53 12:27 03.05.2022
3859 Clouds 27 1011 85 10000 0.9 57 10:57 03.05.2022
3860 Clouds 27 1010 85 10000 1.24 37 09:34 03.05.2022
3861 Clouds 28 1009 82 10000 1.13 0 07:33 03.05.2022
3862 Clouds 28 1008 78 10000 1.41 342 06:44 03.05.2022
3863 Rain 27 1012 83 10000 0.41 48 00:54 03.05.2022
3864 Clouds 26 1012 88 10000 0.55 78 22:38 02.05.2022
3865 Clouds 25 1011 89 10000 0.48 324 21:52 02.05.2022
3866 Clouds 25 1011 89 10000 1.03 328 20:51 02.05.2022
3867 Clouds 26 1009 88 4688 0.77 70 18:41 02.05.2022
3868 Clouds 25 1009 89 7582 0.94 77 18:21 02.05.2022
3869 Clouds 25 1009 89 7582 0.94 77 17:37 02.05.2022
3870 Clouds 26 1010 88 10000 0.9 105 16:22 02.05.2022
3871 Clouds 26 1010 88 10000 0.9 105 15:31 02.05.2022
3872 Clouds 26 1011 87 10000 1.08 92 13:51 02.05.2022
3873 Clouds 26 1011 86 10000 1.02 73 12:19 02.05.2022
3874 Clouds 26 1011 86 10000 0.84 72 10:47 02.05.2022
3875 Clouds 27 1009 83 10000 1.54 24 09:20 02.05.2022
3876 Clouds 28 1009 80 10000 1.64 15 07:51 02.05.2022
3877 Clouds 28 1009 80 10000 1.64 15 07:51 02.05.2022
3878 Clouds 30 1009 70 10000 2.36 26 03:53 02.05.2022
3879 Clouds 28 1011 81 10000 0.87 35 00:24 02.05.2022
3880 Clouds 28 1011 81 10000 0.87 35 23:48 01.05.2022
3881 Rain 26 1010 86 10000 0.29 257 22:25 01.05.2022
3882 Rain 26 1010 86 10000 0.56 260 21:19 01.05.2022
3883 Rain 26 1009 86 10000 0.69 260 19:51 01.05.2022
3884 Rain 26 1008 86 10000 0.69 212 18:57 01.05.2022
3885 Rain 26 1008 86 10000 0.86 219 18:28 01.05.2022
3886 Rain 26 1009 85 10000 0.6 230 17:29 01.05.2022
3887 Clouds 26 1009 85 10000 0.48 267 16:23 01.05.2022
3888 Clouds 26 1010 85 10000 0.71 299 15:25 01.05.2022
3889 Rain 26 1010 85 10000 0.7 246 13:42 01.05.2022
3890 Rain 26 1009 85 10000 0.64 274 11:18 01.05.2022
3891 Rain 27 1008 85 10000 1.68 310 08:53 01.05.2022
3892 Clouds 28 1007 84 10000 1.56 304 07:55 01.05.2022
3893 Clouds 30 1007 73 10000 1.86 318 03:31 01.05.2022
3894 Clouds 28 1010 77 10000 0.44 75 23:49 30.04.2022
3895 Clouds 26 1009 86 10000 1.46 186 21:47 30.04.2022
3896 Rain 25 1009 87 10000 1.57 196 20:45 30.04.2022
3897 Clouds 26 1008 87 10000 1.11 177 19:41 30.04.2022
3898 Clouds 26 1008 86 10000 0.72 181 17:45 30.04.2022
3899 Clouds 26 1008 86 10000 0.3 159 16:42 30.04.2022
3900 Clouds 26 1009 86 10000 0.24 135 15:46 30.04.2022
3901 Clouds 26 1009 85 10000 0.43 175 14:43 30.04.2022
3902 Clouds 27 1010 85 10000 0.64 156 12:42 30.04.2022
3903 Clouds 27 1010 85 10000 0.91 143 11:33 30.04.2022
3904 Clouds 27 1009 84 10000 0.77 130 10:44 30.04.2022
3905 Clouds 27 1007 82 10000 0.24 18 09:25 30.04.2022
3906 Clouds 28 1006 78 10000 1.02 316 06:43 30.04.2022
3907 Clouds 30 1009 64 10000 0.82 33 01:53 30.04.2022
3908 Clouds 28 1010 72 10000 0.96 111 23:37 29.04.2022
3909 Clouds 27 1009 79 10000 0.85 159 22:31 29.04.2022
3910 Clouds 26 1009 83 10000 1.34 167 21:34 29.04.2022
3911 Clouds 25 1008 84 10000 1.22 160 20:40 29.04.2022
3912 Clouds 25 1008 83 10000 1.11 180 19:43 29.04.2022
3913 Clouds 25 1008 84 10000 1.47 185 17:55 29.04.2022
3914 Clouds 25 1009 84 10000 1.58 189 17:21 29.04.2022
3915 Clouds 26 1010 85 10000 1.64 202 15:23 29.04.2022
3916 Clouds 26 1010 86 10000 1.7 189 14:20 29.04.2022
3917 Clouds 26 1010 86 10000 1.55 176 12:48 29.04.2022
3918 Clouds 26 1010 85 10000 1.36 159 10:59 29.04.2022
3919 Clouds 27 1008 83 10000 1.16 163 08:33 29.04.2022
3920 Clouds 29 1007 79 10000 1.15 236 07:27 29.04.2022
3921 Clouds 29 1007 79 10000 1.15 236 06:38 29.04.2022
3922 Clouds 29 1007 74 10000 1.07 350 04:43 29.04.2022
3923 Clouds 29 1010 73 10000 1.49 105 00:19 29.04.2022
3924 Clouds 27 1009 81 10000 1.52 125 23:27 28.04.2022
3925 Clouds 27 1009 81 10000 1.52 125 22:41 28.04.2022
3926 Clouds 26 1009 85 10000 1.6 129 21:46 28.04.2022
3927 Clouds 25 1009 86 10000 1.38 141 20:55 28.04.2022
3928 Clouds 25 1008 87 10000 1.66 142 20:22 28.04.2022
3929 Clouds 25 1008 87 10000 1.66 142 19:40 28.04.2022
3930 Clouds 25 1008 87 10000 1.75 142 19:21 28.04.2022
3931 Clouds 26 1008 87 10000 1.95 141 18:23 28.04.2022
3932 Clouds 26 1008 87 10000 1.87 132 16:59 28.04.2022
3933 Clouds 26 1008 87 10000 1.82 137 16:21 28.04.2022
3934 Clouds 26 1008 87 10000 1.82 137 15:57 28.04.2022
3935 Clouds 26 1009 87 10000 1.85 138 15:23 28.04.2022
3936 Clouds 26 1010 87 10000 2.18 135 13:44 28.04.2022
3937 Clouds 26 1010 87 10000 2.19 139 12:37 28.04.2022
3938 Clouds 27 1010 86 10000 1.85 141 11:51 28.04.2022
3939 Clouds 27 1009 85 10000 1.69 132 10:30 28.04.2022
3940 Clouds 27 1009 83 10000 1.23 119 09:52 28.04.2022
3941 Clouds 29 1008 79 10000 0.54 58 08:20 28.04.2022
3942 Clouds 29 1007 77 10000 0.91 18 06:56 28.04.2022
3943 Clouds 29 1007 77 10000 1.78 3 05:54 28.04.2022
3944 Clouds 30 1008 74 10000 2.21 6 04:44 28.04.2022
3945 Clouds 30 1008 72 10000 2.17 11 03:40 28.04.2022
3946 Clouds 28 1011 78 10000 0.97 78 23:52 27.04.2022
3947 Clouds 27 1011 83 10000 0.73 98 22:30 27.04.2022
3948 Clouds 26 1010 86 10000 0.85 142 21:50 27.04.2022
3949 Clouds 26 1010 86 10000 0.93 159 20:51 27.04.2022
3950 Clouds 26 1010 86 10000 0.93 159 20:32 27.04.2022
3951 Clouds 26 1009 86 10000 0.82 142 19:36 27.04.2022
3952 Clouds 26 1008 87 10000 1.03 134 18:45 27.04.2022
3953 Clouds 26 1008 86 10000 0.75 126 18:21 27.04.2022
3954 Clouds 26 1009 85 10000 0.98 88 16:21 27.04.2022
3955 Clouds 26 1011 84 10000 0.77 51 13:29 27.04.2022
3956 Clouds 27 1011 84 10000 0.64 61 11:39 27.04.2022
3957 Clouds 27 1011 83 10000 0.58 46 11:18 27.04.2022
3958 Clouds 28 1009 80 10000 1.64 16 08:53 27.04.2022
3959 Clouds 30 1008 69 10000 1.79 13 06:44 27.04.2022
3960 Clouds 30 1009 67 10000 2.21 20 02:40 27.04.2022
3961 Clouds 30 1010 66 10000 1.84 69 01:27 27.04.2022
3962 Clouds 30 1010 66 10000 1.84 69 00:35 27.04.2022
3963 Clouds 28 1010 77 10000 1.12 118 23:24 26.04.2022
3964 Clouds 28 1010 77 10000 1.12 118 22:52 26.04.2022
3965 Clouds 28 1010 77 10000 1.12 118 22:32 26.04.2022
3966 Clouds 26 1010 83 10000 1.26 148 21:25 26.04.2022
3967 Clouds 26 1010 83 10000 1.26 148 20:39 26.04.2022
3968 Clouds 26 1009 83 10000 1.33 150 19:45 26.04.2022
3969 Clouds 26 1009 82 10000 0.82 164 19:26 26.04.2022
3970 Clouds 26 1009 82 10000 0.82 164 18:39 26.04.2022
3971 Clouds 26 1009 82 10000 0.72 163 17:41 26.04.2022
3972 Clouds 26 1009 82 10000 0.78 170 15:41 26.04.2022
3973 Clouds 26 1010 83 10000 1.03 169 13:51 26.04.2022
3974 Clouds 27 1010 82 10000 0.99 174 12:57 26.04.2022
3975 Clouds 27 1010 81 10000 0.43 134 11:23 26.04.2022
3976 Clouds 27 1010 81 10000 0.43 134 10:30 26.04.2022
3977 Clouds 28 1008 79 10000 0.86 333 08:33 26.04.2022
3978 Clouds 30 1007 66 10000 2.25 1 04:59 26.04.2022
3979 Clouds 30 1008 67 10000 2.2 2 04:22 26.04.2022
3980 Clouds 30 1010 70 10000 1.52 46 00:51 26.04.2022
3981 Clouds 29 1010 75 10000 1.38 87 23:50 25.04.2022
3982 Clouds 26 1010 84 10000 1.46 138 21:53 25.04.2022
3983 Clouds 25 1009 84 10000 1.37 150 21:25 25.04.2022
3984 Clouds 25 1008 85 10000 1.89 152 19:47 25.04.2022
3985 Clouds 25 1008 85 10000 1.81 156 18:34 25.04.2022
3986 Clouds 25 1008 84 10000 1.73 159 17:39 25.04.2022
3987 Clouds 26 1008 84 10000 1.65 155 16:35 25.04.2022
3988 Clouds 26 1010 84 10000 1.22 151 15:21 25.04.2022
3989 Clouds 26 1010 84 10000 1.24 155 14:23 25.04.2022
3990 Clouds 26 1010 83 10000 1.08 154 12:40 25.04.2022
3991 Clouds 27 1009 83 10000 1.2 86 10:29 25.04.2022
3992 Clouds 27 1009 83 10000 1.2 86 09:39 25.04.2022
3993 Clouds 29 1007 75 10000 1.16 45 07:34 25.04.2022
3994 Clouds 30 1007 72 10000 2.02 33 05:53 25.04.2022
3995 Clouds 30 1010 67 10000 1.84 83 01:27 25.04.2022
3996 Clouds 29 1010 71 10000 1.66 103 23:54 24.04.2022
3997 Clouds 27 1010 77 10000 1.5 126 23:20 24.04.2022
3998 Clouds 27 1010 77 10000 1.5 126 22:37 24.04.2022
3999 Clouds 26 1010 82 10000 1.8 134 21:54 24.04.2022
4000 Clouds 25 1009 83 10000 1.66 139 21:20 24.04.2022
4001 Clouds 25 1009 83 10000 1.66 139 20:39 24.04.2022
4002 Clouds 25 1009 84 10000 1.52 145 19:51 24.04.2022
4003 Clouds 25 1009 85 10000 1.76 153 18:28 24.04.2022
4004 Clouds 25 1009 85 10000 1.76 153 17:40 24.04.2022
4005 Clouds 25 1009 85 10000 1.89 152 17:20 24.04.2022
4006 Clouds 25 1009 85 10000 1.89 152 16:49 24.04.2022
4007 Clouds 26 1009 84 10000 1.78 149 16:20 24.04.2022
4008 Clouds 26 1009 84 10000 1.78 149 15:32 24.04.2022
4009 Clouds 26 1010 84 10000 1.69 150 14:30 24.04.2022
4010 Clouds 26 1011 83 10000 1.43 149 13:26 24.04.2022
4011 Clouds 26 1011 83 10000 1.43 149 12:37 24.04.2022
4012 Clouds 26 1011 83 10000 1.48 146 11:39 24.04.2022
4013 Clouds 27 1010 82 10000 1.32 143 10:32 24.04.2022
4014 Clouds 27 1009 81 10000 1.07 130 09:39 24.04.2022
4015 Clouds 29 1008 72 10000 1.11 43 07:31 24.04.2022
4016 Clouds 31 1008 63 10000 1.92 24 04:44 24.04.2022
4017 Clouds 30 1010 63 10000 1.84 48 01:39 24.04.2022
4018 Clouds 30 1011 67 10000 1.81 66 00:30 24.04.2022
4019 Clouds 29 1011 74 10000 1.64 80 23:45 23.04.2022
4020 Clouds 27 1011 80 10000 1.19 100 23:22 23.04.2022
4021 Clouds 26 1011 85 10000 1.52 148 21:53 23.04.2022
4022 Clouds 26 1011 85 10000 1.52 148 21:34 23.04.2022
4023 Clouds 25 1010 87 10000 1.85 158 20:51 23.04.2022
4024 Clouds 26 1009 88 10000 1.44 145 19:48 23.04.2022
4025 Clouds 26 1009 88 10000 1.25 143 19:19 23.04.2022
4026 Clouds 26 1009 88 10000 1.25 143 18:52 23.04.2022
4027 Clouds 26 1009 88 10000 1.08 139 17:51 23.04.2022
4028 Clouds 26 1009 88 10000 0.86 131 17:26 23.04.2022
4029 Clouds 26 1009 88 10000 0.86 131 16:41 23.04.2022
4030 Clouds 26 1011 87 10000 0.89 97 15:20 23.04.2022
4031 Clouds 26 1011 87 10000 1.07 70 12:44 23.04.2022
4032 Rain 27 1011 86 10000 0.79 56 10:43 23.04.2022
4033 Rain 27 1010 85 10000 0.86 30 09:30 23.04.2022
4034 Clouds 29 1008 76 10000 2.25 7 06:31 23.04.2022
4035 Clouds 29 1010 78 10000 2.27 11 03:54 23.04.2022
4036 Clouds 28 1012 82 10000 2 29 00:57 23.04.2022
4037 Rain 27 1011 87 10000 1.66 36 23:29 22.04.2022
4038 Clouds 26 1011 88 10000 1.44 27 22:20 22.04.2022
4039 Clouds 26 1011 88 10000 1.44 27 21:42 22.04.2022
4040 Clouds 26 1010 88 10000 1.66 27 20:46 22.04.2022
4041 Clouds 26 1009 89 8894 1.38 35 20:26 22.04.2022
4042 Clouds 26 1009 88 10000 1.6 46 19:18 22.04.2022
4043 Clouds 26 1009 88 10000 1.6 46 18:36 22.04.2022
4044 Clouds 26 1009 88 10000 1.33 33 17:39 22.04.2022
4045 Clouds 26 1010 87 10000 1.41 28 16:32 22.04.2022
4046 Clouds 26 1010 88 10000 1.63 20 15:32 22.04.2022
4047 Clouds 26 1011 88 10000 1.53 23 14:43 22.04.2022
4048 Clouds 26 1011 87 10000 2 5 13:42 22.04.2022
4049 Clouds 26 1011 87 10000 1.66 355 12:55 22.04.2022
4050 Clouds 27 1011 85 10000 1.26 353 11:41 22.04.2022
4051 Clouds 27 1011 85 10000 1.21 16 11:18 22.04.2022
4052 Clouds 27 1011 85 10000 1.21 16 10:47 22.04.2022
4053 Rain 27 1010 87 8351 0.96 7 10:25 22.04.2022
4054 Rain 27 1010 87 8351 0.96 7 09:42 22.04.2022
4055 Clouds 27 1009 84 10000 1.46 9 08:49 22.04.2022
4056 Rain 29 1008 73 10000 1.58 9 06:54 22.04.2022
4057 Clouds 31 1010 67 10000 2.06 58 01:41 22.04.2022
4058 Clouds 29 1011 74 10000 1.72 105 23:39 21.04.2022
4059 Rain 28 1011 80 10000 1.55 118 22:48 21.04.2022
4060 Clouds 26 1011 85 10000 1.63 129 21:42 21.04.2022
4061 Rain 26 1010 86 10000 1.49 131 20:32 21.04.2022
4062 Rain 26 1009 85 10000 1.61 129 19:24 21.04.2022
4063 Clouds 26 1009 85 10000 1.61 129 18:32 21.04.2022
4064 Clouds 26 1009 86 10000 1.73 134 17:20 21.04.2022
4065 Rain 26 1010 86 10000 2.04 130 16:19 21.04.2022
4066 Clouds 26 1011 86 10000 2.42 127 15:19 21.04.2022
4067 Clouds 26 1011 87 10000 2.46 122 14:29 21.04.2022
4068 Rain 27 1011 86 10000 2.35 122 13:22 21.04.2022
4069 Clouds 27 1011 86 10000 2.34 126 12:29 21.04.2022
4070 Clouds 27 1010 86 10000 2.24 107 09:58 21.04.2022
4071 Clouds 28 1009 83 10000 2.1 80 08:47 21.04.2022
4072 Clouds 30 1008 72 10000 2.14 51 06:44 21.04.2022
4073 Clouds 31 1009 67 10000 3.32 58 03:42 21.04.2022
4074 Clouds 31 1010 66 10000 3.43 62 03:22 21.04.2022
4075 Clouds 31 1010 66 10000 3.43 62 02:44 21.04.2022
4076 Clouds 31 1010 66 10000 3.43 62 02:44 21.04.2022
4077 Clouds 30 1012 69 10000 3.36 82 00:35 21.04.2022
4078 Clouds 30 1012 69 10000 3.36 82 00:35 21.04.2022
4079 Clouds 29 1012 76 10000 3.01 95 23:40 20.04.2022
4080 Clouds 27 1012 82 10000 2.39 106 23:18 20.04.2022
4081 Clouds 27 1012 82 10000 2.39 106 22:36 20.04.2022
4082 Clouds 26 1011 86 10000 2.21 117 21:43 20.04.2022
4083 Clouds 26 1011 87 10000 2.04 121 20:45 20.04.2022
4084 Clouds 25 1011 87 10000 2.01 122 20:21 20.04.2022
4085 Clouds 25 1011 87 10000 2.01 122 19:44 20.04.2022
4086 Clouds 26 1010 87 10000 1.9 119 18:46 20.04.2022
4087 Clouds 26 1010 87 10000 2.04 127 17:50 20.04.2022
4088 Rain 26 1011 87 10000 2.07 129 16:39 20.04.2022
4089 Clouds 26 1012 87 10000 2.11 124 15:26 20.04.2022
4090 Clouds 27 1012 86 10000 1.94 142 12:22 20.04.2022
4091 Clouds 27 1012 86 10000 1.94 142 11:42 20.04.2022
4092 Clouds 27 1012 86 10000 1.67 122 10:43 20.04.2022
4093 Clouds 27 1010 83 10000 1.4 65 09:28 20.04.2022
4094 Clouds 28 1009 79 10000 1.56 52 08:29 20.04.2022
4095 Clouds 28 1009 78 10000 1.44 52 07:53 20.04.2022
4096 Clouds 30 1009 69 10000 2.26 47 06:18 20.04.2022
4097 Clouds 30 1012 66 10000 2.27 68 01:37 20.04.2022
4098 Clouds 28 1013 76 10000 2.01 102 00:21 20.04.2022
4099 Clouds 27 1013 81 10000 1.68 116 22:53 19.04.2022
4100 Clouds 25 1012 85 10000 1.4 119 22:23 19.04.2022
4101 Clouds 25 1012 85 10000 1.4 119 21:49 19.04.2022
4102 Clouds 25 1011 86 10000 1.64 112 20:57 19.04.2022
4103 Clouds 25 1011 86 10000 1.64 112 20:37 19.04.2022
4104 Clouds 25 1010 86 10000 1.71 124 19:32 19.04.2022
4105 Clouds 25 1010 86 10000 1.82 125 18:30 19.04.2022
4106 Clouds 25 1011 86 10000 1.6 135 16:50 19.04.2022
4107 Clouds 26 1011 86 10000 1.75 132 16:25 19.04.2022
4108 Clouds 26 1011 86 10000 1.75 132 15:59 19.04.2022
4109 Clouds 26 1012 86 10000 2.08 129 14:46 19.04.2022
4110 Rain 26 1012 85 10000 2.31 126 12:53 19.04.2022
4111 Rain 26 1012 85 10000 2.31 126 12:33 19.04.2022
4112 Rain 26 1012 85 10000 2.32 138 11:34 19.04.2022
4113 Rain 27 1011 84 10000 1.94 128 09:35 19.04.2022
4114 Clouds 29 1009 73 10000 1.74 64 07:43 19.04.2022
4115 Clouds 31 1010 63 10000 3.59 70 04:25 19.04.2022
4116 Clouds 30 1012 62 10000 2.94 74 01:41 19.04.2022
4117 Clouds 28 1013 72 10000 2.21 102 23:49 18.04.2022
4118 Clouds 27 1013 80 10000 2.22 122 22:46 18.04.2022
4119 Clouds 25 1012 85 10000 2.5 138 21:25 18.04.2022
4120 Clouds 25 1011 85 10000 2.3 136 20:39 18.04.2022
4121 Clouds 25 1011 86 10000 2.42 139 19:59 18.04.2022
4122 Rain 25 1011 86 10000 2.42 139 19:32 18.04.2022
4123 Rain 25 1011 86 10000 2.42 139 18:43 18.04.2022
4124 Rain 25 1011 87 10000 2.09 136 17:40 18.04.2022
4125 Clouds 25 1011 87 10000 2.11 133 17:19 18.04.2022
4126 Clouds 25 1011 87 10000 2.11 133 16:38 18.04.2022
4127 Clouds 25 1012 87 10000 2.25 132 15:30 18.04.2022
4128 Rain 26 1013 87 10000 2.54 130 14:22 18.04.2022
4129 Rain 26 1013 88 10000 2 113 12:56 18.04.2022
4130 Rain 26 1012 88 10000 2.06 111 12:24 18.04.2022
4131 Rain 26 1012 88 9337 2.12 101 10:46 18.04.2022
4132 Rain 26 1011 88 7246 2.33 85 09:32 18.04.2022
4133 Rain 27 1010 87 6387 2.34 83 08:46 18.04.2022
4134 Clouds 29 1009 78 10000 2.65 78 06:52 18.04.2022
4135 Clouds 30 1012 67 10000 3.7 83 02:29 18.04.2022
4136 Clouds 27 1012 79 10000 2.64 109 23:21 17.04.2022
4137 Clouds 27 1012 79 10000 2.64 109 22:36 17.04.2022
4138 Clouds 26 1012 83 10000 2.48 110 21:34 17.04.2022
4139 Clouds 25 1011 83 10000 2.38 110 20:52 17.04.2022
4140 Clouds 25 1011 83 10000 2.27 111 20:19 17.04.2022
4141 Clouds 25 1010 84 10000 2.12 127 18:45 17.04.2022
4142 Clouds 26 1010 84 10000 2.06 127 17:26 17.04.2022
4143 Clouds 26 1011 84 10000 2.23 134 15:34 17.04.2022
4144 Rain 26 1012 83 10000 2.07 139 14:45 17.04.2022
4145 Rain 26 1013 85 10000 1.37 141 13:29 17.04.2022
4146 Rain 26 1013 85 10000 1.37 141 12:45 17.04.2022
4147 Rain 26 1012 85 10000 1.15 78 10:58 17.04.2022
4148 Rain 26 1011 85 10000 1.23 45 10:29 17.04.2022
4149 Rain 26 1011 85 10000 1.23 45 09:51 17.04.2022
4150 Clouds 27 1010 82 10000 1.57 31 09:20 17.04.2022
4151 Rain 27 1010 82 10000 1.57 31 08:31 17.04.2022
4152 Rain 29 1008 72 10000 1.78 11 05:34 17.04.2022
4153 Clouds 29 1011 70 10000 1.62 79 01:52 17.04.2022
4154 Rain 28 1012 76 10000 1.71 92 00:41 17.04.2022
4155 Clouds 28 1012 79 10000 1.56 97 23:30 16.04.2022
4156 Clouds 25 1011 86 10000 1.87 119 21:47 16.04.2022
4157 Clouds 25 1010 87 10000 2.16 126 20:54 16.04.2022
4158 Rain 25 1009 87 10000 2.37 133 19:24 16.04.2022
4159 Rain 25 1009 87 10000 2.37 133 18:43 16.04.2022
4160 Clouds 26 1009 87 10000 1.68 135 16:51 16.04.2022
4161 Clouds 26 1010 87 10000 1.37 148 15:49 16.04.2022
4162 Clouds 26 1011 86 10000 1.11 151 14:58 16.04.2022
4163 Clouds 26 1011 86 10000 1.11 151 14:37 16.04.2022
4164 Clouds 26 1011 87 10000 0.89 146 13:49 16.04.2022
4165 Clouds 26 1012 87 10000 0.89 154 12:43 16.04.2022
4166 Clouds 26 1011 87 10000 0.97 166 11:33 16.04.2022
4167 Clouds 27 1009 84 10000 0.45 91 10:29 16.04.2022
4168 Clouds 27 1009 84 10000 0.45 91 09:36 16.04.2022
4169 Clouds 27 1009 83 10000 0.77 48 08:42 16.04.2022
4170 Clouds 29 1007 70 10000 1.15 38 07:21 16.04.2022
4171 Clouds 30 1008 65 10000 1.74 40 04:54 16.04.2022
4172 Clouds 27 1012 82 10000 0.92 47 01:22 16.04.2022
4173 Clouds 26 1012 86 10000 0.62 78 23:45 15.04.2022
4174 Clouds 26 1012 87 10000 0.65 119 22:48 15.04.2022
4175 Clouds 25 1011 88 10000 0.68 119 22:28 15.04.2022
4176 Clouds 25 1010 88 10000 0.77 85 21:20 15.04.2022
4177 Clouds 25 1010 88 10000 0.77 85 20:36 15.04.2022
4178 Clouds 25 1010 88 10000 0.82 56 19:43 15.04.2022
4179 Clouds 25 1010 88 10000 0.67 269 18:57 15.04.2022
4180 Clouds 25 1010 89 10000 1.13 263 18:26 15.04.2022
4181 Clouds 25 1010 89 10000 1.13 263 17:56 15.04.2022
4182 Clouds 25 1010 90 10000 1.45 256 17:23 15.04.2022
4183 Clouds 25 1011 91 10000 1.6 252 16:24 15.04.2022
4184 Clouds 25 1011 91 10000 1.6 252 15:40 15.04.2022
4185 Clouds 26 1012 86 10000 0.28 21 13:55 15.04.2022
4186 Clouds 26 1012 86 10000 0.33 7 12:48 15.04.2022
4187 Clouds 26 1012 86 10000 0.39 20 11:59 15.04.2022
4188 Clouds 26 1012 86 10000 0.39 20 11:40 15.04.2022
4189 Clouds 26 1011 86 10000 0.45 70 10:45 15.04.2022
4190 Clouds 26 1011 85 10000 0.43 64 09:57 15.04.2022
4191 Clouds 27 1010 84 10000 0.68 35 09:21 15.04.2022
4192 Clouds 28 1009 82 10000 0.8 10 08:24 15.04.2022
4193 Clouds 29 1009 77 10000 1.12 27 06:47 15.04.2022
4194 Clouds 29 1009 74 10000 2.49 52 04:28 15.04.2022
4195 Clouds 29 1012 70 10000 1.7 114 23:42 14.04.2022
4196 Clouds 27 1011 79 10000 1.58 139 23:19 14.04.2022
4197 Clouds 27 1011 79 10000 1.58 139 22:42 14.04.2022
4198 Clouds 25 1011 85 10000 2 146 22:24 14.04.2022
4199 Clouds 25 1011 86 10000 2.12 141 21:32 14.04.2022
4200 Clouds 25 1009 87 10000 2.07 124 19:24 14.04.2022
4201 Clouds 25 1009 87 10000 2.07 124 18:31 14.04.2022
4202 Clouds 25 1009 88 10000 2.12 124 17:44 14.04.2022
4203 Clouds 25 1010 88 10000 2.14 127 16:46 14.04.2022
4204 Clouds 26 1011 88 10000 2.68 126 15:28 14.04.2022
4205 Clouds 26 1011 87 10000 2.67 124 13:47 14.04.2022
4206 Clouds 26 1011 87 10000 2.89 121 13:18 14.04.2022
4207 Clouds 26 1011 87 10000 2.89 121 12:31 14.04.2022
4208 Clouds 26 1011 87 10000 2.7 120 11:36 14.04.2022
4209 Clouds 26 1011 86 10000 2.29 122 10:56 14.04.2022
4210 Clouds 27 1010 84 10000 1.94 113 10:27 14.04.2022
4211 Clouds 28 1009 81 10000 1.7 88 09:26 14.04.2022
4212 Clouds 29 1008 73 10000 2.29 63 07:36 14.04.2022
4213 Clouds 30 1008 70 10000 2.63 64 04:35 14.04.2022
4214 Clouds 29 1011 69 10000 2.25 106 23:45 13.04.2022
4215 Clouds 25 1010 79 10000 2.36 144 22:24 13.04.2022
4216 Clouds 25 1010 79 10000 2.36 144 21:42 13.04.2022
4217 Clouds 25 1009 79 10000 1.74 147 20:25 13.04.2022
4218 Clouds 24 1009 80 10000 1.96 146 19:39 13.04.2022
4219 Clouds 25 1009 80 10000 1.76 145 18:36 13.04.2022
4220 Clouds 25 1009 80 10000 2.12 128 17:24 13.04.2022
4221 Clouds 25 1009 80 10000 2.12 128 16:41 13.04.2022
4222 Clear 25 1010 81 10000 2.7 130 15:43 13.04.2022
4223 Clear 25 1010 81 10000 2.83 133 15:19 13.04.2022
4224 Clear 25 1010 81 10000 2.83 133 14:30 13.04.2022
4225 Clouds 25 1011 80 10000 2.79 138 13:36 13.04.2022
4226 Clouds 25 1011 82 10000 2.74 137 12:38 13.04.2022
4227 Clouds 26 1011 80 10000 2.14 124 10:58 13.04.2022
4228 Clouds 27 1010 79 10000 1.43 97 09:45 13.04.2022
4229 Clouds 28 1009 76 10000 1.51 61 08:43 13.04.2022
4230 Clouds 30 1007 66 10000 2.23 55 07:18 13.04.2022
4231 Clouds 30 1007 66 10000 2.23 55 06:46 13.04.2022
4232 Clouds 30 1007 65 10000 2.51 49 06:18 13.04.2022
4233 Clouds 28 1011 77 10000 2.55 101 00:24 13.04.2022
4234 Clouds 28 1011 77 10000 2.55 101 23:46 12.04.2022
4235 Clouds 25 1010 87 10000 2.19 129 22:19 12.04.2022
4236 Clouds 25 1010 87 10000 2.19 129 21:32 12.04.2022
4237 Clouds 25 1010 88 10000 2.23 128 20:42 12.04.2022
4238 Clouds 25 1009 88 10000 2 133 19:53 12.04.2022
4239 Clouds 25 1009 88 10000 2 133 19:32 12.04.2022
4240 Clouds 25 1009 88 10000 1.91 133 18:42 12.04.2022
4241 Clouds 25 1009 87 10000 2.06 132 17:30 12.04.2022
4242 Clouds 25 1010 87 10000 2.28 138 16:23 12.04.2022
4243 Clouds 25 1010 87 10000 2.28 138 15:33 12.04.2022
4244 Clouds 26 1011 87 10000 1.97 142 14:29 12.04.2022
4245 Clouds 26 1011 86 10000 1.62 141 13:37 12.04.2022
4246 Clouds 26 1011 86 10000 1.41 146 12:52 12.04.2022
4247 Clouds 26 1011 85 10000 1.28 131 11:47 12.04.2022
4248 Clouds 26 1010 84 10000 1.42 119 10:47 12.04.2022
4249 Clouds 28 1009 81 10000 1.27 59 09:21 12.04.2022
4250 Clouds 28 1008 77 10000 1.3 49 07:56 12.04.2022
4251 Clouds 29 1008 72 10000 1.26 30 06:24 12.04.2022
4252 Clouds 29 1008 72 10000 1.26 30 05:31 12.04.2022
4253 Clouds 28 1011 75 10000 2.06 93 23:59 11.04.2022
4254 Clouds 27 1011 81 10000 1.8 110 22:44 11.04.2022
4255 Clouds 26 1010 86 10000 2.05 124 21:37 11.04.2022
4256 Clouds 25 1010 87 10000 2.19 130 20:56 11.04.2022
4257 Clouds 25 1009 87 10000 2.17 136 20:29 11.04.2022
4258 Clouds 25 1009 87 10000 2.17 136 19:42 11.04.2022
4259 Clouds 25 1009 88 10000 2.35 133 19:18 11.04.2022
4260 Clouds 25 1009 88 10000 2.35 133 18:41 11.04.2022
4261 Clouds 26 1009 88 10000 1.97 125 17:56 11.04.2022
4262 Clouds 26 1009 88 10000 1.63 113 16:54 11.04.2022
4263 Clouds 26 1010 88 10000 1.51 109 15:45 11.04.2022
4264 Clouds 26 1011 87 10000 1.38 118 13:59 11.04.2022
4265 Clouds 26 1011 87 10000 1.45 115 12:47 11.04.2022
4266 Clouds 26 1011 87 10000 1.43 106 12:29 11.04.2022
4267 Clouds 26 1011 87 10000 1.43 106 11:30 11.04.2022
4268 Clouds 27 1010 86 10000 1.37 60 10:21 11.04.2022
4269 Clouds 27 1009 85 10000 1.11 49 08:50 11.04.2022
4270 Clouds 29 1009 75 10000 1.81 351 05:38 11.04.2022
4271 Clouds 30 1012 67 10000 1.47 73 01:23 11.04.2022
4272 Clouds 27 1012 81 10000 1.56 116 22:33 10.04.2022
4273 Clouds 25 1011 86 10000 1.65 138 21:55 10.04.2022
4274 Clouds 25 1011 86 10000 1.6 134 21:26 10.04.2022
4275 Clouds 25 1010 86 10000 1.41 127 20:25 10.04.2022
4276 Clouds 25 1010 86 10000 1.3 139 19:37 10.04.2022
4277 Clouds 25 1010 87 10000 1.44 135 18:50 10.04.2022
4278 Clouds 25 1010 87 10000 1.44 135 18:30 10.04.2022
4279 Clouds 25 1010 87 10000 1.77 125 17:51 10.04.2022
4280 Clouds 25 1010 87 10000 1.77 125 17:31 10.04.2022
4281 Clouds 26 1011 88 10000 1.96 120 15:53 10.04.2022
4282 Clouds 26 1011 88 10000 1.82 126 14:49 10.04.2022
4283 Clouds 26 1011 87 10000 1.46 139 13:45 10.04.2022
4284 Clouds 26 1011 87 10000 1.27 141 12:32 10.04.2022
4285 Clouds 26 1011 86 10000 1.2 141 11:44 10.04.2022
4286 Clouds 26 1011 86 10000 1.09 122 11:20 10.04.2022
4287 Clouds 26 1011 86 10000 1.09 122 10:34 10.04.2022
4288 Clouds 27 1010 86 10000 1.23 95 09:41 10.04.2022
4289 Rain 27 1009 84 10000 1.51 68 08:40 10.04.2022
4290 Rain 28 1009 83 7847 1.85 52 08:18 10.04.2022
4291 Clouds 29 1008 74 10000 2.23 52 06:59 10.04.2022
4292 Clouds 31 1009 65 10000 2.92 56 03:40 10.04.2022
4293 Clouds 31 1010 64 10000 2.47 67 02:19 10.04.2022
4294 Clouds 29 1012 71 10000 2.3 89 23:53 09.04.2022
4295 Clouds 27 1012 76 10000 1.93 99 22:56 09.04.2022
4296 Clouds 27 1012 76 10000 1.93 99 22:33 09.04.2022
4297 Clouds 25 1010 82 10000 1.53 133 21:19 09.04.2022
4298 Clouds 25 1010 82 10000 1.53 133 20:30 09.04.2022
4299 Clouds 25 1010 83 10000 1.51 131 19:56 09.04.2022
4300 Clouds 25 1010 83 10000 1.52 142 19:38 09.04.2022
4301 Clouds 25 1009 84 10000 1.81 140 18:23 09.04.2022
4302 Clouds 25 1009 84 10000 1.81 140 17:48 09.04.2022
4303 Clouds 25 1009 85 10000 1.97 145 16:56 09.04.2022
4304 Clouds 25 1009 85 10000 1.97 145 16:38 09.04.2022
4305 Clouds 26 1010 85 10000 2.34 142 15:49 09.04.2022
4306 Clouds 26 1010 85 10000 2.57 141 15:25 09.04.2022
4307 Clouds 26 1011 86 10000 2.67 140 14:25 09.04.2022
4308 Clouds 26 1011 86 10000 2.71 136 13:26 09.04.2022
4309 Clouds 26 1011 86 10000 2.71 136 12:53 09.04.2022
4310 Clouds 26 1011 86 10000 2.55 132 11:44 09.04.2022
4311 Clouds 26 1011 86 10000 2.15 117 10:41 09.04.2022
4312 Clouds 27 1010 86 10000 2.1 96 10:18 09.04.2022
4313 Clouds 28 1009 83 10000 2.38 71 09:21 09.04.2022
4314 Clouds 29 1008 77 10000 2.52 66 07:49 09.04.2022
4315 Clouds 31 1009 64 10000 3.81 80 03:22 09.04.2022
4316 Clouds 30 1011 66 10000 3.38 93 00:32 09.04.2022
4317 Clouds 28 1011 78 10000 2.62 105 23:20 08.04.2022
4318 Clouds 26 1010 84 10000 2.69 116 21:42 08.04.2022
4319 Clouds 26 1009 84 10000 2.63 117 20:41 08.04.2022
4320 Clouds 26 1008 85 10000 2.39 120 19:41 08.04.2022
4321 Clouds 26 1008 87 10000 2.51 123 18:38 08.04.2022
4322 Clouds 26 1008 86 10000 2.71 125 17:59 08.04.2022
4323 Clouds 26 1009 85 10000 2.87 127 17:27 08.04.2022
4324 Clouds 26 1009 85 10000 2.87 127 16:52 08.04.2022
4325 Clouds 26 1009 84 10000 2.86 121 16:22 08.04.2022
4326 Clouds 26 1010 83 10000 3.06 115 15:28 08.04.2022
4327 Clouds 26 1010 83 10000 3.06 115 14:40 08.04.2022
4328 Clouds 26 1010 82 10000 3.1 116 13:55 08.04.2022
4329 Clouds 26 1010 83 10000 2.95 118 13:30 08.04.2022
4330 Clouds 26 1010 83 10000 3.27 116 12:42 08.04.2022
4331 Clouds 26 1010 83 10000 2.63 129 10:55 08.04.2022
4332 Clouds 27 1009 83 10000 2.31 126 09:41 08.04.2022
4333 Clouds 27 1007 83 10000 2.09 108 08:58 08.04.2022
4334 Clouds 28 1006 80 10000 1.93 71 07:38 08.04.2022
4335 Clouds 29 1006 77 10000 1.64 73 06:44 08.04.2022
4336 Clouds 29 1009 74 10000 3.05 75 02:27 08.04.2022
4337 Clouds 27 1010 83 10000 2.97 92 00:26 08.04.2022
4338 Clouds 27 1010 83 10000 2.97 92 23:38 07.04.2022
4339 Clouds 26 1010 86 10000 2.77 103 22:40 07.04.2022
4340 Clouds 26 1009 87 10000 2.79 101 22:22 07.04.2022
4341 Clouds 26 1009 87 10000 2.79 101 21:56 07.04.2022
4342 Clouds 25 1008 87 10000 2.6 97 21:19 07.04.2022
4343 Clouds 25 1008 87 10000 2.6 97 20:38 07.04.2022
4344 Clouds 26 1007 86 10000 2.06 93 18:54 07.04.2022
4345 Clouds 26 1008 85 10000 1.15 80 17:27 07.04.2022
4346 Clouds 26 1008 85 10000 1.15 80 16:45 07.04.2022
4347 Clouds 26 1009 85 10000 1.27 72 16:23 07.04.2022
4348 Clouds 26 1009 86 10000 1.34 68 15:19 07.04.2022
4349 Clouds 26 1009 86 10000 1.7 70 13:45 07.04.2022
4350 Clouds 26 1010 86 10000 1.82 56 12:58 07.04.2022
4351 Clouds 26 1009 86 10000 2.02 57 11:40 07.04.2022
4352 Clouds 27 1008 85 10000 2.37 22 09:42 07.04.2022
4353 Clouds 27 1007 82 10000 3.1 18 08:38 07.04.2022
4354 Rain 28 1006 79 10000 4.22 15 06:57 07.04.2022
4355 Clouds 28 1008 81 10000 3.72 41 02:58 07.04.2022
4356 Clouds 27 1009 86 10000 2.25 56 02:27 07.04.2022
4357 Clouds 24 1010 89 10000 0.77 60 00:28 07.04.2022
4358 Clouds 24 1010 91 10000 0.35 322 22:52 06.04.2022
4359 Clouds 24 1009 91 9735 1 355 22:27 06.04.2022
4360 Clouds 24 1009 91 9735 1 355 21:45 06.04.2022
4361 Clouds 25 1008 92 3847 4.04 9 20:40 06.04.2022
4362 Clouds 25 1007 94 2432 5.3 14 19:54 06.04.2022
4363 Clouds 25 1006 95 1620 4.68 3 18:52 06.04.2022
4364 Clouds 25 1006 95 1620 4.68 3 18:32 06.04.2022
4365 Clouds 25 1006 95 2275 4.69 356 17:35 06.04.2022
4366 Rain 25 1007 95 1632 4.08 354 16:38 06.04.2022
4367 Rain 25 1007 96 2205 4.4 358 15:48 06.04.2022
4368 Rain 25 1008 97 777 3.8 5 15:21 06.04.2022
4369 Rain 25 1009 96 1477 3.53 62 13:25 06.04.2022
4370 Rain 25 1008 97 1753 4.81 55 12:27 06.04.2022
4371 Rain 25 1008 97 995 3.84 39 10:48 06.04.2022
4372 Rain 25 1007 96 5366 2.23 30 10:29 06.04.2022
4373 Rain 25 1007 96 5366 2.23 30 09:40 06.04.2022
4374 Rain 25 1007 96 5366 2.23 30 09:40 06.04.2022
4375 Rain 25 1006 95 5057 2.33 13 08:32 06.04.2022
4376 Rain 26 1006 91 6160 2.88 13 07:50 06.04.2022
4377 Clouds 27 1007 88 6530 3.88 7 03:54 06.04.2022
4378 Clouds 26 1009 95 1527 2.94 16 23:53 05.04.2022
4379 Clouds 25 1009 95 3438 3.06 12 22:57 05.04.2022
4380 Rain 25 1007 94 3896 3.26 3 21:23 05.04.2022
4381 Clouds 26 1007 93 4353 3.44 359 20:26 05.04.2022
4382 Clouds 25 1007 95 1540 2.45 22 19:42 05.04.2022
4383 Clouds 25 1007 95 1880 2.81 12 18:18 05.04.2022
4384 Clouds 25 1007 95 3829 2.87 11 16:54 05.04.2022
4385 Clouds 25 1008 94 4264 2.8 7 15:56 05.04.2022
4386 Clouds 25 1008 94 4264 2.8 7 15:34 05.04.2022
4387 Clouds 25 1009 94 4178 2.88 10 14:35 05.04.2022
4388 Rain 25 1009 93 2521 2.35 20 13:35 05.04.2022
4389 Rain 25 1009 95 1502 1.9 19 11:51 05.04.2022
4390 Rain 25 1009 95 1502 1.9 19 11:32 05.04.2022
4391 Clouds 25 1008 95 2666 1.68 27 09:59 05.04.2022
4392 Clouds 25 1008 95 2482 1.98 16 08:54 05.04.2022
4393 Clouds 25 1006 94 3465 2.03 343 06:58 05.04.2022
4394 Clouds 27 1009 88 5195 3.16 357 01:55 05.04.2022
4395 Rain 27 1010 88 9941 2.93 359 22:42 04.04.2022
4396 Clouds 27 1009 88 9035 2.94 1 22:24 04.04.2022
4397 Clouds 27 1008 89 10000 3.06 7 21:21 04.04.2022
4398 Clouds 27 1008 89 10000 3.06 7 20:49 04.04.2022
4399 Clouds 26 1008 88 10000 3.27 15 19:57 04.04.2022
4400 Clouds 26 1008 92 4673 2.97 23 19:26 04.04.2022
4401 Clouds 26 1008 92 4673 2.97 23 18:33 04.04.2022
4402 Rain 26 1009 93 1882 3 17 16:36 04.04.2022
4403 Rain 26 1009 93 1386 2.56 22 15:44 04.04.2022
4404 Rain 26 1010 93 1203 2.48 23 15:25 04.04.2022
4405 Rain 26 1010 93 1203 2.48 23 14:46 04.04.2022
4406 Rain 26 1010 94 1057 2.78 17 13:30 04.04.2022
4407 Rain 26 1010 92 3261 2.35 20 11:55 04.04.2022
4408 Clouds 26 1010 92 3504 2.62 12 11:29 04.04.2022
4409 Rain 27 1008 90 4526 3.38 17 08:54 04.04.2022
4410 Rain 29 1009 80 8656 3.68 26 04:19 04.04.2022
4411 Clouds 28 1011 80 10000 2.35 26 00:44 04.04.2022
4412 Clouds 27 1011 86 10000 2.85 24 22:43 03.04.2022
4413 Clouds 26 1011 88 10000 2.77 32 21:46 03.04.2022
4414 Clouds 26 1010 89 10000 2.2 42 20:55 03.04.2022
4415 Clouds 26 1009 88 10000 1.6 32 19:50 03.04.2022
4416 Clouds 26 1009 89 10000 1.5 34 18:32 03.04.2022
4417 Clouds 26 1009 89 10000 1.53 36 17:47 03.04.2022
4418 Clouds 26 1009 89 10000 1.37 36 16:57 03.04.2022
4419 Clouds 26 1009 89 10000 1.37 36 16:39 03.04.2022
4420 Clouds 26 1011 89 10000 1.19 30 14:48 03.04.2022
4421 Clouds 26 1011 88 10000 0.96 28 13:53 03.04.2022
4422 Clouds 26 1011 88 10000 1 62 12:42 03.04.2022
4423 Clouds 26 1010 88 10000 0.88 38 10:58 03.04.2022
4424 Clouds 26 1010 89 10000 1.31 13 09:38 03.04.2022
4425 Clouds 27 1009 88 9324 1.79 3 08:33 03.04.2022
4426 Clouds 29 1007 76 10000 2.64 3 05:38 03.04.2022
4427 Clouds 30 1010 70 10000 2.3 16 01:54 03.04.2022
4428 Clouds 27 1010 79 10000 0.8 60 23:21 02.04.2022
4429 Clouds 25 1010 83 10000 0.8 136 22:18 02.04.2022
4430 Clouds 25 1010 83 10000 0.8 136 21:46 02.04.2022
4431 Clouds 25 1009 84 10000 1.1 130 21:18 02.04.2022
4432 Clouds 25 1009 85 10000 1.38 125 19:53 02.04.2022
4433 Clouds 25 1008 85 10000 1.24 136 18:23 02.04.2022
4434 Clouds 25 1008 85 10000 1.24 136 18:23 02.04.2022
4435 Clouds 25 1008 85 10000 1.24 136 17:53 02.04.2022
4436 Clouds 25 1009 83 10000 0.98 128 16:27 02.04.2022
4437 Clouds 26 1010 82 10000 0.8 145 15:22 02.04.2022
4438 Clouds 26 1010 82 10000 0.8 145 14:49 02.04.2022
4439 Clouds 26 1010 85 10000 1.3 164 13:36 02.04.2022
4440 Rain 26 1010 85 10000 0.76 203 12:47 02.04.2022
4441 Clouds 26 1010 85 10000 0.97 259 11:31 02.04.2022
4442 Clouds 26 1009 86 10000 1.8 223 09:30 02.04.2022
4443 Clouds 27 1007 84 8208 1.59 346 06:51 02.04.2022
4444 Clouds 29 1008 76 10000 2.34 6 03:53 02.04.2022
4445 Clouds 27 1009 82 10000 1.05 115 23:58 01.04.2022
4446 Clouds 27 1009 82 10000 1.05 115 23:30 01.04.2022
4447 Clouds 24 1009 91 10000 1.95 179 21:43 01.04.2022
4448 Clouds 24 1009 92 10000 1.72 187 20:51 01.04.2022
4449 Clouds 24 1008 92 10000 1.94 190 20:28 01.04.2022
4450 Clouds 24 1008 90 10000 1.45 233 19:34 01.04.2022
4451 Clouds 24 1008 91 10000 2.75 257 18:50 01.04.2022
4452 Clouds 24 1007 91 10000 4.02 259 17:54 01.04.2022
4453 Clouds 24 1007 94 8074 4.75 277 16:53 01.04.2022
4454 Clouds 25 1008 96 1770 3.53 305 15:41 01.04.2022
4455 Clouds 25 1009 97 850 2.84 36 14:25 01.04.2022
4456 Clouds 25 1009 96 1020 3.07 36 13:34 01.04.2022
4457 Clouds 25 1009 96 1020 3.07 36 13:34 01.04.2022
4458 Clouds 25 1009 96 1042 4.71 31 12:32 01.04.2022
4459 Clouds 25 1009 96 1204 6.8 32 11:41 01.04.2022
4460 Rain 25 1008 97 1384 4.59 41 10:19 01.04.2022
4461 Rain 26 1007 93 3547 2.58 39 09:19 01.04.2022
4462 Rain 26 1005 90 4618 1.85 36 06:54 01.04.2022
4463 Rain 28 1006 85 9135 2.19 40 04:51 01.04.2022
4464 Rain 28 1006 85 9135 2.19 40 04:33 01.04.2022
4465 Clouds 30 1008 76 10000 1.57 46 01:57 01.04.2022
4466 Clouds 29 1008 79 10000 1.4 84 23:58 31.03.2022
4467 Clouds 26 1007 87 10000 1.39 141 21:53 31.03.2022
4468 Clouds 26 1007 87 10000 1.39 141 21:32 31.03.2022
4469 Clouds 26 1006 87 10000 1.21 162 20:29 31.03.2022
4470 Clouds 26 1006 87 10000 1.21 162 19:49 31.03.2022
4471 Clouds 26 1006 87 10000 1.17 185 18:44 31.03.2022
4472 Clouds 26 1006 87 10000 1.35 179 17:49 31.03.2022
4473 Rain 26 1006 87 10000 1.08 183 16:38 31.03.2022
4474 Clouds 26 1007 88 10000 1.02 175 15:43 31.03.2022
4475 Clouds 26 1008 87 10000 1.08 175 15:19 31.03.2022
4476 Clouds 26 1008 87 10000 1.08 175 14:36 31.03.2022
4477 Clouds 27 1009 86 10000 0.7 164 11:57 31.03.2022
4478 Clouds 27 1008 85 10000 0.47 176 11:20 31.03.2022
4479 Rain 27 1008 85 10000 0.19 306 09:45 31.03.2022
4480 Rain 28 1006 85 9772 0.23 303 07:59 31.03.2022
4481 Clouds 29 1006 81 8731 0.87 322 05:23 31.03.2022
4482 Clouds 29 1010 78 10000 0.54 43 23:43 30.03.2022
4483 Rain 28 1009 82 10000 0.3 53 22:32 30.03.2022
4484 Clouds 27 1009 85 10000 0.46 142 21:39 30.03.2022
4485 Clouds 26 1008 86 10000 0.62 161 20:53 30.03.2022
4486 Rain 26 1007 88 10000 0.91 193 19:59 30.03.2022
4487 Rain 26 1007 87 10000 0.8 211 18:59 30.03.2022
4488 Rain 26 1007 86 10000 0.69 226 18:18 30.03.2022
4489 Clouds 26 1007 86 10000 0.69 226 17:44 30.03.2022
4490 Clouds 26 1007 87 10000 0.5 233 16:54 30.03.2022
4491 Clouds 26 1007 87 10000 0.5 233 16:31 30.03.2022
4492 Clouds 27 1009 87 10000 0.67 185 14:56 30.03.2022
4493 Clouds 27 1009 85 10000 0.44 172 13:34 30.03.2022
4494 Clouds 27 1009 84 10000 0.29 207 12:41 30.03.2022
4495 Clouds 28 1009 84 10000 0.52 305 10:54 30.03.2022
4496 Clouds 28 1008 83 10000 0.42 310 09:58 30.03.2022
4497 Clouds 28 1007 82 10000 0.49 349 08:57 30.03.2022
4498 Rain 28 1007 82 10000 0.99 136 07:31 30.03.2022
4499 Clouds 30 1006 77 10000 0.52 347 05:40 30.03.2022
4500 Clouds 30 1008 73 10000 0.89 325 03:21 30.03.2022
4501 Clouds 29 1010 71 10000 0.79 125 23:32 29.03.2022
4502 Clouds 26 1010 85 10000 1.81 187 22:18 29.03.2022
4503 Clouds 26 1010 85 10000 1.81 187 21:40 29.03.2022
4504 Clouds 26 1009 86 10000 1.91 193 20:39 29.03.2022
4505 Clouds 26 1008 86 10000 1.42 209 19:35 29.03.2022
4506 Clouds 26 1008 86 10000 1.53 210 18:54 29.03.2022
4507 Clouds 26 1008 87 10000 1.58 216 18:18 29.03.2022
4508 Clouds 26 1008 87 10000 1.38 224 17:20 29.03.2022
4509 Clouds 26 1008 87 10000 1.38 224 16:54 29.03.2022
4510 Clouds 26 1008 87 10000 1.27 221 15:44 29.03.2022
4511 Clouds 27 1009 86 10000 1.13 223 14:43 29.03.2022
4512 Clouds 26 1010 86 10000 1.12 197 13:36 29.03.2022
4513 Clouds 27 1010 86 10000 0.94 193 12:39 29.03.2022
4514 Rain 27 1010 86 10000 1.32 265 11:24 29.03.2022
4515 Clouds 27 1009 85 9995 1.89 295 10:20 29.03.2022
4516 Clouds 28 1008 83 10000 2.48 303 08:52 29.03.2022
4517 Clouds 29 1006 78 10000 2.9 307 06:53 29.03.2022
4518 Clouds 30 1008 70 10000 2.55 321 02:52 29.03.2022
4519 Clouds 28 1010 81 10000 0.78 281 23:37 28.03.2022
4520 Clouds 27 1010 85 10000 0.74 266 22:57 28.03.2022
4521 Clouds 27 1010 85 10000 0.74 266 22:33 28.03.2022
4522 Clouds 26 1009 88 10000 1.12 264 21:43 28.03.2022
4523 Clouds 26 1008 88 10000 1.26 267 20:35 28.03.2022
4524 Clouds 26 1008 89 10000 1.49 286 19:48 28.03.2022
4525 Clouds 26 1008 89 10000 1.49 286 19:30 28.03.2022
4526 Clouds 26 1008 89 10000 1.6 279 18:44 28.03.2022
4527 Clouds 26 1008 90 10000 2.1 272 17:41 28.03.2022
4528 Clouds 26 1008 90 10000 2.48 277 16:48 28.03.2022
4529 Clouds 26 1010 89 10000 2.19 286 14:56 28.03.2022
4530 Clouds 26 1010 88 10000 1.85 290 14:23 28.03.2022
4531 Clouds 26 1011 91 10000 1.35 316 13:18 28.03.2022
4532 Rain 26 1011 91 10000 1.22 332 11:43 28.03.2022
4533 Rain 26 1009 91 10000 1.34 315 09:55 28.03.2022
4534 Rain 27 1008 90 10000 2.35 331 09:20 28.03.2022
4535 Rain 28 1007 87 8725 2.89 333 08:23 28.03.2022
4536 Rain 28 1007 85 8272 1.36 333 07:56 28.03.2022
4537 Rain 29 1007 80 9208 1.5 316 05:55 28.03.2022
4538 Clouds 28 1010 79 10000 0.24 124 23:53 27.03.2022
4539 Rain 25 1009 87 10000 1.5 187 22:25 27.03.2022
4540 Rain 25 1009 87 10000 1.5 187 21:42 27.03.2022
4541 Clouds 25 1009 88 10000 1.57 195 20:58 27.03.2022
4542 Clouds 25 1009 87 10000 1.17 213 20:18 27.03.2022
4543 Clouds 25 1009 87 10000 1.17 213 19:34 27.03.2022
4544 Clouds 25 1008 88 10000 1.27 214 18:29 27.03.2022
4545 Clouds 25 1008 88 10000 1.27 214 17:42 27.03.2022
4546 Clouds 25 1009 88 10000 1.3 205 17:23 27.03.2022
4547 Clouds 25 1010 88 10000 1.33 203 15:39 27.03.2022
4548 Clouds 26 1011 88 10000 1.4 211 13:56 27.03.2022
4549 Clouds 26 1011 88 10000 1.4 223 12:41 27.03.2022
4550 Clouds 26 1010 90 10000 1.46 261 11:21 27.03.2022
4551 Clouds 26 1009 90 10000 1.45 281 09:32 27.03.2022
4552 Rain 28 1008 81 10000 2.43 303 06:44 27.03.2022
4553 Clouds 27 1010 85 10000 1.56 301 01:41 27.03.2022
4554 Clouds 25 1011 90 10000 1.63 234 00:24 27.03.2022
4555 Clouds 25 1011 93 10000 1.39 238 22:43 26.03.2022
4556 Clouds 25 1011 94 10000 0.86 298 21:46 26.03.2022
4557 Clouds 24 1010 96 6654 0.66 130 21:25 26.03.2022
4558 Rain 24 1009 96 9948 1.23 328 19:29 26.03.2022
4559 Rain 25 1009 96 9151 1.43 251 17:54 26.03.2022
4560 Rain 25 1009 96 9151 1.43 251 17:33 26.03.2022
4561 Rain 25 1009 95 8496 0.76 240 16:27 26.03.2022
4562 Rain 25 1010 93 10000 0.96 218 15:20 26.03.2022
4563 Clouds 25 1011 91 10000 1.31 234 13:53 26.03.2022
4564 Rain 25 1011 92 7652 1.85 261 12:59 26.03.2022
4565 Clouds 25 1011 92 7919 2.18 258 11:41 26.03.2022
4566 Clouds 25 1011 92 7919 2.18 258 11:41 26.03.2022
4567 Clouds 25 1011 92 7919 2.18 258 11:41 26.03.2022
4568 Rain 25 1010 92 10000 2.36 277 10:28 26.03.2022
4569 Rain 26 1010 92 10000 2.02 285 08:35 26.03.2022
4570 Rain 26 1007 90 9532 0.96 303 05:54 26.03.2022
4571 Rain 28 1008 86 6453 1.94 350 04:23 26.03.2022
4572 Clouds 28 1011 83 9502 2.26 343 00:22 26.03.2022
4573 Rain 27 1010 85 10000 1.07 49 21:41 25.03.2022
4574 Rain 25 1010 87 10000 0.8 135 20:46 25.03.2022
4575 Clouds 25 1009 87 10000 0.82 152 19:36 25.03.2022
4576 Clouds 25 1009 85 10000 1.32 137 18:47 25.03.2022
4577 Clouds 25 1008 86 10000 1.4 138 17:47 25.03.2022
4578 Clouds 25 1008 86 10000 1.36 151 17:26 25.03.2022
4579 Clouds 25 1009 86 10000 1.31 159 16:18 25.03.2022
4580 Clouds 26 1010 87 10000 1.54 162 14:26 25.03.2022
4581 Clouds 26 1011 87 10000 1.53 167 12:48 25.03.2022
4582 Clouds 26 1010 90 9675 2.51 216 09:57 25.03.2022
4583 Clouds 26 1009 89 4347 1.81 228 09:27 25.03.2022
4584 Rain 27 1008 87 6733 1.29 253 07:53 25.03.2022
4585 Rain 28 1008 84 7126 1.37 284 07:26 25.03.2022
4586 Clouds 28 1007 82 9733 1.11 309 05:35 25.03.2022
4587 Clouds 30 1010 66 10000 1.38 14 00:42 25.03.2022
4588 Clouds 28 1011 72 10000 0.67 92 22:30 24.03.2022
4589 Clouds 27 1011 80 10000 0.88 142 21:35 24.03.2022
4590 Clouds 25 1009 86 10000 1.11 164 19:51 24.03.2022
4591 Clouds 25 1009 89 10000 1.26 137 18:58 24.03.2022
4592 Clouds 25 1008 90 10000 1.27 137 17:45 24.03.2022
4593 Clouds 25 1008 90 10000 1.07 136 16:54 24.03.2022
4594 Clouds 25 1009 90 10000 1.19 120 15:21 24.03.2022
4595 Clouds 25 1009 90 10000 1.19 120 14:42 24.03.2022
4596 Clouds 25 1010 90 10000 1.56 118 13:59 24.03.2022
4597 Clouds 25 1011 90 10000 1.17 128 12:42 24.03.2022
4598 Clouds 25 1011 91 10000 1.29 143 11:33 24.03.2022
4599 Rain 25 1011 92 10000 1.04 166 09:48 24.03.2022
4600 Clouds 25 1010 93 10000 0.62 83 08:40 24.03.2022
4601 Clouds 27 1008 85 7697 0.86 23 06:44 24.03.2022
4602 Rain 28 1010 80 10000 0.6 78 01:43 24.03.2022
4603 Clouds 27 1011 82 10000 0.83 39 22:37 23.03.2022
4604 Clouds 26 1010 86 10000 0.67 55 21:25 23.03.2022
4605 Clouds 26 1010 86 10000 0.67 55 21:25 23.03.2022
4606 Clouds 26 1010 86 10000 0.67 55 21:25 23.03.2022
4607 Clouds 26 1010 86 10000 0.67 55 20:47 23.03.2022
4608 Clouds 25 1009 86 10000 0.44 85 19:43 23.03.2022
4609 Clouds 25 1009 86 10000 0.44 85 19:43 23.03.2022
4610 Clouds 25 1008 88 10000 0.71 190 18:22 23.03.2022
4611 Clouds 25 1008 88 10000 0.71 190 17:36 23.03.2022
4612 Rain 25 1009 91 10000 1.17 242 16:18 23.03.2022
4613 Clouds 25 1010 91 10000 1.55 284 14:50 23.03.2022
4614 Rain 25 1011 92 10000 1.97 318 13:51 23.03.2022
4615 Clouds 26 1011 85 10000 0.67 92 11:51 23.03.2022
4616 Clouds 27 1009 83 10000 0.7 351 09:21 23.03.2022
4617 Clouds 29 1007 76 10000 1.74 351 06:40 23.03.2022
4618 Clouds 30 1008 69 10000 2.62 360 03:58 23.03.2022
4619 Clouds 29 1011 69 10000 1.66 13 00:29 23.03.2022
4620 Clouds 27 1010 84 10000 1.04 19 22:26 22.03.2022
4621 Clouds 26 1010 86 10000 0.27 1 21:29 22.03.2022
4622 Clouds 26 1010 86 10000 0.27 1 20:39 22.03.2022
4623 Clouds 25 1009 86 10000 0.11 64 19:31 22.03.2022
4624 Clouds 26 1008 85 10000 0.09 321 18:57 22.03.2022
4625 Clouds 26 1008 85 10000 0.16 327 17:47 22.03.2022
4626 Clouds 26 1008 85 10000 0.17 246 17:23 22.03.2022
4627 Clouds 26 1009 84 10000 0.44 222 15:52 22.03.2022
4628 Clouds 26 1009 85 10000 0.43 220 15:22 22.03.2022
4629 Clouds 26 1009 85 10000 0.43 220 14:46 22.03.2022
4630 Clouds 26 1010 85 10000 0.37 192 14:24 22.03.2022
4631 Clouds 26 1010 84 10000 0.4 102 12:41 22.03.2022
4632 Clouds 27 1010 84 10000 0.26 54 11:26 22.03.2022
4633 Clouds 27 1009 84 10000 0.06 84 09:55 22.03.2022
4634 Clouds 28 1007 83 10000 1.06 310 07:48 22.03.2022
4635 Clouds 29 1007 75 10000 2.04 358 05:19 22.03.2022
4636 Clouds 30 1008 68 10000 2.96 7 02:54 22.03.2022
4637 Clouds 29 1011 70 10000 1.08 4 23:21 21.03.2022
4638 Clouds 27 1011 75 10000 0.57 358 21:51 21.03.2022
4639 Clouds 27 1011 75 10000 0.57 358 21:51 21.03.2022
4640 Clouds 26 1011 80 10000 0.24 260 20:45 21.03.2022
4641 Clouds 25 1010 80 10000 0.37 228 20:26 21.03.2022
4642 Clouds 25 1010 80 10000 0.37 228 19:53 21.03.2022
4643 Clouds 25 1010 79 10000 0.56 165 19:23 21.03.2022
4644 Clouds 25 1009 79 10000 0.47 171 17:43 21.03.2022
4645 Clouds 26 1009 79 10000 0.35 194 16:59 21.03.2022
4646 Clouds 26 1009 79 10000 0.35 194 16:36 21.03.2022
4647 Clouds 26 1009 79 10000 0.25 199 15:45 21.03.2022
4648 Clouds 26 1010 79 10000 0.37 163 14:47 21.03.2022
4649 Clouds 26 1010 78 10000 0.49 106 13:27 21.03.2022
4650 Clouds 26 1010 79 10000 0.92 131 12:22 21.03.2022
4651 Clouds 26 1010 79 10000 0.92 131 11:39 21.03.2022
4652 Clouds 27 1009 77 10000 0.4 88 09:54 21.03.2022
4653 Clouds 28 1008 74 10000 1.15 358 07:54 21.03.2022
4654 Clouds 30 1007 64 10000 1.75 20 06:31 21.03.2022
4655 Clouds 30 1010 72 10000 1.43 17 02:24 21.03.2022
4656 Clouds 28 1012 80 10000 1.82 30 23:26 20.03.2022
4657 Clouds 28 1012 80 10000 1.82 30 22:36 20.03.2022
4658 Rain 27 1012 84 10000 1.36 37 21:44 20.03.2022
4659 Rain 26 1011 86 7586 1.31 37 20:58 20.03.2022
4660 Clouds 26 1011 86 7586 1.31 37 20:39 20.03.2022
4661 Clouds 26 1010 88 10000 1.47 21 19:55 20.03.2022
4662 Clouds 26 1010 89 10000 1.74 16 19:24 20.03.2022
4663 Rain 26 1010 89 10000 2.04 13 17:49 20.03.2022
4664 Rain 26 1009 89 10000 2.03 9 17:27 20.03.2022
4665 Clouds 26 1009 89 10000 2.03 9 16:38 20.03.2022
4666 Clouds 26 1010 87 10000 1.25 6 14:53 20.03.2022
4667 Clouds 26 1011 86 10000 1.07 16 13:39 20.03.2022
4668 Clouds 27 1011 83 10000 0.91 52 12:20 20.03.2022
4669 Clouds 27 1010 81 10000 0.86 25 10:28 20.03.2022
4670 Clouds 29 1008 75 10000 1.76 12 08:26 20.03.2022
4671 Clouds 29 1007 70 10000 2.19 12 06:39 20.03.2022
4672 Clouds 31 1008 64 10000 2.91 8 03:25 20.03.2022
4673 Clouds 31 1010 66 10000 2.02 21 00:54 20.03.2022
4674 Clouds 31 1010 66 10000 2.02 21 00:54 20.03.2022
4675 Clouds 31 1010 66 10000 2.02 21 00:34 20.03.2022
4676 Clouds 29 1011 75 10000 1.62 33 22:39 19.03.2022
4677 Clouds 26 1010 86 10000 0.77 88 21:26 19.03.2022
4678 Clouds 26 1009 86 10000 0.78 83 19:39 19.03.2022
4679 Clouds 26 1009 86 10000 0.76 90 18:44 19.03.2022
4680 Clouds 26 1008 87 10000 0.66 117 17:52 19.03.2022
4681 Clouds 26 1008 86 10000 0.56 114 16:57 19.03.2022
4682 Clouds 26 1009 85 10000 0.52 115 15:29 19.03.2022
4683 Clouds 26 1010 85 10000 0.55 86 13:49 19.03.2022
4684 Clouds 26 1010 85 10000 0.73 68 12:56 19.03.2022
4685 Clouds 26 1010 85 10000 0.73 68 12:36 19.03.2022
4686 Clouds 26 1010 84 10000 0.92 69 11:45 19.03.2022
4687 Clouds 27 1009 83 10000 1.32 35 09:22 19.03.2022
4688 Clouds 30 1007 69 10000 2.12 4 05:44 19.03.2022
4689 Clouds 30 1008 68 10000 2.09 22 02:33 19.03.2022
4690 Rain 29 1009 71 10000 3.07 22 23:52 18.03.2022
4691 Rain 29 1010 74 10000 2.76 28 22:58 18.03.2022
4692 Clouds 28 1009 79 10000 1.77 34 22:21 18.03.2022
4693 Clouds 25 1008 87 10000 0.78 30 20:26 18.03.2022
4694 Clouds 26 1007 87 10000 0.26 53 19:24 18.03.2022
4695 Clouds 25 1008 86 10000 0.4 16 18:43 18.03.2022
4696 Clouds 26 1007 84 10000 0.23 339 16:54 18.03.2022
4697 Clouds 26 1007 84 10000 0.18 284 16:23 18.03.2022
4698 Clouds 26 1008 84 10000 0.22 265 14:27 18.03.2022
4699 Clouds 26 1008 84 10000 0.22 265 13:39 18.03.2022
4700 Clouds 26 1009 83 10000 0.41 357 11:35 18.03.2022
4701 Clouds 27 1008 83 10000 1.01 9 10:21 18.03.2022
4702 Clouds 27 1008 82 10000 1.47 16 08:46 18.03.2022
4703 Clouds 30 1006 67 10000 2.43 17 06:45 18.03.2022
4704 Clouds 31 1006 61 10000 2.55 18 04:39 18.03.2022
4705 Clouds 30 1009 63 10000 2.29 41 00:55 18.03.2022
4706 Clouds 30 1010 63 10000 2.37 49 23:52 17.03.2022
4707 Clouds 29 1010 69 10000 2.18 59 22:44 17.03.2022
4708 Clouds 28 1010 78 10000 1.84 72 22:18 17.03.2022
4709 Clouds 26 1009 85 10000 1.55 91 21:27 17.03.2022
4710 Clouds 26 1009 85 10000 1.55 91 20:53 17.03.2022
4711 Clouds 26 1009 86 10000 1.37 101 20:19 17.03.2022
4712 Clouds 26 1009 86 10000 1.37 101 19:37 17.03.2022
4713 Clouds 26 1008 85 10000 1.43 116 18:51 17.03.2022
4714 Clouds 25 1008 84 10000 1.71 114 17:28 17.03.2022
4715 Clouds 25 1009 84 10000 1.91 119 16:19 17.03.2022
4716 Clouds 25 1009 84 10000 1.91 119 16:19 17.03.2022
4717 Clouds 25 1009 84 10000 1.91 119 15:42 17.03.2022
4718 Clouds 26 1009 85 10000 1.79 125 14:58 17.03.2022
4719 Clouds 26 1010 86 10000 1.57 153 13:28 17.03.2022
4720 Clouds 26 1010 87 10000 1.55 158 12:38 17.03.2022
4721 Clouds 26 1010 87 10000 1.57 152 11:31 17.03.2022
4722 Clouds 26 1010 86 10000 1.17 149 10:38 17.03.2022
4723 Clouds 27 1009 84 10000 0.79 70 08:42 17.03.2022
4724 Clouds 28 1008 79 10000 1.09 39 08:18 17.03.2022
4725 Clouds 30 1007 67 10000 1.91 27 05:49 17.03.2022
4726 Clouds 31 1007 63 10000 2.6 27 03:46 17.03.2022
4727 Clouds 30 1011 67 10000 1.41 57 00:21 17.03.2022
4728 Clouds 28 1011 74 10000 1.18 77 22:52 16.03.2022
4729 Clouds 28 1011 74 10000 1.18 77 22:33 16.03.2022
4730 Clouds 27 1011 80 10000 1.02 112 21:52 16.03.2022
4731 Clouds 25 1010 84 10000 1.21 127 20:28 16.03.2022
4732 Clouds 25 1010 84 10000 0.82 102 19:22 16.03.2022
4733 Clouds 25 1010 79 10000 1.33 152 18:40 16.03.2022
4734 Clouds 25 1010 80 10000 1.13 177 17:43 16.03.2022
4735 Clouds 25 1009 80 10000 1.35 192 17:25 16.03.2022
4736 Clouds 25 1010 79 10000 1.44 194 15:56 16.03.2022
4737 Clouds 25 1011 80 10000 1.27 193 14:28 16.03.2022
4738 Clouds 25 1011 80 10000 1.27 193 13:32 16.03.2022
4739 Clouds 26 1011 78 10000 0.87 179 11:57 16.03.2022
4740 Clouds 26 1011 78 10000 0.83 173 11:21 16.03.2022
4741 Clouds 26 1010 78 10000 0.55 153 10:23 16.03.2022
4742 Clouds 26 1010 78 10000 0.06 151 08:53 16.03.2022
4743 Clouds 29 1008 67 10000 1.35 25 06:27 16.03.2022
4744 Clouds 27 1010 82 10000 1.71 64 01:45 16.03.2022
4745 Clouds 26 1011 90 10000 2.6 67 22:38 15.03.2022
4746 Clouds 26 1011 92 10000 2.89 59 21:55 15.03.2022
4747 Clouds 26 1009 88 10000 1.46 69 20:28 15.03.2022
4748 Clouds 26 1009 88 10000 1.26 42 18:57 15.03.2022
4749 Clouds 25 1008 91 10000 1.99 52 16:57 15.03.2022
4750 Clouds 25 1008 91 10000 1.99 52 16:32 15.03.2022
4751 Clouds 26 1009 88 10000 1.83 43 14:58 15.03.2022
4752 Clouds 26 1009 88 10000 1.83 43 14:39 15.03.2022
4753 Rain 26 1010 89 10000 1.9 35 13:38 15.03.2022
4754 Clouds 26 1010 88 10000 1.73 25 12:24 15.03.2022
4755 Rain 26 1010 88 10000 1.73 25 11:31 15.03.2022
4756 Rain 26 1009 87 10000 1.44 33 09:40 15.03.2022
4757 Clouds 26 1009 87 10000 1.44 40 08:42 15.03.2022
4758 Clouds 27 1008 85 8015 1.46 35 07:50 15.03.2022
4759 Rain 28 1007 81 8988 1.39 30 06:54 15.03.2022
4760 Clouds 30 1008 72 10000 2.22 34 02:59 15.03.2022
4761 Clouds 29 1010 73 10000 1.41 51 23:39 14.03.2022
4762 Clouds 28 1010 78 10000 1.01 79 23:21 14.03.2022
4763 Clouds 27 1010 83 10000 0.91 120 22:19 14.03.2022
4764 Clouds 25 1009 87 10000 1.13 148 21:22 14.03.2022
4765 Clouds 25 1009 87 10000 1.13 148 20:35 14.03.2022
4766 Clouds 25 1009 87 10000 1.02 165 19:59 14.03.2022
4767 Clouds 25 1008 88 10000 1.4 150 18:37 14.03.2022
4768 Rain 25 1008 88 10000 1.32 149 17:44 14.03.2022
4769 Rain 25 1008 88 10000 1.26 149 16:57 14.03.2022
4770 Clouds 26 1008 88 10000 1.27 147 15:34 14.03.2022
4771 Clouds 26 1009 87 10000 0.91 144 14:33 14.03.2022
4772 Clouds 26 1010 87 10000 0.74 92 11:53 14.03.2022
4773 Clouds 26 1010 87 10000 0.87 96 10:35 14.03.2022
4774 Clouds 27 1009 86 10000 0.86 85 09:39 14.03.2022
4775 Clouds 27 1008 85 10000 1.04 36 09:20 14.03.2022
4776 Clouds 27 1008 85 10000 1.04 36 08:49 14.03.2022
4777 Clouds 29 1007 78 10000 1.18 360 07:21 14.03.2022
4778 Clouds 30 1007 72 10000 2.26 359 04:27 14.03.2022
4779 Clouds 31 1009 65 10000 1.93 16 01:52 14.03.2022
4780 Clouds 30 1010 65 10000 1.75 32 00:38 14.03.2022
4781 Clouds 27 1011 79 10000 0.89 96 21:56 13.03.2022
4782 Clouds 25 1010 84 10000 1.06 120 21:27 13.03.2022
4783 Clouds 25 1010 84 10000 1.06 120 20:49 13.03.2022
4784 Clouds 25 1010 85 10000 1.21 135 20:26 13.03.2022
4785 Clouds 25 1010 85 10000 1.21 135 19:42 13.03.2022
4786 Clouds 25 1009 85 10000 1.06 133 19:23 13.03.2022
4787 Clouds 25 1009 85 10000 1.06 133 18:49 13.03.2022
4788 Clouds 25 1009 86 10000 0.75 130 18:26 13.03.2022
4789 Clouds 25 1009 86 10000 0.53 111 17:39 13.03.2022
4790 Clouds 25 1009 86 10000 0.42 121 16:48 13.03.2022
4791 Clouds 25 1009 88 10000 0.46 129 16:27 13.03.2022
4792 Clouds 25 1009 88 10000 0.46 129 15:43 13.03.2022
4793 Clouds 25 1010 89 10000 0.75 142 14:49 13.03.2022
4794 Clouds 26 1011 88 10000 0.8 117 13:29 13.03.2022
4795 Clouds 26 1011 87 10000 0.88 102 12:25 13.03.2022
4796 Clouds 26 1011 87 10000 0.88 102 11:44 13.03.2022
4797 Clouds 26 1011 86 10000 0.68 87 10:50 13.03.2022
4798 Clouds 26 1010 85 10000 0.34 86 10:29 13.03.2022
4799 Clouds 26 1010 85 10000 0.34 86 09:42 13.03.2022
4800 Rain 27 1009 85 10000 0.37 5 08:50 13.03.2022
4801 Rain 27 1009 85 10000 0.37 5 08:30 13.03.2022
4802 Rain 28 1008 78 10000 0.63 343 07:19 13.03.2022
4803 Rain 27 1008 82 10000 1.69 326 04:58 13.03.2022
4804 Clouds 30 1010 69 10000 1.2 19 01:47 13.03.2022
4805 Clouds 27 1012 83 10000 0.66 10 23:26 12.03.2022
4806 Clouds 26 1012 86 10000 0.81 1 21:32 12.03.2022
4807 Clouds 25 1010 90 10000 0.93 347 20:19 12.03.2022
4808 Clouds 25 1010 90 10000 0.93 347 19:44 12.03.2022
4809 Clouds 25 1010 89 10000 1.13 349 18:38 12.03.2022
4810 Clouds 25 1009 90 10000 0.18 300 17:48 12.03.2022
4811 Clouds 25 1010 90 10000 0.34 188 16:28 12.03.2022
4812 Clouds 25 1010 90 10000 0.34 188 15:40 12.03.2022
4813 Clouds 25 1010 91 10000 0.69 150 15:18 12.03.2022
4814 Clouds 25 1011 92 10000 1.56 122 13:53 12.03.2022
4815 Clouds 25 1012 91 10000 1.95 139 12:27 12.03.2022
4816 Rain 25 1012 91 10000 1.95 139 11:52 12.03.2022
4817 Clouds 25 1011 92 10000 2.47 150 11:20 12.03.2022
4818 Clouds 25 1011 91 10000 2.5 157 09:59 12.03.2022
4819 Rain 25 1011 91 10000 2.5 157 09:40 12.03.2022
4820 Rain 26 1009 88 7658 1.18 207 07:51 12.03.2022
4821 Rain 28 1008 82 9981 0.9 348 05:44 12.03.2022
4822 Clouds 28 1011 78 10000 1.06 10 00:24 12.03.2022
4823 Clouds 28 1011 78 10000 1.06 10 23:37 11.03.2022
4824 Clouds 26 1010 86 10000 0.27 18 21:48 11.03.2022
4825 Clouds 26 1009 87 10000 0.34 57 20:58 11.03.2022
4826 Clouds 26 1009 87 10000 0.34 57 20:37 11.03.2022
4827 Clouds 25 1009 88 10000 0.48 69 19:54 11.03.2022
4828 Clouds 25 1008 88 10000 0.21 73 19:27 11.03.2022
4829 Clouds 25 1008 90 10000 1.56 194 17:37 11.03.2022
4830 Clouds 25 1008 92 10000 1.73 194 17:18 11.03.2022
4831 Clouds 25 1009 90 10000 1.66 181 15:57 11.03.2022
4832 Rain 26 1010 90 9274 1.68 211 14:22 11.03.2022
4833 Clouds 26 1010 87 10000 1.49 191 12:53 11.03.2022
4834 Clouds 26 1010 89 10000 1.9 207 12:22 11.03.2022
4835 Clouds 26 1010 89 10000 1.9 207 11:56 11.03.2022
4836 Clouds 26 1010 88 7421 2.01 211 10:18 11.03.2022
4837 Rain 27 1009 86 6824 1.09 238 08:57 11.03.2022
4838 Rain 27 1008 84 6438 0.59 292 08:24 11.03.2022
4839 Rain 27 1008 84 6438 0.59 292 07:46 11.03.2022
4840 Rain 28 1007 81 10000 1.46 319 05:49 11.03.2022
4841 Clouds 29 1007 78 10000 1.69 346 03:49 11.03.2022
4842 Clouds 30 1010 68 10000 0.92 32 23:46 10.03.2022
4843 Clouds 29 1010 76 10000 0.94 27 22:31 10.03.2022
4844 Clouds 27 1010 81 10000 0.37 31 21:47 10.03.2022
4845 Clouds 26 1009 85 10000 0.31 178 21:19 10.03.2022
4846 Clouds 26 1009 86 10000 0.34 210 19:45 10.03.2022
4847 Clouds 26 1009 86 10000 0.34 258 18:53 10.03.2022
4848 Clouds 26 1008 86 10000 0.26 133 17:28 10.03.2022
4849 Clouds 26 1009 86 10000 0.26 132 15:55 10.03.2022
4850 Clouds 26 1009 86 10000 0.35 153 14:48 10.03.2022
4851 Clouds 26 1011 85 10000 0.49 147 13:21 10.03.2022
4852 Clouds 27 1011 85 10000 0.48 119 11:57 10.03.2022
4853 Clouds 27 1010 85 10000 0.37 116 10:53 10.03.2022
4854 Rain 27 1009 84 10000 0.57 38 09:18 10.03.2022
4855 Rain 28 1008 82 10000 1.05 8 07:33 10.03.2022
4856 Clouds 30 1008 72 10000 2.39 10 04:18 10.03.2022
4857 Clouds 30 1009 72 10000 2.34 15 01:40 10.03.2022
4858 Clouds 29 1011 75 10000 1.59 33 22:46 09.03.2022
4859 Clouds 28 1011 81 10000 1.09 44 21:49 09.03.2022
4860 Clouds 26 1010 85 10000 0.79 68 21:24 09.03.2022
4861 Clouds 26 1010 86 10000 0.64 78 19:42 09.03.2022
4862 Clouds 26 1009 86 10000 0.57 87 18:25 09.03.2022
4863 Clouds 26 1009 87 10000 0.73 73 17:26 09.03.2022
4864 Clouds 26 1009 87 10000 0.84 73 16:24 09.03.2022
4865 Clouds 26 1010 87 10000 0.9 87 14:32 09.03.2022
4866 Clouds 26 1010 87 10000 0.97 81 13:52 09.03.2022
4867 Clouds 26 1011 87 10000 1.03 76 12:36 09.03.2022
4868 Clouds 26 1011 87 10000 0.72 61 11:48 09.03.2022
4869 Clouds 26 1011 88 10000 0.6 63 11:18 09.03.2022
4870 Clouds 27 1010 88 10000 0.69 52 09:41 09.03.2022
4871 Clouds 27 1010 87 10000 0.87 21 08:47 09.03.2022
4872 Clouds 29 1008 75 10000 1.78 359 06:27 09.03.2022
4873 Rain 29 1010 76 10000 2 30 01:53 09.03.2022
4874 Rain 29 1011 74 10000 2.12 35 00:22 09.03.2022
4875 Clouds 28 1011 79 10000 1.62 44 22:46 08.03.2022
4876 Clouds 27 1010 83 10000 1 64 21:51 08.03.2022
4877 Clouds 26 1010 86 10000 1.1 91 21:21 08.03.2022
4878 Clouds 26 1009 87 10000 0.84 114 20:21 08.03.2022
4879 Clouds 26 1009 86 10000 0.56 100 19:21 08.03.2022
4880 Clouds 26 1008 85 10000 0.25 100 18:22 08.03.2022
4881 Clouds 26 1008 85 10000 0.3 178 16:42 08.03.2022
4882 Clouds 27 1009 86 10000 0.71 117 14:55 08.03.2022
4883 Rain 27 1010 86 10000 0.7 127 13:39 08.03.2022
4884 Clouds 27 1010 86 10000 0.69 134 12:20 08.03.2022
4885 Clouds 27 1010 86 10000 0.69 134 11:42 08.03.2022
4886 Clouds 27 1009 87 10000 1.04 138 10:28 08.03.2022
4887 Rain 27 1008 86 10000 1.15 132 08:56 08.03.2022
4888 Rain 28 1007 82 7809 1.09 63 05:51 08.03.2022
4889 Clouds 31 1008 64 10000 2.18 33 01:53 08.03.2022
4890 Clouds 29 1010 66 10000 0.82 100 22:41 07.03.2022
4891 Clouds 28 1010 73 10000 0.8 133 21:36 07.03.2022
4892 Clouds 26 1009 79 10000 1.16 168 20:55 07.03.2022
4893 Clouds 26 1008 79 10000 1.23 180 20:29 07.03.2022
4894 Clouds 26 1008 79 10000 1.23 180 19:48 07.03.2022
4895 Clouds 26 1008 81 10000 1.28 174 18:48 07.03.2022
4896 Clouds 26 1008 80 10000 1.25 164 18:25 07.03.2022
4897 Clouds 26 1008 80 10000 1.29 161 16:56 07.03.2022
4898 Clouds 26 1008 80 10000 1.29 161 16:34 07.03.2022
4899 Clouds 26 1008 79 10000 1.73 161 14:40 07.03.2022
4900 Clouds 26 1010 78 10000 1.57 168 12:33 07.03.2022
4901 Clouds 27 1010 77 10000 0.68 145 10:45 07.03.2022
4902 Clouds 27 1009 75 10000 0.42 107 10:24 07.03.2022
4903 Clouds 29 1007 68 10000 1.78 49 07:24 07.03.2022
4904 Clouds 30 1010 65 10000 0.81 52 00:24 07.03.2022
4905 Clouds 30 1010 65 10000 0.81 52 23:58 06.03.2022
4906 Clouds 29 1011 70 10000 0.61 109 22:58 06.03.2022
4907 Clouds 28 1010 78 10000 1.12 135 22:24 06.03.2022
4908 Clouds 26 1009 83 10000 1.51 154 20:56 06.03.2022
4909 Clear 26 1009 84 10000 1.53 156 20:28 06.03.2022
4910 Clouds 26 1008 84 10000 1.36 152 19:29 06.03.2022
4911 Clouds 26 1008 84 10000 1.5 163 18:25 06.03.2022
4912 Clouds 26 1008 84 10000 1.5 164 17:21 06.03.2022
4913 Clouds 26 1008 84 10000 1.5 164 16:43 06.03.2022
4914 Clouds 26 1008 84 10000 1.65 158 16:18 06.03.2022
4915 Clouds 26 1009 84 10000 1.83 145 14:57 06.03.2022
4916 Clouds 26 1009 84 10000 1.83 145 14:33 06.03.2022
4917 Clouds 26 1010 84 10000 1.62 142 13:30 06.03.2022
4918 Clouds 27 1010 84 10000 1.26 165 12:35 06.03.2022
4919 Clouds 27 1010 82 10000 0.69 142 11:18 06.03.2022
4920 Clouds 27 1009 81 10000 0.4 132 10:27 06.03.2022
4921 Clouds 28 1009 80 10000 0.73 52 08:30 06.03.2022
4922 Clouds 28 1009 80 10000 0.73 52 08:30 06.03.2022
4923 Clouds 29 1008 77 10000 1.26 43 07:45 06.03.2022
4924 Clouds 30 1006 71 10000 1.79 41 06:19 06.03.2022
4925 Clouds 31 1009 66 10000 2.01 54 00:53 06.03.2022
4926 Clouds 31 1009 66 10000 2.01 54 00:31 06.03.2022
4927 Clouds 29 1011 72 10000 1.37 95 23:23 05.03.2022
4928 Clouds 29 1011 72 10000 1.37 95 22:53 05.03.2022
4929 Clouds 28 1010 78 10000 1.33 120 21:56 05.03.2022
4930 Clouds 26 1010 83 10000 1.47 142 21:23 05.03.2022
4931 Clouds 26 1009 84 10000 1.41 154 19:44 05.03.2022
4932 Clouds 26 1009 85 10000 1.48 162 18:54 05.03.2022
4933 Clouds 26 1008 86 10000 1.51 168 18:27 05.03.2022
4934 Clouds 26 1008 87 10000 1.25 169 16:34 05.03.2022
4935 Clouds 26 1009 87 10000 1.24 165 15:31 05.03.2022
4936 Clouds 26 1009 87 10000 0.93 162 14:47 05.03.2022
4937 Clouds 26 1010 86 10000 0.49 162 14:29 05.03.2022
4938 Clouds 27 1011 86 10000 0.3 130 13:21 05.03.2022
4939 Clouds 27 1011 86 10000 0.38 118 11:48 05.03.2022
4940 Clouds 27 1010 86 10000 0.33 79 11:18 05.03.2022
4941 Clouds 27 1010 85 10000 0.46 49 10:18 05.03.2022
4942 Clouds 27 1009 84 10000 0.8 38 08:59 05.03.2022
4943 Clouds 29 1008 78 10000 1.3 22 07:38 05.03.2022
4944 Clouds 30 1007 68 10000 2.28 10 05:43 05.03.2022
4945 Clouds 31 1009 68 10000 2.56 36 02:27 05.03.2022
4946 Clouds 30 1011 71 10000 2.04 41 23:37 04.03.2022
4947 Clouds 29 1011 77 10000 1.53 51 22:42 04.03.2022
4948 Clouds 28 1010 83 10000 1.48 63 21:48 04.03.2022
4949 Clouds 27 1010 87 10000 1.39 63 20:52 04.03.2022
4950 Clouds 26 1009 88 10000 1.3 56 20:22 04.03.2022
4951 Clouds 26 1009 88 10000 1.3 56 19:35 04.03.2022
4952 Clouds 26 1009 88 10000 1.08 62 18:43 04.03.2022
4953 Clouds 26 1009 86 10000 1.1 55 17:31 04.03.2022
4954 Clouds 26 1009 86 10000 1.28 42 16:46 04.03.2022
4955 Clouds 26 1010 86 10000 1.41 36 15:29 04.03.2022
4956 Clouds 26 1011 85 10000 0.76 63 14:19 04.03.2022
4957 Clouds 26 1011 85 10000 0.64 98 13:26 04.03.2022
4958 Clouds 26 1011 85 10000 0.72 110 11:41 04.03.2022
4959 Clouds 27 1011 84 10000 0.61 99 10:42 04.03.2022
4960 Clouds 27 1010 85 10000 0.56 79 09:40 04.03.2022
4961 Clouds 27 1010 84 10000 0.55 28 08:36 04.03.2022
4962 Clouds 28 1008 78 10000 0.87 19 07:23 04.03.2022
4963 Clouds 29 1009 76 10000 2.02 14 03:50 04.03.2022
4964 Clouds 29 1011 79 10000 1.84 11 00:24 04.03.2022
4965 Clouds 28 1011 84 10000 1.58 25 22:21 03.03.2022
4966 Clouds 28 1011 84 10000 1.58 25 21:40 03.03.2022
4967 Clouds 27 1010 87 10000 1.37 34 21:18 03.03.2022
4968 Clouds 26 1010 88 10000 1.37 36 19:48 03.03.2022
4969 Clouds 26 1009 88 10000 1.28 40 18:51 03.03.2022
4970 Clouds 26 1009 87 10000 1.01 44 18:22 03.03.2022
4971 Clouds 26 1009 87 10000 1.05 52 17:27 03.03.2022
4972 Rain 26 1009 87 10000 1.02 49 15:48 03.03.2022
4973 Clouds 26 1010 87 10000 0.99 44 14:59 03.03.2022
4974 Clouds 26 1010 87 10000 0.99 44 14:33 03.03.2022
4975 Rain 26 1012 86 10000 0.98 25 13:18 03.03.2022
4976 Rain 26 1012 86 10000 0.94 359 11:45 03.03.2022
4977 Rain 26 1011 86 10000 0.77 3 10:40 03.03.2022
4978 Clouds 26 1010 86 10000 0.89 359 08:45 03.03.2022
4979 Rain 28 1009 82 8520 1.83 337 07:25 03.03.2022
4980 Clouds 28 1008 81 7885 1.68 323 06:33 03.03.2022
4981 Clouds 29 1011 75 10000 1.75 353 01:21 03.03.2022
4982 Clouds 27 1011 85 10000 0.17 4 23:29 02.03.2022
4983 Clouds 27 1011 85 10000 0.17 4 22:49 02.03.2022
4984 Clouds 25 1011 90 10000 0.09 349 21:25 02.03.2022
4985 Clouds 25 1011 90 10000 0.09 349 20:40 02.03.2022
4986 Clouds 25 1010 90 10000 0.45 321 19:56 02.03.2022
4987 Clouds 25 1010 90 10000 0.45 321 19:56 02.03.2022
4988 Clouds 25 1010 90 10000 0.45 321 19:33 02.03.2022
4989 Clouds 25 1010 90 10000 1 274 18:44 02.03.2022
4990 Clouds 25 1009 91 10000 1.03 268 17:50 02.03.2022
4991 Clouds 25 1009 92 10000 1.19 278 16:59 02.03.2022
4992 Clouds 25 1009 92 10000 1.19 278 16:59 02.03.2022
4993 Clouds 25 1009 92 10000 1.19 278 16:41 02.03.2022
4994 Rain 25 1010 94 10000 1.68 326 14:42 02.03.2022
4995 Clouds 25 1012 93 10000 1.78 10 13:24 02.03.2022
4996 Clouds 26 1011 92 10000 1.74 358 12:41 02.03.2022
4997 Clouds 26 1011 92 10000 1.58 8 11:39 02.03.2022
4998 Clouds 26 1011 91 10000 1.76 11 11:18 02.03.2022
4999 Rain 26 1010 88 10000 1.91 2 09:41 02.03.2022
5000 Rain 27 1009 86 10000 1.41 342 08:51 02.03.2022
5001 Rain 29 1007 80 10000 1.56 340 07:25 02.03.2022
5002 Clouds 29 1007 78 10000 1.37 334 05:44 02.03.2022
5003 Rain 30 1010 68 10000 1.33 22 00:57 02.03.2022
5004 Clouds 29 1010 72 10000 0.99 40 23:45 01.03.2022
5005 Clouds 28 1011 77 10000 0.78 85 22:42 01.03.2022
5006 Clouds 27 1010 81 10000 0.75 124 21:56 01.03.2022
5007 Clouds 26 1010 83 10000 0.74 147 20:56 01.03.2022
5008 Clouds 26 1009 83 10000 0.59 159 20:24 01.03.2022
5009 Clouds 26 1009 83 10000 0.51 166 19:21 01.03.2022
5010 Clouds 25 1009 83 10000 0.83 181 18:32 01.03.2022
5011 Clouds 25 1008 84 10000 0.92 179 17:55 01.03.2022
5012 Clouds 25 1008 85 10000 0.95 200 16:54 01.03.2022
5013 Clouds 25 1009 85 10000 0.79 197 15:51 01.03.2022
5014 Clouds 26 1009 85 10000 0.82 202 14:55 01.03.2022
5015 Clouds 26 1009 85 10000 0.82 202 14:34 01.03.2022
5016 Clouds 26 1010 85 10000 1.12 227 13:27 01.03.2022
5017 Clouds 26 1011 85 10000 1.07 225 12:38 01.03.2022
5018 Clouds 26 1010 86 10000 0.75 214 11:58 01.03.2022
5019 Clouds 26 1009 86 10000 1.15 254 10:26 01.03.2022
5020 Clouds 26 1009 85 10000 1.53 272 08:36 01.03.2022
5021 Clouds 27 1008 82 10000 1.57 291 07:35 01.03.2022
5022 Clouds 27 1009 76 10000 0.73 264 03:29 01.03.2022
5023 Clouds 27 1010 78 10000 0.21 177 00:58 01.03.2022
5024 Clouds 27 1011 80 10000 0.25 336 23:47 28.02.2022
5025 Clouds 27 1011 80 10000 0.25 358 22:50 28.02.2022
5026 Rain 26 1010 82 10000 0.71 205 21:48 28.02.2022
5027 Rain 25 1009 84 10000 1.16 228 20:56 28.02.2022
5028 Rain 25 1009 85 10000 1.36 236 19:51 28.02.2022
5029 Rain 24 1008 86 10000 1.22 232 19:22 28.02.2022
5030 Clouds 24 1008 85 10000 0.67 173 17:57 28.02.2022
5031 Clouds 24 1008 85 10000 0.61 193 17:23 28.02.2022
5032 Clouds 24 1008 85 10000 0.61 193 16:32 28.02.2022
5033 Clouds 25 1009 86 10000 1.02 220 15:19 28.02.2022
5034 Clouds 25 1010 86 10000 1.12 236 14:29 28.02.2022
5035 Rain 25 1011 88 10000 1.6 249 13:24 28.02.2022
5036 Rain 25 1011 90 10000 2.03 232 12:31 28.02.2022
5037 Rain 25 1011 93 10000 2.42 259 11:21 28.02.2022
5038 Rain 25 1010 93 10000 2.67 262 10:24 28.02.2022
5039 Rain 25 1010 93 10000 2.67 262 09:53 28.02.2022
5040 Rain 25 1010 92 10000 2.98 266 09:24 28.02.2022
5041 Rain 25 1010 92 10000 2.98 266 09:24 28.02.2022
5042 Clouds 25 1009 92 10000 3.01 272 08:22 28.02.2022
5043 Clouds 25 1009 92 10000 3.01 272 08:22 28.02.2022
5044 Rain 26 1008 92 6590 2.41 305 06:44 28.02.2022
5045 Clouds 26 1008 93 6719 2.86 309 04:31 28.02.2022
5046 Rain 26 1010 91 6275 2.2 293 01:42 28.02.2022
5047 Rain 25 1010 95 5329 3.16 290 22:57 27.02.2022
5048 Rain 25 1010 95 5329 3.16 290 22:32 27.02.2022
5049 Rain 25 1010 96 1255 3.79 295 21:42 27.02.2022
5050 Rain 25 1009 95 1323 3.11 289 20:51 27.02.2022
5051 Clouds 25 1009 94 4117 2.72 278 20:22 27.02.2022
5052 Clouds 25 1009 94 4117 2.72 278 19:50 27.02.2022
5053 Clouds 25 1008 94 7125 2.41 275 19:24 27.02.2022
5054 Clouds 25 1007 96 3558 2.78 307 18:37 27.02.2022
5055 Clouds 25 1007 96 1534 2.57 304 17:53 27.02.2022
5056 Rain 25 1007 95 3783 2.55 303 16:31 27.02.2022
5057 Rain 25 1008 94 6641 2.71 302 15:39 27.02.2022
5058 Rain 26 1009 93 10000 2.02 311 12:43 27.02.2022
5059 Rain 26 1009 92 8356 1.67 320 12:25 27.02.2022
5060 Clouds 26 1009 92 5773 2.28 315 10:37 27.02.2022
5061 Rain 26 1009 91 5706 2.3 323 09:58 27.02.2022
5062 Rain 26 1008 90 5414 2.24 320 09:24 27.02.2022
5063 Rain 26 1008 90 5414 2.24 320 08:51 27.02.2022
5064 Rain 28 1006 79 10000 2.88 304 06:30 27.02.2022
5065 Rain 29 1006 75 10000 3.52 300 04:19 27.02.2022
5066 Rain 28 1009 82 10000 2.77 301 00:31 27.02.2022
5067 Rain 27 1009 87 10000 2.91 301 22:48 26.02.2022
5068 Rain 26 1008 89 10000 2.36 289 21:29 26.02.2022
5069 Rain 26 1008 89 10000 2.36 289 20:43 26.02.2022
5070 Rain 26 1008 89 10000 2.12 283 19:57 26.02.2022
5071 Rain 26 1008 89 10000 2.12 283 19:33 26.02.2022
5072 Rain 26 1007 87 10000 0.48 247 18:34 26.02.2022
5073 Rain 26 1007 87 10000 0.53 246 17:37 26.02.2022
5074 Rain 26 1007 87 10000 0.45 243 16:39 26.02.2022
5075 Rain 26 1007 86 10000 0.28 285 15:42 26.02.2022
5076 Clouds 26 1007 87 10000 0.65 333 15:19 26.02.2022
5077 Clouds 26 1007 87 10000 0.65 333 14:44 26.02.2022
5078 Clouds 26 1008 88 10000 0.82 333 14:19 26.02.2022
5079 Clouds 26 1009 89 10000 0.69 357 12:53 26.02.2022
5080 Clouds 26 1009 88 10000 0.73 347 11:53 26.02.2022
5081 Clouds 27 1008 87 10000 0.82 337 11:26 26.02.2022
5082 Clouds 27 1008 88 10000 0.95 304 10:19 26.02.2022
5083 Clouds 27 1007 87 10000 1.52 316 08:35 26.02.2022
5084 Clouds 29 1005 77 10000 3.12 314 06:40 26.02.2022
5085 Clouds 30 1008 73 10000 2.46 307 00:25 26.02.2022
5086 Clouds 29 1008 77 10000 1.85 303 22:43 25.02.2022
5087 Clouds 27 1008 83 10000 1.55 290 21:33 25.02.2022
5088 Rain 26 1007 87 10000 1.41 265 20:56 25.02.2022
5089 Clouds 26 1007 88 10000 1.63 262 20:27 25.02.2022
5090 Clouds 26 1006 89 10000 1.42 266 17:57 25.02.2022
5091 Clouds 26 1006 89 10000 1.36 264 16:59 25.02.2022
5092 Rain 26 1007 89 10000 1.5 263 15:56 25.02.2022
5093 Rain 26 1008 89 10000 1.56 269 15:23 25.02.2022
5094 Rain 26 1008 89 10000 1.56 269 14:56 25.02.2022
5095 Rain 26 1008 89 10000 1.66 278 14:27 25.02.2022
5096 Clouds 26 1008 89 10000 1.66 278 13:30 25.02.2022
5097 Clouds 26 1008 88 10000 1.6 282 12:21 25.02.2022
5098 Clouds 26 1008 88 10000 1.81 284 11:22 25.02.2022
5099 Rain 27 1007 89 10000 2 286 10:23 25.02.2022
5100 Rain 27 1007 89 10000 2 286 10:23 25.02.2022
5101 Clouds 27 1007 89 10000 2 286 09:46 25.02.2022
5102 Clouds 27 1006 89 10000 2.41 292 08:41 25.02.2022
5103 Clouds 28 1005 86 10000 2.67 302 07:31 25.02.2022
5104 Rain 30 1005 68 10000 3.13 324 05:42 25.02.2022
5105 Clouds 30 1007 70 10000 2.96 330 02:46 25.02.2022
5106 Clouds 28 1009 76 10000 1.8 326 22:47 24.02.2022
5107 Clouds 27 1008 82 10000 1.19 327 21:51 24.02.2022
5108 Clouds 27 1008 82 10000 1.19 327 21:30 24.02.2022
5109 Clouds 26 1007 85 10000 1 309 20:47 24.02.2022
5110 Clouds 26 1007 86 10000 0.59 291 19:32 24.02.2022
5111 Clouds 25 1006 89 10000 0.35 357 18:21 24.02.2022
5112 Clouds 25 1006 89 10000 0.35 357 17:58 24.02.2022
5113 Clouds 25 1006 89 10000 0.41 29 17:20 24.02.2022
5114 Clouds 26 1006 89 10000 0.51 289 16:28 24.02.2022
5115 Clouds 26 1006 89 10000 0.51 289 15:43 24.02.2022
5116 Clouds 26 1007 89 10000 0.37 292 14:45 24.02.2022
5117 Clouds 26 1008 88 10000 0.43 282 13:59 24.02.2022
5118 Clouds 26 1008 88 10000 0.43 282 13:37 24.02.2022
5119 Clouds 27 1008 88 10000 1.12 274 11:38 24.02.2022
5120 Clouds 27 1008 88 10000 1.28 263 10:32 24.02.2022
5121 Clouds 27 1006 88 10000 1.91 253 08:43 24.02.2022
5122 Clouds 27 1006 88 10000 1.91 253 08:43 24.02.2022
5123 Rain 27 1006 88 10000 3.24 292 07:22 24.02.2022
5124 Rain 27 1006 88 10000 4.1 294 05:40 24.02.2022
5125 Rain 29 1008 78 10000 1.45 6 00:31 24.02.2022
5126 Rain 26 1008 91 10000 0.11 114 22:22 23.02.2022
5127 Rain 25 1007 92 4994 0.22 23 20:45 23.02.2022
5128 Rain 25 1007 92 5249 0.98 16 20:26 23.02.2022
5129 Clouds 25 1007 92 5249 0.98 16 19:35 23.02.2022
5130 Clouds 25 1006 93 8329 1.14 355 18:26 23.02.2022
5131 Rain 26 1006 91 10000 0.97 329 16:28 23.02.2022
5132 Clouds 26 1008 90 10000 1.09 311 13:58 23.02.2022
5133 Clouds 26 1008 88 10000 0.52 211 12:31 23.02.2022
5134 Rain 26 1008 87 10000 0.41 173 10:58 23.02.2022
5135 Rain 26 1008 87 10000 0.46 187 09:49 23.02.2022
5136 Rain 26 1007 89 10000 0.98 181 08:54 23.02.2022
5137 Rain 26 1006 91 10000 1.07 156 07:53 23.02.2022
5138 Rain 29 1007 79 10000 1.81 338 02:58 23.02.2022
5139 Clouds 28 1008 80 10000 0.87 15 00:18 23.02.2022
5140 Clouds 28 1008 80 10000 0.87 15 23:33 22.02.2022
5141 Clouds 26 1008 88 10000 0.85 130 22:28 22.02.2022
5142 Clouds 26 1008 88 10000 0.85 130 21:44 22.02.2022
5143 Clouds 26 1007 90 10000 0.87 168 21:21 22.02.2022
5144 Rain 26 1007 90 10000 0.87 168 20:41 22.02.2022
5145 Rain 25 1007 91 10000 0.58 185 20:22 22.02.2022
5146 Rain 25 1007 91 10000 0.58 185 19:34 22.02.2022
5147 Rain 26 1006 88 10000 0.88 142 18:35 22.02.2022
5148 Clouds 26 1006 88 10000 0.55 161 17:34 22.02.2022
5149 Clouds 26 1006 88 10000 0.13 150 16:56 22.02.2022
5150 Clouds 26 1006 88 10000 0.29 231 16:21 22.02.2022
5151 Clouds 26 1006 88 10000 0.29 231 15:30 22.02.2022
5152 Clouds 26 1008 90 10000 0.68 238 14:28 22.02.2022
5153 Rain 26 1008 92 10000 1.65 327 11:39 22.02.2022
5154 Clouds 27 1007 89 5082 1.48 276 09:45 22.02.2022
5155 Clouds 28 1005 86 4921 1.25 325 07:30 22.02.2022
5156 Clouds 29 1005 83 8951 1.56 335 06:54 22.02.2022
5157 Clouds 30 1006 76 9647 1.58 20 02:50 22.02.2022
5158 Clouds 29 1008 74 10000 1.36 150 23:18 21.02.2022
5159 Clouds 29 1008 74 10000 1.36 150 22:36 21.02.2022
5160 Clouds 26 1007 85 10000 1.61 143 20:52 21.02.2022
5161 Clouds 26 1006 87 10000 1.61 152 18:56 21.02.2022
5162 Clouds 26 1006 87 10000 1.61 152 18:37 21.02.2022
5163 Clouds 26 1006 87 10000 1.04 166 16:23 21.02.2022
5164 Clouds 26 1007 88 10000 1.29 150 14:23 21.02.2022
5165 Clouds 26 1007 88 10000 1.29 150 13:31 21.02.2022
5166 Clouds 26 1007 88 10000 1.29 150 13:31 21.02.2022
5167 Clouds 26 1008 87 10000 1.23 140 12:46 21.02.2022
5168 Clouds 26 1008 88 10000 1.27 140 12:21 21.02.2022
5169 Clouds 27 1007 88 10000 0.61 190 10:27 21.02.2022
5170 Clouds 28 1005 84 10000 0.76 313 07:48 21.02.2022
5171 Clouds 31 1007 66 10000 1.44 1 00:35 21.02.2022
5172 Clouds 29 1008 75 10000 0.17 118 22:32 20.02.2022
5173 Clouds 28 1007 81 10000 0.57 171 21:44 20.02.2022
5174 Clouds 26 1007 84 10000 0.97 189 21:24 20.02.2022
5175 Clouds 26 1007 84 10000 0.97 189 20:43 20.02.2022
5176 Clouds 26 1006 85 10000 0.9 196 19:49 20.02.2022
5177 Clouds 26 1005 87 10000 1.17 213 18:56 20.02.2022
5178 Clouds 26 1005 87 10000 1.17 213 18:36 20.02.2022
5179 Clouds 26 1005 87 10000 1.3 230 17:55 20.02.2022
5180 Clouds 26 1005 87 10000 1.08 217 16:59 20.02.2022
5181 Clouds 27 1006 87 10000 0.47 221 14:55 20.02.2022
5182 Clouds 27 1007 86 10000 0.74 216 13:58 20.02.2022
5183 Clouds 27 1008 87 10000 1.1 228 12:45 20.02.2022
5184 Clouds 27 1008 87 10000 1.23 236 11:30 20.02.2022
5185 Clouds 27 1007 87 10000 1.51 263 10:21 20.02.2022
5186 Clouds 27 1006 86 10000 1.81 287 09:24 20.02.2022
5187 Clouds 30 1006 70 10000 2.39 356 02:54 20.02.2022
5188 Clouds 31 1008 66 10000 2.53 3 00:32 20.02.2022
5189 Clouds 30 1008 70 10000 2.17 6 23:32 19.02.2022
5190 Clouds 28 1008 81 10000 0.2 98 22:24 19.02.2022
5191 Clouds 28 1008 81 10000 0.2 98 21:45 19.02.2022
5192 Clouds 26 1007 86 10000 0.37 94 20:25 19.02.2022
5193 Clouds 26 1007 86 10000 0.37 94 20:25 19.02.2022
5194 Clouds 26 1007 86 10000 0.37 94 20:24 19.02.2022
5195 Clouds 26 1007 86 10000 0.37 94 19:34 19.02.2022
5196 Clouds 26 1006 87 10000 0.59 62 18:38 19.02.2022
5197 Clouds 26 1006 88 10000 0.82 54 17:54 19.02.2022
5198 Clouds 26 1006 88 10000 1.01 48 16:47 19.02.2022
5199 Clouds 26 1007 87 10000 0.99 20 15:20 19.02.2022
5200 Clouds 26 1007 87 10000 0.99 20 14:53 19.02.2022
5201 Clouds 26 1009 87 10000 0.86 14 13:50 19.02.2022
5202 Clouds 26 1009 86 10000 0.46 356 11:40 19.02.2022
5203 Clouds 27 1009 85 10000 0.68 338 10:30 19.02.2022
5204 Clouds 27 1007 83 10000 1.4 345 08:31 19.02.2022
5205 Rain 29 1006 78 10000 1.25 355 06:45 19.02.2022
5206 Clouds 30 1010 71 10000 0.7 44 23:55 18.02.2022
5207 Clouds 27 1010 82 10000 0.78 109 22:24 18.02.2022
5208 Clouds 26 1009 86 10000 0.98 160 20:57 18.02.2022
5209 Clouds 26 1009 86 10000 1.02 169 19:55 18.02.2022
5210 Clouds 26 1008 88 10000 1.14 160 18:50 18.02.2022
5211 Clouds 26 1007 88 10000 0.91 164 18:24 18.02.2022
5212 Clouds 26 1007 88 10000 0.91 164 17:55 18.02.2022
5213 Clouds 26 1008 89 10000 0.44 81 15:23 18.02.2022
5214 Clouds 26 1009 88 10000 0.64 141 13:55 18.02.2022
5215 Clouds 26 1010 88 10000 0.73 140 12:55 18.02.2022
5216 Clouds 26 1010 89 10000 1.22 142 12:36 18.02.2022
5217 Clouds 26 1010 90 10000 1.31 136 11:40 18.02.2022
5218 Clouds 26 1009 89 10000 1.13 94 10:23 18.02.2022
5219 Clouds 28 1006 82 10000 1.41 321 06:57 18.02.2022
5220 Rain 29 1006 80 10000 1.18 353 05:41 18.02.2022
5221 Clouds 30 1009 72 10000 1.12 29 23:34 17.02.2022
5222 Clouds 27 1009 83 10000 0.57 107 21:46 17.02.2022
5223 Clouds 26 1008 86 10000 0.97 161 21:20 17.02.2022
5224 Clouds 26 1008 86 10000 0.97 161 20:38 17.02.2022
5225 Clouds 26 1007 86 10000 0.89 165 19:50 17.02.2022
5226 Clouds 26 1007 87 10000 1.03 123 18:44 17.02.2022
5227 Clouds 26 1006 87 10000 0.81 119 17:50 17.02.2022
5228 Clouds 26 1006 87 10000 0.45 152 16:42 17.02.2022
5229 Clouds 26 1007 87 10000 0.45 158 15:38 17.02.2022
5230 Clouds 26 1008 86 10000 0.46 114 14:26 17.02.2022
5231 Clouds 26 1009 86 10000 0.38 89 12:38 17.02.2022
5232 Clouds 27 1008 85 10000 0.34 20 11:23 17.02.2022
5233 Clouds 27 1008 85 10000 0.34 20 11:23 17.02.2022
5234 Clouds 27 1007 84 10000 0.66 338 08:52 17.02.2022
5235 Clouds 30 1007 69 10000 1.77 10 01:45 17.02.2022
5236 Rain 28 1008 78 10000 1.35 82 23:21 16.02.2022
5237 Clouds 27 1008 84 10000 1.27 107 21:40 16.02.2022
5238 Rain 25 1006 86 10000 1.2 148 19:47 16.02.2022
5239 Clouds 25 1006 87 10000 1.68 129 18:38 16.02.2022
5240 Clouds 25 1006 89 10000 1.78 151 17:53 16.02.2022
5241 Clouds 25 1006 88 10000 1.66 151 15:38 16.02.2022
5242 Clouds 26 1007 87 10000 1.17 137 14:59 16.02.2022
5243 Rain 26 1009 87 10000 0.79 74 12:35 16.02.2022
5244 Rain 26 1009 87 10000 0.87 64 11:55 16.02.2022
5245 Rain 26 1008 87 10000 0.83 46 11:24 16.02.2022
5246 Clouds 26 1008 87 10000 0.83 46 10:30 16.02.2022
5247 Clouds 29 1005 75 10000 2.39 9 06:57 16.02.2022
5248 Clouds 30 1004 69 10000 2.25 13 04:43 16.02.2022
5249 Clouds 29 1008 73 10000 1.17 31 23:44 15.02.2022
5250 Clouds 26 1007 85 10000 0.55 91 22:19 15.02.2022
5251 Rain 26 1007 85 10000 0.55 91 21:45 15.02.2022
5252 Rain 26 1007 86 10000 0.89 104 21:27 15.02.2022
5253 Rain 26 1007 86 10000 0.89 104 20:55 15.02.2022
5254 Clouds 26 1006 87 10000 0.95 103 19:55 15.02.2022
5255 Rain 25 1006 88 10000 0.95 132 18:52 15.02.2022
5256 Clouds 25 1006 95 8782 0.76 357 18:19 15.02.2022
5257 Clouds 25 1006 95 8782 0.76 357 17:48 15.02.2022
5258 Clouds 25 1006 94 7253 0.39 1 16:30 15.02.2022
5259 Clouds 25 1007 93 10000 1.24 126 14:47 15.02.2022
5260 Clouds 26 1009 93 10000 3.1 114 13:26 15.02.2022
5261 Rain 26 1008 89 9663 3.44 101 11:54 15.02.2022
5262 Rain 27 1007 88 10000 2.86 106 10:58 15.02.2022
5263 Clouds 27 1006 88 10000 2.98 100 09:28 15.02.2022
5264 Rain 29 1004 77 10000 2.37 79 06:49 15.02.2022
5265 Clouds 31 1008 66 10000 3.91 88 00:48 15.02.2022
5266 Rain 27 1009 83 10000 3.07 115 22:20 14.02.2022
5267 Clouds 25 1008 87 10000 3.09 123 21:24 14.02.2022
5268 Clouds 25 1008 87 10000 3.09 124 20:23 14.02.2022
5269 Clouds 25 1008 87 10000 3.09 124 19:30 14.02.2022
5270 Clouds 25 1007 87 10000 2.96 124 18:27 14.02.2022
5271 Clouds 25 1007 87 10000 2.96 124 17:43 14.02.2022
5272 Clouds 25 1007 88 10000 2.88 121 17:23 14.02.2022
5273 Clouds 26 1007 89 10000 2.77 120 15:58 14.02.2022
5274 Clouds 26 1009 89 10000 2.69 120 13:37 14.02.2022
5275 Clouds 26 1010 90 10000 2.56 126 13:18 14.02.2022
5276 Clouds 26 1009 90 10000 2.32 132 12:32 14.02.2022
5277 Clouds 26 1010 91 10000 2.47 128 11:43 14.02.2022
5278 Clouds 27 1009 90 10000 2.45 108 10:22 14.02.2022
5279 Clouds 27 1008 89 10000 2.17 110 08:32 14.02.2022
5280 Clouds 27 1006 87 10000 1.39 114 07:26 14.02.2022
5281 Clouds 28 1010 76 10000 2.08 103 23:19 13.02.2022
5282 Clouds 28 1010 76 10000 2.08 103 22:41 13.02.2022
5283 Clouds 27 1010 81 10000 2.06 118 22:22 13.02.2022
5284 Clouds 26 1009 85 10000 2.1 128 21:24 13.02.2022
5285 Clouds 26 1009 85 10000 2.1 128 20:30 13.02.2022
5286 Clouds 26 1008 86 10000 1.4 148 19:23 13.02.2022
5287 Clouds 26 1008 86 10000 1.4 148 18:41 13.02.2022
5288 Clouds 26 1007 86 10000 1.32 127 17:41 13.02.2022
5289 Clouds 26 1007 86 10000 1.35 148 15:53 13.02.2022
5290 Clouds 26 1008 86 10000 1.58 154 14:52 13.02.2022
5291 Clouds 26 1009 87 10000 1.86 158 13:39 13.02.2022
5292 Clouds 26 1010 88 10000 2.15 169 12:44 13.02.2022
5293 Clouds 27 1009 86 10000 1.65 135 10:46 13.02.2022
5294 Clouds 27 1009 85 10000 1.03 127 10:27 13.02.2022
5295 Clouds 27 1008 83 10000 0.55 118 08:57 13.02.2022
5296 Clouds 30 1007 72 10000 1.27 353 02:50 13.02.2022
5297 Clouds 30 1008 69 10000 1.06 24 00:33 13.02.2022
5298 Clouds 27 1009 81 10000 0.56 92 22:58 12.02.2022
5299 Clouds 27 1009 81 10000 0.56 92 22:33 12.02.2022
5300 Clouds 25 1008 88 10000 0.99 124 21:18 12.02.2022
5301 Clouds 25 1008 89 10000 1.56 119 20:25 12.02.2022
5302 Clouds 25 1007 89 10000 1.58 118 18:54 12.02.2022
5303 Clouds 25 1007 88 10000 1.08 137 18:36 12.02.2022
5304 Clouds 25 1007 88 10000 0.46 179 17:55 12.02.2022
5305 Clouds 25 1007 89 10000 0.53 260 16:54 12.02.2022
5306 Clouds 25 1007 90 10000 0.71 217 16:18 12.02.2022
5307 Clouds 25 1008 92 10000 0.99 231 15:23 12.02.2022
5308 Clouds 25 1008 92 10000 0.99 231 14:30 12.02.2022
5309 Clouds 25 1009 94 10000 2.53 266 11:34 12.02.2022
5310 Clouds 25 1009 92 10000 2.45 278 10:33 12.02.2022
5311 Clouds 25 1008 90 10000 1.88 285 09:38 12.02.2022
5312 Clouds 26 1008 89 10000 1.66 294 08:47 12.02.2022
5313 Clouds 26 1007 89 10000 1.7 298 07:47 12.02.2022
5314 Clouds 26 1005 87 10000 1.85 302 05:31 12.02.2022
5315 Clouds 25 1007 93 10000 1.28 272 02:19 12.02.2022
5316 Rain 25 1007 98 2966 2.06 322 23:56 11.02.2022
5317 Clouds 25 1008 97 1092 1.4 356 22:23 11.02.2022
5318 Rain 25 1008 97 1092 1.4 356 21:37 11.02.2022
5319 Rain 25 1007 95 8223 1.63 324 20:29 11.02.2022
5320 Rain 25 1006 95 6231 0.83 305 19:29 11.02.2022
5321 Rain 25 1006 95 6231 0.83 305 18:44 11.02.2022
5322 Rain 25 1005 97 1415 1.54 296 17:27 11.02.2022
5323 Rain 25 1005 97 1415 1.54 296 16:56 11.02.2022
5324 Clouds 25 1006 96 1309 2.49 298 15:26 11.02.2022
5325 Clouds 25 1006 96 1309 2.49 298 14:38 11.02.2022
5326 Clouds 24 1007 96 2238 2.69 289 14:20 11.02.2022
5327 Clouds 24 1007 96 2238 2.69 289 13:47 11.02.2022
5328 Clouds 25 1007 97 1738 4.67 294 13:28 11.02.2022
5329 Clouds 26 1007 91 4531 1.99 318 11:23 11.02.2022
5330 Clouds 26 1007 89 10000 1.79 312 09:37 11.02.2022
5331 Clouds 26 1006 89 9149 2.13 312 08:35 11.02.2022
5332 Clouds 27 1005 87 8461 2.35 322 07:46 11.02.2022
5333 Clouds 27 1005 87 8461 2.35 322 07:46 11.02.2022
5334 Clouds 29 1004 76 10000 3.32 304 06:29 11.02.2022
5335 Clouds 29 1006 76 10000 3.81 308 02:22 11.02.2022
5336 Rain 28 1007 78 10000 3.03 289 23:48 10.02.2022
5337 Rain 28 1007 78 10000 2.77 285 22:33 10.02.2022
5338 Rain 27 1007 81 10000 2.51 271 21:42 10.02.2022
5339 Rain 26 1006 86 10000 2.55 260 20:50 10.02.2022
5340 Rain 25 1006 87 10000 2.75 262 19:56 10.02.2022
5341 Rain 25 1005 87 10000 2.77 261 19:22 10.02.2022
5342 Rain 26 1005 87 10000 2.77 261 18:32 10.02.2022
5343 Rain 26 1005 87 10000 2.66 260 17:21 10.02.2022
5344 Clouds 26 1005 87 10000 2.66 260 16:43 10.02.2022
5345 Clouds 26 1005 87 10000 2.6 260 15:40 10.02.2022
5346 Clouds 26 1006 86 10000 2.46 259 15:21 10.02.2022
5347 Rain 26 1006 86 10000 2.46 259 14:35 10.02.2022
5348 Rain 26 1007 87 10000 2.48 260 13:40 10.02.2022
5349 Rain 26 1007 87 10000 2.62 260 13:19 10.02.2022
5350 Rain 26 1007 88 10000 2.5 265 11:52 10.02.2022
5351 Rain 26 1007 88 10000 2.5 265 11:30 10.02.2022
5352 Rain 26 1007 87 10000 3.16 258 10:23 10.02.2022
5353 Rain 26 1007 87 10000 3.16 258 09:44 10.02.2022
5354 Clouds 28 1005 83 10000 3.48 276 08:25 10.02.2022
5355 Clouds 28 1004 82 10000 4.16 273 06:32 10.02.2022
5356 Clouds 30 1005 76 10000 4.29 284 02:43 10.02.2022
5357 Clouds 30 1007 74 10000 3.57 289 00:52 10.02.2022
5358 Clouds 30 1007 74 10000 3.57 289 00:30 10.02.2022
5359 Clouds 30 1007 74 10000 3.57 289 00:30 10.02.2022
5360 Clouds 30 1008 74 10000 2.87 276 23:53 09.02.2022
5361 Clouds 28 1008 79 10000 2.82 264 22:54 09.02.2022
5362 Clouds 28 1008 79 10000 2.82 264 22:30 09.02.2022
5363 Clouds 27 1008 85 10000 2.81 254 21:46 09.02.2022
5364 Clouds 26 1007 88 10000 2.95 249 21:26 09.02.2022
5365 Clouds 26 1007 88 10000 2.95 249 20:42 09.02.2022
5366 Clouds 26 1007 89 10000 3.1 245 20:21 09.02.2022
5367 Clouds 26 1007 89 10000 3.1 245 20:21 09.02.2022
5368 Clouds 26 1007 89 10000 3.1 245 19:39 09.02.2022
5369 Clouds 25 1006 90 6165 3.6 263 17:50 09.02.2022
5370 Clouds 25 1006 90 6419 3.44 262 16:54 09.02.2022
5371 Rain 26 1007 89 10000 3.04 259 15:56 09.02.2022
5372 Rain 26 1007 89 7911 2.98 259 15:19 09.02.2022
5373 Rain 26 1009 89 8652 2.76 264 12:42 09.02.2022
5374 Clouds 26 1009 86 10000 2.94 267 11:20 09.02.2022
5375 Clouds 26 1009 86 10000 2.94 267 10:32 09.02.2022
5376 Clouds 26 1008 86 10000 3.08 264 09:42 09.02.2022
5377 Clouds 27 1007 85 10000 3.27 266 09:20 09.02.2022
5378 Clouds 27 1007 82 10000 3.79 273 08:26 09.02.2022
5379 Rain 28 1006 82 10000 4.47 296 05:30 09.02.2022
5380 Rain 28 1006 82 10000 4.47 296 05:30 09.02.2022
5381 Clouds 28 1007 85 10000 4.13 296 03:50 09.02.2022
5382 Clouds 26 1009 90 10000 2.88 286 01:28 09.02.2022
5383 Clouds 26 1009 92 10000 2.83 279 23:39 08.02.2022
5384 Clouds 26 1009 93 10000 3.65 283 22:51 08.02.2022
5385 Clouds 26 1009 89 10000 3.85 280 22:22 08.02.2022
5386 Clouds 26 1009 89 10000 3.85 280 21:50 08.02.2022
5387 Clouds 26 1008 89 10000 3.09 268 21:21 08.02.2022
5388 Clouds 26 1008 89 10000 3.09 268 20:45 08.02.2022
5389 Clouds 26 1007 90 10000 2.83 270 19:52 08.02.2022
5390 Clouds 26 1007 90 10000 2.67 271 18:52 08.02.2022
5391 Clouds 26 1007 91 10000 2.56 274 17:50 08.02.2022
5392 Rain 26 1007 90 10000 2.7 272 16:34 08.02.2022
5393 Rain 26 1007 90 10000 2.65 273 15:30 08.02.2022
5394 Rain 25 1008 90 10000 2.48 272 14:44 08.02.2022
5395 Rain 25 1010 93 10000 2.54 253 13:29 08.02.2022
5396 Rain 25 1010 95 4451 2.99 260 11:55 08.02.2022
5397 Rain 25 1009 91 10000 2.01 242 10:23 08.02.2022
5398 Rain 25 1009 91 10000 2.01 242 10:23 08.02.2022
5399 Rain 25 1009 91 10000 2.01 242 09:45 08.02.2022
5400 Rain 26 1007 92 10000 3.75 278 07:55 08.02.2022
5401 Clouds 26 1006 93 6678 4.81 275 05:41 08.02.2022
5402 Rain 27 1006 88 8720 4.58 279 04:39 08.02.2022
5403 Clouds 28 1007 83 10000 4.78 287 04:21 08.02.2022
5404 Clouds 28 1007 83 10000 4.78 287 03:36 08.02.2022
5405 Clouds 29 1007 77 10000 4.71 294 03:18 08.02.2022
5406 Clouds 29 1007 77 10000 4.71 294 02:59 08.02.2022
5407 Clouds 29 1007 77 10000 4.71 294 02:36 08.02.2022
5408 Clouds 29 1008 76 10000 4.37 299 02:18 08.02.2022
5409 Clouds 29 1008 76 10000 4.37 299 02:18 08.02.2022
5410 Clouds 29 1008 76 10000 4.37 299 01:44 08.02.2022
5411 Clouds 29 1009 74 10000 3.88 299 01:24 08.02.2022
5412 Rain 29 1009 74 10000 3.88 299 00:54 08.02.2022
5413 Rain 29 1009 77 10000 4.05 306 23:55 07.02.2022
5414 Rain 29 1009 77 10000 4.05 306 23:37 07.02.2022
5415 Rain 28 1009 81 10000 3.63 298 23:18 07.02.2022
5416 Clouds 27 1009 86 10000 3.1 284 22:19 07.02.2022
5417 Clouds 27 1009 86 10000 3.1 284 21:55 07.02.2022
5418 Clouds 26 1008 89 10000 2.78 278 21:29 07.02.2022
5419 Clouds 26 1008 89 10000 2.78 278 20:56 07.02.2022
5420 Clouds 26 1008 89 10000 2.78 278 20:38 07.02.2022
5421 Clouds 26 1008 90 10000 3.14 281 19:49 07.02.2022
5422 Clouds 26 1008 90 10000 3.14 281 19:31 07.02.2022
5423 Clouds 26 1007 90 10000 2.94 292 17:52 07.02.2022
5424 Rain 26 1007 89 10000 2.69 287 16:52 07.02.2022
5425 Rain 26 1007 89 10000 2.79 286 15:49 07.02.2022
5426 Rain 26 1008 88 10000 2.71 283 14:48 07.02.2022
5427 Clouds 27 1010 89 10000 2.79 279 13:28 07.02.2022
5428 Clouds 27 1010 89 10000 2.79 279 12:38 07.02.2022
5429 Clouds 27 1010 88 10000 2.92 284 11:55 07.02.2022
5430 Clouds 27 1010 88 10000 2.92 284 11:33 07.02.2022
5431 Clouds 27 1009 87 10000 2.88 286 10:47 07.02.2022
5432 Clouds 27 1009 86 10000 3.18 287 10:28 07.02.2022
5433 Clouds 27 1009 86 10000 3.18 287 09:52 07.02.2022
5434 Clouds 27 1008 85 10000 3.25 287 09:18 07.02.2022
5435 Clouds 28 1007 81 10000 3.28 290 08:20 07.02.2022
5436 Rain 29 1006 76 10000 3.46 296 06:35 07.02.2022
5437 Clouds 30 1007 74 10000 3.74 300 05:47 07.02.2022
5438 Clouds 30 1009 75 10000 3.18 319 02:56 07.02.2022
5439 Clouds 30 1010 74 10000 3.29 330 00:33 07.02.2022
5440 Clouds 29 1010 76 10000 3.52 328 23:40 06.02.2022
5441 Clouds 29 1010 79 10000 3.32 324 22:46 06.02.2022
5442 Clouds 28 1010 83 10000 2.64 316 21:51 06.02.2022
5443 Clouds 27 1009 87 10000 2.16 291 21:21 06.02.2022
5444 Clouds 27 1009 87 10000 2.16 291 20:48 06.02.2022
5445 Rain 26 1008 88 10000 1.58 275 20:24 06.02.2022
5446 Clouds 26 1008 88 10000 1.58 275 19:30 06.02.2022
5447 Clouds 26 1008 88 10000 0.96 226 18:35 06.02.2022
5448 Clouds 26 1008 89 10000 0.91 216 17:54 06.02.2022
5449 Clouds 26 1008 89 10000 0.41 205 16:52 06.02.2022
5450 Clouds 26 1008 89 10000 0.41 205 16:30 06.02.2022
5451 Clouds 26 1008 88 10000 0.11 280 15:47 06.02.2022
5452 Clouds 27 1009 88 10000 0.4 330 15:25 06.02.2022
5453 Clouds 27 1010 87 10000 0.67 355 14:23 06.02.2022
5454 Clouds 27 1010 87 10000 0.8 11 13:23 06.02.2022
5455 Clouds 27 1010 87 10000 0.73 347 12:34 06.02.2022
5456 Clouds 27 1010 86 10000 1.11 336 10:43 06.02.2022
5457 Clouds 27 1009 86 10000 1.6 334 09:48 06.02.2022
5458 Clouds 27 1008 84 10000 1.63 338 08:41 06.02.2022
5459 Clouds 29 1007 78 10000 2.33 337 07:36 06.02.2022
5460 Clouds 30 1006 71 10000 3.52 328 05:28 06.02.2022
5461 Clouds 31 1009 69 10000 3.24 323 02:25 06.02.2022
5462 Rain 30 1009 70 10000 2.71 318 00:51 06.02.2022
5463 Clouds 30 1010 74 10000 2.49 314 00:24 06.02.2022
5464 Clouds 28 1009 80 10000 1.09 303 21:59 05.02.2022
5465 Clouds 27 1009 86 10000 0.76 268 20:48 05.02.2022
5466 Clouds 26 1008 87 10000 0.39 311 20:23 05.02.2022
5467 Clouds 26 1008 87 10000 0.39 311 19:44 05.02.2022
5468 Clouds 27 1007 88 10000 1.09 320 18:45 05.02.2022
5469 Clouds 27 1007 88 10000 1.14 304 17:36 05.02.2022
5470 Clouds 27 1007 89 10000 1.14 306 16:24 05.02.2022
5471 Clouds 27 1007 89 10000 1.14 306 15:31 05.02.2022
5472 Clouds 27 1009 88 10000 1.03 305 13:55 05.02.2022
5473 Clouds 27 1009 88 10000 1.38 295 12:46 05.02.2022
5474 Clouds 27 1009 87 10000 1.32 297 11:47 05.02.2022
5475 Clouds 27 1008 87 10000 1.7 292 10:44 05.02.2022
5476 Clouds 27 1008 86 10000 2.14 286 09:51 05.02.2022
5477 Clouds 27 1007 85 10000 2.32 300 08:47 05.02.2022
5478 Clouds 30 1005 72 10000 3.4 323 06:59 05.02.2022
5479 Clouds 29 1006 73 10000 3.16 318 06:35 05.02.2022
5480 Clouds 30 1007 71 10000 3.38 318 02:40 05.02.2022
5481 Clouds 30 1008 76 10000 2.42 320 01:18 05.02.2022
5482 Clouds 30 1008 75 10000 2.53 316 00:36 05.02.2022
5483 Clouds 29 1008 78 10000 2.32 318 23:33 04.02.2022
5484 Clouds 28 1008 83 10000 2.09 321 22:45 04.02.2022
5485 Clouds 27 1008 86 10000 1.9 318 21:36 04.02.2022
5486 Clouds 26 1007 88 10000 1.71 301 21:18 04.02.2022
5487 Clouds 26 1007 88 10000 1.71 301 20:36 04.02.2022
5488 Clouds 26 1006 88 10000 1.69 270 19:18 04.02.2022
5489 Clouds 26 1006 86 10000 1.67 290 16:22 04.02.2022
5490 Clouds 26 1007 85 10000 2.01 284 15:18 04.02.2022
5491 Clouds 26 1007 85 10000 2.01 284 14:40 04.02.2022
5492 Rain 26 1008 86 10000 2.34 252 12:43 04.02.2022
5493 Rain 26 1008 86 10000 2.36 254 11:44 04.02.2022
5494 Rain 26 1008 86 10000 2.36 254 11:44 04.02.2022
5495 Rain 26 1008 85 10000 2.09 246 10:53 04.02.2022
5496 Clouds 26 1008 86 10000 2.01 235 09:35 04.02.2022
5497 Clouds 26 1007 89 10000 2.71 253 07:44 04.02.2022
5498 Clouds 26 1006 96 1102 6.83 295 03:28 04.02.2022
5499 Clouds 26 1006 96 1102 6.83 295 02:33 04.02.2022
5500 Rain 26 1009 92 4702 3.66 298 23:34 03.02.2022
5501 Rain 27 1008 90 3605 2.91 280 22:48 03.02.2022
5502 Clouds 26 1008 92 7689 2.58 260 21:50 03.02.2022
5503 Clouds 26 1007 91 10000 2.74 256 20:50 03.02.2022
5504 Clouds 26 1006 91 9625 2.75 262 20:20 03.02.2022
5505 Clouds 26 1006 91 9625 2.75 262 19:34 03.02.2022
5506 Rain 26 1006 90 10000 3.24 270 18:44 03.02.2022
5507 Rain 26 1005 90 10000 3.2 269 17:42 03.02.2022
5508 Rain 25 1005 90 10000 3.08 268 16:35 03.02.2022
5509 Rain 26 1007 90 10000 2.77 258 14:52 03.02.2022
5510 Rain 26 1008 91 10000 3.2 274 13:18 03.02.2022
5511 Rain 26 1008 91 9876 3.61 281 11:42 03.02.2022
5512 Rain 26 1007 90 4112 3.9 310 08:38 03.02.2022
5513 Clouds 28 1005 83 7449 3.53 310 05:26 03.02.2022
5514 Clouds 29 1007 77 10000 3.52 302 00:32 03.02.2022
5515 Clouds 29 1008 78 10000 2.84 298 23:44 02.02.2022
5516 Clouds 28 1008 80 10000 2.25 278 22:32 02.02.2022
5517 Rain 27 1007 86 10000 1.99 254 21:34 02.02.2022
5518 Rain 26 1007 88 10000 2.33 242 20:51 02.02.2022
5519 Rain 26 1006 89 10000 2.82 244 19:59 02.02.2022
5520 Rain 26 1006 91 10000 3.09 249 19:27 02.02.2022
5521 Rain 26 1005 87 10000 2.32 269 18:46 02.02.2022
5522 Rain 26 1005 88 10000 2.33 260 17:57 02.02.2022
5523 Rain 26 1005 88 10000 2.51 254 17:19 02.02.2022
5524 Rain 26 1005 88 10000 2.51 254 16:42 02.02.2022
5525 Rain 26 1008 86 10000 2.57 254 13:28 02.02.2022
5526 Rain 26 1009 87 10000 2.23 268 12:25 02.02.2022
5527 Clouds 26 1009 87 10000 2.23 268 11:34 02.02.2022
5528 Clouds 26 1007 87 10000 1.58 277 10:22 02.02.2022
5529 Clouds 28 1006 77 10000 1.55 335 07:37 02.02.2022
5530 Rain 29 1008 78 10000 1.92 329 22:52 01.02.2022
5531 Rain 27 1008 83 10000 1.38 319 21:51 01.02.2022
5532 Rain 26 1007 86 10000 1.54 288 20:35 01.02.2022
5533 Clouds 25 1006 87 10000 0.46 200 17:44 01.02.2022
5534 Clouds 25 1006 87 10000 0.38 233 16:39 01.02.2022
5535 Clouds 25 1008 87 10000 1.27 171 14:47 01.02.2022
5536 Rain 25 1009 89 10000 1.3 184 12:45 01.02.2022
5537 Rain 26 1009 89 10000 1.02 155 11:30 01.02.2022
5538 Clouds 29 1006 79 10000 2.1 350 04:53 01.02.2022
5539 Clouds 30 1009 72 10000 1.6 29 23:41 31.01.2022
5540 Clouds 29 1009 77 10000 1.28 39 22:58 31.01.2022
5541 Clouds 28 1009 82 10000 0.98 61 21:40 31.01.2022
5542 Clouds 26 1008 86 10000 0.77 104 21:19 31.01.2022
5543 Clouds 26 1008 87 10000 0.88 99 20:29 31.01.2022
5544 Clouds 26 1007 87 10000 0.97 52 19:29 31.01.2022
5545 Clouds 26 1007 87 10000 0.16 148 18:25 31.01.2022
5546 Clouds 26 1006 87 10000 0.04 213 17:26 31.01.2022
5547 Clouds 26 1007 87 10000 0.22 159 16:26 31.01.2022
5548 Clouds 26 1008 87 10000 0.22 61 14:54 31.01.2022
5549 Clouds 26 1009 87 10000 0.23 62 13:52 31.01.2022
5550 Clouds 26 1010 87 10000 0.4 11 12:38 31.01.2022
5551 Clouds 26 1010 88 10000 0.55 352 11:47 31.01.2022
5552 Rain 26 1009 88 10000 0.62 349 10:50 31.01.2022
5553 Rain 27 1008 87 10000 0.58 346 09:59 31.01.2022
5554 Rain 27 1008 86 10000 0.94 339 08:59 31.01.2022
5555 Rain 27 1008 86 10000 0.94 339 08:39 31.01.2022
5556 Rain 28 1007 83 10000 1.6 350 08:20 31.01.2022
5557 Clouds 30 1006 72 10000 2.38 354 06:18 31.01.2022
5558 Clouds 30 1009 72 10000 2.08 8 00:44 31.01.2022
5559 Rain 28 1009 79 10000 1.38 50 22:38 30.01.2022
5560 Rain 27 1009 84 10000 0.92 94 22:20 30.01.2022
5561 Rain 27 1009 84 10000 0.92 94 21:38 30.01.2022
5562 Rain 26 1008 87 10000 0.88 136 21:18 30.01.2022
5563 Rain 26 1008 86 10000 0.62 113 20:45 30.01.2022
5564 Rain 26 1008 86 10000 0.62 114 20:26 30.01.2022
5565 Rain 26 1007 86 10000 0.55 156 19:24 30.01.2022
5566 Rain 26 1007 86 10000 0.55 156 18:35 30.01.2022
5567 Rain 26 1007 86 10000 0.61 188 17:53 30.01.2022
5568 Clouds 26 1007 87 10000 0.7 218 17:20 30.01.2022
5569 Clouds 26 1007 87 10000 0.7 218 16:37 30.01.2022
5570 Clouds 26 1008 87 10000 0.82 234 16:19 30.01.2022
5571 Clouds 26 1008 87 10000 0.82 234 15:49 30.01.2022
5572 Clouds 26 1008 87 10000 0.82 234 15:30 30.01.2022
5573 Clouds 26 1008 86 10000 1.09 242 14:45 30.01.2022
5574 Clouds 26 1010 85 10000 1.4 255 12:46 30.01.2022
5575 Clouds 26 1010 85 10000 1.62 257 11:53 30.01.2022
5576 Clouds 27 1009 86 10000 1.87 261 10:27 30.01.2022
5577 Clouds 27 1009 86 10000 1.87 261 09:48 30.01.2022
5578 Clouds 27 1008 85 10000 1.92 280 08:48 30.01.2022
5579 Clouds 30 1006 70 10000 2.25 349 05:30 30.01.2022
5580 Clouds 30 1008 68 10000 2.41 3 01:55 30.01.2022
5581 Clouds 28 1009 78 10000 1.12 13 23:50 29.01.2022
5582 Clouds 27 1010 83 10000 0.63 34 22:58 29.01.2022
5583 Rain 26 1009 86 10000 0.22 197 21:44 29.01.2022
5584 Rain 25 1009 89 10000 0.98 232 21:20 29.01.2022
5585 Rain 25 1008 89 10000 1.21 259 20:21 29.01.2022
5586 Rain 25 1008 89 10000 1.21 259 19:33 29.01.2022
5587 Rain 26 1007 86 10000 0.8 235 18:51 29.01.2022
5588 Rain 26 1006 88 10000 0.85 258 17:56 29.01.2022
5589 Rain 26 1006 85 10000 1.42 271 17:27 29.01.2022
5590 Clouds 26 1007 88 10000 1.15 301 15:42 29.01.2022
5591 Clouds 26 1008 86 10000 1.34 275 13:58 29.01.2022
5592 Clouds 26 1008 86 10000 1.34 275 13:36 29.01.2022
5593 Clouds 26 1009 84 10000 1.43 279 13:18 29.01.2022
5594 Rain 26 1009 85 10000 1.75 268 11:40 29.01.2022
5595 Clouds 26 1008 85 10000 1.91 268 10:34 29.01.2022
5596 Clouds 27 1007 85 10000 2.43 283 08:36 29.01.2022
5597 Clouds 27 1007 82 10000 1.98 253 03:25 29.01.2022
5598 Clouds 25 1009 94 10000 1.06 213 00:32 29.01.2022
5599 Clouds 24 1009 96 7636 1.27 218 23:32 28.01.2022
5600 Clouds 24 1009 96 7636 1.27 218 23:32 28.01.2022
5601 Clouds 25 1008 95 3124 3.51 245 22:47 28.01.2022
5602 Clouds 25 1008 95 1302 3.12 257 22:19 28.01.2022
5603 Clouds 26 1007 92 1602 3.38 278 20:41 28.01.2022
5604 Clouds 26 1007 92 2338 2.82 280 19:58 28.01.2022
5605 Clouds 26 1007 92 6176 2.65 276 18:52 28.01.2022
5606 Clouds 26 1007 92 6176 2.65 276 18:34 28.01.2022
5607 Rain 26 1007 91 5237 2.57 281 16:23 28.01.2022
5608 Clouds 26 1008 91 10000 2.58 282 14:54 28.01.2022
5609 Clouds 26 1009 90 10000 2.51 269 12:42 28.01.2022
5610 Clouds 26 1009 91 10000 2.8 266 11:49 28.01.2022
5611 Clouds 26 1009 90 10000 3.25 267 10:26 28.01.2022
5612 Clouds 26 1009 90 10000 3.25 267 09:46 28.01.2022
5613 Clouds 27 1007 87 10000 3.18 282 07:41 28.01.2022
5614 Clouds 27 1006 86 10000 3.03 282 05:31 28.01.2022
5615 Clouds 27 1007 87 10000 3.73 268 03:50 28.01.2022
5616 Rain 26 1008 90 10000 3.49 253 02:25 28.01.2022
5617 Clouds 26 1008 90 10000 3.49 253 01:37 28.01.2022
5618 Rain 26 1009 91 10000 3.1 250 00:39 28.01.2022
5619 Clouds 26 1009 92 3280 3.79 281 22:18 27.01.2022
5620 Clouds 26 1009 92 3280 3.79 281 21:34 27.01.2022
5621 Rain 26 1008 93 2803 3.81 280 20:58 27.01.2022
5622 Rain 26 1007 93 3505 3.67 280 19:36 27.01.2022
5623 Rain 26 1006 92 6047 3.42 287 17:58 27.01.2022
5624 Clouds 26 1006 92 10000 3.13 283 16:45 27.01.2022
5625 Clouds 26 1009 92 10000 3.77 281 13:48 27.01.2022
5626 Clouds 26 1009 92 10000 3.75 277 12:46 27.01.2022
5627 Rain 26 1009 92 8273 3.87 288 10:59 27.01.2022
5628 Rain 26 1008 89 10000 3.83 290 09:27 27.01.2022
5629 Clouds 26 1008 89 10000 3.83 290 08:39 27.01.2022
5630 Rain 27 1006 86 8508 3.49 294 07:23 27.01.2022
5631 Clouds 27 1008 80 10000 3.06 283 02:59 27.01.2022
5632 Clouds 26 1009 88 10000 2.73 276 23:52 26.01.2022
5633 Clouds 25 1009 94 10000 1.88 244 22:27 26.01.2022
5634 Clouds 25 1009 94 10000 1.88 244 21:41 26.01.2022
5635 Clouds 24 1008 94 9291 1.79 263 20:41 26.01.2022
5636 Clouds 24 1008 94 7933 1.71 291 20:23 26.01.2022
5637 Clouds 24 1008 94 7544 1.49 300 19:28 26.01.2022
5638 Clouds 25 1008 93 8889 1.54 316 18:46 26.01.2022
5639 Clouds 25 1008 94 9351 1.88 318 17:51 26.01.2022
5640 Rain 25 1008 94 8865 2.03 318 17:24 26.01.2022
5641 Rain 25 1008 94 8865 2.03 318 16:35 26.01.2022
5642 Rain 25 1008 95 6215 2.11 319 15:49 26.01.2022
5643 Rain 25 1010 94 3925 2.49 316 14:21 26.01.2022
5644 Rain 26 1010 87 10000 2.11 254 11:54 26.01.2022
5645 Rain 26 1009 87 10000 2.5 253 10:43 26.01.2022
5646 Rain 26 1009 88 10000 2.82 253 09:48 26.01.2022
5647 Rain 27 1007 88 10000 3.41 263 08:27 26.01.2022
5648 Clouds 29 1007 79 10000 3.97 282 04:24 26.01.2022
5649 Clouds 26 1010 90 10000 2.91 285 23:58 25.01.2022
5650 Clouds 26 1010 90 10000 2.88 286 23:20 25.01.2022
5651 Clouds 26 1010 91 10000 2.69 272 22:22 25.01.2022
5652 Clouds 26 1010 91 10000 2.69 272 21:58 25.01.2022
5653 Clouds 25 1009 92 10000 2.71 255 20:47 25.01.2022
5654 Clouds 25 1009 92 10000 3.18 248 20:28 25.01.2022
5655 Clouds 25 1009 92 10000 3.18 248 20:28 25.01.2022
5656 Clouds 25 1009 92 10000 3.18 248 20:28 25.01.2022
5657 Clouds 25 1009 92 10000 3.18 248 19:52 25.01.2022
5658 Rain 25 1008 91 10000 2.56 256 18:37 25.01.2022
5659 Rain 26 1008 90 10000 2.25 258 17:44 25.01.2022
5660 Clouds 26 1008 88 5870 1.57 267 16:35 25.01.2022
5661 Rain 26 1008 88 8443 1.14 290 15:49 25.01.2022
5662 Clouds 26 1008 88 8443 1.14 290 15:31 25.01.2022
5663 Clouds 26 1009 88 10000 0.81 291 14:57 25.01.2022
5664 Rain 26 1010 88 10000 0.5 250 13:42 25.01.2022
5665 Rain 27 1010 86 10000 1.23 244 10:43 25.01.2022
5666 Rain 27 1008 87 10000 1.62 245 08:37 25.01.2022
5667 Rain 29 1007 83 10000 2.36 285 07:29 25.01.2022
5668 Rain 29 1007 83 10000 2.36 285 06:49 25.01.2022
5669 Clouds 30 1007 79 10000 3.12 289 05:22 25.01.2022
5670 Clouds 29 1010 79 10000 2.52 300 23:37 24.01.2022
5671 Clouds 29 1010 83 10000 2.44 295 23:18 24.01.2022
5672 Clouds 29 1010 83 10000 2.44 295 22:59 24.01.2022
5673 Clouds 29 1010 83 10000 2.44 295 22:41 24.01.2022
5674 Clouds 28 1010 86 10000 2.22 287 21:53 24.01.2022
5675 Clouds 27 1009 89 10000 1.98 271 21:28 24.01.2022
5676 Clouds 26 1008 89 10000 2.2 272 20:29 24.01.2022
5677 Rain 26 1008 89 10000 2.2 272 19:39 24.01.2022
5678 Clouds 26 1008 89 10000 2.18 266 19:20 24.01.2022
5679 Clouds 26 1007 88 10000 2.14 265 17:45 24.01.2022
5680 Clouds 26 1007 89 10000 2.14 266 17:23 24.01.2022
5681 Clouds 26 1007 89 10000 2.14 266 17:23 24.01.2022
5682 Clouds 26 1007 89 10000 2.14 266 16:40 24.01.2022
5683 Clouds 26 1008 89 10000 2.1 266 16:18 24.01.2022
5684 Clouds 27 1009 88 10000 1.77 271 14:28 24.01.2022
5685 Clouds 27 1010 88 10000 1.51 264 12:38 24.01.2022
5686 Clouds 27 1010 88 10000 1.59 270 11:59 24.01.2022
5687 Clouds 27 1009 88 10000 1.83 274 10:25 24.01.2022
5688 Clouds 27 1009 88 10000 1.83 274 09:47 24.01.2022
5689 Clouds 28 1007 86 10000 2.38 289 08:24 24.01.2022
5690 Clouds 30 1008 73 10000 3.68 323 02:51 24.01.2022
5691 Clouds 31 1009 67 10000 3.12 323 01:29 24.01.2022
5692 Clouds 31 1009 67 10000 3.23 322 00:34 24.01.2022
5693 Clouds 30 1010 70 10000 2.67 319 23:49 23.01.2022
5694 Clouds 29 1010 80 10000 2.23 316 22:27 23.01.2022
5695 Clouds 29 1010 80 10000 2.23 316 21:44 23.01.2022
5696 Clouds 27 1009 86 10000 1.82 294 21:24 23.01.2022
5697 Clouds 27 1009 86 10000 1.82 294 20:30 23.01.2022
5698 Rain 27 1008 87 10000 2.21 275 19:21 23.01.2022
5699 Clouds 27 1007 88 10000 1.81 286 18:44 23.01.2022
5700 Clouds 27 1007 87 10000 1.85 263 17:28 23.01.2022
5701 Clouds 27 1007 87 10000 1.85 263 16:38 23.01.2022
5702 Clouds 27 1009 85 10000 1.58 245 14:56 23.01.2022
5703 Clouds 27 1010 84 10000 1.46 229 14:19 23.01.2022
5704 Clear 27 1010 85 10000 1.28 234 12:49 23.01.2022
5705 Clear 27 1010 85 10000 1.04 238 12:21 23.01.2022
5706 Clear 27 1010 85 10000 1.04 238 11:51 23.01.2022
5707 Clear 27 1010 84 10000 0.55 253 11:18 23.01.2022
5708 Clear 27 1009 84 10000 0.29 320 10:26 23.01.2022
5709 Clear 27 1009 84 10000 0.29 320 09:37 23.01.2022
5710 Clouds 28 1009 82 10000 0.69 353 08:51 23.01.2022
5711 Clouds 31 1006 67 10000 2.75 356 05:37 23.01.2022
5712 Clouds 31 1009 65 10000 2.52 356 01:46 23.01.2022
5713 Clouds 31 1010 67 10000 2.21 353 01:23 23.01.2022
5714 Clouds 30 1010 69 10000 2.13 7 00:22 23.01.2022
5715 Clouds 29 1010 74 10000 1.68 7 23:19 22.01.2022
5716 Clouds 29 1010 74 10000 1.68 7 22:34 22.01.2022
5717 Clouds 29 1010 74 10000 1.68 7 22:34 22.01.2022
5718 Clouds 27 1009 85 10000 0.65 330 21:18 22.01.2022
5719 Clouds 26 1008 88 10000 0.85 311 19:46 22.01.2022
5720 Clouds 26 1008 88 10000 1.5 302 18:43 22.01.2022
5721 Clouds 26 1008 88 10000 1.72 288 17:56 22.01.2022
5722 Clouds 26 1008 88 10000 1.72 288 17:35 22.01.2022
5723 Clouds 26 1007 88 10000 1.8 282 16:55 22.01.2022
5724 Clouds 26 1008 88 10000 1.75 272 15:49 22.01.2022
5725 Clouds 27 1009 87 10000 1.65 270 14:57 22.01.2022
5726 Clouds 27 1009 87 10000 1.69 266 13:36 22.01.2022
5727 Clouds 27 1010 87 10000 1.93 267 12:40 22.01.2022
5728 Clouds 27 1010 86 10000 1.72 270 12:22 22.01.2022
5729 Clouds 27 1009 86 10000 1.24 268 10:55 22.01.2022
5730 Clouds 27 1009 86 10000 1 294 10:27 22.01.2022
5731 Clouds 27 1009 86 10000 1 294 09:43 22.01.2022
5732 Clouds 27 1008 86 10000 1.21 344 08:51 22.01.2022
5733 Clouds 29 1006 74 10000 2.67 341 07:27 22.01.2022
5734 Clouds 31 1008 66 10000 2.53 7 03:26 22.01.2022
5735 Clouds 30 1009 70 10000 2.27 21 00:31 22.01.2022
5736 Clouds 28 1010 79 10000 0.76 60 23:21 21.01.2022
5737 Clouds 26 1010 87 10000 0.34 92 22:19 21.01.2022
5738 Clouds 26 1008 87 10000 0.36 75 19:52 21.01.2022
5739 Clouds 25 1007 86 10000 0.82 198 18:23 21.01.2022
5740 Clouds 25 1007 87 10000 1.28 248 16:58 21.01.2022
5741 Rain 25 1009 91 10000 1.91 257 15:26 21.01.2022
5742 Clouds 25 1010 93 10000 2.38 271 12:53 21.01.2022
5743 Rain 26 1010 88 10000 1.9 267 11:42 21.01.2022
5744 Clouds 26 1009 90 10000 1.57 264 11:23 21.01.2022
5745 Rain 26 1008 90 8768 2.15 295 09:26 21.01.2022
5746 Rain 26 1007 90 5430 2.51 303 08:21 21.01.2022
5747 Rain 27 1007 87 9282 1.81 338 04:37 21.01.2022
5748 Rain 25 1009 91 10000 1.9 90 22:53 20.01.2022
5749 Rain 25 1009 91 10000 1.5 91 21:49 20.01.2022
5750 Rain 25 1009 91 10000 0.85 75 21:28 20.01.2022
5751 Rain 25 1008 90 10000 0.46 46 19:56 20.01.2022
5752 Rain 25 1007 91 10000 0.54 282 19:19 20.01.2022
5753 Clouds 25 1007 94 10000 1.51 287 17:38 20.01.2022
5754 Clouds 25 1006 95 4503 1.61 264 16:35 20.01.2022
5755 Clouds 25 1006 95 4503 1.61 264 16:35 20.01.2022
5756 Clouds 24 1007 96 5546 0.86 217 15:40 20.01.2022
5757 Clouds 24 1007 96 4832 0.44 211 14:40 20.01.2022
5758 Rain 25 1008 97 2355 1.47 280 13:18 20.01.2022
5759 Rain 25 1008 94 5359 1.31 251 12:30 20.01.2022
5760 Clouds 26 1008 92 9242 2.29 294 11:20 20.01.2022
5761 Rain 26 1007 88 10000 1.42 322 10:19 20.01.2022
5762 Clouds 27 1006 85 10000 1.17 358 09:18 20.01.2022
5763 Clouds 28 1004 83 10000 1.21 337 07:24 20.01.2022
5764 Clouds 31 1006 66 10000 1.56 33 00:41 20.01.2022
5765 Clouds 29 1006 72 10000 1.07 90 22:40 19.01.2022
5766 Clouds 28 1006 78 10000 1.11 128 21:40 19.01.2022
5767 Clouds 26 1005 84 10000 1.62 150 21:21 19.01.2022
5768 Clouds 26 1005 84 10000 1.62 150 20:45 19.01.2022
5769 Clouds 25 1005 86 10000 1.26 181 19:18 19.01.2022
5770 Clouds 25 1004 87 10000 1.3 181 17:51 19.01.2022
5771 Clouds 26 1004 87 10000 1.27 198 17:18 19.01.2022
5772 Clouds 26 1005 87 10000 1.29 198 15:35 19.01.2022
5773 Clouds 27 1007 87 10000 0.71 232 13:26 19.01.2022
5774 Clouds 27 1007 87 10000 0.76 215 11:59 19.01.2022
5775 Clouds 27 1007 87 10000 0.76 215 11:38 19.01.2022
5776 Clouds 27 1006 86 10000 1.12 260 09:36 19.01.2022
5777 Clouds 28 1005 85 10000 1.67 292 08:38 19.01.2022
5778 Clouds 30 1004 75 10000 3.39 308 05:20 19.01.2022
5779 Clouds 30 1007 69 10000 1.29 339 00:21 19.01.2022
5780 Clouds 29 1007 73 10000 0.62 302 23:18 18.01.2022
5781 Clouds 28 1007 80 10000 0.27 214 21:45 18.01.2022
5782 Clouds 26 1006 85 10000 0.82 203 20:34 18.01.2022
5783 Clouds 26 1005 87 10000 0.79 206 19:49 18.01.2022
5784 Clouds 26 1005 87 10000 0.79 206 19:31 18.01.2022
5785 Clouds 26 1004 88 10000 0.75 202 18:19 18.01.2022
5786 Clouds 26 1004 88 10000 0.75 202 17:32 18.01.2022
5787 Clouds 26 1005 87 10000 0.52 223 16:22 18.01.2022
5788 Clouds 26 1005 87 10000 0.99 206 15:25 18.01.2022
5789 Clouds 26 1005 87 10000 0.99 206 15:25 18.01.2022
5790 Clouds 26 1006 86 10000 1.27 206 14:22 18.01.2022
5791 Clouds 27 1006 86 10000 1.35 211 11:37 18.01.2022
5792 Clouds 27 1005 85 10000 1.95 236 10:25 18.01.2022
5793 Clouds 29 1004 80 10000 2.75 276 08:29 18.01.2022
5794 Clouds 29 1004 80 10000 2.75 276 07:43 18.01.2022
5795 Clouds 31 1007 66 10000 2.29 314 00:39 18.01.2022
5796 Clouds 29 1008 75 10000 1.03 269 22:40 17.01.2022
5797 Clouds 28 1007 82 10000 1.16 225 21:42 17.01.2022
5798 Clouds 27 1007 87 10000 1.44 219 20:44 17.01.2022
5799 Clouds 26 1006 87 10000 1.59 236 18:46 17.01.2022
5800 Clouds 26 1005 87 10000 1.69 227 18:24 17.01.2022
5801 Clouds 26 1005 87 10000 1.75 212 17:19 17.01.2022
5802 Clouds 26 1006 87 10000 1.8 215 15:47 17.01.2022
5803 Clouds 26 1007 87 10000 1.69 215 14:58 17.01.2022
5804 Clouds 26 1008 86 10000 1.62 211 14:22 17.01.2022
5805 Clouds 26 1008 86 10000 1.82 208 13:18 17.01.2022
5806 Clouds 26 1008 86 10000 1.98 210 11:51 17.01.2022
5807 Clouds 26 1008 87 10000 2.3 221 10:47 17.01.2022
5808 Clouds 27 1007 87 10000 2.64 231 09:35 17.01.2022
5809 Clouds 27 1007 85 10000 2.95 245 08:43 17.01.2022
5810 Clouds 30 1005 72 10000 3.21 268 07:19 17.01.2022
5811 Clouds 31 1007 65 10000 2.73 304 00:58 17.01.2022
5812 Clouds 29 1009 71 10000 1.44 286 23:27 16.01.2022
5813 Clouds 26 1009 84 10000 1.68 213 20:41 16.01.2022
5814 Clouds 26 1008 86 10000 1.77 219 19:44 16.01.2022
5815 Clouds 26 1007 86 10000 1.9 234 18:42 16.01.2022
5816 Clouds 26 1007 86 10000 1.96 232 17:45 16.01.2022
5817 Clouds 26 1007 86 10000 2.06 232 16:48 16.01.2022
5818 Clouds 26 1008 86 10000 2.26 233 15:19 16.01.2022
5819 Clouds 26 1009 86 10000 2.22 230 14:28 16.01.2022
5820 Rain 26 1009 89 10000 2.41 238 12:51 16.01.2022
5821 Clouds 26 1009 88 10000 2.7 238 11:47 16.01.2022
5822 Clouds 26 1009 87 10000 2.65 238 10:55 16.01.2022
5823 Clouds 26 1009 88 10000 2.78 236 10:26 16.01.2022
5824 Clouds 26 1009 88 10000 2.78 236 09:52 16.01.2022
5825 Clouds 27 1008 87 10000 2.85 249 09:22 16.01.2022
5826 Clouds 27 1008 87 10000 2.85 249 08:38 16.01.2022
5827 Clouds 27 1008 86 10000 2.85 282 03:21 16.01.2022
5828 Clouds 27 1010 88 6705 2.62 294 23:49 15.01.2022
5829 Clouds 26 1010 89 10000 2.39 264 21:46 15.01.2022
5830 Clouds 26 1009 90 10000 2.19 267 21:19 15.01.2022
5831 Rain 26 1009 90 10000 2.19 267 20:40 15.01.2022
5832 Rain 26 1008 91 10000 3.03 299 19:29 15.01.2022
5833 Rain 26 1008 91 9656 2.46 276 18:44 15.01.2022
5834 Rain 26 1008 90 10000 2.57 267 17:25 15.01.2022
5835 Clouds 26 1008 90 10000 2.89 260 15:50 15.01.2022
5836 Clouds 26 1009 90 10000 2.72 264 13:55 15.01.2022
5837 Clouds 26 1009 89 10000 3.09 260 11:46 15.01.2022
5838 Clouds 27 1009 88 10000 3.13 264 10:36 15.01.2022
5839 Clouds 27 1007 86 10000 3.76 276 07:48 15.01.2022
5840 Clouds 27 1009 79 10000 2.53 273 23:50 14.01.2022
5841 Rain 26 1009 87 10000 2.74 242 21:41 14.01.2022
5842 Clouds 25 1008 90 10000 2.93 246 20:37 14.01.2022
5843 Clouds 25 1008 92 10000 3.61 256 19:58 14.01.2022
5844 Clouds 25 1007 93 10000 3.79 264 18:46 14.01.2022
5845 Clouds 25 1007 94 10000 3.31 267 17:54 14.01.2022
5846 Clouds 25 1007 92 10000 3.26 264 16:47 14.01.2022
5847 Clouds 26 1007 91 10000 3.26 265 15:33 14.01.2022
5848 Clouds 26 1007 91 10000 3.26 265 15:33 14.01.2022
5849 Clouds 26 1008 89 10000 2.24 262 14:29 14.01.2022
5850 Clouds 26 1009 90 10000 2.05 263 13:27 14.01.2022
5851 Clouds 26 1009 90 10000 1.65 274 12:20 14.01.2022
5852 Clouds 25 1009 90 10000 1.21 266 10:46 14.01.2022
5853 Clouds 25 1008 93 10000 0.89 235 08:54 14.01.2022
5854 Clouds 25 1007 95 10000 1.34 279 07:46 14.01.2022
5855 Clouds 27 1007 89 6149 2.16 302 03:19 14.01.2022
5856 Rain 27 1008 90 10000 1.62 304 00:35 14.01.2022
5857 Rain 25 1008 95 10000 1.45 295 21:55 13.01.2022
5858 Rain 25 1008 95 10000 1.45 295 21:30 13.01.2022
5859 Rain 25 1007 93 10000 2.87 278 20:27 13.01.2022
5860 Rain 25 1007 93 10000 2.87 278 19:30 13.01.2022
5861 Rain 26 1006 88 10000 2.63 276 18:50 13.01.2022
5862 Rain 26 1006 89 10000 1.95 266 16:58 13.01.2022
5863 Rain 26 1006 89 10000 1.8 258 15:46 13.01.2022
5864 Rain 26 1007 91 10000 1.98 232 15:26 13.01.2022
5865 Rain 26 1008 91 10000 2.15 246 13:36 13.01.2022
5866 Rain 26 1008 89 10000 2.4 266 11:38 13.01.2022
5867 Rain 27 1007 89 10000 2.46 290 09:24 13.01.2022
5868 Rain 27 1007 89 10000 2.46 290 08:30 13.01.2022
5869 Rain 27 1006 88 10000 2.5 291 07:59 13.01.2022
5870 Rain 27 1006 88 10000 2.45 288 07:20 13.01.2022
5871 Rain 29 1006 76 10000 3.9 289 05:21 13.01.2022
5872 Clouds 29 1006 76 10000 3.9 289 04:55 13.01.2022
5873 Clouds 29 1008 79 10000 3.43 312 01:39 13.01.2022
5874 Rain 29 1009 78 10000 2.62 305 23:54 12.01.2022
5875 Clouds 29 1009 78 10000 2.62 305 23:34 12.01.2022
5876 Clouds 28 1009 82 10000 2.26 301 22:32 12.01.2022
5877 Rain 28 1009 85 10000 1.56 282 21:43 12.01.2022
5878 Rain 27 1008 87 10000 1.52 269 21:19 12.01.2022
5879 Clouds 27 1008 87 10000 1.52 269 20:47 12.01.2022
5880 Rain 26 1007 89 10000 2.42 274 18:52 12.01.2022
5881 Clouds 27 1006 89 10000 2.6 275 18:18 12.01.2022
5882 Clouds 27 1006 90 10000 2.77 269 16:52 12.01.2022
5883 Rain 26 1008 88 10000 2.27 262 14:50 12.01.2022
5884 Rain 27 1009 87 10000 2.62 265 14:19 12.01.2022
5885 Rain 27 1009 86 10000 2.55 271 12:57 12.01.2022
5886 Clouds 26 1009 86 10000 2.51 244 09:48 12.01.2022
5887 Clouds 27 1007 85 10000 2.28 245 07:57 12.01.2022
5888 Clouds 27 1007 85 10000 2.28 245 07:33 12.01.2022
5889 Clouds 29 1008 75 10000 3.85 277 02:20 12.01.2022
5890 Rain 29 1009 78 10000 2.82 284 23:26 11.01.2022
5891 Rain 28 1009 81 10000 2.5 270 22:25 11.01.2022
5892 Rain 28 1009 81 10000 2.5 270 21:58 11.01.2022
5893 Clouds 27 1009 85 10000 2.06 243 20:39 11.01.2022
5894 Clouds 26 1008 87 10000 2.2 233 19:31 11.01.2022
5895 Clouds 26 1007 87 10000 2.64 238 17:53 11.01.2022
5896 Clouds 27 1007 87 10000 2.6 237 16:40 11.01.2022
5897 Clouds 27 1007 86 10000 2.71 232 16:18 11.01.2022
5898 Clouds 27 1008 85 10000 2.7 234 14:50 11.01.2022
5899 Clouds 27 1008 85 10000 2.7 234 14:32 11.01.2022
5900 Clouds 27 1009 85 10000 2.84 233 13:48 11.01.2022
5901 Clouds 27 1009 85 10000 2.87 229 13:25 11.01.2022
5902 Clouds 27 1009 86 10000 3.18 244 12:25 11.01.2022
5903 Rain 27 1009 86 10000 3.43 246 10:31 11.01.2022
5904 Clouds 28 1007 83 10000 3.55 253 07:50 11.01.2022
5905 Clouds 29 1008 76 10000 4.82 259 03:47 11.01.2022
5906 Rain 29 1010 74 10000 4.38 270 00:25 11.01.2022
5907 Clouds 29 1010 74 10000 4.38 270 23:38 10.01.2022
5908 Rain 27 1010 87 10000 3.25 256 22:20 10.01.2022
5909 Clouds 27 1010 87 10000 3.25 256 21:57 10.01.2022
5910 Clouds 27 1010 87 10000 3.25 256 21:33 10.01.2022
5911 Clouds 26 1009 89 10000 3.03 245 20:58 10.01.2022
5912 Clouds 26 1009 89 10000 2.7 237 20:29 10.01.2022
5913 Clouds 26 1009 89 10000 2.7 237 19:48 10.01.2022
5914 Clouds 26 1009 89 10000 2.7 237 19:48 10.01.2022
5915 Clouds 26 1008 87 10000 2.53 232 19:23 10.01.2022
5916 Clouds 26 1008 87 10000 2.53 232 18:55 10.01.2022
5917 Clouds 26 1008 87 10000 2.53 232 18:37 10.01.2022
5918 Clouds 26 1008 88 10000 2.97 243 16:48 10.01.2022
5919 Clouds 26 1008 87 10000 2.82 241 16:20 10.01.2022
5920 Clouds 26 1009 87 10000 2.79 237 14:42 10.01.2022
5921 Clouds 26 1011 87 10000 2.62 239 12:50 10.01.2022
5922 Clouds 26 1010 87 10000 2.87 241 11:55 10.01.2022
5923 Rain 26 1010 87 10000 3.09 243 10:46 10.01.2022
5924 Rain 27 1009 85 10000 3.63 250 08:59 10.01.2022
5925 Rain 31 1007 65 10000 4.81 256 05:51 10.01.2022
5926 Clouds 31 1009 63 10000 3.98 269 01:35 10.01.2022
5927 Clouds 31 1009 67 10000 3.68 261 00:44 10.01.2022
5928 Clouds 30 1010 69 10000 3.66 256 00:19 10.01.2022
5929 Clouds 29 1010 74 10000 3.35 252 22:43 09.01.2022
5930 Clouds 28 1010 80 10000 3.25 245 21:47 09.01.2022
5931 Clouds 26 1009 86 10000 3.32 237 21:25 09.01.2022
5932 Clouds 26 1009 86 10000 3.32 237 20:58 09.01.2022
5933 Clouds 26 1009 86 10000 3.32 237 20:39 09.01.2022
5934 Clouds 26 1009 87 10000 3.41 241 20:21 09.01.2022
5935 Clouds 26 1009 87 10000 3.41 241 19:38 09.01.2022
5936 Clouds 26 1008 87 10000 3.59 245 19:18 09.01.2022
5937 Clouds 26 1008 88 10000 3.4 246 18:37 09.01.2022
5938 Clouds 26 1008 89 10000 3.41 248 17:48 09.01.2022
5939 Clouds 26 1008 88 10000 3.3 248 17:29 09.01.2022
5940 Clouds 26 1008 88 10000 3.3 248 16:40 09.01.2022
5941 Clouds 26 1008 87 10000 3.14 250 15:40 09.01.2022
5942 Clouds 26 1008 86 10000 3.01 249 14:50 09.01.2022
5943 Clouds 26 1009 86 10000 2.85 235 14:23 09.01.2022
5944 Clouds 26 1009 86 10000 2.85 235 13:48 09.01.2022
5945 Clouds 26 1010 86 10000 3.01 241 11:56 09.01.2022
5946 Clouds 27 1009 86 10000 3.07 249 11:25 09.01.2022
5947 Clouds 27 1009 86 10000 3.24 255 09:55 09.01.2022
5948 Clouds 27 1008 84 10000 3.5 264 08:56 09.01.2022
5949 Clouds 30 1006 72 10000 4.07 293 06:21 09.01.2022
5950 Clouds 30 1010 71 10000 2.83 317 01:28 09.01.2022
5951 Clouds 30 1010 72 10000 3.17 310 00:37 09.01.2022
5952 Clouds 30 1010 68 10000 2.28 300 23:30 08.01.2022
5953 Clouds 29 1010 73 10000 1.83 280 22:44 08.01.2022
5954 Clouds 26 1010 86 10000 1.6 249 21:27 08.01.2022
5955 Clouds 26 1010 86 10000 1.6 249 20:43 08.01.2022
5956 Clouds 25 1009 88 10000 1.74 239 20:21 08.01.2022
5957 Clouds 25 1008 87 10000 1.71 237 19:22 08.01.2022
5958 Clouds 25 1008 86 10000 1.95 226 17:25 08.01.2022
5959 Clouds 25 1008 86 10000 1.95 226 16:42 08.01.2022
5960 Clouds 25 1009 86 10000 1.9 216 14:52 08.01.2022
5961 Rain 26 1010 86 10000 1.77 220 13:56 08.01.2022
5962 Clouds 26 1010 83 10000 1.93 232 11:30 08.01.2022
5963 Clouds 26 1010 82 10000 2.15 234 10:33 08.01.2022
5964 Clouds 27 1010 82 10000 2.44 245 09:57 08.01.2022
5965 Clouds 27 1010 82 10000 2.44 245 09:30 08.01.2022
5966 Clouds 28 1007 81 10000 2.86 305 05:39 08.01.2022
5967 Clouds 31 1008 63 10000 2.71 314 00:59 08.01.2022
5968 Clouds 30 1009 64 10000 2.25 301 23:30 07.01.2022
5969 Clouds 28 1009 74 10000 1.63 239 21:46 07.01.2022
5970 Clouds 26 1008 82 10000 2.32 221 20:23 07.01.2022
5971 Clouds 26 1008 82 10000 2.25 226 19:26 07.01.2022
5972 Clouds 26 1008 82 10000 2.47 228 18:45 07.01.2022
5973 Clouds 26 1008 82 10000 2.54 231 17:58 07.01.2022
5974 Clouds 26 1008 82 10000 2.66 227 17:22 07.01.2022
5975 Clouds 26 1009 81 10000 2.47 230 14:50 07.01.2022
5976 Clouds 26 1010 81 10000 2.44 225 13:50 07.01.2022
5977 Clouds 26 1011 81 10000 2.21 220 12:50 07.01.2022
5978 Clouds 27 1009 80 10000 2.33 231 09:48 07.01.2022
5979 Clouds 30 1007 69 10000 3.81 271 02:58 07.01.2022
5980 Clouds 30 1008 68 10000 3.43 283 02:19 07.01.2022
5981 Clouds 30 1008 68 10000 3.43 283 01:41 07.01.2022
5982 Clouds 30 1009 67 10000 2.87 287 01:20 07.01.2022
5983 Clouds 30 1009 70 10000 2.05 277 00:28 07.01.2022
5984 Clouds 28 1009 81 10000 1.42 262 21:40 06.01.2022
5985 Clouds 26 1009 86 10000 1.37 256 20:36 06.01.2022
5986 Clouds 25 1008 87 10000 1.42 254 19:54 06.01.2022
5987 Clouds 25 1007 88 10000 1.57 254 19:28 06.01.2022
5988 Clouds 26 1007 86 10000 1.67 227 17:51 06.01.2022
5989 Clouds 26 1007 86 10000 1.74 231 17:19 06.01.2022
5990 Rain 26 1007 85 10000 1.77 230 16:21 06.01.2022
5991 Rain 26 1007 85 10000 1.77 230 15:40 06.01.2022
5992 Rain 26 1008 85 10000 1.91 232 15:19 06.01.2022
5993 Rain 26 1009 85 10000 1.92 239 14:19 06.01.2022
5994 Clouds 26 1009 85 10000 2.1 241 12:59 06.01.2022
5995 Rain 27 1009 85 10000 2.18 237 11:50 06.01.2022
5996 Clouds 27 1009 85 10000 2.39 241 11:28 06.01.2022
5997 Clouds 27 1008 83 10000 2.86 252 08:59 06.01.2022
5998 Clouds 31 1008 67 10000 3.89 284 01:56 06.01.2022
5999 Clouds 30 1009 67 10000 2.99 271 23:54 05.01.2022
6000 Clouds 29 1009 72 10000 2.88 262 23:19 05.01.2022
6001 Clouds 29 1009 72 10000 2.88 262 22:40 05.01.2022
6002 Rain 28 1009 77 10000 2.67 257 21:54 05.01.2022
6003 Clouds 27 1008 83 10000 2.93 247 21:21 05.01.2022
6004 Clouds 26 1007 84 10000 3.01 247 20:19 05.01.2022
6005 Clouds 26 1007 83 10000 2.97 247 18:54 05.01.2022
6006 Clouds 26 1006 83 10000 2.69 246 17:45 05.01.2022
6007 Rain 26 1006 84 10000 2.83 246 16:51 05.01.2022
6008 Clouds 26 1006 85 10000 2.87 247 15:43 05.01.2022
6009 Clouds 26 1008 87 10000 2.96 239 14:24 05.01.2022
6010 Clouds 26 1009 87 10000 3.11 242 13:25 05.01.2022
6011 Clouds 26 1008 87 10000 3.08 247 11:36 05.01.2022
6012 Clouds 29 1005 80 10000 3.84 261 07:47 05.01.2022
6013 Clouds 30 1004 69 10000 4.22 266 06:25 05.01.2022
6014 Clouds 30 1007 73 10000 4.14 286 00:59 05.01.2022
6015 Rain 29 1008 73 10000 2.97 273 23:28 04.01.2022
6016 Rain 29 1008 73 10000 2.97 273 22:55 04.01.2022
6017 Rain 27 1008 83 10000 2.83 262 21:31 04.01.2022
6018 Rain 27 1008 83 10000 2.83 262 21:31 04.01.2022
6019 Rain 26 1006 86 10000 2.88 253 19:20 04.01.2022
6020 Clouds 26 1006 88 10000 2.98 253 17:52 04.01.2022
6021 Clouds 26 1006 87 10000 2.95 254 16:53 04.01.2022
6022 Clouds 26 1006 88 10000 2.95 253 16:25 04.01.2022
6023 Clouds 26 1006 88 10000 2.88 254 14:54 04.01.2022
6024 Clouds 26 1006 88 10000 2.88 254 14:35 04.01.2022
6025 Clouds 26 1008 87 10000 2.72 255 13:29 04.01.2022
6026 Clouds 26 1008 84 10000 2.83 250 10:41 04.01.2022
6027 Clouds 27 1007 84 10000 2.93 251 09:47 04.01.2022
6028 Clouds 27 1007 82 10000 3.16 256 08:32 04.01.2022
6029 Clouds 32 1005 54 10000 3.82 254 02:32 04.01.2022
6030 Clouds 31 1006 58 10000 1.68 254 00:41 04.01.2022
6031 Clouds 30 1007 66 10000 2.3 229 23:26 03.01.2022
6032 Clouds 28 1007 74 10000 2.72 217 21:52 03.01.2022
6033 Clouds 28 1007 74 10000 2.72 217 21:33 03.01.2022
6034 Clouds 26 1005 86 10000 3.56 217 20:22 03.01.2022
6035 Clouds 26 1005 85 10000 3.1 220 18:54 03.01.2022
6036 Clouds 26 1004 85 10000 2.99 222 18:28 03.01.2022
6037 Clouds 26 1004 84 10000 3.11 225 16:58 03.01.2022
6038 Clouds 26 1005 84 10000 3.26 225 15:39 03.01.2022
6039 Clouds 26 1005 84 10000 3.49 227 14:30 03.01.2022
6040 Clouds 26 1007 85 10000 3.39 232 12:46 03.01.2022
6041 Clouds 26 1006 86 10000 3.56 236 11:35 03.01.2022
6042 Clouds 27 1006 86 10000 3.95 248 10:27 03.01.2022
6043 Rain 27 1005 87 10000 4.07 256 08:47 03.01.2022
6044 Clouds 27 1005 86 10000 4.23 258 07:34 03.01.2022
6045 Clouds 27 1005 86 10000 4.23 258 07:34 03.01.2022
6046 Clouds 30 1006 72 10000 3.69 262 23:55 02.01.2022
6047 Clouds 29 1006 78 10000 3.32 254 23:21 02.01.2022
6048 Clouds 29 1006 78 10000 3.32 254 22:53 02.01.2022
6049 Rain 28 1006 86 10000 3.04 244 21:39 02.01.2022
6050 Clouds 27 1006 89 10000 3.13 238 20:33 02.01.2022
6051 Clouds 26 1005 89 10000 3.14 240 19:54 02.01.2022
6052 Clouds 26 1005 89 10000 3.35 244 19:29 02.01.2022
6053 Clouds 26 1005 88 10000 3.09 239 18:39 02.01.2022
6054 Rain 26 1004 88 10000 3 239 17:43 02.01.2022
6055 Clouds 26 1004 88 10000 3.13 245 17:22 02.01.2022
6056 Rain 26 1004 88 10000 3.13 245 16:59 02.01.2022
6057 Rain 26 1005 89 10000 3.13 248 16:24 02.01.2022
6058 Rain 26 1007 92 10000 2.99 249 14:21 02.01.2022
6059 Rain 26 1008 91 10000 3.22 258 12:39 02.01.2022
6060 Rain 26 1008 88 10000 3.49 273 11:57 02.01.2022
6061 Rain 27 1008 88 10000 2.81 275 11:20 02.01.2022
6062 Rain 27 1008 88 10000 2.81 275 10:37 02.01.2022
6063 Rain 27 1006 83 10000 2.98 275 08:27 02.01.2022
6064 Clouds 27 1007 88 10000 3.33 267 03:22 02.01.2022
6065 Clouds 28 1008 84 10000 2.19 270 23:56 01.01.2022
6066 Clouds 28 1008 84 10000 2.19 270 23:36 01.01.2022
6067 Clouds 28 1008 82 10000 1.85 252 22:44 01.01.2022
6068 Clouds 28 1008 82 10000 2.08 243 22:18 01.01.2022
6069 Clouds 28 1008 82 10000 2.08 243 21:43 01.01.2022
6070 Clouds 27 1007 83 10000 2.23 233 20:51 01.01.2022
6071 Clouds 26 1007 82 10000 1.71 225 19:55 01.01.2022
6072 Clouds 26 1006 82 10000 1.44 214 18:53 01.01.2022
6073 Clouds 26 1007 85 10000 2.04 228 17:56 01.01.2022
6074 Clouds 26 1007 86 10000 2.26 230 16:35 01.01.2022
6075 Clouds 26 1007 86 10000 2.51 240 15:57 01.01.2022
6076 Clouds 26 1008 87 10000 2.8 249 14:56 01.01.2022
6077 Clouds 26 1009 86 10000 2.29 252 13:42 01.01.2022
6078 Rain 26 1010 88 10000 1.74 230 12:26 01.01.2022
6079 Clouds 26 1010 88 10000 1.74 230 11:47 01.01.2022
6080 Clouds 27 1010 87 10000 1.86 233 11:19 01.01.2022
6081 Rain 27 1009 86 10000 1.86 240 09:49 01.01.2022
6082 Rain 27 1009 84 10000 1.63 264 09:20 01.01.2022
6083 Clouds 28 1008 82 10000 1.3 285 08:22 01.01.2022
6084 Clouds 28 1008 82 10000 1.3 285 07:40 01.01.2022
6085 Clouds 29 1007 83 10000 1.69 310 06:44 01.01.2022
6086 Rain 29 1007 80 10000 2.42 317 05:25 01.01.2022
6087 Rain 29 1007 80 10000 2.42 317 04:36 01.01.2022
6088 Clouds 29 1009 75 10000 0.34 320 00:37 01.01.2022
6089 Clouds 28 1009 80 10000 0.36 63 22:40 31.12.2021
6090 Clouds 27 1009 83 10000 0.42 87 21:49 31.12.2021
6091 Clouds 26 1009 83 10000 0.1 337 19:56 31.12.2021
6092 Clouds 26 1008 83 10000 0.16 154 19:28 31.12.2021
6093 Clouds 26 1008 85 10000 0.72 152 18:24 31.12.2021
6094 Clouds 26 1008 85 10000 0.72 152 17:37 31.12.2021
6095 Clouds 26 1008 86 10000 1.55 145 17:18 31.12.2021
6096 Clouds 26 1008 87 10000 1.59 170 16:19 31.12.2021
6097 Clouds 26 1008 87 10000 1.59 170 15:51 31.12.2021
6098 Clouds 26 1009 86 10000 1.66 197 15:28 31.12.2021
6099 Rain 26 1009 86 10000 1.66 197 14:41 31.12.2021
6100 Rain 27 1010 85 10000 2 219 13:56 31.12.2021
6101 Rain 27 1010 85 10000 2.09 233 13:23 31.12.2021
6102 Clouds 27 1010 84 10000 1.93 246 12:33 31.12.2021
6103 Clouds 27 1009 85 10000 1.9 248 11:42 31.12.2021
6104 Clouds 27 1009 85 10000 1.45 270 10:58 31.12.2021
6105 Clouds 27 1009 84 10000 0.87 285 10:29 31.12.2021
6106 Clouds 27 1009 84 10000 0.87 285 09:35 31.12.2021
6107 Clouds 27 1009 84 10000 0.49 288 08:54 31.12.2021
6108 Clouds 28 1008 84 10000 1.11 308 08:23 31.12.2021
6109 Rain 29 1006 80 10000 2.05 322 06:24 31.12.2021
6110 Rain 27 1010 89 10000 2.6 275 23:19 30.12.2021
6111 Rain 27 1010 89 10000 2.6 275 22:32 30.12.2021
6112 Clouds 27 1010 88 10000 2.42 262 21:40 30.12.2021
6113 Clouds 26 1010 88 10000 2.28 258 21:20 30.12.2021
6114 Clouds 26 1010 88 10000 2.28 258 20:40 30.12.2021
6115 Rain 26 1009 88 10000 2.13 261 19:58 30.12.2021
6116 Rain 26 1009 88 10000 2.13 261 19:34 30.12.2021
6117 Rain 26 1008 90 10000 3.07 261 18:29 30.12.2021
6118 Rain 26 1008 90 10000 3.07 261 17:34 30.12.2021
6119 Clouds 26 1007 88 10000 2.42 264 15:54 30.12.2021
6120 Clouds 26 1008 88 10000 2.28 258 15:21 30.12.2021
6121 Clouds 26 1008 88 10000 2.28 258 14:36 30.12.2021
6122 Clouds 26 1009 88 10000 1.97 247 13:26 30.12.2021
6123 Clouds 27 1009 88 10000 2.01 243 11:58 30.12.2021
6124 Clouds 27 1009 88 10000 2.04 241 10:40 30.12.2021
6125 Rain 27 1009 87 10000 2.05 247 09:49 30.12.2021
6126 Rain 29 1006 81 10000 2.08 262 06:59 30.12.2021
6127 Rain 29 1006 81 10000 1.78 279 05:27 30.12.2021
6128 Rain 29 1006 79 10000 2.29 296 03:41 30.12.2021
6129 Clouds 30 1007 74 10000 2.14 310 02:32 30.12.2021
6130 Rain 28 1009 82 10000 1.61 260 23:39 29.12.2021
6131 Rain 28 1009 82 10000 1.74 242 22:55 29.12.2021
6132 Clouds 28 1009 84 10000 1.66 240 22:18 29.12.2021
6133 Clouds 27 1009 87 10000 1.93 234 20:59 29.12.2021
6134 Clouds 27 1009 87 10000 1.93 234 20:30 29.12.2021
6135 Clouds 27 1009 87 10000 1.93 234 20:30 29.12.2021
6136 Clouds 26 1008 89 10000 2.34 243 19:38 29.12.2021
6137 Clouds 26 1007 88 10000 2.46 257 18:43 29.12.2021
6138 Rain 26 1007 88 10000 2.57 259 17:51 29.12.2021
6139 Clouds 26 1007 89 10000 2.52 258 17:27 29.12.2021
6140 Clouds 26 1007 89 10000 2.46 258 16:22 29.12.2021
6141 Clouds 26 1008 90 10000 2.3 257 15:21 29.12.2021
6142 Clouds 26 1009 89 10000 2.04 252 13:31 29.12.2021
6143 Clouds 26 1009 89 10000 1.62 239 12:35 29.12.2021
6144 Clouds 27 1008 88 10000 1.66 247 11:25 29.12.2021
6145 Rain 27 1008 88 10000 2 244 09:38 29.12.2021
6146 Clouds 27 1007 88 10000 3.07 257 07:47 29.12.2021
6147 Clouds 28 1006 84 10000 2.38 298 06:36 29.12.2021
6148 Clouds 29 1006 81 10000 2.59 305 05:57 29.12.2021
6149 Clouds 29 1006 78 10000 2.7 321 05:27 29.12.2021
6150 Rain 29 1009 79 10000 2.2 331 01:27 29.12.2021
6151 Rain 29 1009 78 10000 2.29 321 23:59 28.12.2021
6152 Rain 29 1009 80 10000 2.01 307 22:57 28.12.2021
6153 Rain 29 1009 80 10000 2.01 307 22:57 28.12.2021
6154 Rain 28 1009 81 10000 1.47 279 22:25 28.12.2021
6155 Rain 28 1009 81 10000 1.47 279 21:54 28.12.2021
6156 Rain 28 1009 81 10000 1.47 279 21:35 28.12.2021
6157 Rain 27 1009 82 10000 1.17 249 20:32 28.12.2021
6158 Clouds 26 1007 83 10000 1.52 236 18:54 28.12.2021
6159 Rain 26 1007 84 10000 1.5 231 18:28 28.12.2021
6160 Rain 26 1007 84 10000 1.5 231 17:39 28.12.2021
6161 Clouds 26 1007 83 10000 1.31 246 16:21 28.12.2021
6162 Clouds 26 1007 83 10000 1.31 246 15:41 28.12.2021
6163 Clouds 26 1008 82 10000 1.72 240 14:56 28.12.2021
6164 Clouds 26 1008 82 10000 1.72 240 14:56 28.12.2021
6165 Clouds 26 1008 82 10000 1.72 240 14:38 28.12.2021
6166 Clouds 26 1008 82 10000 1.72 240 14:38 28.12.2021
6167 Clouds 26 1009 82 10000 1.76 230 14:19 28.12.2021
6168 Clouds 26 1009 82 10000 1.76 230 13:37 28.12.2021
6169 Clouds 26 1010 82 10000 1.67 233 12:56 28.12.2021
6170 Clouds 26 1010 83 10000 2.5 239 12:21 28.12.2021
6171 Clouds 26 1009 83 10000 2.89 241 10:47 28.12.2021
6172 Rain 28 1007 81 10000 2.73 247 07:38 28.12.2021
6173 Clouds 30 1007 70 10000 3.14 293 03:37 28.12.2021
6174 Rain 28 1009 84 10000 2.46 284 23:40 27.12.2021
6175 Clouds 28 1009 85 10000 1.8 289 22:21 27.12.2021
6176 Clouds 28 1009 85 10000 1.8 289 21:30 27.12.2021
6177 Rain 27 1009 87 10000 1.4 277 20:39 27.12.2021
6178 Rain 26 1008 89 10000 1.4 275 19:48 27.12.2021
6179 Clouds 27 1007 88 10000 1.43 290 19:27 27.12.2021
6180 Clouds 27 1007 88 10000 1.42 303 17:51 27.12.2021
6181 Clouds 27 1007 87 10000 1.6 302 17:28 27.12.2021
6182 Clouds 27 1007 86 10000 1.78 305 15:56 27.12.2021
6183 Clouds 27 1008 86 10000 1.76 310 15:19 27.12.2021
6184 Clouds 27 1009 85 10000 1.5 307 14:22 27.12.2021
6185 Clouds 27 1009 86 10000 1.37 312 12:56 27.12.2021
6186 Clouds 27 1009 86 10000 1.14 308 10:56 27.12.2021
6187 Clouds 27 1008 86 10000 1.26 306 10:27 27.12.2021
6188 Rain 28 1008 85 10000 1.72 310 09:19 27.12.2021
6189 Rain 28 1007 82 10000 2.01 309 07:34 27.12.2021
6190 Rain 30 1006 71 10000 2.47 327 06:27 27.12.2021
6191 Clouds 30 1008 71 10000 2.34 344 01:51 27.12.2021
6192 Rain 28 1010 82 10000 1.73 351 23:49 26.12.2021
6193 Rain 28 1010 81 6160 1.41 354 23:19 26.12.2021
6194 Rain 28 1009 83 10000 0.73 348 21:37 26.12.2021
6195 Rain 26 1008 86 10000 0.13 215 19:55 26.12.2021
6196 Rain 26 1007 87 10000 0.86 258 18:45 26.12.2021
6197 Rain 26 1007 86 10000 1.1 288 18:21 26.12.2021
6198 Clouds 27 1007 85 10000 0.93 273 15:38 26.12.2021
6199 Rain 27 1008 86 10000 0.37 233 13:49 26.12.2021
6200 Rain 27 1008 86 10000 0.37 233 13:31 26.12.2021
6201 Rain 26 1009 89 10000 1.77 270 12:35 26.12.2021
6202 Clouds 26 1010 91 10000 2.55 296 11:20 26.12.2021
6203 Clouds 26 1009 90 4281 2.43 294 09:31 26.12.2021
6204 Rain 27 1008 88 10000 2.64 291 08:45 26.12.2021
6205 Rain 28 1007 85 10000 2.21 302 08:26 26.12.2021
6206 Clouds 29 1009 80 10000 2.32 19 01:50 26.12.2021
6207 Clouds 28 1009 85 10000 2.89 18 00:39 26.12.2021
6208 Rain 28 1010 84 10000 2.67 23 23:35 25.12.2021
6209 Clouds 27 1010 82 10000 0.95 81 22:29 25.12.2021
6210 Rain 27 1010 82 10000 0.95 81 21:30 25.12.2021
6211 Clouds 26 1008 86 10000 1.09 172 20:18 25.12.2021
6212 Clouds 26 1008 87 10000 1.16 167 19:18 25.12.2021
6213 Clouds 26 1007 88 10000 1.1 113 18:29 25.12.2021
6214 Clouds 26 1007 88 10000 1.29 119 16:49 25.12.2021
6215 Clouds 26 1007 87 10000 1.39 115 15:30 25.12.2021
6216 Rain 26 1009 86 10000 1.18 104 14:22 25.12.2021
6217 Clouds 26 1009 88 10000 1.18 133 12:21 25.12.2021
6218 Clouds 26 1009 90 10000 1.53 141 10:38 25.12.2021
6219 Clouds 26 1009 91 10000 1.85 140 09:48 25.12.2021
6220 Rain 28 1007 83 8671 1.73 317 07:27 25.12.2021
6221 Clouds 30 1008 77 10000 2.47 322 01:36 25.12.2021
6222 Clouds 31 1009 69 10000 1.28 323 00:19 25.12.2021
6223 Clouds 28 1009 81 10000 0.98 234 21:51 24.12.2021
6224 Clouds 26 1008 87 10000 0.79 210 19:27 24.12.2021
6225 Clouds 26 1008 87 10000 0.79 210 18:41 24.12.2021
6226 Clouds 26 1006 87 10000 0.7 233 16:44 24.12.2021
6227 Clouds 26 1006 87 10000 0.97 224 15:50 24.12.2021
6228 Clouds 26 1007 87 10000 0.91 224 15:20 24.12.2021
6229 Clouds 26 1007 87 10000 0.91 224 14:33 24.12.2021
6230 Clouds 27 1008 86 10000 0.75 225 13:50 24.12.2021
6231 Clouds 27 1008 86 10000 0.75 225 13:32 24.12.2021
6232 Clouds 27 1009 86 10000 0.77 229 12:39 24.12.2021
6233 Clouds 27 1009 86 10000 0.9 166 11:42 24.12.2021
6234 Clouds 27 1008 86 10000 0.93 160 11:24 24.12.2021
6235 Clouds 27 1008 86 10000 0.93 160 10:35 24.12.2021
6236 Rain 27 1007 87 10000 0.56 150 08:48 24.12.2021
6237 Rain 27 1006 86 10000 0.31 98 07:58 24.12.2021
6238 Clouds 28 1006 85 10000 0.48 27 06:59 24.12.2021
6239 Clouds 27 1009 84 10000 1.93 83 00:22 24.12.2021
6240 Clouds 27 1009 84 10000 1.93 83 23:49 23.12.2021
6241 Clouds 26 1010 87 10000 1.88 65 22:53 23.12.2021
6242 Clouds 26 1009 89 10000 1.69 114 22:24 23.12.2021
6243 Clouds 26 1009 89 10000 1.69 114 21:41 23.12.2021
6244 Clouds 25 1009 91 10000 2.35 115 20:31 23.12.2021
6245 Clouds 25 1008 91 10000 2.51 120 19:30 23.12.2021
6246 Clouds 26 1006 86 10000 0.61 217 18:27 23.12.2021
6247 Clouds 26 1006 86 10000 0.61 217 17:46 23.12.2021
6248 Clouds 26 1006 86 10000 0.71 207 16:27 23.12.2021
6249 Clouds 26 1006 86 10000 0.71 207 15:48 23.12.2021
6250 Clouds 26 1006 86 10000 0.71 207 15:30 23.12.2021
6251 Clouds 26 1007 86 10000 0.7 228 14:42 23.12.2021
6252 Clouds 27 1008 87 10000 0.67 205 13:43 23.12.2021
6253 Rain 26 1009 91 10000 1.89 155 11:52 23.12.2021
6254 Rain 27 1009 89 10000 0.38 303 09:53 23.12.2021
6255 Rain 27 1009 89 10000 0.38 303 09:34 23.12.2021
6256 Rain 27 1008 89 10000 0.44 342 08:38 23.12.2021
6257 Rain 29 1006 75 10000 2.22 1 05:43 23.12.2021
6258 Clouds 30 1008 68 10000 2.8 9 02:56 23.12.2021
6259 Clouds 28 1009 83 10000 3.78 32 22:53 22.12.2021
6260 Clouds 28 1009 83 10000 2.21 58 22:19 22.12.2021
6261 Clouds 28 1009 83 10000 2.21 58 21:36 22.12.2021
6262 Clouds 27 1008 86 10000 1.82 93 21:18 22.12.2021
6263 Clouds 27 1008 86 10000 1.82 93 20:40 22.12.2021
6264 Clouds 26 1007 88 10000 2.17 97 19:54 22.12.2021
6265 Clouds 26 1007 88 10000 1.88 112 18:55 22.12.2021
6266 Clouds 26 1006 87 10000 1.59 106 17:38 22.12.2021
6267 Clouds 26 1006 86 10000 1.44 148 16:22 22.12.2021
6268 Clouds 26 1008 86 10000 1.5 168 14:28 22.12.2021
6269 Clouds 27 1009 86 10000 0.94 169 12:53 22.12.2021
6270 Clouds 27 1009 86 10000 0.95 176 11:42 22.12.2021
6271 Rain 27 1008 86 10000 0.82 191 09:52 22.12.2021
6272 Rain 28 1006 83 10000 0.66 230 07:57 22.12.2021
6273 Rain 29 1005 84 10000 1.82 332 05:54 22.12.2021
6274 Rain 29 1005 84 10000 1.82 332 05:34 22.12.2021
6275 Rain 30 1005 75 10000 1.86 347 04:57 22.12.2021
6276 Rain 30 1005 75 10000 1.86 347 04:37 22.12.2021
6277 Clouds 30 1006 73 10000 1.55 355 03:37 22.12.2021
6278 Clouds 30 1007 72 10000 1.01 5 03:18 22.12.2021
6279 Clouds 28 1009 83 10000 0.35 37 23:47 21.12.2021
6280 Clouds 27 1009 84 10000 0.64 72 22:36 21.12.2021
6281 Clouds 27 1009 85 10000 0.45 121 21:55 21.12.2021
6282 Clouds 27 1009 85 10000 0.45 121 21:31 21.12.2021
6283 Clouds 26 1008 86 10000 1.29 149 20:24 21.12.2021
6284 Clouds 26 1008 86 10000 1.29 149 19:55 21.12.2021
6285 Clouds 26 1008 86 10000 1.29 149 19:33 21.12.2021
6286 Clouds 26 1007 87 10000 1.44 153 18:23 21.12.2021
6287 Clouds 26 1007 87 10000 1.44 153 17:53 21.12.2021
6288 Clouds 26 1007 87 10000 1.45 150 16:47 21.12.2021
6289 Clouds 26 1008 87 10000 1.55 149 15:34 21.12.2021
6290 Rain 26 1010 87 10000 1.54 142 13:55 21.12.2021
6291 Rain 26 1010 87 10000 1.54 142 13:36 21.12.2021
6292 Rain 26 1010 88 10000 1.33 138 12:25 21.12.2021
6293 Clouds 26 1010 88 10000 1.42 130 10:38 21.12.2021
6294 Clouds 27 1010 88 10000 1.76 123 09:41 21.12.2021
6295 Clouds 27 1009 86 10000 1.52 120 08:39 21.12.2021
6296 Clouds 28 1008 85 10000 1.2 114 07:35 21.12.2021
6297 Clouds 28 1008 84 10000 0.67 118 06:56 21.12.2021
6298 Clouds 30 1008 77 8668 1.59 310 03:22 21.12.2021
6299 Clouds 30 1010 71 10000 1.59 323 01:18 21.12.2021
6300 Clouds 29 1010 75 10000 1.19 310 23:34 20.12.2021
6301 Clouds 29 1011 77 10000 0.78 289 22:35 20.12.2021
6302 Clouds 28 1010 81 10000 0.67 230 21:48 20.12.2021
6303 Clouds 27 1010 85 10000 0.94 218 21:24 20.12.2021
6304 Clouds 27 1010 85 10000 0.94 218 20:48 20.12.2021
6305 Clouds 26 1009 86 10000 0.89 232 19:55 20.12.2021
6306 Clouds 26 1009 86 10000 0.89 232 19:32 20.12.2021
6307 Clouds 26 1009 87 10000 0.99 234 18:55 20.12.2021
6308 Clouds 26 1008 88 10000 1.62 233 17:56 20.12.2021
6309 Clouds 26 1008 88 10000 1.62 233 17:37 20.12.2021
6310 Clouds 26 1008 88 10000 1.57 232 16:43 20.12.2021
6311 Clouds 26 1008 88 10000 1.45 230 15:52 20.12.2021
6312 Clouds 26 1009 88 10000 1.39 225 14:56 20.12.2021
6313 Clouds 26 1011 88 10000 1.17 180 13:18 20.12.2021
6314 Clouds 26 1010 88 10000 0.95 183 11:23 20.12.2021
6315 Clouds 26 1010 88 10000 0.29 151 09:51 20.12.2021
6316 Clouds 26 1010 88 10000 0.29 151 09:31 20.12.2021
6317 Clouds 26 1009 89 10000 0.72 29 08:42 20.12.2021
6318 Clouds 28 1008 87 8765 1.4 15 07:50 20.12.2021
6319 Clouds 28 1008 87 8765 1.4 15 07:50 20.12.2021
6320 Clouds 28 1008 87 8765 1.4 15 07:30 20.12.2021
6321 Clouds 29 1007 75 10000 1.81 11 04:36 20.12.2021
6322 Clouds 29 1010 78 10000 1.3 34 23:59 19.12.2021
6323 Clouds 28 1010 82 10000 0.79 60 22:51 19.12.2021
6324 Clouds 27 1010 86 10000 0.72 127 21:50 19.12.2021
6325 Clouds 27 1010 86 10000 0.72 127 21:30 19.12.2021
6326 Clouds 26 1010 87 10000 1.36 133 20:32 19.12.2021
6327 Clouds 26 1009 87 10000 0.85 122 19:51 19.12.2021
6328 Clouds 26 1009 87 10000 0.53 85 19:22 19.12.2021
6329 Clouds 26 1008 87 10000 0.76 119 18:29 19.12.2021
6330 Clouds 26 1008 87 10000 0.76 119 18:29 19.12.2021
6331 Clouds 26 1008 87 10000 0.76 119 17:52 19.12.2021
6332 Clouds 26 1008 87 10000 0.84 137 17:19 19.12.2021
6333 Clouds 26 1009 87 10000 0.71 153 16:26 19.12.2021
6334 Clouds 25 1009 92 10000 1.12 248 15:31 19.12.2021
6335 Clouds 25 1009 90 10000 1.26 262 14:59 19.12.2021
6336 Clouds 25 1009 90 10000 1.26 262 14:36 19.12.2021
6337 Clouds 26 1011 89 10000 0.75 210 13:22 19.12.2021
6338 Clouds 26 1011 89 10000 0.75 210 12:33 19.12.2021
6339 Clouds 26 1011 89 10000 0.7 184 11:44 19.12.2021
6340 Clouds 26 1010 89 10000 0.87 169 10:58 19.12.2021
6341 Clouds 26 1010 90 10000 0.74 176 10:25 19.12.2021
6342 Clouds 26 1009 90 10000 0.48 205 09:26 19.12.2021
6343 Clouds 26 1009 90 10000 0.33 262 07:50 19.12.2021
6344 Rain 27 1007 87 10000 0.4 223 04:44 19.12.2021
6345 Rain 29 1009 78 10000 0.43 344 00:55 19.12.2021
6346 Rain 27 1010 87 10000 0.48 335 23:52 18.12.2021
6347 Rain 27 1010 86 10000 0.74 339 22:31 18.12.2021
6348 Rain 26 1009 86 10000 0.3 278 21:54 18.12.2021
6349 Rain 26 1009 86 10000 0.3 278 21:33 18.12.2021
6350 Clouds 26 1009 87 10000 0.64 217 20:43 18.12.2021
6351 Clouds 26 1008 88 10000 0.93 221 19:50 18.12.2021
6352 Clouds 26 1007 88 10000 0.77 230 19:19 18.12.2021
6353 Clouds 26 1007 89 10000 0.94 247 18:18 18.12.2021
6354 Clouds 26 1007 89 10000 0.94 247 17:46 18.12.2021
6355 Clouds 26 1007 88 10000 0.51 217 16:22 18.12.2021
6356 Clouds 26 1008 89 10000 0.69 222 15:25 18.12.2021
6357 Clouds 26 1009 89 10000 0.77 201 14:19 18.12.2021
6358 Clouds 26 1009 91 10000 0.53 37 12:21 18.12.2021
6359 Clouds 26 1009 92 10000 0.89 350 10:43 18.12.2021
6360 Clouds 26 1009 92 10000 1.1 342 09:32 18.12.2021
6361 Clouds 26 1008 91 10000 1.31 339 08:37 18.12.2021
6362 Clouds 26 1007 91 10000 1.37 321 07:42 18.12.2021
6363 Clouds 28 1007 84 10000 2.31 29 01:48 18.12.2021
6364 Clouds 29 1008 80 10000 1.65 55 00:23 18.12.2021
6365 Rain 29 1008 80 10000 1.65 55 23:35 17.12.2021
6366 Clouds 27 1008 84 10000 1.48 107 21:50 17.12.2021
6367 Clouds 26 1008 87 10000 1.94 121 20:49 17.12.2021
6368 Clouds 25 1007 89 10000 2.1 128 19:58 17.12.2021
6369 Clouds 26 1007 88 10000 2 139 18:40 17.12.2021
6370 Clouds 26 1006 88 10000 1.87 143 18:18 17.12.2021
6371 Clouds 26 1006 88 10000 1.85 149 16:57 17.12.2021
6372 Clouds 26 1006 89 10000 2 153 16:28 17.12.2021
6373 Rain 26 1006 89 10000 2 153 15:51 17.12.2021
6374 Clouds 26 1007 89 10000 1.96 152 14:43 17.12.2021
6375 Clouds 26 1008 89 10000 1.54 142 13:55 17.12.2021
6376 Clouds 26 1009 88 10000 1.86 137 12:37 17.12.2021
6377 Rain 27 1008 87 10000 1.18 118 10:42 17.12.2021
6378 Rain 27 1008 87 10000 1.18 118 10:42 17.12.2021
6379 Rain 27 1008 86 10000 1.15 110 09:47 17.12.2021
6380 Rain 27 1007 86 10000 1.01 86 08:32 17.12.2021
6381 Rain 28 1007 87 9725 1.22 72 07:38 17.12.2021
6382 Clouds 29 1005 79 10000 0.84 86 04:41 17.12.2021
6383 Clouds 30 1008 70 10000 0.27 56 00:28 17.12.2021
6384 Clouds 28 1008 81 10000 1.64 201 22:25 16.12.2021
6385 Clouds 28 1008 81 10000 1.64 201 21:55 16.12.2021
6386 Clouds 28 1008 81 10000 1.64 201 21:36 16.12.2021
6387 Clouds 26 1008 87 10000 1.98 205 20:40 16.12.2021
6388 Clouds 26 1007 88 10000 2.39 208 19:52 16.12.2021
6389 Clouds 26 1007 88 10000 2.75 214 18:45 16.12.2021
6390 Clouds 26 1007 89 10000 2.46 230 18:26 16.12.2021
6391 Clouds 26 1007 89 10000 2.46 230 17:35 16.12.2021
6392 Clouds 26 1008 89 10000 2.33 259 16:23 16.12.2021
6393 Clouds 26 1009 89 10000 2.55 268 15:22 16.12.2021
6394 Clouds 26 1010 89 10000 2.6 271 13:44 16.12.2021
6395 Clouds 26 1010 91 10000 2.73 276 11:48 16.12.2021
6396 Clouds 26 1010 92 10000 2.75 285 11:18 16.12.2021
6397 Clouds 26 1010 92 10000 2.75 285 10:32 16.12.2021
6398 Rain 26 1009 92 10000 3.55 315 08:56 16.12.2021
6399 Rain 26 1007 91 9264 3.28 306 06:23 16.12.2021
6400 Clouds 29 1007 79 9117 1.81 316 03:19 16.12.2021
6401 Clouds 29 1008 80 10000 0.64 6 23:36 15.12.2021
6402 Clouds 27 1008 85 10000 0.36 190 22:49 15.12.2021
6403 Clouds 26 1008 90 10000 1.16 161 21:58 15.12.2021
6404 Rain 25 1008 93 9659 1.92 194 21:28 15.12.2021
6405 Clouds 25 1008 93 9659 1.92 194 20:31 15.12.2021
6406 Clouds 25 1007 92 7385 2.07 237 19:52 15.12.2021
6407 Clouds 26 1007 88 10000 2.02 222 18:39 15.12.2021
6408 Clouds 26 1006 87 10000 2.06 229 17:56 15.12.2021
6409 Clouds 26 1006 87 10000 2.06 229 17:37 15.12.2021
6410 Clouds 26 1006 88 10000 2.12 230 16:35 15.12.2021
6411 Clouds 26 1006 85 10000 1.99 236 15:47 15.12.2021
6412 Clouds 26 1006 85 10000 1.99 236 15:47 15.12.2021
6413 Clouds 26 1007 85 10000 2 231 15:28 15.12.2021
6414 Clouds 26 1007 86 10000 2.21 245 14:42 15.12.2021
6415 Rain 26 1008 87 10000 2.09 240 12:46 15.12.2021
6416 Rain 27 1008 87 10000 2.45 249 10:44 15.12.2021
6417 Rain 27 1007 86 10000 2.66 262 08:55 15.12.2021
6418 Clouds 28 1006 83 10000 2.88 269 07:43 15.12.2021
6419 Clouds 29 1007 80 10000 3.68 301 01:35 15.12.2021
6420 Clouds 29 1008 79 10000 3.18 308 23:42 14.12.2021
6421 Clouds 29 1008 80 10000 2.78 305 22:49 14.12.2021
6422 Clouds 28 1008 82 10000 2.44 297 22:24 14.12.2021
6423 Clouds 27 1008 87 10000 2.14 287 20:55 14.12.2021
6424 Clouds 26 1007 89 10000 1.98 280 19:44 14.12.2021
6425 Clouds 26 1007 88 10000 1.67 272 19:19 14.12.2021
6426 Clouds 26 1006 88 10000 1.52 277 18:25 14.12.2021
6427 Clouds 26 1006 88 10000 1.52 277 17:33 14.12.2021
6428 Clouds 26 1006 88 10000 1.26 283 16:40 14.12.2021
6429 Clouds 26 1006 89 10000 0.84 276 15:36 14.12.2021
6430 Clouds 26 1008 89 10000 0.77 316 13:31 14.12.2021
6431 Clouds 26 1008 89 10000 0.42 332 11:59 14.12.2021
6432 Clouds 26 1008 89 10000 0.53 298 11:24 14.12.2021
6433 Clouds 27 1008 87 10000 0.84 291 10:23 14.12.2021
6434 Clouds 27 1008 87 10000 0.84 291 09:43 14.12.2021
6435 Rain 28 1006 82 10000 1.66 324 08:27 14.12.2021
6436 Rain 28 1006 82 10000 1.66 324 07:43 14.12.2021
6437 Rain 28 1006 84 9640 2.45 322 02:37 14.12.2021
6438 Rain 28 1008 83 7725 2.53 318 22:56 13.12.2021
6439 Rain 28 1008 85 10000 2.01 311 21:53 13.12.2021
6440 Clouds 27 1007 88 10000 1.78 303 21:18 13.12.2021
6441 Rain 27 1007 88 10000 1.78 303 20:38 13.12.2021
6442 Clouds 27 1007 89 10000 1.97 301 19:52 13.12.2021
6443 Clouds 26 1005 89 10000 2.24 280 17:56 13.12.2021
6444 Clouds 26 1005 88 10000 2.3 279 17:26 13.12.2021
6445 Clouds 26 1005 89 10000 2.42 274 15:51 13.12.2021
6446 Clouds 26 1006 90 10000 2.38 270 15:20 13.12.2021
6447 Clouds 27 1007 90 10000 2.25 276 13:39 13.12.2021
6448 Clouds 27 1007 90 10000 1.92 280 12:46 13.12.2021
6449 Clouds 27 1007 90 10000 1.92 280 12:46 13.12.2021
6450 Rain 27 1007 90 10000 1.74 277 11:54 13.12.2021
6451 Rain 27 1007 90 10000 1.74 277 11:35 13.12.2021
6452 Clouds 27 1007 90 10000 1.5 285 10:43 13.12.2021
6453 Clouds 27 1006 86 9389 1.25 339 08:57 13.12.2021
6454 Clouds 29 1005 81 10000 1.77 352 07:38 13.12.2021
6455 Clouds 31 1004 70 10000 2.54 348 05:34 13.12.2021
6456 Clouds 30 1007 79 10000 3.04 356 00:43 13.12.2021
6457 Clouds 28 1007 86 10000 2.08 11 22:22 12.12.2021
6458 Clouds 28 1007 86 10000 2.08 11 21:35 12.12.2021
6459 Clouds 26 1007 90 10000 1.63 12 19:40 12.12.2021
6460 Clouds 26 1006 91 7642 2.58 10 18:35 12.12.2021
6461 Clouds 26 1006 91 10000 2.27 33 16:58 12.12.2021
6462 Clouds 26 1006 92 10000 2.09 47 16:27 12.12.2021
6463 Rain 26 1006 92 10000 2.09 47 15:41 12.12.2021
6464 Clouds 26 1007 92 10000 1.91 56 15:21 12.12.2021
6465 Rain 26 1008 93 10000 1.83 66 14:28 12.12.2021
6466 Rain 26 1008 93 8773 1.76 60 12:55 12.12.2021
6467 Rain 26 1008 94 3922 1.7 59 12:26 12.12.2021
6468 Clouds 26 1008 94 3922 1.7 59 11:43 12.12.2021
6469 Rain 26 1009 94 6532 1.86 45 10:45 12.12.2021
6470 Clouds 26 1009 94 4832 2.01 33 10:22 12.12.2021
6471 Rain 26 1008 93 5118 2.3 30 08:53 12.12.2021
6472 Rain 27 1007 91 8100 2.6 25 07:31 12.12.2021
6473 Rain 28 1005 80 10000 2.09 9 05:56 12.12.2021
6474 Rain 29 1006 80 10000 2.22 7 04:55 12.12.2021
6475 Rain 29 1007 80 8967 2.74 0 02:52 12.12.2021
6476 Clouds 29 1008 81 10000 1.89 316 23:28 11.12.2021
6477 Clouds 28 1008 84 10000 1.94 289 22:21 11.12.2021
6478 Clouds 28 1008 84 10000 1.94 289 21:47 11.12.2021
6479 Clouds 26 1007 90 10000 1 265 20:20 11.12.2021
6480 Rain 26 1006 90 10000 1.16 294 19:21 11.12.2021
6481 Rain 26 1006 90 10000 1.16 294 19:21 11.12.2021
6482 Rain 26 1006 90 10000 1.16 294 18:49 11.12.2021
6483 Rain 26 1005 88 10000 0.27 263 17:56 11.12.2021
6484 Rain 26 1005 88 10000 0.31 247 16:39 11.12.2021
6485 Rain 26 1006 88 10000 0.05 200 15:46 11.12.2021
6486 Rain 26 1006 87 10000 0.26 22 14:46 11.12.2021
6487 Rain 26 1008 86 10000 0.61 262 12:41 11.12.2021
6488 Rain 26 1008 86 10000 0.47 242 10:58 11.12.2021
6489 Rain 26 1008 88 10000 1.31 212 09:44 11.12.2021
6490 Rain 29 1006 80 8007 2.03 13 03:58 11.12.2021
6491 Clouds 30 1008 78 10000 2.25 26 00:50 11.12.2021
6492 Rain 29 1008 79 10000 1.91 32 23:44 10.12.2021
6493 Rain 29 1008 81 10000 1.63 45 22:50 10.12.2021
6494 Rain 28 1008 86 10000 1.29 58 21:51 10.12.2021
6495 Rain 27 1008 89 10000 0.89 54 20:32 10.12.2021
6496 Rain 26 1005 90 10000 1.24 39 19:19 10.12.2021
6497 Clouds 26 1005 90 10000 1.37 46 17:50 10.12.2021
6498 Clouds 27 1005 89 10000 1.31 47 16:39 10.12.2021
6499 Clouds 27 1006 89 10000 1.49 34 15:45 10.12.2021
6500 Clouds 27 1007 90 10000 1.78 26 15:27 10.12.2021
6501 Clouds 27 1007 90 10000 1.78 26 14:49 10.12.2021
6502 Clouds 27 1008 90 10000 1.98 30 13:50 10.12.2021
6503 Clouds 27 1008 89 10000 1.98 28 12:56 10.12.2021
6504 Clouds 27 1008 87 10000 1.58 28 11:43 10.12.2021
6505 Clouds 27 1008 87 10000 1.51 29 11:19 10.12.2021
6506 Clouds 27 1007 86 10000 1.5 25 09:49 10.12.2021
6507 Clouds 29 1006 82 10000 1.91 19 07:49 10.12.2021
6508 Clouds 30 1004 73 10000 2.13 16 04:57 10.12.2021
6509 Clouds 30 1006 74 10000 2.19 5 02:44 10.12.2021
6510 Clouds 29 1008 78 10000 1.63 18 23:43 09.12.2021
6511 Clouds 28 1008 83 10000 0.91 44 22:43 09.12.2021
6512 Rain 27 1008 86 10000 0.88 92 22:22 09.12.2021
6513 Clouds 27 1008 86 10000 0.88 92 21:40 09.12.2021
6514 Rain 27 1007 88 10000 0.65 116 20:36 09.12.2021
6515 Rain 26 1006 89 10000 1.13 112 19:43 09.12.2021
6516 Rain 26 1006 89 10000 1.21 109 19:20 09.12.2021
6517 Rain 26 1006 89 10000 0.93 135 18:22 09.12.2021
6518 Rain 26 1006 89 10000 0.93 135 17:48 09.12.2021
6519 Rain 26 1006 88 10000 0.75 114 17:24 09.12.2021
6520 Clouds 26 1006 88 10000 0.75 114 16:36 09.12.2021
6521 Rain 26 1007 88 10000 1.03 143 15:19 09.12.2021
6522 Rain 26 1007 90 10000 1.76 132 14:36 09.12.2021
6523 Rain 26 1008 89 10000 1.17 136 12:48 09.12.2021
6524 Rain 26 1009 88 10000 0.77 179 11:51 09.12.2021
6525 Rain 27 1008 88 10000 1.21 285 10:28 09.12.2021
6526 Clouds 27 1006 87 10000 1.17 292 07:34 09.12.2021
6527 Clouds 30 1006 75 10000 1.92 20 03:56 09.12.2021
6528 Rain 27 1009 89 10000 0.64 55 00:25 09.12.2021
6529 Clouds 27 1009 89 10000 0.64 55 23:37 08.12.2021
6530 Clouds 27 1009 89 10000 0.92 54 22:57 08.12.2021
6531 Rain 26 1009 90 9106 1.59 51 22:25 08.12.2021
6532 Rain 26 1009 90 9106 1.59 51 21:33 08.12.2021
6533 Rain 26 1008 91 6494 1.39 43 20:50 08.12.2021
6534 Clouds 26 1008 91 7477 1.59 30 19:56 08.12.2021
6535 Clouds 26 1007 91 6457 1.74 24 18:58 08.12.2021
6536 Clouds 26 1007 90 8074 0.92 29 18:22 08.12.2021
6537 Clouds 26 1007 90 6070 1.53 38 16:53 08.12.2021
6538 Clouds 26 1007 89 10000 1.15 51 15:41 08.12.2021
6539 Clouds 26 1008 88 10000 0.97 68 15:22 08.12.2021
6540 Rain 26 1010 88 10000 0.99 88 13:21 08.12.2021
6541 Rain 26 1010 91 10000 1.16 45 10:44 08.12.2021
6542 Rain 26 1009 90 10000 1.13 32 09:32 08.12.2021
6543 Rain 26 1008 90 10000 1.09 25 08:31 08.12.2021
6544 Clouds 26 1007 93 6248 1.99 340 05:37 08.12.2021
6545 Clouds 26 1010 95 1485 2.83 7 00:27 08.12.2021
6546 Clouds 26 1010 94 10000 2.89 11 22:52 07.12.2021
6547 Clouds 26 1009 92 10000 1.14 359 21:25 07.12.2021
6548 Clouds 26 1008 93 3642 0.41 347 20:25 07.12.2021
6549 Clouds 26 1008 93 3642 0.41 347 20:25 07.12.2021
6550 Clouds 25 1008 95 5160 0.5 302 18:59 07.12.2021
6551 Clouds 25 1007 96 4109 0.54 334 18:20 07.12.2021
6552 Clouds 25 1007 96 3583 1.21 334 17:23 07.12.2021
6553 Clouds 25 1007 96 3583 1.21 334 16:41 07.12.2021
6554 Clouds 25 1007 96 1381 1.65 346 15:59 07.12.2021
6555 Clouds 25 1008 96 1336 1.72 13 14:37 07.12.2021
6556 Clouds 25 1009 95 1626 1.82 42 13:38 07.12.2021
6557 Clouds 25 1010 95 10000 1.72 77 12:22 07.12.2021
6558 Rain 25 1009 95 4175 1.71 77 10:48 07.12.2021
6559 Rain 26 1008 93 10000 1.99 69 09:20 07.12.2021
6560 Rain 26 1006 93 10000 1.11 33 06:40 07.12.2021
6561 Rain 27 1006 91 10000 1.43 35 05:47 07.12.2021
6562 Clouds 29 1007 82 10000 2.02 31 01:43 07.12.2021
6563 Clouds 28 1009 84 10000 2.12 51 23:21 06.12.2021
6564 Clouds 28 1009 84 10000 2.12 51 22:40 06.12.2021
6565 Clouds 27 1008 86 10000 2.21 53 21:58 06.12.2021
6566 Clouds 26 1008 89 10000 2.06 53 21:20 06.12.2021
6567 Clouds 26 1008 89 10000 2.06 53 20:30 06.12.2021
6568 Clouds 26 1006 89 10000 2 43 19:24 06.12.2021
6569 Clouds 26 1005 89 10000 1.86 32 18:29 06.12.2021
6570 Clouds 26 1005 89 10000 1.86 32 17:52 06.12.2021
6571 Rain 27 1005 89 10000 2.11 29 17:20 06.12.2021
6572 Clouds 27 1006 89 10000 2.29 26 15:49 06.12.2021
6573 Rain 26 1007 92 2880 3.4 34 13:47 06.12.2021
6574 Rain 26 1008 92 5060 3.41 31 12:40 06.12.2021
6575 Clouds 26 1008 91 10000 3.54 34 11:54 06.12.2021
6576 Rain 26 1008 90 5801 3.5 37 09:37 06.12.2021
6577 Rain 27 1007 88 10000 3.98 6 06:59 06.12.2021
6578 Clouds 29 1007 78 10000 2.84 7 00:33 06.12.2021
6579 Clouds 28 1007 80 10000 0.76 140 21:53 05.12.2021
6580 Rain 27 1006 86 10000 0.75 123 21:25 05.12.2021
6581 Rain 25 1005 87 10000 1.29 159 20:20 05.12.2021
6582 Clouds 25 1005 87 10000 1.29 159 19:49 05.12.2021
6583 Clouds 26 1005 88 10000 1.61 153 19:21 05.12.2021
6584 Clouds 26 1005 88 10000 1.56 130 18:20 05.12.2021
6585 Clouds 26 1005 88 10000 1.56 130 17:49 05.12.2021
6586 Clouds 26 1005 88 10000 1.51 133 16:52 05.12.2021
6587 Clouds 26 1005 88 10000 1.47 135 16:27 05.12.2021
6588 Clouds 26 1005 88 10000 1.47 135 15:58 05.12.2021
6589 Clouds 26 1005 87 10000 1.26 122 14:45 05.12.2021
6590 Clouds 26 1006 87 10000 1.24 134 14:26 05.12.2021
6591 Clouds 26 1007 87 10000 0.88 147 13:27 05.12.2021
6592 Clouds 26 1007 87 10000 0.96 155 12:40 05.12.2021
6593 Clouds 26 1007 86 10000 0.6 143 12:18 05.12.2021
6594 Clouds 26 1007 86 10000 0.6 143 11:34 05.12.2021
6595 Clouds 27 1006 86 10000 0.32 222 10:19 05.12.2021
6596 Clouds 27 1006 85 10000 0.81 301 08:45 05.12.2021
6597 Clouds 29 1003 79 10000 1.48 301 04:56 05.12.2021
6598 Clouds 31 1005 69 10000 2.27 329 00:48 05.12.2021
6599 Clouds 28 1007 77 10000 0.99 217 22:24 04.12.2021
6600 Clouds 27 1006 84 10000 1.37 215 21:20 04.12.2021
6601 Clouds 26 1006 86 10000 1.38 210 20:27 04.12.2021
6602 Clouds 26 1006 86 10000 1.38 210 19:32 04.12.2021
6603 Clouds 26 1004 87 10000 1.22 188 18:22 04.12.2021
6604 Clouds 26 1004 87 10000 1.22 188 17:42 04.12.2021
6605 Clouds 26 1004 87 10000 1.02 204 17:19 04.12.2021
6606 Clouds 26 1004 87 10000 1.02 204 16:42 04.12.2021
6607 Clouds 26 1004 87 10000 0.85 203 16:23 04.12.2021
6608 Clouds 26 1007 87 10000 0.86 248 11:55 04.12.2021
6609 Clouds 26 1007 87 10000 0.86 248 11:33 04.12.2021
6610 Clouds 26 1007 88 10000 0.87 256 10:56 04.12.2021
6611 Rain 27 1005 85 10000 0.49 247 08:49 04.12.2021
6612 Rain 28 1004 82 10000 1.77 272 06:42 04.12.2021
6613 Rain 29 1004 78 10000 2.33 291 04:42 04.12.2021
6614 Clouds 30 1007 69 10000 1.55 336 00:35 04.12.2021
6615 Clouds 29 1008 72 10000 0.65 323 23:27 03.12.2021
6616 Clouds 29 1008 72 10000 0.65 323 22:47 03.12.2021
6617 Clouds 26 1008 83 10000 0.68 186 21:26 03.12.2021
6618 Clouds 26 1008 83 10000 0.68 186 20:54 03.12.2021
6619 Clouds 25 1007 86 10000 1.1 176 19:53 03.12.2021
6620 Clouds 25 1006 86 10000 1.28 168 18:44 03.12.2021
6621 Clouds 25 1006 86 10000 1.22 156 17:59 03.12.2021
6622 Clouds 26 1006 86 10000 1.28 164 16:33 03.12.2021
6623 Clouds 26 1008 88 10000 1.86 155 12:59 03.12.2021
6624 Clouds 26 1008 87 10000 1.95 155 12:19 03.12.2021
6625 Clouds 26 1009 87 10000 1.73 153 10:55 03.12.2021
6626 Clouds 28 10